GFSSGP_sfc_wetblb_000.txt.gz
Wetbulb
53.77 49.98 48.99 47.10 39.71 36.29 31.85 36.73 40.15 41.97 45.14 54.91 58.48 56.28 54.13 54.88 53.23 49.31 63.97 64.96 63.88 63.39 65.79 67.62 69.27 70.63 71.60 72.11 72.26 72.32 72.85 73.02 72.60 72.09 71.41 70.76 70.05 69.53 69.42 69.21 66.95 65.65 66.51 65.93 66.58 68.57 68.70 69.06 67.96
52.07 52.07 45.63 42.03 35.36 31.49 34.57 39.43 40.16 43.19 52.38 56.02 55.81 57.79 56.53 56.23 61.43 62.31 62.96 64.81 64.45 64.73 67.05 67.49 69.18 70.08 70.83 70.83 71.21 71.48 71.64 71.61 72.05 71.45 71.01 70.71 69.99 69.71 69.20 67.04 65.38 64.58 64.31 66.20 67.84 67.39 66.37 67.53 65.47
51.36 51.73 41.25 37.62 33.36 33.66 35.37 40.88 41.72 47.49 53.69 50.14 56.01 57.97 58.38 56.23 62.11 63.19 65.02 65.34 65.35 65.48 66.88 67.46 68.01 69.32 70.47 70.46 70.62 70.57 70.65 70.77 71.29 70.76 70.78 70.47 70.02 69.53 68.62 65.98 65.68 65.17 65.29 66.35 67.43 67.91 66.73 65.83 64.60
49.04 44.38 40.87 35.72 33.01 36.55 39.73 42.05 43.52 45.54 54.67 56.43 56.76 54.66 59.68 61.26 62.02 65.02 66.43 65.24 64.64 64.28 65.23 67.06 67.73 68.63 70.03 70.29 69.99 70.15 70.23 69.87 70.30 70.95 70.48 69.82 69.29 68.60 68.37 66.36 65.69 65.98 66.43 66.88 67.63 66.81 67.78 65.28 65.01
45.79 40.28 35.45 33.49 34.81 39.52 40.86 43.14 46.22 50.30 51.91 53.92 54.35 51.41 56.34 61.03 64.22 65.88 65.22 65.97 64.70 64.57 66.14 66.99 67.24 68.27 68.88 68.95 69.04 69.45 69.63 69.62 69.66 69.93 69.94 69.15 68.47 67.14 65.57 65.54 66.33 66.87 66.21 66.95 66.75 68.32 66.80 66.24 66.24
40.69 39.81 33.69 31.62 35.06 40.18 41.14 43.44 45.95 47.89 51.22 52.79 53.74 53.91 54.60 62.37 61.92 64.50 66.01 66.02 66.49 65.43 66.52 66.79 67.96 67.64 67.69 67.88 67.81 67.76 68.11 68.64 69.03 68.77 68.64 68.71 68.12 67.56 67.23 67.05 67.07 65.81 65.11 64.22 64.57 64.68 65.68 64.07 64.68
39.61 36.18 32.43 33.59 35.33 38.05 41.13 42.60 42.30 42.55 42.54 48.61 53.39 51.07 55.49 57.75 62.36 63.30 64.90 65.40 66.65 65.90 65.68 65.70 65.99 66.25 66.33 65.99 65.89 65.74 66.70 67.56 68.20 67.73 67.33 66.75 66.59 66.90 65.93 65.52 65.53 65.19 65.87 66.38 66.55 65.02 64.76 65.55 66.08
40.72 37.64 33.04 32.79 35.60 35.49 41.15 42.13 43.08 43.66 40.37 53.07 52.64 49.16 48.42 57.78 60.58 62.64 61.61 63.68 64.65 66.10 65.54 64.23 64.58 63.91 62.00 61.85 64.98 65.29 65.42 66.47 67.20 66.73 66.01 65.08 65.26 65.28 64.52 64.14 64.48 63.85 63.71 63.27 63.25 64.35 64.93 65.11 64.68
41.23 35.90 33.47 34.46 36.52 38.01 40.19 40.17 42.76 44.61 43.94 45.38 50.26 53.05 54.47 58.32 62.36 60.67 59.40 59.52 60.16 63.68 65.18 64.90 64.79 64.18 61.82 60.92 63.40 65.12 65.81 65.89 66.39 66.86 65.34 63.60 61.70 61.52 61.12 61.91 63.75 62.86 62.66 61.84 61.17 61.18 62.01 61.38 60.96
40.00 34.07 36.30 40.56 40.29 36.48 38.90 39.97 41.21 41.51 43.86 44.86 52.10 54.75 57.03 61.19 60.44 59.86 58.19 57.56 57.48 59.04 60.29 61.30 62.63 63.03 62.73 63.65 63.16 62.46 64.39 63.78 63.70 64.03 63.72 62.21 60.15 59.39 60.24 61.74 62.75 61.52 61.42 61.09 60.80 60.65 60.27 58.23 56.17
42.76 38.12 41.50 42.69 42.81 41.23 40.17 42.76 43.94 41.08 40.26 44.79 51.45 52.48 56.30 58.43 58.71 58.94 57.56 58.50 55.96 55.64 57.31 59.26 60.58 61.07 60.23 61.20 62.37 62.65 62.23 62.23 62.26 61.21 60.90 59.37 58.74 58.71 58.74 58.10 58.38 56.96 59.02 56.46 57.17 56.28 55.66 55.22 55.56
40.71 43.52 44.47 43.52 43.52 42.60 41.35 44.51 43.77 44.00 43.30 48.40 50.91 55.44 55.52 56.93 57.69 57.37 54.07 55.42 53.45 53.07 54.70 58.07 59.28 59.48 58.73 58.54 61.44 60.83 60.64 61.03 59.93 59.68 59.18 58.25 57.44 56.42 56.92 56.52 57.30 56.10 55.94 55.04 54.78 54.55 54.32 52.85 53.47
42.83 43.50 45.26 46.45 45.92 44.06 45.85 43.17 44.00 42.95 45.16 47.48 49.97 51.35 52.13 53.23 52.20 53.38 53.69 52.84 52.04 51.73 53.32 56.11 57.87 58.82 58.29 56.33 54.61 54.50 54.58 55.66 55.25 55.53 56.14 58.49 57.26 56.48 56.80 56.70 55.92 55.34 55.52 55.00 53.85 54.49 57.09 56.12 56.41
46.71 45.80 45.62 46.25 45.75 45.54 44.22 43.27 42.89 45.53 43.96 46.85 49.40 48.52 48.84 49.80 50.89 50.10 48.90 49.51 50.09 51.30 52.40 55.16 56.13 57.53 57.75 55.62 54.19 52.58 52.39 52.08 52.53 53.77 54.60 56.52 55.54 54.34 55.40 55.62 55.60 53.71 53.32 52.86 52.01 51.07 50.65 50.93 52.18
47.31 43.20 44.77 45.53 44.50 43.85 43.97 38.94 40.24 44.72 44.98 46.29 46.55 47.93 48.79 49.68 49.89 50.47 50.23 49.22 49.76 50.06 51.17 52.77 53.97 55.00 54.20 55.65 54.58 52.98 51.64 51.39 51.74 52.68 53.26 54.15 52.32 50.25 50.05 49.92 51.58 51.74 51.96 52.23 51.29 49.50 49.58 48.72 50.91
43.62 41.80 37.71 43.66 45.32 44.39 41.23 36.77 43.12 43.40 44.51 44.41 45.00 45.53 47.50 48.57 49.62 49.71 49.84 49.41 48.93 48.92 50.55 50.64 54.40 53.11 52.39 53.78 53.66 53.38 51.66 49.54 50.34 52.02 51.93 52.24 52.78 51.34 49.81 48.79 48.00 47.42 47.74 49.22 44.41 44.25 44.20 43.82 44.09
38.93 34.33 36.98 41.31 44.26 42.42 39.85 38.06 43.54 44.80 44.15 44.19 43.37 43.17 44.74 45.44 46.94 47.83 48.36 46.87 47.78 48.74 48.97 46.99 49.52 50.05 49.63 49.40 49.77 48.84 49.79 47.88 48.22 51.40 51.45 51.69 51.77 50.97 48.82 49.41 47.91 46.92 46.97 45.68 45.04 44.24 43.90 42.62 43.10
34.72 35.24 34.54 35.41 41.05 42.04 39.95 39.81 42.94 43.83 42.92 43.42 41.29 42.84 44.26 45.74 46.37 48.38 48.12 47.75 46.98 46.83 47.47 46.88 45.96 47.04 48.45 47.61 46.51 45.77 46.12 46.32 46.29 49.21 50.92 51.33 50.46 50.05 47.05 48.49 47.78 46.50 45.84 45.16 44.46 43.73 43.80 43.62 42.84
39.64 37.28 36.22 38.51 42.74 42.29 40.22 39.37 42.38 42.47 40.43 41.21 41.62 42.54 43.29 45.01 45.53 46.27 46.40 46.40 45.95 46.01 46.55 46.93 46.91 46.63 45.94 44.86 44.43 43.66 43.85 45.06 45.28 46.32 50.66 50.40 49.60 49.37 46.56 46.05 47.56 47.09 45.22 45.17 44.37 43.47 43.08 42.08 42.43
40.27 38.00 36.86 40.30 43.74 41.68 40.68 40.02 39.58 41.09 40.25 41.73 42.74 42.81 43.70 43.98 45.62 46.92 46.50 43.92 45.65 45.79 45.88 45.97 46.32 46.42 46.06 44.74 44.54 44.75 43.78 44.26 45.38 45.88 46.11 49.05 49.01 47.72 46.98 45.66 45.93 45.76 44.81 43.91 44.13 44.18 42.49 42.39 42.30
38.27 37.73 37.41 38.37 41.12 40.93 40.47 38.19 38.73 42.08 43.07 43.82 43.50 43.65 44.29 44.59 45.32 45.80 46.92 45.12 44.50 45.47 45.79 46.62 46.46 46.26 46.49 46.14 44.56 43.94 43.64 43.54 43.80 43.92 44.40 46.21 47.69 48.19 47.15 46.05 45.22 44.22 43.78 43.10 43.06 42.52 41.81 40.17 41.60
36.02 41.58 41.52 40.07 37.66 32.85 39.74 31.16 37.42 39.29 40.18 42.18 42.98 42.63 43.39 45.01 45.58 45.53 45.02 44.63 45.33 46.16 45.52 45.95 46.97 46.81 46.78 46.29 44.22 43.44 45.47 44.90 46.32 46.57 43.84 45.24 47.40 47.13 46.73 46.25 45.26 44.19 43.92 43.29 43.37 43.65 42.03 41.11 39.19
39.55 42.97 41.62 40.62 36.58 35.11 37.12 32.60 36.73 39.60 38.73 41.19 41.03 43.13 42.61 43.08 44.23 43.79 43.69 44.67 45.59 46.28 46.32 46.50 46.83 46.98 48.03 47.34 45.97 44.66 44.08 45.64 46.57 43.00 42.79 42.91 44.23 45.76 46.29 45.69 44.65 44.03 44.08 42.72 41.10 40.69 39.17 40.57 38.90
44.76 42.37 40.74 39.74 36.60 29.05 35.38 33.31 33.72 37.28 39.72 40.92 42.39 43.06 44.20 43.08 43.34 45.33 45.74 46.05 46.25 46.53 46.43 47.71 47.08 47.59 48.03 47.71 47.02 44.91 43.74 45.35 43.94 43.91 43.37 43.13 41.65 41.55 42.89 43.13 42.19 41.42 40.74 40.37 39.82 39.94 37.77 38.11 38.74
41.21 36.52 27.70 26.33 25.60 26.29 37.84 33.81 34.55 39.44 42.39 43.21 43.22 42.04 42.16 43.79 44.09 43.99 44.98 45.34 45.66 45.55 45.90 46.59 46.57 47.75 49.01 46.82 46.68 46.47 45.46 45.36 44.36 44.69 44.15 43.46 41.75 41.04 40.62 41.04 40.78 40.15 39.49 39.91 39.39 40.55 40.26 38.40 37.40
38.96 37.83 27.65 23.74 22.09 26.93 36.29 31.22 36.26 42.45 43.20 43.81 43.70 43.96 45.27 42.74 45.02 44.58 45.35 45.44 45.76 46.09 46.13 46.91 47.50 46.37 46.70 46.20 46.30 45.02 44.80 44.43 44.25 42.89 42.03 39.68 41.11 40.30 40.29 39.18 39.75 40.79 40.97 40.39 40.68 41.09 40.57 39.47 36.88
40.04 34.43 39.75 31.40 23.97 24.15 30.89 36.78 41.26 42.16 44.16 43.95 43.18 44.07 43.79 43.66 43.90 44.65 45.78 45.68 44.67 44.51 45.10 45.28 44.95 46.03 46.04 44.93 42.97 40.92 40.35 40.50 38.17 37.54 38.68 39.42 39.40 39.99 39.74 40.71 41.52 42.31 42.82 42.13 40.21 37.94 37.66 38.35 37.73
41.09 42.49 32.91 30.40 20.72 25.13 30.26 31.85 33.60 40.00 42.40 44.10 42.09 41.30 42.62 42.96 43.95 44.97 44.75 45.05 44.98 44.42 44.91 45.38 45.35 45.34 44.92 41.12 40.59 39.07 37.93 38.23 38.13 38.06 37.43 37.59 38.85 40.90 41.67 42.34 42.46 42.94 41.33 40.01 38.94 37.92 36.67 36.16 36.52
37.21 35.52 37.58 38.14 31.92 26.87 25.09 30.04 39.07 41.55 42.60 43.15 43.74 42.81 41.32 42.67 42.71 43.58 45.55 46.66 47.16 46.99 46.34 44.99 43.92 43.53 40.21 39.18 39.17 38.04 37.22 37.65 36.91 36.59 36.85 37.28 38.34 39.59 40.36 40.33 39.64 39.47 39.10 38.55 37.01 35.81 35.70 35.02 34.88
40.86 38.66 37.83 27.56 30.24 29.20 27.51 32.45 44.22 42.49 44.91 42.93 42.09 43.00 43.24 42.24 42.93 43.61 44.47 44.88 44.60 44.27 43.50 43.80 43.64 40.35 39.10 39.09 38.36 37.49 36.43 35.44 35.04 35.59 36.26 36.93 37.20 38.40 37.99 37.77 37.62 37.61 37.09 36.64 35.41 34.31 34.12 32.56 31.86

GFSSGP_sfc_wetblb_003.txt.gz
Wetbulb
55.17 49.59 48.66 46.72 40.17 35.75 32.10 35.51 39.89 40.00 50.84 55.02 55.66 54.26 52.43 54.03 51.66 45.06 63.74 62.85 62.28 63.79 66.16 67.68 69.76 71.36 71.87 72.17 72.54 72.97 73.16 72.34 71.47 70.99 70.48 69.75 69.22 69.32 69.62 68.60 66.40 65.91 65.76 65.09 67.74 68.12 69.42 69.21 68.33
52.30 50.71 45.06 41.16 35.98 31.59 33.80 38.14 40.52 45.32 54.91 56.87 56.93 56.19 55.86 55.18 60.42 61.50 61.45 62.46 62.62 65.12 66.50 67.16 69.79 70.51 70.99 71.13 71.46 71.95 72.43 71.92 71.51 70.86 70.51 69.98 69.48 68.66 68.68 66.74 65.84 65.31 64.31 65.41 65.56 67.10 68.30 68.42 69.08
50.00 47.96 41.08 37.10 32.41 32.30 33.78 38.52 42.95 50.99 53.34 49.80 55.43 58.35 57.13 56.61 61.52 62.44 62.97 63.57 65.07 64.91 65.54 66.69 69.15 69.77 70.27 70.42 70.39 70.59 70.82 71.34 70.87 70.51 70.22 69.52 68.82 68.69 68.20 66.63 65.14 64.61 64.52 64.79 65.85 67.14 66.73 65.97 65.58
47.40 43.16 39.87 35.52 32.97 35.56 37.70 40.49 42.03 47.22 52.62 56.04 55.85 54.08 58.17 60.33 62.03 63.52 63.77 63.89 63.52 63.18 63.86 66.29 68.12 69.33 69.83 69.65 69.49 69.53 69.72 70.02 70.50 69.94 69.34 68.79 68.17 67.25 67.01 64.93 64.52 65.04 65.26 65.47 66.37 66.63 67.73 66.93 65.50
42.13 39.26 34.51 32.26 32.51 36.72 40.05 47.07 48.80 48.82 50.03 52.13 52.93 52.16 55.17 60.30 64.16 63.68 63.42 63.96 62.88 63.04 64.64 65.58 66.98 68.28 69.23 68.86 68.70 69.07 69.20 69.30 69.48 70.01 69.40 68.67 67.76 66.57 64.38 65.30 65.87 65.63 66.11 66.29 67.02 67.99 66.88 66.47 65.74
40.61 38.42 33.25 30.77 33.64 37.69 39.45 42.64 46.18 49.00 50.15 51.36 52.22 52.68 54.27 60.55 63.18 63.29 64.76 63.99 64.29 63.98 65.15 65.52 67.13 67.33 67.67 68.32 68.39 68.20 68.43 68.51 68.37 68.38 68.75 68.06 66.79 66.18 65.58 65.12 65.51 65.74 65.67 64.97 65.09 64.90 64.71 64.38 63.76
38.89 35.47 31.98 31.20 35.55 37.93 39.68 41.44 41.52 40.66 42.63 45.86 53.09 52.57 55.51 58.09 61.99 64.01 64.67 64.52 64.54 64.93 64.59 64.39 64.92 65.57 66.30 65.90 66.32 66.53 67.23 67.88 67.64 67.30 67.03 66.72 66.36 66.41 65.22 65.20 65.12 64.78 65.50 65.82 65.38 65.13 64.27 64.42 65.58
39.15 37.05 30.56 32.19 34.88 33.96 39.46 40.77 40.77 41.80 39.74 50.95 51.95 48.57 51.95 59.22 61.38 62.77 63.88 64.56 64.10 63.88 64.15 63.12 63.38 63.30 62.14 62.08 65.27 65.38 66.29 66.79 66.77 66.39 65.59 64.85 65.19 65.34 64.03 63.33 63.58 63.31 63.35 62.19 61.97 62.65 63.24 63.07 62.96
39.07 34.91 32.30 33.00 34.67 37.16 39.13 39.74 42.46 42.46 46.20 44.81 50.64 50.95 53.39 60.40 60.89 59.26 59.36 60.38 61.90 64.82 63.48 63.02 62.94 62.25 61.11 60.01 62.72 65.03 65.79 66.30 66.34 65.56 64.83 62.93 60.64 59.52 59.51 61.83 62.69 62.79 62.08 61.54 61.39 60.92 60.42 59.23 58.27
38.61 33.68 35.83 39.41 38.60 37.39 38.62 41.02 40.05 40.67 43.71 48.74 51.88 53.42 55.83 59.53 59.24 57.82 57.87 58.66 59.34 61.66 63.30 63.66 63.00 62.64 61.49 62.71 61.83 61.33 62.69 63.07 63.56 64.15 62.07 60.44 58.34 58.00 59.18 60.95 62.15 61.52 60.98 60.42 60.24 59.97 59.20 57.25 54.92
37.70 37.30 40.25 41.88 41.47 40.95 39.77 40.98 41.83 40.73 39.29 47.99 50.68 51.42 56.99 58.55 58.25 58.29 57.13 59.29 58.26 61.34 61.29 61.76 62.32 61.60 61.42 61.55 61.40 60.60 61.01 60.92 61.00 61.13 61.03 59.31 58.36 57.79 57.61 57.01 57.86 56.13 58.49 55.51 55.76 54.46 53.50 52.22 52.53
40.01 41.40 42.81 41.73 43.01 41.13 40.02 42.92 41.92 42.37 42.32 47.58 52.93 52.94 56.31 57.62 57.04 56.42 55.91 56.89 55.21 54.67 56.84 58.39 59.42 59.10 57.84 60.26 61.04 60.95 60.46 60.62 60.17 59.63 58.74 57.39 55.93 55.47 56.37 56.33 56.41 55.89 55.03 54.23 54.03 53.74 53.73 53.24 53.51
41.50 42.28 43.47 44.17 43.87 41.98 44.11 41.93 41.96 42.31 44.09 45.98 51.99 53.24 55.55 56.49 56.03 54.61 55.49 54.76 53.12 52.52 54.12 56.88 57.57 57.99 56.64 56.09 54.51 56.46 57.48 60.12 59.01 57.95 57.86 57.67 56.15 55.07 55.65 55.51 55.69 54.63 54.51 54.04 52.98 52.43 52.84 53.48 53.88
44.91 43.95 44.12 44.39 44.15 43.71 42.55 41.93 41.05 43.60 42.57 45.37 49.06 51.35 52.81 53.59 54.38 49.02 51.42 52.05 51.06 51.11 52.60 54.87 56.39 57.49 55.92 53.84 52.81 52.84 53.39 54.43 54.23 54.06 54.41 56.94 56.67 55.43 55.11 55.71 54.69 53.99 52.62 51.63 50.51 49.24 48.39 48.46 49.84
45.53 41.99 43.40 43.24 43.06 43.15 43.30 39.08 40.15 42.73 42.73 44.31 46.54 47.59 48.24 49.59 48.67 49.12 51.30 51.38 51.22 50.44 51.85 54.20 54.60 55.55 55.37 54.87 53.50 51.90 51.33 51.66 51.59 52.70 53.94 55.10 53.75 51.44 52.56 53.56 53.23 52.43 50.96 50.77 49.83 46.64 47.45 45.59 47.67
41.33 39.94 36.41 42.25 42.16 42.35 40.01 36.14 42.16 41.55 41.72 42.45 43.41 44.98 46.33 47.12 47.54 47.02 47.67 46.15 47.11 48.00 50.16 51.35 54.75 53.44 52.37 53.82 53.54 52.86 51.77 50.20 50.11 51.37 51.68 52.80 51.89 49.58 48.16 48.04 49.13 48.63 46.73 50.04 45.23 42.50 42.95 42.95 42.62
37.09 32.13 34.91 38.97 43.08 42.09 39.18 36.90 41.88 42.49 42.22 42.62 42.07 42.42 43.56 43.85 45.74 46.22 47.06 47.45 47.02 47.55 48.81 48.01 51.23 51.26 50.56 50.93 51.34 50.29 50.07 48.43 47.98 49.58 50.88 50.69 51.15 50.75 49.17 48.22 47.57 46.61 45.80 44.91 43.64 43.32 43.13 41.98 42.11
32.57 32.94 32.73 34.41 39.62 41.75 38.34 38.30 41.94 42.91 40.85 41.63 37.87 39.92 40.54 42.66 44.29 46.14 45.71 46.07 46.34 46.93 46.67 45.94 47.64 48.07 47.74 46.94 45.72 44.52 44.77 45.94 46.40 46.92 49.73 51.05 50.22 50.33 47.53 47.63 48.27 46.40 44.96 44.31 43.87 43.39 42.84 42.58 42.27
37.95 35.75 34.58 36.88 41.01 41.30 38.56 38.52 41.29 40.44 39.28 39.38 38.25 40.61 42.77 44.21 43.64 44.19 44.33 44.04 44.54 44.83 45.48 44.72 44.77 44.85 45.07 44.24 43.80 43.28 43.59 43.99 44.71 45.10 47.22 49.97 50.43 49.49 47.18 46.20 47.35 46.65 44.80 44.51 44.33 42.87 42.09 41.59 41.33
38.63 36.19 35.12 38.82 41.95 39.76 39.32 38.72 38.32 40.16 39.27 39.73 40.46 40.96 42.55 43.28 43.70 44.07 43.83 42.77 44.31 44.33 44.72 44.85 45.52 45.50 44.82 43.99 43.78 43.98 42.93 43.29 43.81 44.52 45.35 48.48 50.18 49.72 47.84 45.85 46.35 46.81 45.52 43.92 43.75 42.86 41.61 41.48 41.52
36.54 35.83 35.25 36.88 39.47 38.68 38.39 37.19 37.67 40.84 41.96 42.66 42.29 41.99 42.24 43.23 43.86 44.35 44.72 43.20 42.85 43.44 43.91 44.99 45.27 45.13 45.22 44.99 43.67 43.07 42.64 42.77 42.39 43.52 43.11 44.97 48.07 50.22 48.57 46.25 45.62 45.69 45.93 44.71 42.88 42.58 41.93 39.63 40.16
34.26 39.32 38.90 38.49 36.30 32.06 37.29 30.30 36.72 37.60 38.57 40.78 41.31 40.50 40.91 42.90 43.69 44.05 44.48 44.15 43.92 44.30 44.04 44.61 45.03 44.85 45.45 45.28 44.28 42.86 43.64 44.20 46.50 46.07 45.62 45.41 45.28 47.20 48.97 47.96 45.24 44.54 43.57 41.95 41.40 42.01 40.64 39.53 37.31
38.77 41.73 39.02 38.47 35.24 33.94 35.81 31.12 35.88 38.12 36.77 38.08 39.14 41.28 41.21 42.38 42.71 42.98 43.64 43.23 42.68 43.79 43.85 44.61 45.85 46.79 46.89 46.25 45.46 44.83 43.58 45.30 46.28 45.48 42.32 43.09 43.16 44.90 46.63 47.64 45.89 43.34 44.23 43.74 42.83 40.78 39.28 37.93 37.23
43.65 40.15 38.77 37.46 34.87 28.21 33.11 32.23 31.64 35.03 37.65 39.07 41.19 41.35 41.87 42.23 43.11 44.37 44.62 44.92 45.46 45.00 45.12 45.53 46.11 46.58 47.41 46.94 46.37 44.60 43.15 43.99 43.63 43.81 42.43 43.47 41.40 41.91 43.21 43.90 44.14 42.04 41.51 40.30 37.84 38.50 38.36 38.38 37.84
40.63 35.11 26.13 25.12 24.67 25.49 35.69 31.82 33.40 38.94 40.64 41.28 41.33 42.13 42.46 41.77 41.81 42.77 42.44 44.64 44.80 44.33 44.23 45.07 44.84 44.86 45.00 44.82 44.87 44.70 43.86 42.96 42.51 42.88 42.91 41.29 38.82 38.41 38.48 40.05 38.71 38.83 39.18 39.73 40.83 39.73 39.80 39.38 38.27
37.57 35.91 26.40 21.85 21.17 25.83 34.54 29.89 35.06 40.81 42.36 42.92 44.14 42.10 43.27 43.60 43.38 43.48 44.75 43.86 43.22 43.45 43.88 43.91 44.17 44.27 44.73 44.31 43.30 42.57 41.75 41.66 42.45 41.31 40.35 39.01 37.47 36.64 38.16 39.46 41.53 41.97 41.56 42.27 42.83 42.40 41.35 40.85 39.58
38.47 33.36 37.95 29.25 22.64 23.22 29.87 35.43 39.09 41.02 42.42 42.30 41.49 42.26 41.43 41.80 42.48 42.59 42.85 43.49 43.14 43.35 43.94 43.72 43.99 44.04 44.15 42.32 39.84 40.18 39.71 39.55 39.94 37.64 37.16 36.72 36.99 38.87 39.66 40.93 41.66 41.73 41.64 41.83 42.42 41.04 39.47 38.66 38.28
40.36 40.68 31.95 30.18 19.83 22.76 29.57 30.73 32.77 37.87 39.77 41.41 39.81 39.20 39.97 40.42 41.20 42.73 43.05 43.69 44.26 43.99 43.60 43.44 43.33 43.08 42.55 38.83 39.45 40.34 39.16 37.81 37.45 36.66 36.35 36.48 37.82 40.00 41.06 41.64 41.89 41.51 41.93 41.45 40.91 38.84 38.26 37.18 36.96
36.86 34.71 35.47 35.74 30.46 24.83 21.78 28.89 38.09 38.38 40.17 40.19 39.61 40.02 39.91 40.53 41.12 42.45 43.34 43.95 43.87 43.71 43.42 42.78 42.71 42.42 39.95 38.06 38.23 38.40 38.65 36.59 35.74 35.35 35.88 36.71 38.72 39.57 38.84 38.65 39.79 39.85 39.18 38.93 37.87 36.64 35.85 35.12 34.41
39.93 37.00 35.81 29.88 27.45 27.58 24.03 29.81 40.63 40.64 41.12 40.62 39.53 41.50 41.84 42.07 42.39 43.06 43.45 43.62 43.10 42.88 42.81 42.16 42.05 40.61 38.42 38.76 38.47 38.83 37.08 35.45 33.98 34.48 35.58 36.55 37.30 38.08 37.49 37.08 37.34 37.42 36.85 36.08 34.88 33.70 33.73 32.43 31.40

GFSSGP_sfc_wetblb_006.txt.gz
Wetbulb
53.71 48.17 46.78 45.62 39.20 35.69 32.77 35.34 38.29 40.44 50.89 54.45 55.55 53.03 52.78 53.91 50.85 44.08 61.42 61.74 62.61 63.88 65.39 67.07 70.31 71.26 72.07 72.64 72.54 72.24 72.49 71.72 71.41 70.89 70.18 69.69 69.12 69.24 69.31 67.98 66.77 66.02 65.41 65.83 67.16 68.34 68.93 69.29 69.03
52.59 48.73 44.70 40.50 34.78 30.89 33.39 38.58 44.86 46.39 54.12 55.73 56.17 55.32 55.31 53.62 59.33 60.23 59.23 61.20 63.28 64.37 65.46 67.05 69.97 70.46 71.12 71.51 72.11 72.34 72.35 71.49 71.26 70.81 70.32 69.78 69.23 69.20 68.68 67.60 66.66 65.06 64.90 65.42 66.42 66.54 68.11 68.41 67.49
48.80 45.12 40.93 36.71 32.12 32.44 34.50 37.62 46.73 51.10 53.54 51.56 54.94 57.31 56.32 55.18 60.77 61.53 61.76 62.62 64.71 63.90 64.39 67.29 69.02 69.43 70.22 70.22 70.55 70.95 71.57 71.54 71.34 70.72 70.29 69.64 69.08 68.35 68.14 66.54 64.89 65.11 65.45 65.36 66.18 67.19 67.07 67.57 66.54
46.02 42.49 39.57 35.58 31.49 34.73 36.28 39.82 49.24 50.43 51.66 55.60 55.86 53.73 57.48 60.22 62.10 62.52 62.78 64.07 62.61 61.86 62.75 66.76 68.04 68.79 69.55 69.50 69.20 69.45 69.94 69.96 69.85 69.76 69.46 68.91 68.20 67.12 66.94 66.16 65.36 66.04 66.18 66.31 66.91 66.87 67.44 67.40 66.18
41.34 38.97 34.37 33.51 33.37 37.61 41.14 45.47 46.89 48.42 49.96 50.18 52.66 52.20 54.93 60.68 62.82 62.57 62.36 63.06 61.39 61.56 62.87 64.83 67.20 68.30 69.14 68.98 68.56 68.91 68.96 69.23 69.54 69.59 69.12 68.59 67.76 66.42 64.33 64.44 65.69 65.67 66.37 66.25 65.87 66.09 65.59 65.76 65.34
39.98 37.71 32.31 30.61 32.63 36.80 39.23 41.50 45.25 47.77 48.81 51.44 52.84 53.07 53.68 61.55 61.65 62.07 63.19 61.79 62.87 62.57 63.51 63.75 66.88 67.47 68.21 68.34 68.18 67.96 68.10 67.99 68.15 68.46 68.77 67.78 66.84 66.40 66.13 65.70 65.62 65.73 65.95 66.07 65.80 65.50 64.71 64.34 64.36
38.16 34.49 30.58 31.12 33.08 35.53 38.11 39.69 39.23 40.66 42.86 46.29 54.55 51.73 54.71 58.81 62.20 62.95 62.97 61.78 62.34 63.00 62.86 62.85 63.60 64.90 66.27 66.07 66.34 66.48 67.09 67.45 67.08 66.88 67.11 66.69 66.44 65.68 64.92 64.75 64.58 64.20 64.09 63.31 63.37 63.62 64.36 64.40 63.48
37.96 36.41 31.05 30.28 33.38 32.92 37.96 39.70 39.18 40.39 42.45 50.67 51.85 51.38 51.69 58.71 61.77 62.93 63.67 62.93 62.15 62.63 62.49 61.89 61.84 62.09 61.51 61.73 65.15 65.51 66.15 66.62 66.35 65.93 65.15 64.71 65.06 64.44 63.53 61.99 63.22 62.92 62.80 62.28 61.94 61.60 61.71 60.69 60.06
37.50 34.27 31.53 32.97 34.01 36.13 37.80 40.28 39.72 41.95 46.14 44.90 50.18 51.94 52.74 60.56 60.75 60.61 59.58 60.64 61.21 63.11 62.18 61.76 61.78 61.20 59.64 59.56 62.44 64.78 65.79 66.26 66.08 65.22 64.56 62.44 59.72 58.27 57.59 61.21 62.40 62.18 61.57 61.12 60.88 60.86 60.01 59.08 58.14
37.94 33.35 35.16 37.94 37.39 38.85 37.76 38.51 39.27 41.15 45.05 48.25 49.54 53.14 56.92 59.10 58.56 59.29 59.39 60.26 60.44 61.59 62.18 62.00 61.79 61.16 60.07 61.27 60.43 60.54 61.86 62.71 63.36 63.06 61.50 59.76 58.09 57.07 58.53 59.99 61.82 61.01 60.51 60.19 60.05 58.96 57.79 54.86 52.86
39.82 37.02 39.00 40.04 39.32 38.67 38.28 39.76 40.82 41.03 40.28 47.80 48.55 51.79 56.12 57.35 56.64 58.52 59.02 60.16 60.61 60.82 62.21 63.13 62.16 61.36 60.74 60.46 60.09 59.35 59.53 60.01 60.57 61.35 60.31 58.76 58.26 56.68 56.84 55.68 56.38 55.20 58.03 54.04 54.95 54.05 53.62 52.55 52.28
39.45 40.41 40.64 40.47 41.38 40.51 38.77 41.64 40.55 38.96 42.18 48.40 51.24 54.02 56.38 57.27 57.11 56.56 56.92 58.23 57.74 59.43 61.80 61.61 61.28 60.57 59.48 59.80 60.10 59.46 59.49 59.49 59.41 59.18 59.10 57.58 56.04 54.54 55.32 55.17 55.14 55.31 54.86 53.48 53.13 53.19 53.42 53.51 53.71
40.92 40.70 42.33 42.73 42.67 41.10 42.89 40.40 40.71 41.73 44.32 43.90 50.20 53.83 56.50 57.38 57.20 55.09 56.46 56.46 55.52 56.92 57.35 57.63 58.05 58.04 56.81 58.29 58.18 58.62 59.04 59.49 59.18 58.64 57.87 57.16 55.58 54.60 54.56 55.26 54.69 55.01 54.11 53.65 53.17 51.75 50.80 50.13 50.81
43.28 42.37 41.82 42.63 42.80 42.37 41.45 41.10 43.17 42.54 41.33 42.98 50.57 50.54 53.85 55.94 56.76 52.75 53.46 53.38 53.76 53.44 54.30 56.01 56.27 57.06 55.43 53.27 53.44 54.32 55.25 56.82 56.94 56.38 56.84 56.53 56.24 54.86 54.14 54.62 54.53 53.53 53.37 52.32 50.70 48.69 47.58 47.02 47.96
43.66 41.23 41.71 42.59 41.83 41.10 41.59 38.52 39.44 41.74 41.26 42.18 44.21 49.73 51.23 53.26 52.81 53.05 51.20 52.42 52.72 51.57 51.67 53.79 55.12 55.93 54.79 53.57 52.43 51.13 51.52 52.26 52.31 53.28 53.52 53.73 55.39 54.62 53.87 53.38 53.65 53.57 52.14 49.90 49.20 47.33 46.28 44.66 45.68
39.53 38.36 35.31 41.10 40.96 40.98 39.34 36.00 42.00 40.15 39.99 42.13 41.67 45.17 48.67 49.48 48.00 47.33 47.66 48.18 49.06 48.59 50.60 52.86 55.36 54.26 53.44 53.07 52.93 52.09 50.88 49.98 49.97 50.85 51.58 52.85 53.92 52.11 50.16 50.10 50.93 51.97 49.83 49.49 48.31 42.65 42.42 42.69 42.54
35.77 31.59 33.17 37.54 41.55 41.64 38.50 36.72 41.16 40.77 42.16 41.98 40.01 40.71 42.93 42.89 43.58 44.59 46.56 47.07 47.59 47.93 49.78 50.68 50.80 51.99 51.15 51.25 51.94 51.43 50.78 49.85 48.93 48.71 50.07 50.91 51.63 51.17 48.17 47.55 47.89 48.40 45.85 45.84 46.12 42.26 42.79 41.76 41.49
31.90 31.31 30.78 32.09 38.87 40.77 37.61 37.42 40.66 42.27 40.90 40.30 38.11 38.58 41.09 41.27 42.42 44.09 43.97 43.82 44.47 45.98 48.16 47.86 48.95 49.91 48.87 46.76 45.64 44.97 44.36 45.07 46.50 46.37 47.29 50.03 50.33 50.49 49.04 47.78 47.52 46.74 44.95 43.90 42.91 42.39 42.34 42.33 41.84
36.17 33.82 32.86 36.04 38.86 39.57 36.84 36.93 38.40 38.19 38.51 38.41 37.36 39.09 41.32 42.29 41.84 42.11 42.81 43.66 44.36 44.82 44.94 44.77 45.27 45.52 44.73 43.93 43.87 43.25 43.93 43.58 44.18 44.92 46.37 47.46 49.61 50.07 49.42 48.14 47.09 47.03 45.41 45.41 43.57 42.75 42.03 41.23 41.39
36.92 34.33 33.11 37.30 39.66 38.15 37.56 37.31 37.32 39.69 38.38 38.05 39.10 40.11 41.32 41.45 42.07 43.63 43.25 42.28 43.95 44.74 44.90 44.29 44.25 44.07 43.20 42.81 42.52 42.67 41.97 42.57 42.62 43.57 44.18 45.32 46.47 48.46 49.44 48.47 46.89 46.30 46.70 43.99 43.36 42.37 40.91 41.13 40.86
35.69 33.90 33.45 35.42 38.06 37.35 36.09 34.71 36.74 39.38 40.61 40.91 40.88 39.91 41.19 41.80 42.75 42.22 42.81 42.07 42.13 42.86 42.71 43.43 43.49 43.32 43.46 43.88 43.13 42.70 42.36 42.96 42.97 44.08 43.39 44.87 45.00 46.81 48.54 48.91 47.89 46.29 46.44 46.00 44.65 43.37 41.58 40.82 40.03
33.55 37.77 37.37 36.39 34.67 31.03 35.39 28.96 35.56 36.90 37.61 39.38 39.49 39.70 39.26 40.45 42.22 43.55 42.80 41.77 42.71 42.67 43.04 43.89 44.55 44.84 45.71 45.46 44.07 43.02 41.99 41.94 44.26 44.18 44.67 45.36 44.75 44.43 46.18 48.46 47.52 46.13 45.79 45.50 44.13 43.50 42.26 39.97 38.11
37.92 40.16 37.50 36.67 33.77 32.91 34.41 30.15 34.48 36.78 35.62 36.55 38.24 40.19 39.60 41.55 41.23 40.60 41.27 43.36 42.97 42.55 43.30 43.86 45.25 45.45 45.43 44.68 44.35 43.77 43.51 43.51 44.24 44.36 43.20 43.92 43.95 42.82 43.60 44.82 45.65 44.71 42.77 42.28 43.57 41.38 40.08 39.57 37.78
42.15 38.45 36.81 35.64 33.41 27.76 31.72 30.80 30.94 33.91 36.22 37.58 39.43 40.16 41.73 41.74 42.63 43.02 43.25 44.43 43.29 43.24 43.48 43.80 44.43 44.99 45.40 44.40 43.68 42.13 40.89 41.10 41.61 42.41 41.83 42.54 42.11 40.68 40.54 41.78 41.85 40.48 39.25 37.95 37.89 39.64 38.83 36.57 38.50
39.68 33.13 25.01 24.66 23.77 24.89 33.90 30.36 32.54 38.04 38.98 39.67 40.41 40.46 41.04 41.52 40.94 40.92 42.29 42.56 43.14 43.21 43.50 44.23 43.70 43.74 43.98 43.47 41.31 40.12 39.99 39.85 39.70 40.97 41.64 40.64 39.60 36.53 36.38 37.55 38.67 39.04 39.44 40.30 41.59 40.03 40.18 40.16 39.63
36.29 34.41 25.49 20.90 20.03 24.71 32.93 28.66 34.16 40.22 40.72 41.29 41.49 41.05 41.38 41.33 42.21 42.36 42.90 42.16 42.46 42.91 42.92 42.85 42.94 43.09 43.12 42.55 40.08 40.04 40.52 40.13 40.55 40.74 39.86 38.30 36.49 36.25 38.53 39.45 40.33 40.05 40.26 40.62 40.77 40.50 40.96 40.90 39.97
36.86 32.25 36.22 28.53 21.36 22.19 28.75 33.57 38.30 39.71 41.30 42.41 40.21 40.12 39.43 40.29 40.96 41.79 43.53 43.91 43.68 44.28 44.41 43.02 42.62 42.70 43.10 41.66 38.66 39.09 39.76 40.06 40.47 39.72 36.76 36.08 36.14 39.20 39.24 39.43 39.72 40.16 41.48 41.64 41.11 39.40 38.60 38.11 37.82
38.84 39.66 30.38 29.00 19.28 20.92 27.47 28.87 30.87 36.35 38.00 39.32 38.05 38.55 39.67 40.58 41.74 43.31 43.43 44.08 44.51 43.45 43.10 43.10 42.36 42.28 42.57 39.17 38.98 40.21 39.22 40.18 40.04 37.32 35.79 35.49 36.83 39.10 39.26 39.17 38.72 39.28 38.77 39.52 40.57 40.03 40.03 38.81 38.26
36.19 33.21 34.03 33.98 29.65 21.59 20.35 27.31 36.45 36.14 37.53 37.71 37.98 39.63 40.01 40.54 40.86 41.74 42.64 43.20 43.34 42.98 42.83 42.45 41.85 41.66 41.63 37.87 38.28 38.14 39.50 39.08 37.58 34.59 34.70 35.51 37.62 38.14 37.11 37.99 37.81 38.04 39.02 38.98 37.99 37.63 36.68 35.56 35.17
37.56 35.24 34.02 25.37 25.40 26.56 23.60 26.70 38.22 38.90 38.99 39.19 38.73 40.61 41.18 41.93 41.90 41.98 42.39 42.86 42.64 42.45 42.60 42.37 41.52 41.52 38.93 38.70 38.50 38.27 36.70 34.22 33.06 33.44 34.40 35.45 35.81 36.00 35.82 36.84 36.73 36.44 35.53 35.08 34.59 33.72 33.34 32.47 31.24

GFSSGP_sfc_wetblb_009.txt.gz
Wetbulb
56.34 51.55 52.97 51.68 46.26 44.81 39.98 41.97 43.67 49.89 54.13 57.92 58.42 56.23 55.89 57.48 53.29 50.26 64.11 64.73 65.51 67.53 69.16 70.16 70.41 71.45 71.97 72.14 71.96 71.66 72.10 71.70 71.41 71.03 70.54 70.04 69.88 69.34 69.13 68.28 67.53 66.51 66.17 66.46 67.28 67.18 69.23 70.00 69.43
55.02 50.03 50.07 47.36 42.82 40.85 42.57 44.63 45.19 52.99 57.96 58.88 59.07 58.50 57.59 55.33 61.96 61.98 62.82 63.89 65.25 66.57 68.44 69.70 69.87 70.55 71.47 72.24 72.08 72.20 72.17 71.75 71.18 70.62 70.06 69.55 69.34 69.30 68.62 68.20 66.71 65.76 66.23 66.43 67.30 67.93 67.55 67.52 67.07
52.48 47.77 48.26 43.81 40.70 39.75 43.52 46.23 53.63 55.99 56.67 57.11 58.16 60.04 59.31 58.87 62.56 63.15 64.74 64.08 65.36 65.82 67.79 69.29 69.04 69.59 70.25 70.88 71.59 71.93 71.99 71.70 71.28 70.65 70.34 69.86 69.28 68.69 68.54 66.96 65.51 66.07 66.65 66.94 67.22 67.08 67.64 67.49 66.65
50.28 48.39 45.63 45.03 40.84 42.01 45.57 50.07 55.97 54.89 55.98 59.34 59.31 56.18 60.53 63.42 63.99 65.62 63.79 65.03 64.82 65.37 67.63 68.08 67.92 68.93 69.43 69.52 69.81 69.91 70.02 69.91 69.92 69.86 69.61 69.29 68.49 67.98 67.04 66.48 66.25 66.36 66.73 67.19 66.78 67.22 66.83 66.71 66.09
46.75 46.63 43.07 42.72 43.07 45.32 47.49 49.40 52.71 52.76 54.07 55.63 57.35 55.84 58.13 63.64 65.64 64.42 64.71 65.10 63.83 64.59 66.37 67.66 67.06 68.18 69.13 68.68 68.68 68.78 68.90 69.13 69.41 69.30 68.89 68.54 67.63 66.25 65.28 64.86 65.77 66.24 66.48 66.53 66.60 65.88 64.99 64.54 64.02
45.53 45.10 42.08 41.16 42.04 42.40 47.03 48.35 52.36 52.20 54.39 55.72 56.67 56.41 58.45 63.95 63.79 64.45 65.21 64.45 64.66 64.13 65.77 66.79 67.47 67.94 68.10 68.22 68.10 67.84 67.91 68.04 68.04 68.20 68.39 67.77 67.16 66.65 66.12 66.10 65.64 65.28 64.76 64.46 64.87 65.11 65.33 65.18 65.15
44.11 42.15 38.40 38.44 39.51 41.12 43.51 44.28 47.01 48.73 50.05 52.04 58.03 54.48 59.09 62.42 64.61 65.19 65.18 64.90 65.16 65.44 65.61 66.20 66.61 66.93 66.65 66.24 66.45 66.51 67.07 67.11 66.91 66.80 66.67 66.25 66.10 65.32 64.72 64.50 64.37 64.08 63.71 63.24 63.14 63.24 62.94 62.53 61.88
43.76 43.36 38.47 38.92 39.17 39.89 43.43 45.25 45.62 47.54 48.95 55.26 57.27 53.62 56.78 62.62 65.06 65.35 65.66 64.92 65.35 66.04 65.93 66.07 66.41 66.09 66.13 66.32 65.29 65.79 66.14 66.44 66.19 65.85 64.87 64.70 64.75 63.75 63.34 61.69 62.79 62.97 62.66 62.36 62.04 61.33 61.20 60.42 60.29
44.25 41.49 38.72 38.97 40.24 42.08 44.20 44.74 46.24 48.83 51.76 50.18 54.55 58.11 58.10 64.98 64.85 64.95 65.16 64.60 64.97 65.28 66.01 66.35 66.14 65.48 65.19 65.44 65.49 65.35 66.00 66.26 65.97 65.66 64.42 64.31 65.69 64.36 62.50 61.89 61.82 62.08 61.53 61.02 60.77 60.30 59.48 58.00 57.66
44.04 41.32 40.57 42.62 42.93 43.45 44.56 44.72 45.27 47.63 50.42 52.66 54.67 57.12 61.15 63.73 63.96 63.71 64.19 63.68 64.29 64.95 66.10 66.08 66.43 66.03 64.90 63.63 65.42 65.88 65.77 67.18 67.88 67.30 66.39 66.08 64.93 63.90 62.63 61.94 61.20 61.26 60.66 59.95 59.72 59.17 57.47 57.02 59.31
44.53 42.73 43.64 44.07 44.46 45.66 45.42 45.98 46.12 47.32 47.08 51.08 51.70 56.87 61.00 62.55 63.47 64.04 64.50 65.02 65.11 66.09 66.37 66.09 66.62 66.87 65.83 64.84 65.72 65.78 65.76 66.19 66.74 66.77 66.38 65.45 64.76 64.42 64.08 63.25 62.88 63.01 60.64 61.74 60.27 60.80 61.21 60.92 60.87
44.63 44.40 45.71 45.99 45.70 45.76 45.61 46.70 45.76 46.43 47.88 50.55 54.51 59.66 61.16 61.16 62.03 63.30 63.96 65.02 65.01 65.36 66.84 67.19 66.96 66.57 66.90 66.62 66.10 65.69 65.07 65.32 65.47 65.76 65.55 65.47 64.58 63.74 62.74 62.18 62.13 62.48 63.02 61.85 61.55 61.49 60.79 60.06 59.73
45.84 45.64 46.07 46.74 45.48 46.17 46.56 45.98 45.87 46.29 48.88 48.63 54.63 58.84 60.53 61.40 61.73 63.06 64.56 65.20 64.53 64.29 65.76 66.94 66.82 65.96 65.18 63.97 65.11 65.36 65.17 65.23 65.52 65.30 65.05 64.43 63.68 63.15 62.18 61.59 61.69 61.95 62.15 61.54 61.08 60.36 57.77 56.05 55.34
47.67 47.08 46.42 47.00 46.77 47.08 46.10 46.18 46.61 47.56 47.80 48.30 53.03 57.28 60.23 61.39 62.06 61.40 60.91 62.42 62.35 63.24 64.17 64.52 63.56 63.45 62.78 62.50 63.35 64.10 64.32 64.79 64.62 64.91 64.78 64.07 63.48 62.96 62.00 61.53 61.40 61.49 61.48 61.23 60.59 58.00 55.79 54.89 54.39
46.92 44.72 44.99 45.51 45.72 46.11 45.81 44.70 44.79 47.55 46.99 46.86 49.55 54.25 58.32 60.35 61.45 61.27 60.50 59.98 60.57 61.93 61.79 61.34 61.91 62.61 62.43 60.99 60.04 60.00 60.62 60.67 62.62 63.18 63.46 62.80 62.37 62.02 61.61 61.22 61.01 61.04 61.32 60.68 58.30 56.04 55.27 53.92 52.92
43.67 43.58 41.88 44.87 46.35 45.96 45.97 42.74 47.17 46.48 47.07 48.04 47.15 48.60 54.01 56.94 57.59 56.52 56.71 54.83 57.36 58.26 59.10 60.08 60.18 61.20 61.57 60.68 60.59 60.23 59.60 58.95 58.73 58.90 59.50 60.07 59.92 60.29 60.46 59.54 59.45 60.18 60.20 59.47 57.71 56.30 53.75 51.98 52.15
41.90 38.91 39.81 42.35 45.30 46.06 46.40 44.02 47.56 47.86 46.88 47.35 46.71 46.42 50.52 53.71 53.19 52.08 51.97 52.81 55.32 57.05 58.03 59.10 59.89 59.98 60.10 59.04 59.28 59.57 59.09 58.92 58.68 58.01 57.61 58.19 58.58 59.00 58.92 58.36 58.16 58.08 57.41 57.31 56.49 55.13 53.08 51.67 51.75
38.61 38.60 40.01 39.67 44.07 45.85 43.56 44.14 45.94 44.33 43.08 44.50 44.95 45.30 47.89 50.52 49.75 50.05 50.54 51.24 52.84 55.26 56.69 58.09 57.73 58.11 57.63 57.05 55.87 55.33 54.75 54.93 54.91 55.31 55.51 55.89 56.51 57.43 57.58 57.54 56.84 56.60 55.17 54.83 53.96 53.06 52.67 51.57 51.62
41.47 39.74 39.24 41.53 43.45 44.08 42.19 42.61 43.49 44.30 44.43 43.82 44.61 45.86 47.27 49.03 48.64 49.28 49.70 50.62 51.70 53.39 54.86 55.70 55.20 54.96 54.43 53.24 52.72 53.31 52.82 52.88 53.36 53.61 53.55 53.61 53.92 54.60 55.43 55.60 55.99 55.83 54.22 54.38 54.16 52.92 51.44 50.70 51.11
41.31 39.71 38.95 41.73 42.89 43.50 42.96 42.56 42.82 44.42 43.35 44.08 45.81 46.53 47.78 48.35 48.59 48.50 49.74 50.84 51.67 53.04 52.89 51.00 50.46 50.82 50.72 51.40 51.81 51.81 51.43 52.14 51.80 52.29 53.23 53.55 52.98 53.01 52.88 53.86 53.96 54.42 53.70 54.26 54.13 52.34 51.52 50.57 51.27
40.78 39.61 39.01 39.34 41.96 42.82 41.67 41.33 42.23 43.74 44.68 45.35 46.13 46.81 47.57 48.97 49.20 49.24 49.69 50.31 50.52 49.99 49.66 49.82 50.26 51.20 51.73 51.74 52.04 52.44 52.51 52.48 52.18 51.99 52.03 52.53 52.76 52.47 52.24 52.13 52.57 53.00 53.30 52.15 54.07 53.46 51.41 50.44 50.62
38.49 41.79 41.56 39.98 39.87 38.06 40.86 36.48 41.00 41.65 42.83 44.03 45.22 46.43 47.76 48.39 49.19 49.39 49.50 49.56 49.59 49.56 51.35 51.76 51.84 51.92 51.50 51.73 50.67 49.75 48.59 47.76 49.55 49.88 50.37 50.78 51.86 51.61 51.31 50.79 50.97 51.48 52.00 51.74 51.96 52.76 52.08 50.77 49.48
41.52 42.68 41.15 40.70 39.80 39.11 39.84 38.30 40.46 42.02 41.07 42.63 45.05 45.63 47.21 47.49 47.92 47.48 48.64 48.99 49.29 50.27 50.59 51.17 51.27 51.09 50.94 50.29 49.20 49.06 48.57 48.84 48.93 48.86 48.62 48.82 49.91 50.41 49.57 49.08 49.11 49.29 49.91 50.64 50.48 50.51 49.07 49.36 48.42
44.12 41.91 40.00 39.49 38.87 34.78 36.68 36.78 37.93 40.82 41.29 42.88 45.10 46.39 46.37 46.70 47.04 48.08 48.85 49.36 49.62 50.65 50.85 51.20 50.92 50.70 50.94 50.40 48.72 48.33 47.77 47.58 47.55 48.02 47.60 48.20 48.62 48.13 47.02 46.54 47.19 46.42 46.35 45.82 45.83 45.38 45.52 45.11 45.10
43.52 38.50 34.02 33.79 33.56 33.12 37.10 36.02 38.12 42.05 42.54 43.76 44.40 45.03 46.19 47.24 47.38 47.93 48.28 48.63 49.19 49.74 49.97 50.25 50.08 49.68 50.02 49.78 47.68 47.32 47.87 48.02 47.17 46.65 46.53 46.35 46.29 45.90 45.30 45.12 45.73 45.39 45.66 45.64 45.50 44.96 44.18 43.52 42.12
40.50 39.01 33.69 26.84 29.18 31.83 36.26 33.85 38.22 43.30 45.15 45.25 45.07 45.02 45.69 46.22 47.24 47.87 47.77 48.04 48.62 49.18 49.39 49.65 49.35 49.31 49.63 49.70 47.64 47.24 47.75 46.79 45.74 46.14 45.92 45.57 44.06 44.12 44.89 45.30 45.65 45.72 45.57 45.33 45.41 44.50 41.23 39.93 39.44
40.47 37.72 39.74 32.36 26.12 31.33 34.63 38.26 41.78 43.78 44.22 44.58 43.52 44.68 44.94 45.82 47.00 47.32 48.25 48.87 49.13 49.23 49.40 48.89 48.62 48.77 49.15 48.85 46.76 46.49 45.96 45.49 45.06 44.97 44.14 43.20 42.80 44.14 45.39 45.70 45.30 45.46 45.51 44.90 43.26 42.97 39.97 38.82 37.21
42.57 42.55 36.01 35.92 28.15 25.91 32.77 33.46 36.65 39.11 41.32 41.85 42.70 43.98 45.40 46.84 47.74 48.57 48.95 48.98 49.01 49.39 49.13 49.33 49.35 47.90 47.93 47.53 45.33 45.06 44.97 44.62 43.32 41.57 41.09 41.56 42.77 44.63 44.97 43.83 43.01 42.55 42.77 42.28 41.56 41.74 41.55 40.95 40.99
40.41 38.32 37.48 37.35 34.60 30.24 27.38 33.31 41.36 40.96 42.18 42.37 42.79 43.88 45.23 46.72 47.67 48.19 48.42 48.90 48.51 48.74 48.92 48.64 48.43 47.28 46.91 44.41 44.20 44.18 43.31 41.24 39.60 39.73 40.56 41.24 43.10 42.70 41.11 41.15 40.98 40.36 39.35 39.73 40.61 40.31 40.18 39.22 38.89
41.43 38.46 37.14 32.31 29.64 32.60 30.93 31.56 42.09 43.21 43.81 43.46 43.89 44.25 45.81 46.77 47.30 47.63 47.73 47.94 48.10 48.04 48.10 47.89 47.48 45.82 44.06 43.79 43.91 42.45 40.18 38.59 38.68 39.52 40.17 41.15 40.53 40.71 40.38 40.45 39.84 39.21 39.35 40.43 38.74 37.58 37.50 36.79 35.97

GFSSGP_sfc_wetblb_012.txt.gz
Wetbulb
57.93 57.40 59.38 56.62 49.90 51.61 47.86 48.61 54.64 56.20 56.62 60.57 60.59 58.69 58.68 60.58 57.27 54.94 67.94 68.08 66.67 68.91 71.49 72.02 70.91 72.19 72.55 72.39 72.03 72.03 71.87 71.68 71.47 71.18 70.43 69.96 69.98 69.59 69.08 68.61 67.66 66.59 66.98 66.94 67.55 67.86 69.25 69.13 67.76
58.20 54.25 55.64 54.73 48.18 45.32 46.71 51.54 52.06 57.02 59.81 61.45 60.97 60.34 58.32 56.52 62.74 64.39 65.75 66.86 66.43 68.38 70.46 71.33 70.02 71.64 72.61 72.17 72.20 72.43 71.79 71.47 70.90 70.47 70.13 69.72 69.62 69.47 69.19 67.61 66.46 66.68 67.01 67.08 67.17 67.92 68.40 67.92 67.02
55.62 54.06 52.97 51.56 50.07 46.19 47.03 52.57 56.79 59.36 60.06 60.30 59.62 62.15 60.59 58.54 63.37 65.00 67.30 65.85 65.67 67.47 69.24 70.47 69.64 70.22 71.24 71.53 71.65 71.94 71.57 71.28 70.87 70.61 70.51 70.02 69.49 68.75 67.82 66.62 66.28 66.92 67.31 67.72 68.09 68.38 68.11 67.30 66.38
54.77 53.69 54.49 48.80 46.38 49.06 51.65 55.37 57.48 57.57 60.16 61.07 59.13 56.93 62.52 66.10 65.12 66.75 67.36 66.28 64.43 65.41 67.68 68.29 68.73 69.36 69.86 69.70 70.06 70.14 70.12 69.93 70.01 69.94 69.71 69.19 68.51 67.70 65.84 65.87 66.41 66.54 67.09 67.00 66.88 66.55 65.77 65.28 65.06
54.86 53.17 49.69 47.93 48.42 51.45 55.02 57.63 58.16 55.99 57.75 59.37 59.54 56.95 59.29 65.74 68.19 67.89 67.61 66.61 65.00 65.62 67.13 67.63 67.77 68.51 68.98 68.51 68.55 68.81 68.99 69.21 69.16 69.13 68.76 68.59 67.26 66.61 66.51 65.96 66.47 66.61 66.61 66.38 66.49 65.90 65.26 64.76 65.42
51.37 54.25 47.52 45.62 47.52 51.34 54.08 56.23 55.64 54.31 56.48 58.11 57.62 57.36 59.71 66.81 66.13 66.89 67.41 66.16 65.57 65.81 67.20 67.13 66.93 67.91 68.33 68.26 67.86 68.04 67.82 67.68 67.87 68.19 68.21 67.61 67.11 66.49 66.22 65.86 65.50 65.19 64.53 64.56 64.72 65.55 65.27 64.47 63.48
50.94 50.19 46.90 46.88 47.05 48.41 50.30 53.69 53.47 53.40 54.06 54.37 58.64 54.74 60.24 64.22 66.32 67.09 66.55 65.98 66.06 65.96 66.52 67.57 67.79 67.88 67.04 66.87 67.01 67.16 67.42 66.87 66.61 66.76 66.59 66.35 66.01 65.13 64.62 64.51 64.22 63.76 63.43 63.17 63.01 63.01 62.67 62.04 61.41
51.99 50.06 45.42 45.78 44.31 44.51 48.05 49.23 50.72 51.34 53.34 60.54 60.02 52.94 56.12 63.26 67.17 67.38 66.43 65.87 66.19 66.93 67.07 67.94 68.66 68.11 68.79 68.26 65.64 66.47 66.55 66.86 65.86 65.32 64.61 64.37 64.76 63.73 62.85 61.88 62.87 62.90 62.28 61.98 61.76 61.36 60.80 60.25 60.08
50.94 45.87 43.56 43.85 44.59 45.73 48.99 47.93 50.88 54.94 54.33 54.49 57.11 58.31 61.31 65.66 67.18 66.50 65.89 65.57 66.19 67.08 68.08 68.73 68.50 68.73 69.21 68.51 67.36 65.38 65.86 66.29 66.02 66.06 64.26 64.91 68.01 67.03 65.03 61.89 61.42 61.54 61.07 60.77 60.43 59.47 58.17 57.57 58.43
50.31 47.20 44.83 46.78 47.82 47.43 48.50 48.24 49.37 50.23 51.25 52.71 55.90 60.27 63.92 66.24 66.15 65.54 65.20 64.48 65.95 66.80 68.30 69.44 69.66 69.17 69.14 66.97 68.61 69.00 68.41 69.40 69.63 68.98 68.55 68.28 67.85 67.46 64.60 63.33 60.97 60.81 60.41 59.16 59.15 59.05 58.83 59.17 61.66
49.69 46.43 48.04 47.53 48.96 49.65 48.55 48.15 49.80 48.74 48.03 50.98 51.17 57.90 63.13 64.95 65.41 65.25 65.14 63.80 65.14 67.21 68.37 69.07 69.99 69.90 69.04 68.48 68.80 68.36 68.42 69.00 69.29 68.89 68.95 68.58 67.81 67.59 66.79 66.26 65.24 64.95 61.96 63.64 62.50 62.93 62.07 62.05 62.14
47.04 48.91 48.63 48.75 49.20 49.15 48.16 50.05 48.53 49.69 49.80 53.14 54.53 58.74 62.04 63.13 63.48 63.26 63.53 63.59 64.16 66.21 68.04 69.39 69.93 69.97 69.82 68.57 67.83 68.51 67.46 67.99 67.52 68.28 68.66 68.33 67.22 66.65 66.17 65.06 64.19 63.81 63.41 63.32 62.95 62.42 62.89 61.95 60.53
48.86 49.43 50.02 49.90 49.37 49.45 49.70 49.02 49.36 49.69 51.77 52.74 56.87 59.88 60.19 61.20 62.14 63.61 64.08 64.35 65.60 66.72 68.41 69.82 70.51 70.21 68.82 67.80 67.90 67.97 67.84 67.35 67.67 67.55 67.29 68.11 66.47 65.61 65.05 64.14 63.38 62.81 62.70 62.33 62.00 61.74 61.17 59.33 57.90
50.91 50.67 50.29 50.54 50.03 50.38 49.27 49.72 50.41 50.89 52.70 52.36 55.20 58.03 60.07 60.57 60.81 62.34 63.83 64.43 66.07 67.07 68.00 70.10 70.29 69.89 67.11 66.22 66.80 66.94 67.76 67.00 66.99 65.92 65.74 67.15 66.81 64.85 63.49 62.42 61.63 61.34 61.29 61.45 61.20 60.76 59.97 58.52 57.80
51.28 48.67 50.25 49.82 50.19 49.22 49.86 48.35 48.37 51.09 51.53 51.12 52.76 55.73 58.96 60.36 61.28 61.61 62.99 64.46 65.97 66.35 67.22 68.69 69.14 67.76 66.36 65.17 64.85 65.18 65.38 64.43 64.01 63.87 64.66 65.31 65.41 64.01 63.38 61.83 61.25 61.15 61.47 61.74 61.61 60.99 59.89 58.43 57.15
48.76 49.06 45.73 49.07 50.12 50.60 50.96 46.38 50.27 52.44 51.63 51.61 52.22 53.68 57.40 59.70 61.44 63.06 64.50 64.47 64.09 64.22 65.23 67.38 66.47 65.55 65.26 64.27 64.52 64.11 64.14 63.68 62.99 63.02 62.93 63.11 63.08 63.11 62.54 61.24 61.00 61.61 61.47 60.70 60.03 59.53 58.25 57.67 56.46
47.36 43.71 43.88 46.20 49.86 50.06 49.53 46.91 51.62 51.80 50.62 52.27 52.49 53.34 54.90 58.06 61.53 61.61 60.18 61.05 61.68 61.56 63.52 65.74 66.10 64.25 63.31 63.62 63.27 63.30 63.05 62.94 62.51 62.29 61.22 61.29 61.39 61.51 61.41 60.44 60.56 61.58 60.52 59.79 59.32 58.77 58.35 56.96 55.94
42.59 42.91 44.72 44.15 47.79 48.75 47.41 47.83 49.51 50.28 49.19 51.20 52.70 52.51 53.18 56.59 58.94 58.27 57.77 57.38 58.15 60.82 62.64 64.72 64.21 62.36 62.04 63.03 62.07 60.49 60.05 60.03 59.88 59.41 59.10 58.99 58.83 59.12 59.36 59.24 59.98 60.33 59.45 58.81 58.45 58.08 58.01 57.03 56.14
45.55 44.14 43.42 45.62 47.88 47.72 47.32 47.17 47.95 49.81 50.49 50.50 50.89 51.52 53.14 55.42 55.47 55.88 56.68 57.53 57.93 59.86 60.13 60.62 60.35 57.50 59.50 59.12 57.05 57.55 57.16 57.47 58.10 58.67 58.37 58.42 58.27 57.93 57.86 57.47 57.80 58.27 57.74 58.08 58.37 57.85 57.08 56.28 56.80
45.35 43.72 43.60 45.94 46.98 47.36 47.61 46.17 47.87 49.35 49.32 50.84 51.37 52.21 53.11 53.67 54.34 55.01 56.51 57.33 57.93 57.37 57.02 56.38 55.79 55.98 56.36 57.46 57.52 57.45 57.02 57.71 57.62 57.94 57.60 57.18 56.15 56.12 55.60 56.02 55.77 56.13 55.76 56.41 56.76 56.89 55.96 56.19 56.48
45.54 43.82 43.94 43.62 46.86 47.97 46.93 45.75 46.15 47.96 49.68 50.52 51.73 52.69 53.22 53.37 53.27 53.85 54.47 55.41 56.20 56.19 56.31 55.88 56.50 56.62 56.75 56.75 57.36 57.36 57.40 56.96 55.54 54.37 54.51 54.65 54.70 54.44 54.50 54.48 54.60 54.71 54.78 54.00 55.15 55.49 55.13 53.64 55.67
43.04 46.23 45.94 44.64 44.29 42.22 47.23 41.34 44.71 46.26 47.25 48.90 50.32 52.08 52.28 52.63 53.05 53.28 53.78 54.37 55.64 56.09 56.87 56.37 56.36 56.02 55.83 55.98 54.98 54.35 53.43 52.11 53.23 53.49 53.68 53.54 53.97 53.40 53.04 53.24 53.39 53.73 53.71 53.41 53.70 53.91 54.22 54.00 52.17
45.01 47.38 45.74 45.25 44.77 44.21 44.26 42.73 44.35 46.76 45.23 46.83 49.22 50.33 51.78 52.34 52.94 53.05 53.54 54.38 55.12 55.89 56.17 56.60 55.96 55.47 55.18 54.67 54.35 53.95 53.16 53.19 53.37 53.19 52.36 52.23 52.31 52.34 52.12 52.31 52.14 52.44 52.85 53.01 53.08 52.90 52.77 53.02 52.07
48.41 45.90 45.68 46.17 45.99 40.00 42.29 42.26 42.91 45.80 44.76 46.69 48.96 50.20 51.22 52.31 52.18 53.12 53.85 54.47 54.90 56.15 56.16 55.76 55.04 54.30 54.76 54.57 53.24 52.49 52.28 51.87 51.41 50.95 49.89 49.77 50.13 50.36 51.06 51.17 51.06 51.37 51.09 50.72 50.48 50.15 49.02 48.54 47.74
48.47 44.62 40.40 38.12 38.96 38.08 42.31 41.30 42.62 45.39 47.24 48.25 48.46 50.20 51.64 52.81 52.90 52.73 52.75 53.52 54.07 54.54 55.10 54.73 54.50 53.52 53.85 53.45 52.60 52.04 51.82 51.61 50.52 49.81 48.86 48.10 47.97 48.42 49.14 50.05 50.25 50.08 50.49 50.05 48.36 45.29 43.42 42.57 40.40
44.97 44.56 39.48 30.63 34.91 37.83 42.05 38.62 42.94 47.31 49.16 49.52 50.00 50.19 50.88 51.15 52.12 52.23 52.48 53.36 53.71 53.67 54.05 54.28 53.94 53.04 52.82 52.64 52.10 52.06 52.17 51.38 49.63 48.77 47.75 46.99 47.37 47.96 49.01 49.29 48.97 48.62 48.56 48.00 47.22 45.80 43.87 40.84 39.56
44.36 42.26 44.49 37.95 33.24 36.68 41.44 42.59 46.02 47.51 47.76 48.38 48.56 49.59 49.96 50.79 51.01 51.68 52.42 53.15 53.55 53.48 53.49 53.72 53.62 53.61 53.22 52.45 52.24 51.34 50.90 49.11 47.83 47.07 46.81 46.79 47.38 47.29 48.56 48.24 47.69 46.88 46.27 45.34 44.43 42.86 41.85 42.31 41.45
46.61 46.65 40.82 42.21 32.56 28.99 37.43 38.69 40.72 44.40 45.56 46.41 47.24 48.60 49.90 50.96 51.37 52.12 52.70 52.86 53.07 53.77 54.13 53.93 53.54 52.73 52.52 52.02 50.78 49.61 48.81 47.70 46.26 45.90 45.56 46.13 46.88 47.53 46.44 45.71 45.24 44.65 43.85 42.94 41.67 41.72 41.92 41.03 41.10
45.18 43.84 42.29 42.21 40.29 33.45 31.32 36.80 46.54 45.16 46.31 46.10 47.57 48.58 49.49 50.30 51.14 51.44 52.02 52.32 53.03 53.15 52.79 52.26 52.10 51.21 50.43 49.88 49.11 48.13 46.90 45.58 45.45 45.14 44.96 45.22 45.52 44.60 44.15 43.76 43.41 42.13 40.97 40.81 40.65 41.14 41.15 39.98 39.56
45.75 43.07 42.15 37.71 32.15 37.68 35.77 35.92 46.63 47.30 47.68 47.49 48.02 48.26 49.85 50.59 51.16 51.57 51.88 51.80 51.77 51.27 50.68 49.99 49.85 48.97 48.64 48.19 47.44 46.47 45.43 45.18 44.76 44.45 44.40 44.69 43.97 44.36 43.79 42.71 41.71 40.89 40.52 41.36 39.25 39.06 39.20 38.28 37.38

GFSSGP_sfc_wetblb_015.txt.gz
Wetbulb
61.52 59.26 59.65 57.95 50.40 51.24 50.13 51.55 56.54 55.35 56.37 60.35 60.08 59.12 57.91 60.48 59.28 55.21 67.05 66.46 69.42 71.41 72.00 72.35 72.04 72.62 72.32 71.95 71.81 72.06 71.67 71.61 71.44 70.61 70.19 70.40 69.72 69.41 68.92 67.92 67.22 67.54 67.51 67.75 68.04 68.81 69.04 68.55 67.86
59.70 56.92 57.45 54.96 48.73 47.28 49.02 52.57 53.86 56.81 58.37 59.56 59.14 58.68 57.77 57.16 63.56 64.42 63.70 66.64 69.15 70.95 71.87 72.03 71.07 72.30 72.62 72.54 72.35 72.07 71.61 71.15 70.63 70.29 70.12 69.92 69.60 69.38 68.40 67.13 67.05 67.27 67.80 68.23 68.29 67.67 68.28 67.53 66.65
59.40 56.77 52.09 50.62 49.43 47.64 48.25 52.40 56.13 57.87 59.43 59.25 58.10 60.75 59.82 58.86 63.25 64.23 65.67 66.55 68.07 69.13 70.86 70.74 70.04 70.97 71.78 71.88 72.13 71.83 71.48 71.11 70.85 70.59 70.23 69.84 69.36 68.69 67.53 66.66 66.95 67.17 67.83 67.80 67.78 67.79 67.53 67.24 66.56
55.76 53.83 53.63 48.81 48.99 51.43 52.25 55.58 57.33 56.93 58.95 59.67 57.79 56.97 63.12 65.58 64.14 65.76 65.63 65.44 66.11 66.90 68.95 68.73 69.37 69.96 70.36 70.28 70.33 70.31 70.05 70.09 70.16 70.08 69.69 69.33 68.74 66.91 66.04 66.60 66.89 67.42 67.52 67.40 67.40 66.47 65.52 64.90 64.80
55.64 54.48 49.93 49.03 49.66 52.53 55.65 56.55 57.28 56.60 57.51 57.35 57.34 54.78 60.26 66.10 67.29 66.39 65.38 64.30 64.12 65.07 66.51 68.22 68.23 69.07 69.01 68.65 68.67 68.88 68.91 69.08 69.19 69.15 68.96 68.29 67.48 67.20 66.83 66.79 66.75 66.19 65.87 66.05 66.26 66.56 66.22 65.95 65.49
52.30 54.53 48.98 46.94 48.76 52.50 55.06 56.87 55.71 54.93 55.88 55.54 55.97 57.38 60.97 66.65 65.33 65.77 65.40 64.17 64.36 65.14 66.16 66.11 67.10 68.07 68.20 67.94 67.83 67.74 67.71 67.74 68.06 68.37 68.08 67.40 66.82 66.21 66.12 65.80 65.42 65.14 64.70 64.43 64.57 64.67 64.28 63.75 62.91
51.23 51.85 48.99 48.75 48.31 49.91 51.93 55.14 53.13 53.13 53.66 53.28 56.68 55.12 60.89 63.09 65.11 65.28 64.29 64.06 64.31 65.41 66.06 66.83 67.14 67.41 67.25 67.13 67.24 67.18 67.03 66.78 66.46 66.28 66.41 66.31 65.60 65.04 64.52 64.33 64.12 64.01 63.54 63.11 62.58 62.38 62.06 61.68 61.33
53.07 53.51 48.05 48.47 47.11 46.49 49.90 51.09 52.90 52.49 54.29 57.37 58.26 53.99 57.09 62.45 64.84 64.48 63.97 63.87 65.25 65.90 66.92 67.57 68.06 67.88 68.43 68.17 66.30 66.49 66.57 66.41 65.64 65.22 64.48 64.55 65.31 64.78 63.60 63.18 63.32 62.79 62.18 61.70 61.28 60.87 60.31 60.30 60.45
53.76 48.07 45.35 45.63 45.95 46.75 49.84 48.95 51.17 54.19 53.41 54.17 55.61 58.25 61.45 64.49 64.89 63.88 63.18 63.69 65.50 66.03 67.69 67.97 67.80 67.59 67.39 66.55 66.87 65.15 66.10 66.50 66.06 66.04 65.25 65.56 67.22 66.89 66.11 62.60 61.91 61.60 61.08 60.74 60.39 59.66 59.14 59.87 60.08
50.44 48.10 46.56 48.72 49.01 48.30 49.18 49.21 49.68 51.08 51.20 52.50 55.24 58.25 63.37 64.34 63.64 62.55 62.20 62.45 63.95 65.52 66.86 68.18 69.20 68.08 67.43 65.70 67.35 67.47 66.77 67.70 67.74 68.04 68.08 67.47 67.69 67.05 65.47 63.75 62.76 62.54 62.11 61.90 61.20 60.88 60.80 60.63 61.80
50.24 47.78 48.73 48.23 49.44 50.01 48.85 48.53 50.31 49.69 49.21 52.26 53.27 56.09 61.82 62.74 63.27 63.07 63.01 62.92 63.52 65.81 65.80 67.52 70.31 69.78 67.97 66.77 66.11 66.82 67.05 67.21 67.62 68.22 68.15 67.68 67.11 67.16 66.15 65.65 65.45 65.25 62.72 63.60 62.82 63.01 62.52 62.74 61.94
47.39 49.32 49.14 49.01 49.43 49.34 48.51 50.61 49.15 50.07 50.90 53.24 54.64 58.30 61.00 61.36 62.06 62.78 62.79 62.24 63.12 64.50 65.48 67.24 70.05 70.21 68.93 67.35 65.90 66.01 66.28 66.60 66.34 66.89 67.20 66.53 65.45 65.62 65.14 63.86 63.42 63.20 62.43 62.44 62.38 61.94 62.56 62.40 61.41
48.35 48.99 49.46 49.77 49.52 49.93 50.56 49.60 50.01 49.59 52.47 53.68 55.90 58.37 59.81 61.21 61.85 62.40 63.36 63.71 63.83 64.16 65.40 66.78 69.05 70.89 68.39 67.42 65.99 66.65 66.48 66.36 66.56 66.75 66.00 65.56 64.67 64.32 63.72 63.14 62.40 62.00 61.84 61.45 61.35 61.04 60.82 60.81 59.89
51.44 51.30 51.16 51.32 51.06 50.85 49.88 50.20 51.25 51.81 53.02 52.81 54.91 56.98 58.65 59.82 60.99 61.81 62.87 63.14 64.00 64.71 65.49 67.04 68.36 70.62 68.08 65.17 65.85 66.08 66.73 66.22 65.86 65.22 64.22 64.63 64.66 64.34 63.16 62.48 61.60 61.25 61.23 61.06 60.85 60.54 60.32 59.79 59.11
52.32 49.44 51.27 51.48 51.90 50.79 51.85 49.04 49.35 52.87 53.51 52.40 53.14 55.74 58.02 58.99 60.19 60.90 62.65 62.94 63.73 64.57 65.57 66.73 68.50 70.35 67.14 64.86 64.52 64.73 64.42 63.14 63.63 63.54 63.83 63.55 63.73 63.43 63.17 61.99 61.65 61.46 62.21 62.69 61.61 60.92 60.51 59.69 59.25
50.04 50.58 47.28 50.79 51.54 52.08 51.75 47.49 51.02 53.54 53.03 52.56 53.68 54.19 56.04 58.16 59.22 60.90 62.26 63.07 63.98 63.94 63.74 65.55 68.03 68.77 66.68 64.19 64.29 64.13 63.84 63.37 62.59 63.06 63.46 62.75 62.85 62.77 62.46 61.13 61.16 62.22 62.24 61.12 60.68 59.64 58.95 58.71 58.27
49.08 45.79 45.75 47.73 51.60 51.00 50.74 48.68 52.56 54.28 53.07 52.79 53.73 54.49 54.91 57.01 59.46 61.77 63.18 63.01 62.52 62.65 62.54 63.57 67.94 67.13 65.17 63.92 63.35 63.80 63.28 62.78 62.31 62.18 61.35 61.37 61.17 61.13 60.94 60.31 60.73 62.77 60.82 61.41 60.55 59.94 59.90 58.13 58.22
44.79 44.10 45.80 45.36 49.42 49.15 48.57 48.77 51.58 52.49 52.24 52.90 54.08 54.45 54.83 55.66 58.54 61.65 60.55 60.89 60.11 61.76 62.91 64.44 66.65 65.17 63.48 63.19 62.76 61.00 60.78 60.49 60.88 60.12 60.07 60.10 60.00 60.05 59.59 59.23 60.25 60.35 58.62 58.91 59.67 60.23 59.47 59.40 58.69
46.79 45.40 45.05 47.37 49.44 48.06 47.75 48.55 49.53 51.78 52.62 53.06 53.86 53.82 54.27 55.77 59.71 59.25 59.10 59.95 61.12 62.96 63.36 64.18 63.09 60.32 60.58 59.99 58.31 58.28 57.89 58.64 59.24 59.80 59.71 59.74 59.03 58.08 57.78 57.05 57.37 57.95 56.60 57.73 59.07 58.56 58.00 57.43 59.27
47.09 45.71 45.71 47.66 48.67 48.27 48.73 48.15 49.66 51.04 51.75 53.00 53.15 54.25 55.48 55.92 56.01 57.12 58.47 59.36 59.38 59.51 59.67 59.24 58.50 58.31 58.40 58.55 58.51 58.90 58.37 58.61 58.91 59.33 58.66 58.22 57.29 56.57 55.69 55.54 55.12 55.37 54.44 56.60 57.09 57.09 55.87 56.74 57.97
47.60 45.95 46.32 45.66 48.58 49.73 48.27 47.08 47.77 49.97 51.69 52.67 53.56 54.17 54.53 54.51 54.37 55.45 56.50 57.74 58.72 58.30 58.32 57.99 58.13 58.25 58.13 58.14 58.39 58.04 58.15 58.07 57.14 57.08 56.52 56.76 56.53 55.65 55.14 54.52 54.53 54.94 55.27 54.32 55.92 55.72 55.11 53.23 55.29
45.44 48.19 47.41 46.67 45.81 43.40 49.10 43.16 47.23 48.69 49.17 50.74 52.21 53.23 53.71 53.91 54.74 55.45 56.26 56.76 57.52 57.85 58.38 58.15 57.64 57.39 57.33 57.56 56.73 56.31 55.15 54.16 55.38 55.59 55.77 55.21 55.02 53.94 53.41 53.23 54.11 54.68 53.76 53.76 54.33 53.71 54.99 54.12 51.74
46.82 49.64 47.96 47.69 46.57 46.24 45.85 43.20 45.71 48.72 47.18 48.89 51.09 52.40 53.48 54.23 55.12 54.93 55.58 56.35 57.16 57.99 58.24 58.10 57.30 57.03 57.19 57.08 56.14 55.05 54.30 54.59 54.89 54.52 53.85 53.04 53.11 52.84 52.20 52.34 53.26 52.77 52.51 52.67 52.62 51.85 51.55 51.22 50.04
50.65 48.92 48.20 48.64 47.11 40.98 45.08 44.10 44.97 46.84 48.04 48.58 50.66 51.82 53.01 53.83 54.43 55.07 55.74 56.30 56.69 57.77 58.01 57.86 57.12 56.72 56.65 56.69 55.99 54.53 53.53 53.08 52.19 52.00 50.87 50.92 50.85 50.65 51.30 50.61 51.46 52.07 51.53 51.21 50.86 49.46 48.40 46.62 46.00
50.07 47.24 41.96 39.83 40.14 39.73 45.23 42.47 45.25 48.13 49.52 50.31 50.24 51.92 53.48 54.57 54.74 54.45 54.71 55.36 55.57 55.88 56.52 57.07 56.55 56.08 56.35 55.27 55.03 54.76 53.50 53.06 51.78 50.84 49.89 48.48 47.93 48.50 49.73 49.70 50.27 49.96 50.34 49.43 48.05 46.33 45.07 43.56 42.19
46.73 46.79 41.23 32.90 36.27 39.53 44.76 39.54 45.00 50.01 51.16 51.45 51.84 52.08 52.83 53.17 53.86 53.83 54.37 54.95 55.50 55.54 56.22 56.20 55.77 55.24 55.90 55.66 54.87 54.62 53.63 52.04 50.79 49.58 47.78 46.93 47.04 48.11 48.71 49.16 49.69 48.40 48.05 46.37 44.46 43.36 41.77 41.04 41.99
46.54 43.88 46.82 40.87 38.75 38.24 42.13 44.91 48.54 49.98 49.57 50.27 50.32 51.36 51.70 52.37 52.70 53.22 54.28 54.81 54.90 55.14 55.48 55.45 54.88 54.38 54.43 54.58 54.15 52.88 51.78 50.37 48.77 47.63 47.20 47.25 47.48 47.46 48.57 48.18 46.84 45.99 44.28 44.53 44.86 43.86 42.87 43.23 42.46
48.38 48.71 42.67 43.88 33.12 30.66 38.88 39.90 42.10 45.94 47.63 48.69 49.34 50.07 51.28 52.24 52.93 53.64 53.87 54.40 54.50 54.85 55.06 55.04 54.26 53.48 52.93 51.74 51.94 50.84 50.16 49.21 47.48 46.91 46.27 46.19 46.61 46.77 45.94 45.87 45.32 43.77 43.69 42.98 43.06 41.99 42.32 41.94 42.50
46.75 45.98 44.36 43.63 41.27 34.60 32.70 38.21 47.26 46.64 47.75 47.79 48.97 50.26 51.10 52.15 52.66 53.00 53.41 53.80 54.10 54.52 53.99 53.17 52.53 51.90 51.19 50.69 49.96 49.15 48.32 47.42 46.81 46.11 46.12 45.23 45.27 44.76 44.47 44.01 43.54 42.47 41.81 42.02 41.90 41.23 41.23 40.11 40.09
47.65 45.27 44.27 38.94 35.66 39.22 37.37 37.23 48.39 48.45 48.55 48.84 49.29 50.49 51.22 52.10 52.24 51.77 51.59 51.98 52.16 52.27 52.22 51.36 50.78 49.51 49.36 49.19 48.29 47.37 47.10 46.83 46.20 45.38 43.92 44.04 43.42 44.45 44.50 43.80 41.97 42.02 41.93 41.47 40.47 40.35 39.88 39.01 38.51

GFSSGP_sfc_wetblb_018.txt.gz
Wetbulb
60.30 57.84 57.31 55.96 48.43 48.59 46.07 50.99 56.17 54.92 55.58 58.49 59.17 57.22 56.60 59.66 58.16 52.80 64.58 68.78 70.70 69.96 71.28 71.52 72.14 72.60 72.69 72.84 72.86 72.35 72.25 72.06 71.62 71.41 71.28 70.71 70.08 69.54 68.59 68.21 68.18 68.35 68.92 68.99 68.66 69.08 69.11 68.35 67.51
57.06 58.07 56.25 53.04 46.27 44.33 47.77 53.51 52.99 55.22 56.60 57.31 58.69 57.83 57.71 56.17 62.05 61.03 63.66 69.14 70.58 70.86 71.03 71.49 71.72 72.16 72.48 72.64 72.71 72.19 71.60 71.11 71.35 70.96 70.50 70.11 69.81 69.08 68.06 67.60 67.98 68.26 68.50 68.45 68.57 68.89 68.54 67.97 67.40
58.18 57.50 51.39 49.07 46.99 44.41 47.23 53.18 55.25 56.09 57.33 57.92 56.90 60.90 59.10 58.03 61.83 61.61 65.75 68.36 69.40 69.63 70.04 70.42 70.59 71.30 72.10 72.03 72.09 71.79 71.63 71.49 71.44 71.09 70.42 70.06 69.30 67.75 67.12 67.23 67.66 67.89 67.92 67.70 67.50 66.90 66.21 65.94 65.75
55.30 53.38 51.03 45.78 45.23 50.37 51.00 54.97 56.10 55.60 57.96 58.64 57.93 56.66 61.17 63.72 62.01 63.19 65.34 66.61 66.77 67.63 68.46 68.46 69.07 70.13 70.78 71.06 71.09 70.77 70.46 70.59 70.59 70.27 69.77 69.12 67.75 66.88 67.08 67.29 67.46 67.03 66.77 66.84 66.99 66.73 66.32 66.01 66.06
55.42 52.44 45.93 46.45 49.06 52.56 55.00 55.89 55.86 55.22 55.93 56.22 57.04 56.91 59.07 63.12 63.51 62.96 63.17 64.09 63.77 65.70 67.05 67.25 68.02 68.94 69.47 69.62 69.27 69.49 69.42 69.62 69.44 69.34 68.56 67.78 67.51 67.29 66.88 66.44 65.89 65.57 65.41 65.54 66.05 65.95 65.45 64.63 64.03
49.29 51.09 44.96 44.82 48.47 52.39 54.51 56.09 55.87 56.28 56.22 54.53 56.28 57.76 59.64 63.75 62.70 62.37 62.66 62.93 63.59 64.42 64.87 65.30 68.04 68.55 68.42 68.67 68.67 68.41 68.32 68.48 68.69 68.87 67.90 67.24 66.60 66.26 66.02 65.78 65.36 64.68 64.41 64.05 63.82 63.83 63.81 63.50 62.88
48.77 47.26 44.55 48.32 48.24 50.08 52.84 55.36 52.86 53.02 53.65 53.59 57.16 55.77 60.01 61.49 63.53 62.99 62.37 62.37 63.65 63.98 64.03 65.09 65.16 66.73 67.13 67.05 67.35 67.24 67.26 67.19 67.16 67.16 66.90 66.60 66.22 65.85 65.30 64.85 64.40 63.80 63.43 62.91 62.29 61.89 61.93 61.95 61.93
50.75 48.82 45.66 48.40 46.71 47.15 51.01 52.84 53.58 52.91 52.85 56.92 57.98 54.90 55.73 61.28 63.10 62.44 61.93 62.30 63.06 64.88 65.50 65.61 66.00 65.95 65.86 65.12 66.37 66.62 66.85 66.55 66.27 66.06 65.75 65.68 65.71 65.61 64.77 64.91 63.95 62.81 61.80 61.51 61.18 61.12 61.07 61.15 61.37
53.13 46.81 45.98 46.34 46.85 46.24 49.50 48.14 51.15 54.15 53.19 54.15 57.10 57.87 61.26 62.73 62.52 61.40 60.81 61.77 63.15 64.41 66.30 66.19 65.76 65.95 66.51 65.95 65.69 66.29 66.89 66.43 66.01 65.97 65.18 64.41 65.22 64.67 64.03 63.28 63.69 62.68 62.21 62.01 61.64 61.17 61.24 60.84 61.02
49.31 46.86 45.87 48.51 48.74 47.57 48.61 49.01 49.31 50.65 50.66 52.15 55.50 61.32 62.58 62.04 61.51 60.04 59.80 60.60 62.58 64.14 65.32 66.76 66.89 66.09 65.79 64.21 65.01 66.21 66.70 65.97 66.10 66.58 66.44 66.18 65.79 65.06 64.65 64.16 63.34 63.63 63.21 63.23 62.73 62.48 61.89 61.24 58.09
49.88 46.20 48.30 48.18 49.15 49.80 48.17 47.90 50.58 49.66 48.15 52.01 52.35 58.71 60.98 61.18 60.77 60.52 60.41 61.53 62.39 63.96 64.98 66.76 68.60 67.78 66.56 65.84 63.68 65.43 65.43 65.50 66.84 67.53 65.80 66.00 65.02 65.79 64.10 63.45 63.14 62.29 62.55 61.82 61.11 60.93 59.60 60.37 59.17
47.04 48.92 48.47 48.32 49.20 48.89 47.57 49.08 48.36 50.02 50.73 54.06 55.32 58.08 60.79 59.98 60.35 60.95 61.18 61.49 62.31 63.75 64.02 67.41 68.68 68.65 66.96 65.84 64.74 64.66 64.93 64.59 65.00 65.02 65.60 64.38 63.35 63.45 62.21 61.51 60.28 60.04 59.40 59.26 59.16 58.28 59.76 59.28 59.81
47.63 47.78 48.50 49.18 49.08 49.75 50.20 48.94 49.65 49.24 52.07 53.93 56.55 57.70 59.48 59.77 60.76 61.82 62.67 62.13 62.39 62.62 64.32 65.59 68.53 69.16 67.66 65.79 65.50 65.36 64.74 65.47 64.59 64.62 64.63 63.86 62.41 62.37 62.08 61.01 60.41 59.81 59.19 58.31 57.91 57.46 57.48 57.66 57.45
49.92 49.15 49.02 49.86 49.72 49.79 48.34 49.60 50.41 50.76 51.93 52.28 54.86 56.62 58.63 59.87 60.64 61.15 61.84 62.29 62.80 63.67 64.88 66.62 67.66 69.46 67.46 64.50 64.15 64.43 65.16 65.10 64.79 63.18 62.38 62.84 62.25 62.01 61.24 60.23 60.07 59.39 59.05 58.67 57.72 56.79 57.02 56.77 57.12
51.47 48.45 49.75 50.27 50.40 49.38 50.79 48.07 48.09 51.98 52.50 51.09 52.98 55.14 57.34 58.80 60.23 60.57 61.97 63.08 63.67 63.69 64.54 64.92 63.26 68.95 66.35 64.19 63.58 63.17 62.54 61.06 61.27 62.02 61.86 61.58 61.38 60.72 60.46 59.67 59.31 59.28 59.51 59.01 58.12 57.59 56.83 56.18 56.93
48.72 49.71 45.87 49.82 50.98 51.41 50.09 45.53 49.94 52.54 51.95 51.44 51.83 53.17 55.64 57.82 58.80 60.76 62.40 63.65 63.40 63.57 61.58 63.68 66.54 68.13 66.02 64.53 62.94 62.38 62.38 61.50 60.96 61.17 61.60 61.07 61.26 60.68 59.63 58.84 58.87 59.38 59.35 58.32 57.57 56.71 55.64 55.16 54.81
48.24 43.92 46.21 47.63 51.25 51.05 49.70 47.19 50.76 53.06 52.89 52.11 52.89 53.46 54.02 56.20 58.16 60.32 61.59 62.97 63.98 62.57 62.66 62.94 67.33 66.76 65.67 63.58 62.04 62.17 61.70 60.72 61.09 59.89 59.41 59.57 59.25 60.02 58.35 57.40 57.81 58.73 57.42 56.82 56.73 55.60 55.42 54.31 54.32
43.30 44.30 45.07 45.23 48.94 48.61 47.50 47.85 51.46 52.66 52.16 52.22 52.49 53.68 54.03 54.53 57.14 61.27 60.24 60.30 60.76 62.75 63.15 63.98 64.19 63.63 63.14 62.20 61.04 60.21 59.51 59.40 59.77 58.92 58.58 58.91 57.91 57.99 56.81 55.93 56.69 57.34 54.92 54.40 54.42 54.49 54.37 54.13 54.04
46.79 45.25 44.67 47.57 49.40 47.31 46.52 47.59 49.77 51.47 52.23 53.08 53.88 55.48 54.69 56.18 57.46 58.33 59.30 60.50 61.73 63.04 61.67 62.50 59.87 60.16 59.39 58.30 56.84 56.99 56.56 57.13 57.67 57.75 58.97 57.58 57.27 56.07 54.86 53.82 53.59 53.19 52.23 52.21 52.81 52.26 51.22 51.59 52.43
46.76 45.55 45.40 47.88 48.99 47.26 46.92 47.26 49.54 50.76 51.73 52.84 52.82 53.53 55.17 54.94 55.55 57.17 57.89 58.24 58.55 58.60 58.83 58.53 58.10 58.10 57.38 57.42 57.01 57.00 56.60 57.20 56.88 57.45 57.18 57.03 55.75 55.01 54.12 53.34 52.29 51.90 50.72 50.37 50.36 50.59 50.40 50.32 51.06
47.28 45.37 46.25 45.31 47.89 49.01 47.35 45.65 47.23 49.87 51.61 52.55 53.67 54.64 54.59 54.12 54.03 55.40 56.49 57.41 58.18 57.52 57.64 57.26 57.49 57.38 57.14 57.05 56.61 56.28 56.30 55.95 55.10 54.80 54.57 55.62 55.01 53.91 52.82 51.98 51.12 50.79 50.57 49.19 48.50 48.68 48.56 47.76 48.95
44.27 49.15 47.63 46.04 45.05 41.23 48.03 39.42 45.63 47.78 48.40 50.27 51.70 52.72 52.99 53.68 54.48 55.22 56.04 56.30 56.73 57.04 57.95 57.37 57.51 57.14 56.91 56.91 55.40 54.54 53.59 51.95 53.43 53.58 53.51 53.04 52.97 52.54 50.99 50.49 50.03 49.19 49.65 48.67 48.54 49.91 48.53 47.84 45.97
46.56 49.49 47.38 46.94 45.17 44.84 44.87 42.30 45.01 47.95 46.35 48.60 50.89 52.12 53.14 54.19 54.58 54.43 55.02 55.83 56.53 57.59 57.51 57.69 57.56 56.94 56.90 56.22 55.60 53.56 52.57 52.59 52.64 51.98 51.38 50.69 50.47 49.93 49.63 48.87 48.17 47.91 48.42 48.08 48.64 48.04 46.11 45.04 43.28
50.34 49.13 48.60 47.96 45.96 40.61 43.95 43.34 42.71 45.18 46.88 48.59 50.47 51.87 52.92 53.56 54.39 54.70 55.76 56.35 56.24 57.75 57.62 57.49 56.65 56.38 56.78 55.43 54.72 53.62 52.51 51.40 50.43 49.80 48.47 47.49 47.08 47.06 47.46 48.25 47.31 47.73 47.97 46.70 46.42 45.16 44.09 42.83 42.40
49.72 46.70 40.92 38.64 39.83 38.67 45.57 41.55 44.43 48.26 49.77 50.08 49.96 51.53 53.12 54.31 54.43 54.63 54.57 54.78 55.60 55.67 56.31 56.18 55.88 54.77 55.52 55.75 54.31 53.85 52.09 51.02 48.90 47.74 46.06 44.98 45.00 45.06 45.40 46.78 47.17 46.62 46.02 44.73 44.16 42.81 41.32 40.69 40.10
47.00 45.77 41.16 32.70 34.07 37.59 44.36 39.07 42.85 49.65 50.99 51.73 51.97 52.11 52.68 53.07 54.15 53.98 54.29 54.63 54.79 55.26 55.43 55.57 54.65 53.69 53.49 53.78 53.12 53.07 51.77 49.44 48.26 46.54 45.27 44.55 44.23 44.78 46.22 45.34 46.34 43.95 44.16 44.42 43.87 43.26 42.11 40.65 40.87
46.15 43.19 46.21 41.70 38.87 37.12 40.33 44.59 47.81 49.41 49.00 50.02 50.27 51.09 51.60 52.52 53.45 53.59 54.42 54.78 54.20 54.23 54.42 54.33 53.42 52.75 52.85 52.39 51.58 50.59 49.44 48.38 46.62 45.70 45.09 44.50 45.00 45.07 44.48 44.72 44.05 43.47 43.50 43.28 42.48 41.34 40.80 41.07 41.08
47.52 47.97 41.89 43.66 33.57 30.82 37.34 39.26 40.33 45.25 46.79 48.64 49.04 49.78 50.62 51.93 52.75 53.17 53.33 53.59 53.92 54.06 54.06 53.64 52.86 51.35 51.20 50.10 49.21 48.32 47.76 47.40 46.16 45.34 44.42 43.80 43.28 43.90 43.15 43.38 43.09 42.98 42.85 41.86 40.96 39.97 40.33 40.64 41.01
45.77 44.64 44.39 43.09 41.03 34.00 31.77 36.53 45.73 45.56 47.77 47.55 48.80 49.89 50.75 51.50 51.78 52.20 52.22 52.74 52.78 53.41 51.82 51.62 50.68 49.43 48.70 48.34 48.16 47.06 46.39 46.21 45.80 44.85 43.60 43.02 42.86 42.32 42.31 43.20 42.30 41.44 40.52 40.86 40.59 40.18 39.41 39.30 38.27
47.04 44.79 44.16 39.21 36.26 40.07 37.75 36.17 47.90 48.19 48.68 49.18 49.05 49.70 50.98 51.38 51.06 51.19 51.48 51.89 51.21 50.69 51.05 50.10 48.88 48.21 47.85 47.55 46.39 45.28 45.57 45.28 44.60 43.11 42.70 42.43 41.58 42.09 41.65 41.20 40.77 40.14 40.09 39.75 39.24 38.00 38.08 37.35 36.72

GFSSGP_sfc_wetblb_021.txt.gz
Wetbulb
56.54 54.02 54.16 50.84 44.02 42.40 39.99 45.20 52.45 51.49 50.94 56.91 58.52 57.30 54.99 56.37 54.08 49.28 66.20 68.30 69.07 69.36 71.04 71.43 71.44 72.11 72.49 72.49 72.36 72.26 72.08 71.51 71.21 70.94 71.12 70.88 69.60 68.90 68.49 68.51 68.85 68.84 68.88 68.97 69.09 69.15 68.90 68.50 67.86
56.39 55.65 52.81 47.95 41.24 37.67 41.15 51.31 48.98 50.75 53.71 58.46 57.82 57.27 54.79 52.70 59.43 60.56 63.94 68.67 69.65 70.13 70.86 71.05 71.14 71.92 72.23 71.90 71.73 71.46 71.58 71.21 71.30 70.89 70.36 69.94 69.21 68.49 68.03 68.04 68.35 68.18 68.25 68.11 67.84 67.52 67.16 66.60 66.18
56.17 55.37 46.45 43.51 40.94 38.57 41.85 50.71 50.63 52.23 55.65 57.06 56.40 58.29 56.83 54.00 59.43 61.28 68.22 68.65 69.12 69.25 70.43 70.56 70.51 71.14 71.77 71.59 71.52 71.55 71.50 71.24 71.01 70.83 70.13 69.12 67.96 67.60 67.44 67.68 68.46 67.61 67.48 67.23 67.14 66.76 66.22 66.22 65.99
53.16 49.76 46.04 40.58 39.43 45.80 50.05 51.44 53.04 54.38 55.95 58.39 57.22 54.02 57.86 60.09 59.15 62.58 67.12 67.12 66.42 66.21 67.51 68.53 69.05 70.16 71.02 71.06 70.96 70.78 70.48 70.30 70.15 69.94 68.96 68.03 67.59 67.58 67.62 67.13 66.48 66.50 66.29 66.55 66.60 66.47 66.13 65.08 64.68
53.27 47.25 40.57 39.34 42.98 49.53 51.66 53.02 53.82 52.73 53.45 57.14 58.15 53.65 53.85 58.65 61.12 60.78 64.30 65.46 64.36 64.40 65.79 67.09 67.76 68.91 69.78 69.88 69.49 69.77 69.60 69.36 69.42 68.97 68.56 67.72 67.33 67.01 66.55 66.16 65.65 65.16 64.81 64.90 64.66 64.52 64.30 63.99 63.82
45.52 45.49 39.08 37.03 45.54 50.16 51.05 51.82 55.11 53.97 53.81 57.72 56.87 55.22 53.93 57.84 57.42 58.64 62.47 63.03 64.43 63.15 64.05 65.86 68.07 68.13 68.31 68.52 68.31 68.03 68.26 68.51 68.65 68.36 68.01 67.04 66.81 66.79 66.02 65.51 64.75 64.19 63.62 63.15 62.89 62.80 62.79 62.85 63.12
44.27 42.47 39.13 39.55 44.29 48.06 49.68 51.75 49.68 51.34 50.63 54.96 58.68 53.32 55.17 56.56 57.33 57.67 58.87 61.88 62.04 62.06 61.68 63.29 64.94 66.42 66.76 66.52 66.52 66.35 66.85 66.99 67.14 66.95 66.91 66.30 66.06 65.92 66.02 65.33 64.48 63.72 62.94 62.19 61.67 61.72 62.15 62.48 62.47
46.59 44.05 40.01 41.10 44.63 42.84 48.88 48.24 49.72 50.66 47.84 56.04 58.79 52.31 51.81 56.43 57.92 57.37 58.57 59.17 59.52 60.95 61.75 60.72 62.64 63.68 63.49 64.08 65.64 65.71 65.64 65.56 65.46 65.67 65.82 65.31 65.24 65.05 65.18 64.83 64.77 63.94 62.97 62.22 61.66 62.07 62.14 62.08 61.90
48.05 39.90 39.58 41.80 42.57 42.53 45.40 44.14 46.80 51.06 50.42 54.99 55.39 57.33 57.95 58.15 57.42 56.37 55.93 56.51 58.63 61.17 61.32 61.91 61.79 62.60 62.14 62.68 64.87 65.57 65.98 65.59 65.14 65.08 64.85 63.88 63.05 63.37 62.88 63.52 63.81 63.93 63.36 62.93 62.65 62.39 61.95 61.43 60.89
44.30 39.62 40.35 43.54 44.27 42.66 43.23 44.08 45.82 47.25 48.22 53.78 55.89 58.61 58.58 57.74 56.36 55.48 55.46 56.90 58.29 60.38 61.39 61.70 60.90 61.86 63.06 64.18 63.38 62.96 64.42 64.15 63.84 63.78 63.38 62.78 61.85 62.41 63.18 62.75 63.41 63.65 63.31 63.13 63.01 63.17 62.45 61.54 57.87
42.97 40.61 43.00 44.25 44.84 44.94 42.73 44.48 46.76 45.83 43.68 52.66 54.14 55.81 56.85 56.68 56.12 56.05 56.51 58.78 58.73 61.04 62.20 62.92 61.88 61.47 61.36 60.63 61.06 62.46 62.63 62.70 62.87 63.19 61.55 60.94 62.14 60.81 59.52 60.22 60.44 59.52 61.80 59.80 61.22 60.03 59.41 58.21 57.59
42.33 44.40 44.93 44.45 45.79 44.40 43.63 44.84 44.69 43.74 46.42 52.67 57.92 58.11 57.25 56.53 56.57 56.62 56.48 57.80 58.65 59.99 62.93 63.85 63.09 61.94 61.37 60.41 59.71 60.26 60.04 60.51 61.51 61.49 60.75 59.51 59.26 57.49 57.98 56.61 56.17 56.31 56.70 57.35 55.91 55.56 55.79 55.87 56.77
43.35 43.75 45.23 45.72 46.24 45.61 47.45 45.17 45.83 45.61 48.47 52.76 58.60 58.65 57.57 57.29 56.83 58.00 58.25 59.98 58.47 59.95 63.10 64.50 64.03 62.24 62.37 60.53 59.98 59.66 60.55 60.11 59.74 60.30 60.20 59.07 58.85 57.49 57.36 57.27 56.65 56.17 55.75 54.79 54.38 54.21 54.71 54.91 55.07
45.82 45.09 44.25 44.39 45.35 46.33 45.21 46.05 45.41 44.97 48.51 51.79 56.40 56.11 56.53 57.04 57.57 57.39 57.88 57.15 60.40 59.77 62.88 64.57 64.14 65.07 63.21 60.77 59.65 59.64 59.67 59.63 59.88 58.44 58.55 59.28 58.02 57.31 57.26 56.05 56.73 55.81 55.89 55.80 55.11 54.33 54.16 54.25 54.54
47.81 44.07 45.15 45.25 45.81 45.00 46.24 42.80 44.25 46.22 47.68 49.19 51.91 55.09 55.39 57.04 57.54 57.48 57.68 58.66 59.53 59.45 64.83 62.85 61.79 59.59 63.45 60.29 59.04 58.30 58.74 56.34 56.71 57.21 57.78 58.25 57.87 56.40 56.25 55.74 55.80 56.11 56.46 55.68 55.30 54.99 54.71 53.62 54.42
44.31 44.01 39.63 45.03 46.56 46.72 45.30 39.29 45.07 47.60 46.77 46.62 48.45 49.48 53.66 55.55 56.64 56.82 57.43 57.86 58.53 60.67 61.91 63.43 64.63 59.29 61.70 59.34 57.25 57.29 56.29 55.97 55.48 55.96 56.75 57.07 57.62 56.69 55.04 54.04 53.87 55.18 55.30 54.63 53.89 53.75 53.52 52.92 52.59
42.02 37.15 41.07 43.14 47.49 46.48 43.83 41.43 45.52 47.12 47.66 45.97 45.66 47.27 49.16 52.13 53.79 56.04 55.87 56.19 56.79 56.98 59.61 61.39 63.55 62.34 60.48 58.02 56.78 56.63 56.61 55.78 55.63 54.28 54.93 55.70 55.91 55.32 53.01 52.59 52.43 53.14 53.36 52.40 52.48 52.00 51.81 51.41 51.56
38.91 39.27 40.18 40.50 42.37 43.64 40.87 40.96 44.34 46.33 47.81 47.18 45.37 46.32 47.73 52.12 53.00 55.69 56.65 57.49 57.84 58.24 57.70 57.44 58.10 57.96 58.10 55.94 55.32 54.36 54.10 54.05 54.03 53.63 53.89 54.13 53.65 53.22 51.67 51.15 50.78 50.41 49.54 49.36 49.16 48.37 49.17 48.96 49.54
43.46 41.58 40.95 41.22 45.71 43.40 42.42 41.09 43.86 46.15 45.95 45.03 47.01 50.20 51.04 52.11 53.56 54.51 54.77 54.96 55.43 54.81 55.19 54.39 53.99 53.03 53.25 52.36 51.24 51.19 50.79 51.58 52.20 53.23 53.15 53.77 52.89 52.16 50.89 50.29 49.51 49.26 48.24 47.69 47.90 47.43 47.26 47.49 48.27
44.03 42.45 41.57 43.46 46.33 42.97 40.29 41.45 43.42 46.84 45.90 47.45 49.30 49.38 50.05 51.13 52.39 53.75 53.73 52.85 52.40 51.90 52.59 52.67 52.65 52.55 52.48 51.51 51.21 51.78 50.70 51.66 51.80 52.22 52.65 52.75 51.05 50.37 49.73 47.74 47.51 47.54 47.46 46.90 46.55 45.70 45.09 44.98 46.15
44.26 42.32 41.75 41.86 44.17 42.82 41.83 39.37 42.64 46.76 48.43 50.24 49.94 50.41 50.53 50.70 50.93 52.49 52.61 50.99 50.63 50.66 50.98 52.26 52.33 52.33 51.83 51.71 51.45 50.87 51.11 50.23 49.89 50.08 50.19 49.57 49.24 48.62 47.65 47.08 46.23 46.27 46.08 45.79 45.12 44.95 44.88 44.26 45.07
41.90 46.96 45.52 43.89 40.53 35.28 40.72 32.26 39.54 43.90 45.42 47.41 47.80 46.80 47.63 49.45 51.60 52.45 51.43 50.61 50.73 50.54 51.37 51.80 51.96 51.82 52.60 51.81 50.28 49.37 47.93 47.07 48.43 48.13 47.80 47.35 47.17 46.76 46.87 46.18 45.66 45.24 45.07 44.42 44.66 46.44 44.11 42.93 40.77
44.25 47.31 44.89 43.84 39.83 38.17 40.26 35.42 38.23 43.69 43.20 45.05 46.13 47.98 47.89 48.40 49.34 49.63 50.48 51.16 51.39 51.61 51.11 51.53 52.02 51.91 51.65 51.40 50.51 48.63 47.71 48.04 48.17 47.09 45.52 44.61 45.15 45.78 45.97 45.64 44.56 44.55 45.24 44.68 43.93 43.55 43.63 43.42 42.42
47.76 45.97 45.17 43.84 40.32 31.27 40.70 38.57 39.51 40.53 44.34 45.31 46.92 48.14 48.77 48.34 48.94 50.14 50.95 51.93 51.22 51.09 50.85 50.63 51.02 51.30 51.42 51.46 50.33 48.40 47.11 46.44 45.10 43.79 42.80 42.80 43.10 43.55 43.79 45.08 44.51 44.34 42.74 42.73 42.96 43.02 41.44 41.04 40.99
45.44 41.26 31.39 30.23 29.91 29.52 42.84 39.83 40.36 44.30 46.57 47.24 46.86 46.86 47.65 48.34 47.85 48.39 49.06 51.29 51.64 49.08 49.67 50.38 50.12 49.75 49.97 50.03 49.26 47.78 45.91 44.78 42.95 41.73 41.10 41.01 41.15 40.92 41.54 42.51 42.95 42.30 42.24 41.62 41.23 40.95 41.62 40.72 39.68
43.25 41.39 29.76 27.58 26.65 30.09 41.51 35.71 38.01 46.22 48.08 49.22 49.10 48.08 48.69 48.38 48.76 48.17 48.74 48.57 48.77 49.59 49.09 49.35 49.37 49.27 49.35 48.77 47.40 46.26 45.82 44.47 43.02 42.14 41.42 40.76 40.72 40.79 40.99 41.27 41.74 42.90 42.83 41.27 40.95 40.03 40.22 39.19 38.24
43.19 36.98 42.14 35.29 31.63 28.01 35.32 40.02 44.60 46.57 47.35 47.97 47.54 47.86 46.81 47.89 48.51 49.25 48.58 48.47 48.03 48.10 48.64 48.35 48.17 47.86 48.51 46.56 45.62 44.77 44.76 44.06 42.55 41.59 40.75 40.54 40.08 41.98 40.33 40.00 40.73 42.84 42.08 40.94 40.11 38.93 37.77 37.58 37.44
44.05 44.71 35.36 33.83 26.25 25.94 32.27 35.49 36.52 42.32 44.56 46.90 46.92 45.80 46.86 47.72 47.77 47.22 47.48 48.04 48.19 47.91 47.83 47.32 47.49 46.19 45.16 44.24 44.87 43.70 42.69 42.50 41.67 40.86 39.76 39.79 39.44 40.07 38.84 39.38 40.24 40.53 40.33 39.71 38.49 37.69 38.16 37.61 37.21
41.38 40.21 40.46 39.05 33.02 26.30 23.83 29.71 40.39 42.80 45.91 45.52 45.63 46.67 45.64 45.55 45.61 46.61 47.23 47.28 47.37 47.26 46.69 46.33 44.49 43.90 43.35 43.00 42.45 41.37 41.08 41.34 40.99 40.37 39.71 39.34 39.26 39.23 39.22 39.84 38.94 38.49 38.35 38.27 37.59 37.01 37.47 37.13 36.37
43.22 41.51 41.12 28.77 30.50 29.52 27.99 29.82 42.93 43.43 45.36 45.04 44.67 46.12 45.76 45.96 45.76 45.91 46.44 46.27 45.51 45.19 44.87 44.55 43.12 42.78 42.48 42.23 41.77 41.02 40.99 40.56 39.76 39.27 39.40 39.05 38.15 38.37 38.16 37.62 35.69 35.40 34.87 34.95 34.53 34.11 32.45 31.79 30.54

GFSSGP_sfc_wetblb_024.txt.gz
Wetbulb
56.07 52.75 53.30 50.59 43.47 41.94 38.55 42.11 52.21 50.10 51.84 56.72 57.86 54.98 52.99 54.07 53.08 50.09 66.17 68.65 69.80 69.82 70.39 70.66 71.35 72.03 72.41 72.42 72.32 72.22 72.13 71.23 70.66 70.48 70.09 69.42 68.81 68.62 68.53 68.55 68.48 68.24 68.53 68.53 68.02 67.73 67.71 67.26 66.49
54.71 54.66 51.94 46.65 40.42 37.58 40.24 47.99 51.36 53.62 55.65 56.87 56.96 58.07 56.99 55.30 61.62 63.30 64.91 68.55 69.86 70.08 70.01 70.63 71.26 71.46 71.74 71.51 71.68 71.48 71.13 70.81 70.41 70.09 69.75 69.15 68.40 67.90 67.65 68.05 68.09 67.95 67.52 67.02 66.78 66.82 66.44 66.28 66.10
54.24 54.26 45.81 42.54 39.15 35.69 40.20 47.66 50.34 53.86 57.44 57.10 54.89 56.68 55.98 53.93 61.64 63.62 67.47 69.21 69.75 69.38 69.97 70.79 70.44 70.96 71.35 71.33 71.30 71.14 71.16 70.93 70.79 70.33 69.06 68.07 67.64 67.55 67.75 67.47 66.93 66.60 66.43 66.43 66.69 66.56 66.16 65.36 64.86
52.51 47.84 44.99 39.82 37.23 41.42 48.13 49.70 54.74 55.13 56.39 57.42 55.75 52.59 56.65 60.83 61.33 66.40 68.46 68.67 68.06 68.19 68.80 68.96 69.47 70.30 71.03 71.04 70.92 70.79 70.58 70.05 70.01 69.26 68.40 67.68 67.58 67.37 66.64 66.24 65.80 65.37 65.40 65.27 65.03 64.86 64.58 64.11 63.96
52.01 45.85 40.07 38.25 41.35 48.52 50.69 52.31 55.09 53.96 55.16 54.77 55.61 52.09 53.18 61.39 66.28 66.24 66.47 67.32 66.30 64.66 66.77 68.15 68.26 69.48 70.00 69.94 69.69 69.84 69.67 69.61 69.05 68.80 68.45 67.54 66.85 66.45 65.97 65.54 64.86 64.40 63.77 63.41 63.29 63.28 63.23 63.09 63.38
45.18 44.66 38.18 36.45 42.71 50.05 50.23 52.90 55.99 55.13 54.19 54.40 53.57 53.01 52.54 60.74 62.47 63.34 64.69 64.29 65.28 64.21 65.03 66.48 68.37 68.71 68.85 68.87 68.72 68.33 68.28 68.21 68.07 68.29 68.01 67.09 66.78 66.29 65.64 65.09 64.41 63.59 62.68 62.21 61.90 61.92 62.19 62.55 62.97
43.84 41.79 38.49 38.10 41.32 46.81 49.19 50.67 51.96 54.90 55.05 54.25 55.41 50.88 52.67 55.29 60.07 61.30 61.73 62.08 62.45 62.84 63.27 64.05 65.22 66.56 66.74 66.45 66.32 66.52 67.17 67.39 67.39 67.22 66.79 66.36 66.03 66.10 66.01 65.29 64.29 63.47 62.40 61.86 61.81 62.43 62.43 62.29 62.48
45.73 42.58 38.54 39.69 43.53 44.34 48.91 48.70 49.49 54.20 51.36 58.84 57.64 50.62 50.05 53.65 57.82 60.40 61.06 59.96 60.10 60.52 62.30 61.80 62.88 63.34 62.93 63.60 65.42 65.59 65.79 65.88 65.93 66.01 65.56 65.05 64.97 65.23 65.38 64.94 64.64 64.44 63.18 62.62 62.79 62.57 62.35 62.11 61.84
47.33 40.07 37.11 39.55 42.52 44.52 45.35 46.58 47.96 50.75 53.27 53.67 54.47 54.58 55.88 55.93 57.54 56.97 55.94 55.93 57.31 59.25 59.69 60.53 61.16 61.66 62.06 62.54 64.22 65.35 65.73 65.41 65.03 64.99 64.82 63.68 62.68 62.25 62.44 63.67 63.34 64.45 63.62 63.17 63.38 63.18 62.52 61.79 61.30
43.81 38.12 39.02 43.28 45.44 42.27 43.65 44.91 46.11 50.32 52.26 52.20 53.42 56.09 55.82 55.98 56.26 55.34 55.13 55.62 57.11 58.21 59.29 60.05 60.34 60.45 61.08 63.57 62.93 62.40 63.60 63.19 62.89 62.93 62.38 61.82 61.16 61.40 62.13 62.76 63.93 64.14 63.54 63.39 63.35 63.34 63.11 62.03 57.74
41.82 39.92 42.25 43.77 43.81 44.61 43.56 44.21 45.91 49.74 48.16 53.66 52.76 53.31 54.27 54.45 54.32 55.07 55.77 57.25 58.24 59.68 60.98 60.62 61.14 61.38 60.71 61.02 61.26 60.90 61.70 61.68 61.79 62.31 61.92 61.26 61.20 61.10 61.13 59.44 59.96 58.91 60.72 59.28 59.29 59.06 57.97 57.70 56.74
40.06 42.67 43.75 43.25 43.50 43.01 43.50 44.53 44.48 43.73 50.16 56.46 56.39 55.79 54.57 53.89 54.36 54.82 55.31 56.70 58.12 60.03 60.70 60.26 60.24 60.65 59.69 59.11 59.81 60.77 61.07 61.41 61.70 61.55 59.87 58.30 56.85 56.05 55.93 55.20 54.78 55.10 54.47 55.93 54.82 55.06 54.36 54.12 54.75
41.91 42.17 43.65 44.46 45.29 42.52 44.77 43.81 44.80 43.73 53.39 57.30 56.76 56.59 55.61 55.75 55.41 56.13 56.61 57.71 58.17 60.57 61.08 60.76 60.63 59.74 59.14 58.76 59.39 59.09 59.36 60.58 60.11 59.42 59.16 58.09 57.06 55.64 55.75 56.07 55.07 55.10 54.52 53.77 53.63 53.40 53.64 53.55 53.99
43.81 43.66 42.97 43.49 43.85 44.68 44.33 43.79 44.32 43.78 54.98 55.84 56.21 55.55 55.95 56.29 56.47 56.62 55.58 56.32 58.17 61.75 61.90 62.32 63.14 62.90 61.67 59.32 59.15 58.72 59.29 58.01 59.05 57.88 57.76 58.31 57.89 56.10 56.26 54.68 54.94 54.68 54.78 55.02 53.73 53.32 52.99 53.09 53.48
44.59 41.43 42.82 42.31 43.24 42.69 45.44 41.27 41.61 45.43 55.77 55.21 55.52 55.82 56.02 56.56 57.08 56.68 57.22 56.45 59.01 62.66 63.51 63.01 62.58 61.27 61.45 59.71 58.40 57.99 57.84 57.31 57.38 56.20 56.79 57.27 56.43 55.06 54.69 54.05 52.85 53.38 53.64 52.92 52.54 52.32 52.36 51.90 52.73
43.31 42.02 38.33 42.81 44.08 44.63 43.46 38.39 43.66 44.47 50.27 53.45 54.15 54.76 55.54 55.53 56.41 56.13 55.35 55.51 59.64 63.40 62.88 63.04 63.31 59.74 59.75 60.40 56.81 56.40 54.82 54.02 54.49 55.22 55.62 56.05 55.91 54.68 52.78 51.66 51.06 51.79 51.04 50.61 50.15 50.03 49.46 48.57 48.72
40.31 35.16 38.25 40.86 44.95 43.84 41.78 39.50 43.79 44.55 46.97 47.57 49.29 48.62 49.88 51.29 53.34 54.90 55.18 55.35 56.99 60.56 61.88 60.52 59.43 57.95 59.92 57.54 55.32 55.43 54.64 53.63 53.31 53.14 53.50 54.43 54.37 53.11 50.48 49.75 49.82 49.57 48.86 48.25 48.56 47.59 47.25 46.58 47.15
36.46 37.36 35.76 39.08 41.25 41.78 40.16 40.13 42.82 43.13 43.66 43.50 42.99 48.20 50.09 51.10 51.89 54.37 54.90 55.65 56.19 57.92 59.83 59.10 58.23 58.46 58.03 54.19 52.53 52.94 52.19 51.83 52.25 51.84 51.75 51.62 51.20 50.95 49.29 49.45 48.07 48.41 47.53 47.25 46.56 45.85 46.34 45.79 44.99
42.84 40.18 38.78 38.43 43.05 42.04 40.48 39.56 41.80 43.71 44.39 45.89 48.05 48.44 48.97 49.54 51.23 52.24 52.47 52.83 52.55 53.25 53.04 53.25 52.76 51.79 51.74 51.33 50.58 50.29 49.31 49.72 51.05 51.27 50.93 49.76 49.34 49.41 47.84 46.44 46.31 46.59 45.86 45.15 45.66 45.72 44.32 44.28 44.77
43.00 40.95 39.15 42.01 45.24 41.30 39.87 38.95 42.55 44.33 44.85 47.83 48.26 47.95 48.48 49.48 50.35 51.20 51.16 50.65 50.47 50.26 51.22 50.94 51.56 50.80 50.50 50.04 49.57 49.87 49.21 49.74 49.38 49.62 48.54 48.45 48.00 47.28 47.30 45.18 44.79 44.58 44.26 43.69 43.42 43.21 42.63 43.25 44.10
42.22 40.17 39.61 40.17 41.83 40.94 40.26 38.24 41.13 45.54 47.50 48.63 48.55 49.04 49.74 49.29 49.24 49.84 50.14 49.67 50.07 48.99 49.82 50.26 50.32 50.46 50.28 50.36 49.56 49.11 48.78 48.27 47.77 46.61 45.63 46.63 47.08 46.15 45.11 44.58 43.96 43.64 43.62 43.41 43.05 43.39 42.99 42.32 42.45
39.73 44.69 43.45 41.60 38.22 33.64 38.82 30.09 38.91 41.92 43.10 44.78 45.79 46.27 48.03 50.12 50.00 50.26 49.51 48.75 48.93 48.72 49.35 49.90 50.32 50.58 50.80 50.16 49.06 47.88 46.40 45.54 45.87 44.68 43.44 43.55 44.80 44.65 44.53 44.78 44.37 43.76 44.00 42.82 43.16 44.22 44.06 43.83 41.14
42.37 45.07 42.86 41.91 37.42 36.37 38.22 32.93 36.10 42.57 41.34 43.17 44.17 46.23 47.72 48.39 49.44 48.84 49.72 49.51 49.55 49.82 49.23 49.12 50.44 50.56 50.16 49.39 48.44 47.53 46.25 45.74 44.82 43.32 42.68 42.94 43.43 43.82 44.12 44.10 43.48 42.99 42.21 41.38 40.87 40.19 39.64 40.04 38.69
45.86 43.93 43.05 41.47 38.27 30.02 39.03 35.28 34.74 37.55 41.43 44.16 45.95 46.17 46.89 46.65 47.51 48.66 49.57 50.36 49.43 48.71 48.31 48.25 48.52 49.15 49.45 48.75 47.17 45.97 44.37 43.22 41.69 41.24 40.59 40.91 41.51 41.35 41.61 42.02 42.55 41.58 40.92 40.22 39.73 39.16 38.50 38.14 38.19
43.27 39.04 29.90 29.17 28.43 28.64 41.12 37.40 37.00 42.45 45.03 45.78 44.83 44.42 45.49 46.14 46.57 47.36 48.38 48.49 48.94 47.51 47.64 48.18 47.90 47.77 48.69 47.54 45.92 44.96 43.80 42.36 41.05 40.47 39.89 39.21 39.57 39.35 39.32 40.05 40.60 40.64 40.86 41.06 41.78 40.02 39.06 37.82 36.65
41.18 39.01 28.83 27.56 25.35 28.21 38.24 33.22 36.54 44.73 47.50 47.52 47.20 46.49 47.44 46.78 46.62 46.91 46.72 46.84 47.04 47.62 47.19 46.93 46.99 46.89 46.95 45.93 44.62 44.15 43.98 42.50 41.59 40.91 39.80 39.56 38.94 38.96 39.11 39.28 40.51 41.11 41.77 41.00 39.72 38.25 37.16 36.77 35.69
41.22 35.39 40.60 33.04 29.89 26.64 33.29 37.49 42.54 45.19 45.73 47.02 48.03 48.89 45.44 44.87 44.90 45.81 46.26 46.06 46.15 46.53 46.66 45.84 47.09 45.56 45.33 46.39 43.81 42.63 43.14 42.49 41.28 40.09 39.32 38.82 38.79 40.47 38.86 38.13 38.97 39.89 40.36 39.48 38.52 37.01 36.11 36.02 35.59
41.39 42.73 34.25 31.56 24.99 25.01 30.18 32.96 34.47 39.95 42.34 44.69 43.75 43.53 44.11 45.51 46.04 45.56 45.81 46.41 46.59 46.59 45.60 45.01 44.96 43.74 43.23 42.68 42.36 42.04 41.09 41.10 40.42 39.46 38.82 38.68 38.52 38.80 37.72 37.52 37.86 38.28 38.61 38.24 37.10 36.00 35.86 35.34 35.13
39.54 37.83 37.98 36.15 30.70 25.30 22.77 28.14 38.67 41.85 43.96 42.14 42.21 43.43 44.06 44.59 44.82 45.69 45.76 45.98 45.45 44.38 43.18 42.48 42.14 42.23 41.73 41.50 41.22 40.38 39.82 39.77 40.08 39.18 38.84 38.73 38.29 38.18 37.70 37.94 36.98 34.75 34.23 34.29 33.85 33.78 33.44 32.43 30.54
41.11 39.54 37.88 27.27 29.33 27.63 26.10 27.91 42.30 42.39 42.91 43.36 43.44 44.25 44.71 45.63 45.49 44.03 44.35 43.29 42.55 42.02 41.22 41.68 41.05 41.35 41.59 41.18 40.73 39.68 39.57 38.94 39.11 38.62 38.64 38.03 37.53 38.34 38.63 37.92 34.82 34.57 33.11 32.60 31.59 31.06 30.66 29.70 29.06

GFSSGP_sfc_wetblb_027.txt.gz
Wetbulb
55.63 51.70 52.11 50.53 43.26 40.70 36.57 40.97 50.78 49.71 51.02 54.81 56.44 55.44 54.17 56.21 53.49 49.30 64.75 67.52 69.52 69.24 69.84 70.82 71.06 71.90 72.24 72.13 71.74 71.85 71.09 70.68 70.43 69.81 69.28 68.80 68.68 68.44 68.01 68.20 68.13 67.85 67.20 66.82 66.60 66.63 66.47 66.45 66.37
52.76 53.38 50.77 46.10 40.20 36.27 40.87 46.59 49.69 52.70 55.28 57.22 57.53 57.09 56.41 57.39 62.59 64.34 64.77 68.98 69.61 69.14 69.60 70.31 71.03 71.53 71.75 71.61 71.63 71.37 70.68 70.29 70.03 69.59 69.06 68.53 67.86 67.69 67.73 67.50 66.97 66.40 66.29 66.21 66.24 66.18 65.93 65.34 64.89
53.05 52.66 45.78 41.89 36.99 36.18 39.95 47.81 51.30 54.28 56.12 56.43 54.75 56.09 56.44 59.33 63.23 63.45 66.75 69.21 69.63 68.63 69.89 70.23 70.11 70.55 71.28 71.20 71.08 70.82 70.68 70.45 69.89 69.21 68.32 67.70 67.60 67.47 66.77 66.39 66.02 65.77 65.50 65.50 65.36 64.96 64.56 64.09 63.77
50.49 46.22 44.61 39.31 35.23 40.40 44.80 47.88 53.59 53.84 55.93 56.66 56.11 53.18 56.43 61.29 63.55 66.03 68.43 69.47 68.23 68.93 69.36 68.86 69.35 70.13 70.84 71.05 70.81 70.64 70.49 70.02 69.41 68.83 67.65 67.60 67.14 66.46 65.90 65.53 65.04 64.79 64.45 64.35 63.81 63.86 63.34 63.18 63.15
48.87 44.35 39.51 37.45 38.82 45.58 48.52 52.07 54.79 53.16 53.72 54.56 55.37 52.42 54.26 63.95 66.95 67.57 67.35 67.83 66.69 67.33 68.23 68.61 68.52 69.60 70.34 70.33 70.05 69.88 69.62 69.17 68.77 68.58 68.07 67.03 66.43 65.91 65.34 64.74 64.04 63.76 63.53 62.74 62.27 62.32 62.27 62.29 62.94
43.26 42.11 36.94 37.68 43.06 46.98 48.37 55.07 55.13 53.23 53.92 54.76 54.75 52.73 51.32 64.15 64.72 65.94 66.86 66.35 67.15 66.54 65.99 67.37 68.92 69.07 69.24 69.50 69.27 68.80 68.55 68.00 68.18 68.18 67.81 66.70 66.53 66.06 65.07 64.32 63.59 62.96 62.11 61.87 61.99 62.41 62.07 62.29 62.73
42.71 40.54 37.86 38.22 41.79 45.90 49.41 50.05 53.67 53.18 53.46 53.45 55.01 48.41 53.29 58.28 62.63 64.13 64.40 63.93 64.86 64.61 63.62 64.54 65.53 67.02 67.50 67.12 66.92 66.70 66.87 67.00 66.99 66.92 67.01 66.55 66.12 65.83 65.52 64.95 63.87 62.79 62.09 62.25 62.76 62.80 62.44 62.64 62.63
44.67 42.56 38.63 39.57 42.70 44.95 50.65 48.89 54.29 55.25 52.72 56.52 54.98 48.78 51.22 54.96 60.67 61.38 61.91 61.26 60.81 61.53 62.31 61.97 62.61 63.30 62.72 63.17 65.72 65.77 66.12 65.98 66.15 66.10 65.65 64.75 64.90 65.18 65.44 64.95 64.67 64.27 63.22 63.11 63.23 62.98 62.75 62.59 62.28
43.37 39.60 37.06 38.85 45.31 47.25 51.59 46.32 48.46 53.64 54.03 53.84 53.82 52.11 57.65 57.30 58.95 57.53 55.88 56.09 57.57 59.73 60.17 60.41 61.21 61.43 61.17 61.31 63.64 65.14 65.70 65.36 65.23 64.89 64.68 63.18 61.39 61.27 61.52 63.29 63.62 64.27 63.73 63.37 63.73 63.65 63.29 62.57 61.83
43.19 38.02 39.98 43.49 44.98 45.26 44.84 50.66 51.62 52.18 51.24 51.12 50.48 53.14 56.10 56.62 56.74 54.86 54.16 54.82 56.19 57.32 58.64 59.55 59.82 60.03 60.65 63.05 62.28 61.89 63.16 62.63 62.14 62.19 61.66 61.29 60.56 60.31 61.46 62.05 63.62 64.28 64.02 63.86 63.69 63.47 62.90 61.58 57.33
42.98 40.03 41.52 42.69 44.43 44.35 43.80 46.18 47.72 51.26 48.30 51.47 50.19 51.59 53.79 55.26 54.96 54.33 54.23 55.44 55.59 57.35 58.52 59.77 59.35 59.28 59.71 60.48 60.89 60.34 61.08 61.03 61.12 61.47 61.12 60.70 61.08 60.00 60.49 59.20 58.41 57.87 59.26 56.97 57.78 56.23 56.19 55.08 55.11
40.05 41.95 42.77 43.23 43.66 43.16 42.35 44.31 48.16 44.00 51.98 54.66 53.82 53.76 54.07 53.96 54.36 54.98 54.68 55.57 56.13 57.41 58.82 59.53 59.65 59.81 59.16 59.34 59.86 59.39 60.18 61.18 60.76 61.15 60.94 58.64 56.56 55.41 55.61 54.45 54.15 54.04 53.73 53.24 52.93 52.88 52.95 52.74 53.18
40.37 40.99 42.78 43.63 43.76 41.65 44.35 43.20 44.01 42.83 52.97 55.04 54.23 54.01 53.64 53.86 53.74 55.23 56.35 56.87 57.35 58.00 59.44 59.25 59.29 60.05 59.63 58.15 58.61 59.65 60.29 60.74 60.92 60.67 58.92 57.67 55.47 54.91 54.85 54.39 54.21 53.63 53.81 53.55 52.49 52.32 52.33 52.16 52.56
43.10 41.49 41.56 42.93 43.14 43.31 43.87 42.28 42.80 45.87 53.13 53.29 53.62 52.85 53.20 53.79 54.01 54.12 53.89 56.09 58.01 59.44 59.49 59.52 59.54 59.12 58.43 57.77 57.77 58.22 58.58 59.68 59.39 58.74 57.86 57.50 56.45 54.85 54.65 53.78 53.18 52.53 52.53 51.78 51.02 50.79 50.30 49.68 50.39
42.95 40.21 41.29 41.04 41.32 41.83 44.38 40.32 40.49 46.71 53.74 52.96 53.07 53.64 53.49 54.39 54.00 53.84 54.09 55.14 59.00 60.39 60.95 60.16 60.68 60.58 58.91 57.56 57.09 57.27 57.64 57.41 57.43 56.21 56.33 56.34 55.73 54.09 53.05 51.47 50.48 50.45 49.98 48.94 49.07 48.43 48.14 47.60 48.61
40.89 40.16 36.59 40.71 42.19 42.54 41.95 36.93 41.44 49.57 52.65 51.87 52.30 52.77 52.82 52.73 52.84 52.57 54.16 54.94 58.76 60.79 60.31 61.00 62.16 59.33 59.38 57.98 55.21 54.79 53.41 53.29 53.35 54.39 54.24 53.60 52.94 51.50 49.39 48.68 48.23 48.44 47.98 47.80 47.56 46.77 46.48 45.97 45.40
38.27 33.69 36.41 39.51 42.62 41.80 40.28 37.79 41.52 46.85 52.84 51.36 49.12 47.82 49.66 51.09 52.45 53.67 55.00 55.74 58.37 60.98 60.57 60.02 59.19 59.48 58.18 55.45 54.76 52.14 51.71 51.84 51.43 51.44 50.66 50.12 49.65 49.47 47.59 46.81 46.70 46.98 46.44 46.14 45.88 45.59 45.15 44.24 44.41
34.66 35.51 33.62 37.01 40.06 40.35 37.65 40.20 40.57 41.76 45.61 43.10 45.07 47.90 48.41 48.75 49.11 51.36 52.31 55.72 57.66 57.09 57.21 57.45 58.63 58.56 55.63 52.68 51.72 51.37 51.17 50.45 50.48 48.90 47.87 47.74 47.38 47.03 46.21 46.16 46.57 46.46 45.08 44.49 44.19 43.09 44.22 43.30 42.53
39.66 37.38 36.06 36.79 40.84 40.27 38.77 38.83 40.42 39.70 43.35 44.78 45.91 46.84 47.31 48.24 49.35 50.80 51.45 52.37 52.65 52.42 52.45 53.48 53.30 52.05 53.03 51.75 51.37 49.30 48.93 47.86 47.77 47.08 46.87 46.47 47.49 47.27 45.38 45.15 44.47 44.22 43.58 42.86 43.41 42.88 42.39 42.24 43.43
41.37 38.56 37.09 39.95 43.05 40.73 38.23 37.51 42.34 43.71 43.95 45.21 46.45 46.41 47.07 47.27 48.41 49.43 49.91 50.22 50.50 51.02 52.18 50.38 50.40 50.17 49.71 49.49 49.25 48.83 47.70 47.23 46.68 45.28 45.20 46.49 45.89 44.71 45.15 43.66 43.68 43.54 43.70 43.33 42.86 42.17 41.96 42.40 41.78
40.77 38.40 37.86 38.48 40.12 40.29 38.45 36.06 39.25 44.06 46.24 47.20 46.83 47.34 47.84 47.54 47.27 48.89 49.86 50.00 49.58 48.56 48.47 49.22 49.00 49.37 49.66 49.66 48.85 48.26 48.24 47.26 44.99 43.44 42.87 43.83 44.43 44.23 44.35 43.98 43.31 42.81 42.60 41.48 41.42 41.19 40.39 39.30 40.88
38.13 42.94 41.71 40.02 36.79 32.13 37.19 28.52 37.26 40.15 41.46 43.83 45.31 45.23 46.44 47.41 48.83 49.75 49.04 47.75 46.94 47.21 47.93 48.71 49.21 48.96 49.32 48.74 47.84 46.98 45.48 44.66 44.14 42.39 41.70 42.25 43.29 43.59 43.67 43.19 43.01 41.97 41.85 40.37 40.42 41.18 39.04 38.63 36.86
40.47 43.23 41.03 39.99 35.47 34.30 36.76 31.35 33.69 40.82 38.91 41.49 42.87 45.54 46.72 48.67 48.75 47.99 47.93 48.04 48.42 47.98 47.00 47.86 48.63 48.92 48.61 48.17 47.64 46.52 44.98 44.50 43.36 42.22 41.69 41.85 41.97 42.65 42.21 42.11 42.15 40.79 40.62 39.56 39.11 38.22 38.07 38.40 38.05
44.23 42.62 41.13 39.37 36.31 29.15 36.38 32.64 32.16 35.97 39.68 41.95 43.78 46.29 48.00 47.91 48.20 47.91 48.26 48.79 48.24 47.71 46.23 46.19 47.55 47.58 47.71 47.10 46.69 45.48 43.55 42.09 41.01 40.41 40.10 39.73 40.03 40.02 39.89 41.12 41.21 40.42 39.82 39.33 38.71 38.10 37.48 36.76 36.36
41.94 37.48 29.00 28.49 27.41 27.66 37.59 34.75 34.72 40.33 42.57 44.02 43.51 43.94 44.98 45.88 46.15 47.03 48.68 48.93 48.68 46.91 45.83 46.16 46.85 47.04 47.00 45.66 44.67 43.77 42.79 41.71 40.69 40.40 39.39 38.38 38.72 38.52 38.24 38.84 39.74 39.72 39.67 39.48 39.09 38.01 36.77 35.84 34.63
39.13 37.38 28.65 27.95 24.87 27.56 36.58 31.45 35.51 42.21 44.62 45.71 45.48 45.19 44.95 44.75 46.44 46.85 46.43 45.67 46.04 46.46 45.75 45.28 46.20 45.95 45.64 44.68 43.76 43.32 42.93 41.72 41.29 40.34 39.25 38.41 38.85 38.39 38.58 37.74 39.85 39.79 40.11 39.76 38.54 37.12 36.20 35.13 34.56
39.58 33.97 38.65 31.22 28.70 26.49 31.47 35.52 41.16 42.49 43.54 44.36 44.50 45.35 44.12 43.09 43.50 43.98 44.63 44.93 44.84 44.89 45.06 44.23 44.42 44.44 44.31 43.50 42.38 42.32 42.56 41.65 40.68 40.12 38.86 38.68 38.53 39.16 38.37 37.08 38.10 38.68 39.80 38.78 37.61 35.95 34.93 34.37 33.96
39.92 42.05 33.08 30.15 23.88 24.54 28.51 31.42 32.40 38.64 40.97 43.56 42.00 41.50 42.22 43.17 43.68 43.90 44.19 44.56 45.13 45.62 43.93 43.30 43.54 43.02 42.80 42.12 41.86 41.28 40.26 40.40 40.35 39.14 38.56 38.26 38.22 37.92 37.94 37.11 37.22 38.60 38.26 37.79 36.23 34.19 34.24 33.27 32.63
38.50 36.23 35.46 34.33 29.29 24.19 21.57 27.44 36.72 40.00 41.90 40.51 40.60 42.06 42.90 43.20 43.42 43.13 43.73 44.40 44.01 42.86 40.95 40.78 41.01 41.47 40.89 40.62 40.21 39.48 39.07 38.66 38.67 38.65 38.52 38.22 37.76 37.45 38.57 38.66 38.07 36.54 35.00 34.18 33.13 32.14 31.94 30.60 28.75
39.26 37.36 35.57 25.50 27.92 26.56 25.00 27.02 38.94 41.10 41.95 42.25 42.01 42.74 42.77 42.85 42.59 42.65 43.88 43.31 42.40 40.63 39.88 40.45 39.70 39.57 40.11 40.07 39.06 38.07 37.67 37.46 36.92 37.63 38.02 37.72 37.19 38.57 37.24 37.60 38.16 37.34 34.35 33.54 32.67 31.46 30.66 28.68 27.65

GFSSGP_sfc_wetblb_030.txt.gz
Wetbulb
54.91 48.91 48.82 48.91 42.52 41.85 37.44 40.34 47.36 48.88 51.20 55.27 58.00 56.97 56.48 58.63 54.47 49.68 65.35 67.78 69.21 68.85 69.77 70.44 71.28 71.85 71.94 71.74 71.55 71.52 70.80 70.48 69.83 69.46 68.97 68.90 68.40 67.89 68.05 67.79 67.15 66.65 66.62 66.52 66.42 66.22 65.65 64.98 64.64
50.37 50.75 47.46 43.99 39.43 35.28 38.48 44.06 49.48 52.03 55.66 57.83 57.90 58.09 57.89 57.74 62.82 63.30 64.73 69.11 69.05 68.91 69.45 70.02 71.13 71.54 71.84 71.56 71.34 70.73 70.42 70.09 69.53 69.09 68.75 68.03 67.82 67.82 67.31 66.66 66.54 66.32 65.80 65.61 65.19 64.77 64.43 63.91 63.68
51.73 49.64 42.83 39.19 36.19 35.94 38.48 48.23 52.10 54.61 55.33 54.98 53.66 55.78 57.79 59.36 63.76 63.74 67.50 69.07 68.94 68.76 69.52 70.11 70.42 70.74 71.40 71.11 70.99 70.76 70.54 70.15 69.56 68.91 67.94 67.68 67.41 66.81 66.47 66.10 65.98 65.46 64.95 64.57 64.30 63.74 63.41 62.91 62.74
48.61 44.39 41.59 37.36 33.12 38.80 42.70 50.13 53.98 53.22 55.40 56.52 55.90 52.77 56.91 63.34 63.60 65.91 68.82 68.94 68.14 68.92 69.18 68.64 69.36 70.25 70.68 70.98 70.75 70.43 70.33 69.94 69.12 68.36 67.58 67.34 66.69 66.23 65.63 65.33 64.88 64.40 64.09 63.76 63.37 63.04 62.56 62.35 63.26
45.33 40.72 35.34 34.11 35.41 42.13 45.66 53.22 54.50 52.80 53.15 54.03 55.50 51.99 55.05 64.02 66.71 67.64 68.05 68.22 67.24 67.71 68.73 68.15 68.46 69.71 70.43 70.39 70.19 70.12 69.57 69.00 68.63 68.37 67.92 66.61 66.18 65.58 64.90 64.59 64.00 63.63 62.87 63.01 62.98 62.82 62.60 63.10 63.34
42.63 39.91 33.81 35.62 39.95 45.18 49.68 54.52 54.54 53.17 53.73 54.67 55.18 52.50 54.43 65.15 65.46 66.09 67.19 66.67 67.46 67.03 67.76 67.29 69.02 69.47 69.62 69.94 69.69 68.99 68.49 68.08 68.05 68.24 67.72 66.78 66.31 65.77 64.80 64.11 63.74 63.01 62.75 62.75 62.91 63.03 62.76 63.56 63.64
40.81 37.18 34.38 40.08 42.61 44.44 48.28 54.33 53.13 52.72 53.14 53.20 54.31 50.40 58.48 62.11 64.72 66.14 66.14 66.41 66.91 65.89 64.69 65.19 66.41 67.70 68.26 67.72 67.47 67.16 67.17 67.01 67.12 67.17 66.76 66.38 65.74 65.35 65.07 64.57 64.15 63.78 63.87 64.10 64.38 64.09 63.85 63.97 63.42
42.25 39.59 36.18 36.58 43.55 45.29 48.40 51.95 55.85 54.25 53.06 55.34 57.03 53.71 56.63 58.26 63.91 63.75 64.27 63.07 61.59 61.99 62.49 62.42 63.55 63.96 63.16 64.04 66.09 65.91 65.88 65.94 65.82 66.17 65.48 64.77 64.55 64.77 64.66 64.10 63.94 64.53 64.53 64.61 64.78 64.45 64.02 63.81 63.39
43.15 39.00 34.93 36.08 44.20 47.69 51.98 50.56 50.84 54.53 52.72 53.75 52.74 55.42 58.76 60.51 60.86 60.51 57.78 57.32 57.80 60.26 60.41 60.58 60.92 60.89 60.74 61.38 64.02 65.59 66.00 65.52 65.19 64.89 64.64 62.86 60.74 60.53 61.01 63.08 63.98 64.49 64.88 64.66 64.19 64.05 63.32 62.66 60.18
41.22 37.44 39.80 42.31 49.23 48.81 49.39 50.59 51.02 52.14 51.00 49.89 50.04 54.33 58.16 58.82 59.30 57.86 56.88 56.36 56.36 57.78 59.04 59.23 59.35 59.47 60.02 62.07 61.85 61.61 62.97 62.42 62.11 61.85 61.50 60.80 59.93 59.81 61.50 61.68 62.67 62.71 61.81 60.97 61.19 60.52 59.94 57.24 54.73
40.89 39.92 41.97 42.86 45.54 48.77 46.77 48.26 50.64 50.88 48.79 50.53 50.51 52.51 55.87 56.65 55.17 55.19 54.55 55.51 56.35 56.87 58.35 59.13 59.16 59.10 59.07 59.93 60.18 59.96 60.52 60.69 60.79 60.92 60.48 60.24 60.26 59.40 59.65 58.53 56.78 55.17 56.73 54.12 54.51 53.89 53.32 52.97 52.88
38.77 42.76 42.23 42.38 44.57 45.68 46.71 46.65 50.12 46.73 50.12 53.78 54.50 54.52 54.93 54.45 53.38 52.76 52.92 53.49 54.17 55.82 57.23 58.60 58.52 58.44 58.44 58.62 59.41 59.00 59.56 60.06 59.95 60.86 61.13 59.08 57.59 55.65 55.04 53.70 53.70 53.47 53.31 52.73 52.34 51.89 52.21 51.49 51.88
41.06 41.45 42.22 42.27 43.08 43.29 44.01 44.21 49.51 42.87 51.37 52.67 54.81 54.14 53.69 53.76 53.43 53.19 53.44 54.54 54.30 55.70 56.80 58.05 58.55 58.61 58.67 58.25 58.66 58.42 59.05 60.14 60.04 60.31 59.65 57.52 54.83 54.02 54.19 53.29 52.90 52.12 51.92 50.75 50.30 49.75 49.29 49.01 49.56
42.34 40.69 40.28 41.82 41.39 42.58 42.75 41.49 42.74 45.54 51.25 50.97 53.02 52.53 53.23 53.89 53.67 52.58 53.09 54.07 55.56 56.89 57.24 58.24 58.34 59.34 58.83 57.55 57.57 57.77 58.64 58.85 59.16 58.38 56.83 56.73 55.20 54.13 52.94 50.80 50.06 49.33 48.85 48.41 48.34 47.64 47.54 46.96 47.92
41.71 39.35 40.88 41.61 40.45 41.13 42.78 38.88 38.91 48.28 51.11 50.06 50.87 52.20 51.74 51.63 51.00 51.59 52.45 53.70 56.23 57.11 58.58 58.67 59.42 59.17 57.55 56.06 56.09 56.93 56.82 56.98 56.52 54.79 54.42 54.07 52.91 50.11 48.97 47.90 47.28 47.30 47.28 46.89 46.99 46.41 46.85 45.71 46.60
40.16 38.94 35.01 39.20 40.67 40.59 40.32 35.45 39.66 50.21 50.79 48.54 48.78 49.92 50.80 51.15 51.96 52.49 52.62 53.47 56.29 57.82 59.52 60.63 60.60 58.81 57.85 56.75 56.66 54.87 54.11 53.89 52.54 51.46 50.10 49.59 49.00 47.89 46.65 45.77 45.38 45.92 45.59 45.42 45.05 44.54 44.69 43.94 43.54
37.15 33.07 34.91 37.60 40.69 40.35 39.03 36.11 40.78 48.57 50.10 48.20 48.18 48.45 49.71 50.40 50.75 51.32 54.91 53.06 56.28 59.27 59.28 58.87 59.52 57.69 56.73 54.54 53.74 51.85 51.48 50.04 48.31 47.83 47.01 46.91 47.24 46.89 45.29 44.82 44.96 45.30 44.69 43.91 43.84 43.54 43.70 42.67 43.00
33.24 34.29 32.04 34.65 38.31 38.48 37.70 36.79 40.83 41.26 48.90 44.72 45.41 46.90 47.63 48.00 48.21 50.28 54.25 56.63 56.75 57.87 59.16 59.44 57.02 55.79 54.74 53.70 52.91 50.70 48.68 47.23 46.81 45.99 45.87 46.00 47.19 47.79 47.06 46.32 44.29 44.60 44.00 44.05 43.74 42.95 43.60 42.47 42.47
38.28 36.13 34.79 34.76 39.39 38.66 37.62 38.41 40.29 39.71 43.56 44.04 44.71 45.67 46.07 46.51 47.90 49.29 50.76 51.71 52.50 54.17 56.66 57.39 54.76 54.74 54.68 52.40 49.49 47.24 46.17 45.31 44.60 44.53 45.95 47.10 46.78 45.59 44.26 43.84 43.82 43.65 42.62 42.51 42.89 42.30 41.50 41.78 41.61
39.30 36.70 35.41 38.04 41.17 39.10 37.32 37.26 41.02 42.85 42.60 43.86 44.36 44.65 45.17 45.96 47.36 49.23 49.53 49.88 51.71 53.25 54.54 54.32 53.56 53.35 50.74 49.03 47.72 47.06 45.20 44.35 43.67 43.60 43.85 43.86 44.31 44.48 44.38 43.05 42.27 41.78 40.70 40.45 40.95 40.20 39.61 40.26 40.09
39.21 37.10 36.08 36.78 37.99 38.86 36.91 34.85 38.20 42.44 44.40 45.38 45.47 45.34 45.77 45.98 46.77 48.37 50.07 50.34 51.26 50.68 48.64 48.88 48.58 48.34 48.57 48.39 48.17 46.36 45.86 45.14 42.76 41.70 41.47 42.63 43.82 43.75 43.25 42.78 41.52 40.97 40.95 39.97 39.37 38.93 37.89 37.07 38.49
36.34 40.99 39.60 38.08 35.00 31.66 35.59 29.18 35.05 38.46 40.83 43.38 44.40 43.89 44.48 45.85 47.52 48.71 48.56 46.84 46.09 45.86 46.84 47.41 48.07 47.89 48.18 47.59 46.75 45.49 44.35 43.69 42.59 41.25 40.94 41.27 42.61 42.60 42.49 42.23 41.48 40.72 40.46 39.20 39.32 40.13 38.15 37.43 35.41
38.82 42.24 39.97 38.01 35.06 33.39 35.26 31.20 32.59 40.08 38.79 41.26 42.79 44.26 44.40 45.89 47.24 46.94 46.18 46.04 46.36 46.59 46.88 46.62 47.90 48.11 47.77 47.29 46.46 45.22 43.45 42.43 41.78 41.01 40.35 40.40 40.96 41.80 41.18 41.27 41.05 40.26 40.04 39.23 38.64 37.88 37.44 37.28 36.28
42.92 41.31 39.58 37.80 34.86 28.48 34.21 31.54 30.78 35.30 38.94 41.27 42.88 44.51 45.50 45.56 45.42 46.79 47.04 47.39 46.64 46.10 47.17 48.00 48.35 47.33 47.28 46.75 46.15 44.85 42.63 41.16 40.42 40.37 39.58 39.36 39.74 39.91 39.63 39.89 40.39 39.73 39.19 38.54 38.13 37.76 36.80 35.97 35.39
40.82 36.51 28.07 27.82 26.36 27.11 35.42 32.46 33.74 38.18 41.10 43.57 43.08 43.97 45.27 45.41 45.43 45.94 46.63 47.52 48.16 46.79 46.16 46.87 46.53 45.98 45.79 44.99 44.16 43.46 42.58 41.87 41.40 40.58 39.55 38.36 37.86 38.06 38.44 37.63 39.02 39.11 39.19 38.77 38.26 37.39 36.17 35.31 33.92
36.87 36.43 29.22 27.29 24.79 27.38 34.78 30.41 34.74 40.99 43.18 45.01 45.04 45.24 44.50 44.30 45.47 46.42 47.49 45.80 45.66 45.78 44.88 45.56 45.43 45.38 44.62 43.86 43.21 43.06 42.61 41.34 40.74 39.88 38.87 38.49 37.67 38.04 38.00 37.57 37.38 38.67 38.97 38.67 39.01 36.95 36.17 35.40 34.55
37.67 32.74 37.01 30.53 28.37 25.99 30.05 34.46 39.32 41.17 41.04 42.84 43.72 44.08 42.93 42.97 44.53 44.81 44.52 44.25 44.25 43.50 43.46 44.11 44.28 44.23 43.55 43.20 42.65 41.93 41.62 40.82 40.23 39.60 38.59 38.17 38.13 39.26 38.22 37.16 36.15 37.66 38.45 39.86 39.47 38.02 35.42 34.17 34.19
38.25 40.69 31.86 29.21 23.52 23.82 26.95 29.34 31.69 37.20 39.37 41.70 41.78 41.76 42.14 42.35 42.36 42.99 42.96 43.28 43.55 42.83 42.08 43.10 43.44 42.75 42.90 41.87 40.75 40.25 38.69 38.44 38.10 38.11 38.05 37.94 37.85 37.35 37.40 37.05 37.90 38.24 36.93 36.85 37.77 36.43 35.30 33.82 33.35
37.30 34.59 33.31 33.05 27.92 23.01 19.94 27.47 35.66 39.72 41.25 41.27 41.05 41.52 41.52 41.44 41.59 41.70 41.68 42.06 41.57 41.07 40.89 40.36 40.36 40.86 40.18 39.43 38.82 38.06 37.31 37.11 36.75 36.77 37.20 37.29 37.17 37.26 36.94 37.12 36.66 35.53 35.74 36.34 33.93 33.82 32.99 31.27 29.67
37.76 35.66 33.73 25.07 26.84 25.78 24.54 26.15 37.00 39.16 41.70 41.52 40.59 41.54 41.36 41.73 40.79 40.84 41.34 41.01 40.18 40.13 39.92 39.45 39.75 39.13 37.67 38.29 37.62 36.53 36.61 36.47 35.86 35.76 35.84 36.09 36.27 36.92 36.61 36.21 35.89 36.21 37.40 35.16 32.31 31.86 31.28 28.97 27.88

GFSSGP_sfc_wetblb_033.txt.gz
Wetbulb
58.01 52.84 54.28 53.53 47.22 47.75 43.86 43.32 50.27 52.74 53.76 58.33 60.31 58.76 57.14 58.77 55.63 51.86 66.70 68.75 69.85 69.65 71.34 71.19 70.59 71.79 71.96 71.79 71.59 71.60 71.00 70.19 69.70 69.52 69.18 68.55 68.14 68.41 67.81 67.15 67.76 66.90 66.24 65.83 65.34 64.92 64.51 63.99 63.53
53.86 53.71 52.99 50.44 44.95 41.68 43.79 46.56 50.52 54.20 57.54 60.00 59.47 58.95 55.69 53.15 63.30 63.98 65.27 69.32 69.76 70.09 71.15 71.28 70.61 71.46 71.69 71.54 71.41 71.27 70.40 69.91 69.40 69.13 68.39 68.07 67.83 67.37 66.81 66.57 67.32 66.65 65.41 64.92 64.55 64.03 63.39 62.81 63.02
54.63 52.07 49.89 47.06 43.74 41.61 43.38 52.42 54.75 56.42 58.50 56.17 55.36 58.65 57.62 55.27 63.80 64.30 68.27 69.44 70.02 70.24 71.00 71.22 70.59 70.75 71.36 71.21 70.68 70.73 70.61 70.10 69.60 68.97 68.00 67.78 66.96 66.40 66.29 66.09 66.72 65.71 64.59 64.64 64.52 63.75 62.44 62.33 63.00
52.97 50.87 47.98 44.95 41.18 43.60 47.12 54.52 55.77 54.57 56.29 57.02 56.52 53.53 59.88 64.75 64.39 66.42 69.24 69.74 69.50 70.02 70.82 70.20 69.62 70.42 71.05 71.11 70.92 70.61 70.08 69.54 69.03 68.62 67.97 66.96 66.33 65.63 65.49 65.49 65.68 64.49 64.62 64.55 64.29 63.77 63.23 63.50 64.14
50.44 47.75 43.90 42.44 42.60 46.86 48.86 55.87 56.13 53.45 53.61 55.23 56.50 53.48 57.22 64.63 67.52 68.56 68.75 68.97 68.58 69.06 70.64 70.86 68.75 69.78 70.74 70.65 70.13 70.13 69.60 68.89 68.55 68.49 68.06 67.13 65.87 65.32 64.82 64.86 64.49 64.15 64.14 64.19 63.99 63.86 63.89 63.85 64.17
49.07 46.46 42.09 43.72 45.93 48.65 53.95 56.65 55.58 55.04 55.24 55.42 55.34 55.36 57.63 66.35 66.91 67.54 68.73 68.78 69.10 68.20 69.62 70.12 69.32 69.51 69.67 69.88 69.90 69.26 68.39 68.16 68.13 68.14 67.65 66.89 66.21 65.77 64.75 64.31 64.41 64.01 63.98 64.12 64.04 63.88 64.06 64.19 63.78
47.15 44.61 41.65 46.42 46.39 48.27 53.06 57.27 54.35 54.47 54.47 54.74 57.89 54.98 60.02 64.21 65.37 66.65 66.74 67.56 67.83 67.87 68.27 69.39 69.50 69.68 68.46 68.28 67.87 67.13 67.12 67.12 67.33 67.21 66.94 66.33 65.64 65.42 65.42 65.28 64.96 64.58 64.73 64.80 64.61 64.28 64.30 63.90 63.03
48.32 45.77 42.52 47.18 47.02 47.20 52.35 55.05 56.14 54.89 53.43 57.37 60.07 55.62 56.91 62.03 66.03 66.01 66.34 66.66 66.36 66.67 68.15 68.47 68.82 69.07 69.12 68.51 66.46 66.28 66.10 66.03 66.15 66.08 65.48 64.81 64.51 64.62 65.03 63.83 64.81 65.12 64.99 64.83 64.43 64.30 63.82 62.26 61.23
47.79 44.16 40.85 43.22 48.28 48.82 54.59 53.18 55.94 56.66 54.73 55.30 54.07 60.00 62.00 63.95 64.89 63.22 62.62 63.16 64.55 65.39 66.13 66.34 66.71 67.18 66.90 66.65 66.35 65.74 65.87 65.53 65.34 65.33 64.45 63.64 64.98 64.99 64.67 63.57 64.22 64.36 62.83 62.95 62.56 62.07 60.56 59.78 60.04
46.85 43.91 43.18 45.50 51.44 51.05 52.79 54.01 53.81 54.12 53.23 52.35 55.16 60.10 62.97 62.75 62.88 61.95 61.45 62.01 62.97 63.42 63.66 64.08 64.83 64.75 64.73 64.23 65.95 66.09 65.63 65.54 65.62 65.39 65.51 65.31 65.18 65.13 64.91 63.54 62.32 61.21 60.22 59.94 59.77 59.01 59.18 59.67 59.04
46.11 44.50 45.52 45.77 52.43 53.16 53.07 51.39 55.23 53.57 52.04 53.80 54.73 58.74 61.39 61.15 61.24 61.65 61.93 61.62 61.32 62.07 62.45 63.04 63.83 63.86 63.51 63.58 64.48 64.45 65.11 65.16 65.34 65.20 65.23 65.42 65.04 65.39 65.32 63.16 61.16 61.26 59.64 59.63 59.33 58.76 57.62 57.21 56.92
44.45 45.18 45.04 44.75 47.79 49.95 51.04 52.72 53.68 55.20 53.67 56.57 58.56 60.62 60.69 60.48 60.53 60.53 59.65 59.29 59.08 59.88 61.39 62.43 62.80 62.61 62.62 63.52 63.72 63.92 64.09 64.77 65.03 65.54 65.30 65.40 63.74 61.63 60.31 59.69 59.47 58.80 58.05 57.57 56.96 56.22 56.25 56.02 55.38
44.72 44.13 44.15 44.63 46.62 49.52 49.68 51.79 53.54 51.84 53.73 57.59 58.94 59.64 59.45 59.91 59.10 59.17 58.81 58.72 59.16 59.13 60.70 61.89 62.51 62.36 62.22 62.38 63.17 63.41 63.59 64.32 64.41 64.86 62.97 62.33 60.92 60.06 59.13 57.26 56.24 55.83 55.94 55.71 55.16 55.03 54.58 54.21 53.90
45.43 43.92 43.92 44.57 45.10 45.46 47.22 46.06 51.07 50.21 54.56 56.36 57.20 57.15 57.70 57.68 57.30 56.47 55.66 56.56 57.79 59.60 60.60 61.81 62.22 62.85 62.87 62.07 62.23 63.10 63.39 63.73 63.96 61.94 61.63 61.39 60.50 58.36 56.01 55.02 54.13 53.66 53.84 53.88 53.18 52.70 52.69 52.16 52.03
44.42 43.13 44.24 44.59 45.42 44.67 46.26 43.73 44.32 52.03 54.21 54.83 55.46 55.09 55.32 55.42 56.11 55.84 56.62 57.22 58.96 60.09 61.13 61.69 61.71 61.38 60.31 60.31 59.50 58.12 58.37 60.11 58.90 58.88 57.80 57.08 56.07 55.12 54.27 53.45 52.51 52.18 52.34 52.50 52.31 51.99 51.97 51.29 51.22
43.48 43.51 40.72 44.00 44.99 44.62 45.47 40.70 43.60 52.41 52.35 52.77 53.38 53.53 54.28 54.98 56.04 56.83 57.55 58.62 60.06 61.16 62.36 62.24 61.14 59.31 58.52 57.59 56.71 55.78 55.09 55.43 55.41 55.59 54.39 54.24 53.53 53.70 53.15 52.08 51.46 52.06 52.19 51.84 51.33 50.65 50.05 50.14 50.15
42.27 38.88 40.40 42.07 45.20 44.94 44.56 41.25 45.75 52.41 52.02 50.61 51.91 52.89 53.44 54.49 54.61 55.26 58.42 59.11 60.21 62.19 61.63 60.92 60.75 59.12 58.56 55.11 54.19 52.79 52.84 52.94 52.35 52.42 52.37 52.56 51.92 51.79 52.13 51.09 50.95 51.26 50.31 49.82 49.00 48.74 48.98 48.13 47.70
39.26 39.62 40.43 41.07 43.84 44.18 43.00 42.90 45.30 45.16 52.18 50.12 50.77 52.04 52.75 52.54 51.93 54.32 57.59 59.22 60.88 61.44 61.14 59.94 59.17 57.28 55.10 54.44 53.36 51.87 50.69 50.36 51.67 52.01 51.44 51.60 51.88 51.99 51.44 50.45 49.72 49.22 48.29 47.80 47.96 47.59 47.76 47.93 45.95
41.55 40.82 40.38 41.80 43.77 44.47 42.40 42.99 44.46 45.65 49.20 49.32 50.14 50.98 51.26 51.32 51.98 54.73 56.59 58.92 59.50 59.84 59.39 59.24 56.04 55.62 55.96 54.07 51.32 50.77 50.80 50.52 50.64 51.10 51.02 51.17 51.17 50.81 50.62 49.29 48.75 48.46 47.02 46.90 47.31 46.55 45.52 44.98 45.82
42.25 41.24 40.76 42.72 43.03 44.04 42.38 42.63 45.02 46.29 46.58 48.67 49.96 50.19 50.71 51.31 53.31 53.98 55.35 57.76 59.74 58.33 56.52 57.75 59.12 56.40 56.44 54.67 54.25 53.88 51.99 50.91 50.24 49.89 49.87 50.44 50.51 49.96 49.34 48.74 48.01 47.79 46.98 46.42 46.31 45.47 43.44 44.21 45.11
42.55 41.88 41.25 41.40 42.59 43.28 42.38 41.37 42.73 45.44 46.98 47.59 48.45 49.80 51.21 53.41 52.72 53.02 55.00 56.88 57.99 57.75 58.56 58.21 57.00 56.52 55.76 54.66 53.02 51.52 50.80 49.82 49.23 49.00 49.40 49.49 49.55 49.07 48.99 48.59 48.68 48.24 47.94 46.45 46.62 45.71 43.00 41.20 43.50
41.06 44.31 42.76 41.48 40.80 38.64 41.26 37.27 40.78 43.20 44.26 46.01 47.62 49.94 51.44 51.74 52.44 52.60 52.76 52.70 52.96 53.04 54.30 55.40 54.79 54.34 53.87 53.52 53.02 52.46 52.67 51.35 50.49 49.89 49.80 49.60 49.01 48.77 48.22 47.93 47.91 47.90 47.88 46.10 45.88 45.99 44.35 43.19 40.01
42.76 44.98 43.26 41.43 40.61 40.56 40.30 38.88 39.76 42.94 42.64 44.91 47.36 48.93 49.88 51.06 51.82 51.13 50.84 51.03 51.90 52.27 53.19 53.83 53.67 52.91 53.18 53.39 53.38 52.95 51.18 50.06 49.35 49.49 48.47 48.63 48.43 47.89 47.31 47.55 47.53 47.29 46.83 46.14 45.57 45.31 44.33 44.06 41.64
45.47 44.46 42.93 41.75 40.49 35.74 38.76 38.23 38.70 41.04 43.57 45.66 47.84 48.46 49.12 49.99 50.77 50.88 51.44 51.74 51.68 52.22 52.54 52.96 53.58 52.29 52.75 52.66 52.21 51.71 50.72 49.54 49.85 49.72 49.12 48.63 48.06 47.81 47.62 46.83 46.94 46.98 46.27 45.73 45.34 45.07 44.18 43.45 42.49
44.90 42.18 35.69 34.65 35.17 33.77 38.52 36.88 40.57 42.51 44.95 48.24 47.64 48.53 49.20 50.38 50.66 50.78 50.51 50.57 51.11 51.74 52.49 52.84 53.14 51.43 51.45 51.40 51.30 51.08 50.78 50.34 49.48 49.21 48.47 47.43 47.26 47.09 47.52 46.45 46.06 45.64 45.75 45.28 45.03 44.46 43.94 43.44 41.85
41.37 42.09 36.70 29.22 30.93 34.41 37.83 35.47 40.95 44.79 46.16 49.76 49.68 50.03 49.73 50.02 50.51 50.52 50.92 51.61 51.83 51.12 51.14 52.14 51.73 50.65 50.26 50.20 50.44 50.64 49.99 49.42 48.12 47.01 46.80 46.47 46.18 46.14 46.11 45.44 44.86 44.24 44.46 44.95 44.83 43.73 43.57 43.68 42.61
41.03 38.10 41.23 34.52 31.55 32.45 36.13 39.40 43.51 43.93 44.64 46.86 48.19 48.32 48.85 49.73 49.84 50.51 51.09 51.06 50.86 50.43 50.26 50.90 50.25 49.34 48.46 49.68 49.48 47.98 47.61 47.14 46.91 46.55 46.09 45.54 45.73 44.93 45.32 45.25 44.59 44.23 44.13 44.13 43.79 42.68 41.95 42.17 41.94
43.50 43.16 37.16 36.08 28.85 27.37 32.57 34.18 37.94 41.09 42.53 45.38 46.83 47.67 48.80 48.83 49.01 49.60 49.44 48.68 48.91 48.90 48.51 49.20 49.04 47.62 48.31 47.99 47.14 46.17 45.72 45.05 44.73 44.79 44.28 44.23 44.63 44.63 44.52 44.59 44.51 44.24 43.22 42.63 41.05 39.74 39.92 39.46 40.10
41.22 38.93 36.97 37.31 33.81 29.49 27.55 33.79 41.98 43.25 44.74 44.98 47.40 48.65 47.77 47.67 47.70 47.68 47.46 48.02 47.23 46.34 46.59 47.16 45.82 46.68 45.86 44.88 44.87 44.69 43.84 43.73 43.54 43.14 43.46 43.42 43.62 43.40 42.76 42.79 42.79 42.11 40.22 40.57 40.97 40.30 38.57 36.91 37.04
42.59 40.12 38.86 33.84 30.83 31.23 31.39 34.35 41.18 43.50 45.76 46.43 47.19 45.94 46.50 46.62 46.42 46.29 46.20 45.93 45.30 45.16 44.36 43.42 44.72 43.11 43.71 44.66 43.61 42.88 42.96 42.76 42.57 42.16 42.00 42.16 41.03 41.47 41.23 41.71 41.05 40.38 39.73 39.38 38.01 36.92 37.27 36.25 34.85

GFSSGP_sfc_wetblb_036.txt.gz
Wetbulb
60.19 56.86 57.08 57.58 50.53 51.40 48.72 48.82 55.05 56.34 57.92 61.31 61.83 60.19 59.96 61.92 58.56 55.51 68.98 70.40 71.35 71.34 71.12 71.37 71.06 71.75 71.99 71.57 71.65 71.63 70.86 70.30 70.11 69.81 69.32 68.79 68.67 67.80 67.38 67.65 67.91 66.47 65.93 65.27 64.56 63.83 63.53 64.02 64.11
56.35 56.50 57.68 56.06 48.24 46.04 48.34 51.67 52.38 58.79 60.96 61.25 59.89 58.50 57.94 56.97 64.64 65.48 66.36 70.04 71.03 70.56 71.30 71.40 70.55 71.13 71.74 71.67 71.68 71.32 70.47 69.96 69.59 69.11 68.53 68.21 67.48 67.23 66.89 66.75 67.43 66.72 65.11 64.72 64.04 63.33 63.78 63.88 64.00
56.97 56.44 53.67 50.37 47.69 45.86 48.10 53.59 58.35 58.30 59.50 58.67 56.10 59.74 57.20 56.66 64.44 64.92 69.71 70.54 70.63 70.58 71.60 71.93 70.42 70.86 71.44 71.50 71.26 70.86 70.48 70.28 69.81 69.13 68.01 67.35 66.82 66.55 66.32 66.15 66.49 66.27 65.27 65.02 64.23 64.02 63.95 64.06 64.14
54.69 54.96 53.80 47.10 45.23 47.43 52.73 58.07 59.02 57.58 59.04 59.08 57.55 53.70 60.69 64.23 63.15 66.95 69.70 69.83 69.90 70.92 71.72 70.27 69.64 70.66 71.20 71.27 71.13 70.42 70.20 69.76 69.08 68.84 67.92 66.81 66.01 65.56 65.43 65.70 66.35 65.48 65.27 65.07 64.87 64.53 64.34 64.46 64.41
56.35 54.00 47.33 45.83 46.19 50.21 54.34 59.39 59.11 57.19 55.48 56.92 57.89 55.10 58.75 65.24 67.20 68.38 69.30 68.96 69.44 70.21 71.50 71.71 68.08 70.12 70.91 70.84 70.23 69.85 69.28 69.04 68.88 68.56 67.90 66.85 65.44 65.12 64.91 65.00 65.00 64.96 64.81 64.74 64.50 64.54 64.64 64.46 64.16
50.89 52.35 45.10 44.38 48.05 53.06 56.38 59.36 59.27 57.82 57.02 55.59 56.10 56.84 60.31 67.17 67.10 68.25 68.34 68.78 69.98 69.85 70.41 70.62 69.45 70.04 70.14 70.24 69.97 69.18 68.53 68.52 68.54 68.17 67.87 66.56 65.96 65.71 64.79 64.62 64.78 64.78 64.85 64.77 64.69 64.66 64.59 64.00 63.35
49.96 48.06 45.62 48.63 50.35 52.86 56.26 59.79 57.37 56.90 55.80 52.92 58.58 56.43 61.29 65.14 68.20 68.74 69.11 69.46 69.59 69.87 70.25 70.46 70.81 70.24 69.04 68.59 68.36 67.52 67.64 67.75 67.64 67.51 67.19 66.41 65.98 65.84 65.45 65.41 65.10 65.07 65.11 64.95 64.49 64.10 63.42 62.41 62.12
53.23 50.31 48.30 51.40 50.40 51.74 57.51 57.10 57.71 55.59 54.59 59.96 61.00 56.57 57.52 64.83 67.36 68.37 68.94 68.48 68.59 69.81 70.17 69.40 69.40 69.31 69.13 69.09 67.15 66.57 66.53 66.64 66.64 66.67 65.63 65.12 65.13 65.35 64.67 65.44 65.09 64.81 64.27 64.06 63.28 61.95 61.32 61.21 60.93
53.34 47.61 47.33 51.03 52.33 52.99 57.04 55.32 57.03 57.56 56.28 58.02 59.23 61.29 64.78 65.85 66.59 66.02 66.05 65.93 66.67 68.28 68.08 68.53 68.03 68.08 67.65 66.99 67.10 65.87 65.97 65.99 65.70 65.60 64.80 64.33 66.58 66.34 65.82 63.91 63.92 62.71 62.46 62.18 61.29 60.44 60.48 61.21 60.50
50.20 47.94 47.18 50.57 54.42 53.12 55.17 54.27 55.05 54.68 55.95 55.79 58.16 64.20 65.47 64.83 64.89 64.11 63.94 64.09 66.18 65.31 65.98 66.88 66.94 66.59 66.27 64.96 66.13 66.20 65.37 66.71 67.50 67.13 67.11 67.93 67.91 67.81 65.90 63.57 61.84 61.17 61.10 60.64 60.03 60.22 61.14 61.59 60.29
50.69 48.14 49.62 49.44 53.99 54.88 54.73 54.84 57.48 55.89 54.69 57.80 57.45 62.67 62.56 63.53 63.50 63.64 65.60 65.47 63.42 64.38 64.37 65.10 65.81 66.02 65.04 64.50 65.72 65.86 67.02 67.50 67.95 67.74 68.25 68.08 68.68 68.82 68.47 65.77 65.16 65.25 62.17 63.15 62.63 61.52 60.04 59.81 59.40
48.13 50.20 49.51 47.96 54.51 54.53 53.02 56.11 54.85 57.41 56.44 59.46 60.66 64.76 64.38 63.03 64.48 64.97 62.82 62.05 62.54 63.32 63.55 64.16 64.81 65.13 65.39 65.39 65.82 66.40 66.81 67.52 68.45 68.53 68.58 68.87 67.78 66.19 66.09 64.63 64.14 63.38 62.13 61.34 60.55 60.19 59.51 59.20 58.61
48.94 49.10 47.73 48.55 52.03 54.95 55.59 54.73 54.91 56.07 58.69 60.88 63.14 63.83 63.09 63.29 63.21 61.59 61.32 61.88 62.50 62.17 63.57 64.20 64.59 64.48 64.89 65.35 65.99 67.14 68.31 67.86 67.79 68.17 66.78 66.74 66.33 64.72 63.56 62.55 62.16 61.10 61.05 59.87 59.12 58.52 58.07 57.73 57.35
49.57 47.33 46.21 47.22 50.47 53.29 53.47 54.27 56.81 55.69 60.04 60.90 62.35 62.09 61.22 60.07 59.56 59.83 60.11 60.51 62.02 63.06 63.79 65.20 65.04 65.38 65.38 65.67 66.06 66.32 66.60 67.11 66.59 65.26 64.05 63.22 65.42 63.67 61.99 60.63 59.46 58.75 58.29 57.80 57.43 56.74 56.44 56.18 55.94
47.90 45.68 47.17 48.58 50.97 50.12 54.13 49.95 47.87 55.65 59.32 59.58 59.95 60.20 59.71 58.24 58.95 58.60 59.30 59.77 62.12 63.48 64.35 64.87 65.51 66.19 65.06 64.02 64.02 64.13 63.52 62.48 62.46 62.69 61.87 61.80 62.05 61.11 60.08 58.39 56.90 56.53 57.53 57.28 56.57 55.57 54.62 54.15 53.53
45.96 46.97 43.46 47.66 50.02 48.07 50.97 45.17 49.23 55.58 57.27 57.60 58.53 58.70 58.84 58.62 58.84 59.19 59.57 59.99 62.24 64.09 64.51 64.66 63.45 63.04 62.43 61.76 61.46 61.05 57.92 58.41 59.53 60.14 59.28 58.34 57.55 57.34 56.93 56.41 56.00 56.20 55.68 54.12 52.89 52.19 51.47 51.13 51.29
46.04 41.93 43.19 44.33 48.05 48.74 47.58 45.20 49.28 56.28 56.14 56.54 57.96 58.08 58.05 57.91 58.68 59.94 61.02 61.52 62.31 64.07 64.94 63.72 63.94 62.62 62.28 61.97 56.60 56.23 55.63 55.22 56.13 56.54 56.36 55.85 55.69 56.15 56.08 55.71 54.75 54.38 53.13 52.38 51.25 50.60 50.49 49.85 49.80
42.50 41.61 43.73 43.44 46.57 48.16 46.56 47.45 49.46 55.48 55.54 55.34 57.06 57.81 58.02 58.01 58.68 59.51 61.70 62.36 63.70 65.25 64.71 63.48 63.97 62.32 58.53 56.63 57.87 54.18 53.91 53.69 54.17 54.15 54.06 54.93 55.50 55.98 55.79 53.98 53.04 52.69 51.48 50.67 50.28 49.74 49.88 49.16 49.00
45.56 45.09 44.37 45.96 47.71 47.48 46.53 47.84 48.99 52.97 55.60 55.18 55.71 56.73 57.49 58.04 58.37 60.59 62.33 63.17 64.08 63.89 63.02 63.55 61.84 57.93 58.23 56.87 55.77 54.46 52.50 53.19 55.00 55.82 55.56 55.91 55.77 54.34 53.54 52.80 52.58 51.69 50.52 49.70 49.69 48.61 48.20 47.56 48.94
46.04 45.15 45.10 46.01 46.75 48.09 48.10 47.73 49.36 50.88 54.68 55.86 56.15 56.51 57.07 57.03 58.52 59.93 62.08 62.48 62.49 62.82 63.84 62.58 62.13 61.36 60.47 60.30 58.84 58.61 57.37 56.67 56.39 55.88 55.57 55.57 54.12 53.33 52.13 51.82 51.47 51.19 49.80 49.67 49.55 48.97 47.38 47.09 47.73
46.43 45.44 45.22 44.84 46.54 48.64 48.21 46.61 48.14 49.40 51.66 53.48 55.00 57.06 57.25 57.95 58.63 59.70 61.31 62.78 61.97 61.73 62.67 62.90 63.72 63.12 61.79 59.86 58.58 57.74 56.64 55.63 54.94 54.71 54.95 54.65 53.88 53.39 52.88 52.12 51.31 50.90 50.63 49.02 49.27 48.83 47.41 44.90 46.37
44.55 47.65 46.94 45.78 45.42 42.33 47.45 40.79 47.23 49.29 49.07 50.83 53.27 55.20 57.03 58.36 59.38 60.76 60.68 61.31 62.60 62.92 63.85 63.63 62.65 61.34 59.84 59.22 57.86 56.84 56.85 55.17 56.65 55.56 55.61 54.49 53.26 53.20 51.69 50.96 51.28 51.03 50.62 49.80 49.26 48.08 47.80 46.18 43.65
46.19 48.24 47.17 46.50 46.00 45.12 44.72 42.44 46.56 48.68 47.94 49.38 52.21 55.05 57.26 58.28 58.79 57.94 58.20 59.44 60.62 61.42 61.44 60.97 59.98 58.99 58.45 57.89 58.36 57.94 56.42 56.45 55.60 55.32 53.21 53.88 54.18 52.58 51.68 51.36 51.20 50.87 50.30 50.10 49.33 48.12 47.11 46.40 43.37
50.05 48.67 48.17 47.76 46.54 39.67 43.94 43.05 42.73 46.28 48.27 50.52 52.24 55.25 56.31 56.43 57.01 56.51 56.65 57.09 57.02 58.21 58.27 57.99 57.50 57.19 57.71 57.78 57.48 56.99 55.53 54.35 53.67 53.25 51.99 51.29 51.53 51.63 51.48 51.09 51.12 50.84 50.33 49.74 49.10 48.26 46.07 45.59 44.80
49.16 46.17 40.43 37.79 38.47 37.11 43.70 42.08 43.62 47.70 49.52 51.91 52.44 54.79 55.38 55.90 55.40 54.88 54.80 55.19 55.77 56.42 57.21 57.86 57.33 56.40 57.22 57.01 56.53 55.67 53.85 52.55 51.37 50.96 50.65 50.27 50.05 50.29 50.39 50.68 49.82 49.52 49.66 49.27 48.59 47.48 46.18 45.58 44.38
46.24 45.21 39.76 30.85 34.31 39.02 42.85 39.79 45.89 49.36 50.42 53.10 54.88 55.61 55.16 55.00 55.34 55.01 55.31 55.82 56.04 56.48 57.37 57.05 57.08 55.57 55.68 55.17 53.59 53.23 52.20 53.42 52.74 51.48 50.95 50.10 49.33 49.04 48.95 47.93 47.59 47.26 47.20 47.56 47.67 46.90 45.95 45.32 44.28
45.11 43.31 46.57 40.30 37.33 37.92 42.02 44.42 48.22 48.90 49.05 52.07 53.59 54.34 54.05 54.35 55.05 55.08 55.62 56.18 56.33 56.27 56.30 56.63 55.61 54.37 52.65 51.51 51.32 50.80 52.80 51.37 50.60 49.64 49.36 48.39 47.50 46.32 46.45 46.67 45.98 46.00 46.13 46.71 46.74 45.68 45.06 44.62 43.52
47.75 48.26 41.16 42.67 32.43 30.94 38.48 39.49 42.28 45.62 47.54 50.20 52.25 53.11 53.61 54.67 55.04 55.11 55.49 55.65 56.09 56.09 55.19 55.44 54.28 52.67 49.79 49.84 51.13 51.62 50.85 49.79 48.67 48.75 46.44 45.90 46.06 45.85 45.45 45.00 44.68 44.85 45.26 45.83 45.81 44.62 43.25 43.35 42.13
44.97 44.38 43.20 43.51 40.90 34.51 33.41 39.40 47.57 46.96 49.12 49.69 52.41 53.64 53.86 54.48 54.68 54.91 55.17 55.13 54.94 54.08 53.64 52.87 50.98 48.83 48.44 48.40 49.08 49.25 48.18 47.73 47.78 47.17 45.69 45.38 45.53 44.94 43.94 43.72 43.71 43.71 43.93 43.97 42.35 41.50 41.70 40.97 39.52
47.17 45.73 45.13 38.86 36.28 39.16 38.34 39.02 46.47 48.77 50.67 51.53 52.18 53.41 54.58 54.88 54.71 54.55 54.01 53.39 52.22 51.50 50.97 50.06 48.32 46.99 46.80 47.91 47.64 46.81 46.95 46.66 46.54 45.30 44.62 45.13 44.22 43.95 43.67 43.63 43.29 43.24 41.30 41.71 41.30 40.29 39.68 38.22 37.83

GFSSGP_sfc_wetblb_039.txt.gz
Wetbulb
62.61 60.74 58.36 56.11 50.15 51.42 49.07 50.91 54.65 57.30 58.42 62.44 62.87 61.81 61.54 62.94 60.06 56.77 68.59 69.81 71.20 70.96 71.60 71.33 71.33 71.69 71.85 71.70 71.65 71.73 70.95 70.52 70.20 69.56 69.03 68.81 67.91 67.61 67.51 68.00 67.88 66.47 65.29 64.66 64.21 64.94 65.11 64.91 64.68
60.69 56.50 55.59 54.98 48.78 46.74 49.08 52.72 54.01 58.59 59.10 60.63 61.05 60.89 58.92 59.90 65.45 65.74 67.02 70.16 71.15 70.78 71.28 71.48 70.61 71.39 71.75 71.88 71.41 71.00 70.47 70.10 69.47 68.67 68.52 67.59 67.20 67.00 66.75 66.44 67.23 66.37 65.32 64.34 64.79 64.91 64.69 64.47 64.23
57.30 55.97 53.08 50.66 49.33 46.88 47.85 56.20 58.61 58.46 61.04 59.69 58.05 61.64 59.19 60.03 64.57 65.94 69.19 70.44 70.66 70.69 70.94 71.26 70.48 70.84 71.59 71.58 71.16 70.91 70.65 70.16 69.22 69.03 67.54 66.89 66.43 66.19 65.81 66.26 67.21 66.51 65.20 65.20 65.17 65.02 64.74 64.81 64.48
55.53 53.65 53.70 48.76 47.54 49.93 50.57 55.96 56.95 58.89 60.09 60.35 59.28 55.16 60.95 64.39 62.21 67.44 70.58 70.89 70.42 70.26 70.74 69.37 69.33 70.50 71.12 71.35 70.89 70.02 69.82 69.40 69.13 68.68 67.64 66.20 65.76 65.49 65.49 66.63 66.99 65.77 65.39 65.21 64.94 64.90 64.86 64.74 64.50
55.51 54.08 48.31 47.58 48.42 50.00 52.72 59.68 58.69 56.89 58.57 57.71 58.40 56.32 56.27 62.57 63.69 66.88 69.98 70.63 69.62 69.62 69.94 70.68 68.37 69.99 70.60 70.89 70.11 69.80 69.28 69.31 68.90 68.33 67.60 66.38 65.16 65.28 65.17 65.71 65.62 65.14 64.93 64.90 64.95 64.82 64.44 63.98 63.70
50.78 52.60 47.12 46.19 48.16 52.87 55.23 59.79 58.55 57.17 58.56 58.18 56.77 57.39 60.39 66.36 64.57 64.86 68.53 68.06 68.83 68.13 69.62 70.15 69.72 69.77 70.23 70.33 69.80 69.08 68.91 69.02 68.46 68.05 67.34 66.10 65.55 65.52 65.09 65.16 65.09 65.21 64.91 64.96 64.60 64.36 63.41 63.12 62.89
50.59 49.84 47.01 48.05 49.95 52.54 54.80 59.52 57.01 56.50 55.79 55.41 59.52 56.05 62.45 65.61 67.45 68.05 66.56 64.34 68.27 69.32 69.44 69.60 70.30 70.00 69.20 68.68 67.98 67.57 67.83 67.91 67.84 67.74 66.99 66.47 66.28 66.34 66.17 65.66 65.28 65.24 65.06 64.71 64.00 62.93 62.47 61.96 61.50
52.69 51.19 47.85 49.20 49.82 51.36 56.91 58.00 58.35 57.59 56.49 60.20 61.16 55.27 58.30 65.28 68.49 66.35 66.63 66.50 67.74 69.47 69.19 68.94 68.81 68.20 68.41 68.34 66.91 66.92 67.01 66.94 66.88 66.33 65.74 65.30 65.07 65.06 65.67 65.80 64.83 64.22 64.02 63.51 62.11 61.36 61.16 61.39 60.76
54.84 48.79 46.62 49.88 51.86 53.44 57.09 55.70 57.98 59.21 56.71 57.88 61.08 61.64 65.14 67.44 67.54 66.41 65.65 66.52 67.73 67.91 66.98 67.28 67.23 67.81 67.40 66.63 66.62 66.22 66.71 66.42 65.95 65.28 65.12 64.09 65.24 65.48 65.69 63.67 63.13 62.68 62.42 61.72 60.78 60.94 60.93 61.07 60.78
50.42 47.54 48.47 56.00 54.58 50.23 56.66 55.46 55.84 55.09 54.33 54.21 58.46 63.95 66.84 66.51 66.23 64.93 64.97 65.52 66.39 64.79 65.46 66.46 66.88 66.60 66.41 64.29 65.21 65.25 65.09 65.54 66.61 66.37 65.96 67.03 66.76 66.87 65.64 63.27 62.60 61.91 61.43 61.36 60.67 61.02 60.83 62.29 61.23
50.98 48.25 51.42 51.49 55.51 54.01 54.50 54.41 56.63 55.00 53.75 56.49 57.31 63.20 63.62 65.01 65.65 65.71 65.86 66.26 64.37 65.15 65.46 65.90 66.14 66.14 65.06 65.18 64.97 65.33 66.08 67.00 67.20 67.55 67.61 68.11 67.34 67.02 66.44 65.72 64.09 65.06 61.97 63.57 62.24 62.38 61.36 61.12 60.53
48.58 51.08 51.70 51.92 53.16 55.14 53.37 55.98 55.21 55.92 55.88 59.64 61.48 65.21 64.21 64.60 64.89 65.30 65.67 63.95 63.01 63.92 63.85 64.51 65.23 65.18 65.41 64.89 65.22 65.97 66.44 66.86 67.23 67.69 67.96 67.67 66.41 66.70 65.79 64.62 64.76 63.74 62.93 62.22 61.89 61.21 61.10 60.50 60.04
49.20 50.85 50.40 51.43 53.36 54.06 54.95 54.17 54.70 55.58 57.71 58.55 63.83 64.93 64.66 64.78 65.18 65.29 62.61 62.66 63.64 62.69 63.00 63.35 64.18 64.75 65.79 66.03 66.82 67.02 67.27 68.59 68.26 68.00 67.43 66.94 65.55 65.58 64.93 64.45 63.16 62.19 61.54 60.71 60.11 59.69 58.91 58.69 58.64
51.60 51.13 49.45 52.25 53.39 54.97 53.73 54.31 55.40 57.00 58.64 60.07 62.97 62.78 62.96 63.59 62.78 60.81 61.24 61.85 62.61 62.78 63.80 64.18 64.26 65.43 65.82 66.77 66.97 67.91 68.62 67.74 66.53 65.93 64.88 64.83 64.83 65.44 64.59 63.28 61.27 59.98 59.10 58.66 57.93 57.18 56.26 55.89 56.21
49.88 46.87 48.83 48.69 52.20 52.55 55.10 51.71 52.42 57.42 58.99 59.41 61.21 61.15 60.92 60.80 59.89 59.57 61.20 62.00 63.40 63.48 64.98 65.31 66.03 66.56 66.04 65.66 65.14 64.00 63.58 63.99 64.00 63.39 62.80 63.12 63.26 62.46 61.61 58.59 57.07 56.99 57.66 57.93 56.32 55.03 54.72 53.95 53.58
47.44 47.37 44.44 49.55 52.02 52.88 53.24 46.45 52.20 57.06 57.37 57.00 57.91 58.09 57.15 57.35 58.14 59.97 61.14 62.54 64.18 65.23 64.95 65.86 65.57 65.15 63.90 62.97 61.98 60.87 61.29 61.28 60.47 60.93 61.37 60.61 59.69 59.07 58.94 56.97 56.05 56.33 56.06 54.96 53.61 52.73 51.81 51.71 51.43
46.37 42.62 44.63 47.25 52.00 51.07 51.41 46.66 52.29 56.08 56.58 56.17 56.91 57.23 57.06 57.08 57.89 59.65 60.60 61.49 63.75 65.55 65.34 64.36 64.60 63.28 61.97 59.89 58.19 57.16 57.28 57.99 58.44 58.83 57.21 56.74 56.70 57.11 57.22 56.31 55.06 55.08 54.01 53.27 52.26 51.18 50.83 49.66 49.50
42.52 43.56 45.31 44.60 48.16 49.26 46.76 47.47 51.20 54.98 55.75 56.54 56.96 56.95 57.40 57.29 57.76 60.39 62.00 62.41 62.85 65.80 65.16 64.80 64.15 63.62 62.08 60.85 60.11 56.46 55.34 55.66 57.15 55.87 55.15 56.21 56.83 57.06 56.90 54.99 54.63 54.02 52.93 51.95 51.20 50.47 50.08 49.45 48.82
46.35 44.79 43.96 46.20 47.90 46.93 46.47 47.81 49.98 53.89 54.32 55.09 56.69 57.57 57.94 58.45 60.51 61.94 63.29 63.75 63.77 66.14 64.40 63.53 62.69 62.66 61.75 59.11 58.59 55.74 55.10 54.51 55.33 55.79 57.10 57.54 57.52 55.76 55.04 54.57 53.58 52.92 51.57 50.93 51.34 50.30 49.43 48.59 49.27
46.16 45.50 44.78 47.56 47.94 47.84 46.67 47.06 50.08 52.61 53.75 54.95 55.80 57.29 58.32 59.29 60.22 61.33 63.02 63.87 64.32 64.79 64.04 63.62 63.05 62.26 63.58 60.32 61.22 60.62 58.31 57.53 58.26 57.42 57.85 57.99 55.95 55.09 54.06 53.45 52.63 52.33 51.09 51.07 50.78 50.09 48.30 48.18 48.42
46.36 45.07 45.82 45.72 47.63 48.26 48.23 46.75 49.26 51.99 54.87 56.26 57.13 57.84 58.64 59.37 59.47 60.89 62.22 63.26 63.84 63.13 62.93 64.17 63.44 63.92 63.33 63.15 61.27 60.19 59.61 58.43 57.07 56.75 56.55 56.27 55.07 54.60 53.85 52.87 52.32 51.86 51.42 49.96 50.34 49.84 48.36 45.43 46.88
44.76 49.08 47.64 46.51 45.84 42.08 49.01 40.31 47.35 50.82 51.64 53.90 55.76 57.58 58.23 59.21 60.43 61.59 62.45 62.15 63.25 63.57 65.18 64.27 63.71 63.32 62.34 60.99 59.47 58.25 56.69 55.72 57.08 57.11 57.33 56.32 55.17 54.11 53.02 52.22 52.18 52.00 51.37 50.48 50.01 49.71 48.83 47.51 44.41
46.88 49.69 48.34 47.32 46.11 45.73 46.01 42.67 44.94 50.99 49.42 51.54 54.34 56.53 58.40 59.90 60.93 61.62 62.64 63.39 63.85 64.02 63.53 63.50 63.06 61.53 60.43 60.00 59.41 58.46 57.80 58.26 58.11 57.68 55.77 55.13 54.70 53.89 52.82 52.59 52.11 51.51 50.78 50.53 50.75 50.28 48.55 47.77 45.58
51.07 48.81 48.61 48.20 46.35 40.72 44.67 43.55 43.58 47.28 49.76 52.07 54.11 56.03 58.25 59.78 60.78 60.87 61.86 61.70 61.25 62.71 62.64 61.77 60.71 59.60 59.74 59.20 59.48 58.67 57.14 55.54 54.41 54.70 53.31 52.64 52.14 51.92 52.26 51.87 51.96 51.30 49.98 49.90 49.73 49.58 47.89 47.08 46.36
49.73 47.23 40.59 38.77 39.38 38.11 45.85 43.28 44.92 49.52 51.34 52.55 53.66 55.78 58.37 59.27 59.28 58.68 58.36 58.49 59.14 59.68 60.02 59.45 58.96 57.86 58.66 58.92 58.47 57.47 56.00 54.42 52.17 52.79 51.60 50.51 50.42 50.41 50.74 50.68 49.27 48.23 47.84 47.51 47.79 48.09 48.05 46.92 45.55
47.99 46.83 41.18 33.21 35.19 38.89 45.69 39.88 46.13 52.17 52.73 54.00 55.90 57.11 57.95 57.91 58.43 57.37 57.04 57.34 57.69 58.16 58.68 58.57 58.18 57.13 58.20 57.66 56.55 55.49 53.99 52.57 52.46 51.76 51.05 50.10 49.38 48.97 48.98 47.81 47.48 46.84 46.49 46.65 47.05 47.01 47.35 46.71 45.90
47.21 43.80 48.74 42.43 42.44 38.67 41.23 45.53 50.43 51.41 51.22 53.45 55.06 56.37 56.52 57.23 57.25 56.50 56.87 57.51 57.71 58.11 58.54 58.54 57.59 56.67 56.55 55.27 54.35 53.17 52.39 51.92 51.16 50.49 50.41 49.28 48.46 47.29 46.95 46.86 46.00 45.61 45.52 45.47 45.72 45.86 45.97 45.79 45.04
48.96 50.10 42.45 43.22 33.78 32.98 39.70 40.84 43.64 47.09 48.69 51.90 53.92 55.20 56.09 57.01 56.73 56.63 57.11 57.58 58.14 58.52 58.80 58.91 58.20 55.89 54.56 53.67 52.71 51.53 51.53 50.98 49.99 49.62 48.06 47.29 47.08 46.57 46.00 45.21 44.93 45.05 45.12 45.08 45.06 44.53 44.35 43.66 43.70
47.17 45.35 45.61 45.12 43.47 36.17 34.60 41.32 47.78 47.08 49.73 50.95 53.66 55.62 56.43 56.52 56.46 56.74 57.27 57.94 58.25 58.37 57.78 57.26 55.98 53.83 52.95 51.81 50.58 50.79 49.98 49.22 48.47 48.27 47.72 46.31 46.23 45.56 44.48 44.27 44.48 44.21 44.07 44.25 43.50 43.15 42.92 41.22 41.03
49.62 47.31 47.15 40.86 38.68 41.25 40.48 40.28 48.51 49.64 50.39 52.10 53.10 55.17 56.83 56.95 57.05 57.37 57.50 57.64 57.28 56.57 56.26 55.01 53.25 52.04 51.19 49.65 48.71 49.54 49.15 47.96 47.22 46.86 45.85 46.06 45.23 44.90 44.05 44.17 43.70 43.45 42.50 42.49 40.73 39.96 39.26 39.18 37.98

GFSSGP_sfc_wetblb_042.txt.gz
Wetbulb
61.07 59.99 59.15 55.64 46.75 48.26 45.65 48.13 54.30 55.61 57.57 61.24 62.38 60.68 60.15 61.79 59.23 54.78 68.19 69.37 69.40 69.15 70.13 70.76 71.15 71.57 71.68 71.84 71.76 71.65 71.40 70.51 69.76 69.49 69.51 69.03 69.00 68.57 68.32 67.96 67.37 66.87 65.27 66.02 65.90 65.52 65.35 65.12 64.75
59.35 59.37 55.68 50.29 44.71 43.10 45.99 52.72 55.16 57.68 59.40 61.07 60.82 60.66 60.06 58.77 64.66 64.84 66.57 69.74 70.04 69.76 69.73 69.95 70.85 71.25 71.71 71.58 71.35 71.00 70.63 69.76 69.75 68.98 68.69 68.62 67.88 67.17 66.54 67.62 67.45 66.65 65.80 65.90 65.70 65.60 65.28 64.92 64.73
58.62 56.25 49.70 47.28 45.70 44.41 46.85 54.27 55.08 58.58 60.31 59.64 58.78 60.97 59.99 59.09 63.78 65.68 69.03 69.58 70.35 69.10 70.18 70.04 70.13 70.62 71.38 71.22 70.92 70.70 70.10 69.67 69.13 68.37 67.88 66.77 66.26 66.22 66.55 67.54 66.97 67.08 65.92 65.82 65.58 65.27 64.97 64.61 64.73
54.85 53.05 49.80 45.46 44.74 48.49 53.21 56.87 58.04 58.18 59.26 59.95 59.30 56.29 61.28 62.69 62.50 67.75 69.36 69.49 69.40 69.78 69.70 68.92 69.13 70.04 70.74 70.76 70.89 70.33 69.61 69.14 68.50 67.84 67.64 66.33 65.93 66.43 66.53 67.31 67.01 65.97 65.77 65.55 65.30 64.88 64.58 64.98 64.85
55.46 51.36 44.95 44.77 46.32 49.45 52.85 58.81 58.95 56.92 57.29 58.36 58.76 54.71 56.50 60.26 65.84 68.98 69.27 69.23 68.42 68.23 68.51 68.67 68.26 69.50 70.40 70.48 70.19 69.68 69.26 68.56 68.19 67.49 66.94 66.77 65.91 65.81 65.87 66.54 66.43 65.95 65.43 65.23 64.92 64.32 63.94 64.27 64.09
49.97 49.60 44.38 43.78 46.37 50.76 53.42 59.32 58.92 57.64 56.53 55.65 56.88 57.53 58.22 62.29 63.32 65.79 68.27 67.81 68.14 66.80 67.63 68.35 69.39 69.49 69.79 69.94 69.38 68.89 68.72 68.32 67.71 67.26 66.72 66.73 66.20 66.38 66.26 66.46 66.31 65.82 65.42 64.97 64.58 63.65 63.26 63.42 62.88
48.30 47.22 44.94 46.17 46.78 49.78 55.08 58.56 55.57 54.30 54.46 55.75 58.69 56.71 61.58 61.67 64.59 66.91 65.62 66.14 64.96 66.83 67.12 68.27 68.66 69.25 68.40 67.72 67.45 67.67 67.71 67.57 67.54 66.92 66.60 66.45 66.45 66.35 66.54 66.41 65.95 65.45 65.28 64.42 63.42 62.70 62.82 62.05 61.23
50.15 48.85 45.85 46.94 46.26 49.99 52.80 54.02 57.01 54.44 53.36 59.67 59.04 54.31 57.14 63.76 65.59 62.17 64.36 65.12 64.29 66.63 66.43 67.13 68.05 68.16 67.15 65.98 66.43 66.65 66.51 66.55 66.34 65.92 65.61 65.11 65.11 65.62 66.29 65.46 65.00 64.64 64.15 63.06 61.93 61.98 61.89 61.96 60.41
52.97 45.92 44.31 46.34 49.63 49.83 53.08 52.23 57.18 59.63 56.51 59.25 60.45 61.90 63.99 66.00 64.92 60.63 60.68 63.52 64.52 65.27 66.42 66.71 66.63 66.77 65.99 65.66 65.97 66.34 66.59 66.17 65.29 65.10 64.97 63.74 63.05 63.65 64.66 63.72 63.88 63.56 62.97 62.43 61.53 61.37 60.62 61.58 61.00
49.17 45.92 46.01 52.96 54.07 50.65 51.01 52.48 54.61 54.05 54.28 55.73 59.59 64.45 65.74 65.32 63.21 63.16 62.04 61.96 61.59 62.97 64.18 65.59 65.92 65.64 64.26 63.45 64.06 64.03 64.47 63.97 63.82 63.87 63.60 63.94 65.37 64.13 63.70 62.28 62.73 62.92 62.39 61.67 61.14 60.71 61.27 61.71 58.07
49.58 45.93 49.39 52.82 54.88 53.98 50.78 51.45 56.52 54.10 52.10 54.65 58.07 62.06 64.14 64.34 64.13 63.38 63.73 62.90 62.57 63.49 64.11 64.46 65.21 64.56 62.93 62.78 63.31 63.49 63.99 64.51 65.91 65.95 65.70 66.24 66.00 64.60 63.67 61.35 60.33 61.11 61.86 61.27 60.09 59.83 58.77 58.65 57.62
47.31 49.90 50.00 52.67 56.08 55.09 53.61 55.95 53.97 54.57 52.90 55.30 57.02 63.78 63.23 63.08 63.33 63.55 63.11 62.86 62.47 62.49 63.26 64.01 64.01 64.72 64.37 63.61 63.72 64.66 65.27 65.95 65.78 66.08 65.93 65.44 64.74 64.20 63.10 62.17 62.22 61.02 60.65 59.06 58.59 57.81 57.47 56.72 56.99
48.00 49.23 50.93 51.35 52.06 54.54 55.24 53.40 53.49 52.87 55.10 57.16 57.83 63.25 62.87 62.88 63.68 64.55 63.69 62.40 62.62 61.39 61.92 62.55 63.60 64.53 64.59 65.23 65.68 65.21 64.81 65.25 65.25 66.30 65.18 64.50 64.34 63.72 62.98 61.73 60.83 59.15 58.08 56.70 55.80 55.16 54.65 54.23 53.84
50.28 49.84 50.17 51.47 52.54 53.56 52.99 53.42 54.95 55.45 57.67 62.07 62.52 62.28 62.52 62.47 62.93 61.43 60.16 61.38 61.77 61.26 61.48 62.17 63.01 64.82 65.57 65.41 65.37 64.67 65.18 65.43 64.87 64.12 64.04 64.18 63.85 63.45 62.11 59.00 56.70 56.12 56.02 55.19 54.57 52.89 52.67 51.55 51.64
50.82 47.57 48.67 50.48 52.09 52.23 53.35 49.80 49.71 56.23 58.14 59.38 60.51 60.86 60.91 61.52 60.92 58.95 61.14 61.38 61.18 61.31 61.63 62.41 63.78 65.83 64.23 63.34 62.34 61.76 61.85 62.00 61.81 61.75 62.26 61.96 62.07 59.53 57.22 56.50 55.75 55.40 54.99 53.69 52.44 51.32 50.55 49.71 49.99
46.71 47.61 44.11 49.47 50.20 51.97 52.81 45.83 51.30 56.38 56.83 57.43 58.73 58.94 59.43 59.39 58.55 59.73 61.39 61.70 61.77 62.66 62.44 63.82 64.93 64.25 63.01 61.83 60.92 60.24 60.35 59.84 59.53 59.80 60.01 59.47 58.41 57.69 56.61 55.21 54.07 53.94 53.70 51.17 50.29 49.41 47.39 47.10 46.79
46.33 40.90 43.62 46.29 50.84 50.86 50.40 46.66 52.20 55.16 55.89 55.42 56.18 56.55 57.23 57.06 57.60 59.55 61.29 62.60 63.09 63.35 64.08 63.97 63.16 61.22 60.46 59.87 59.39 58.35 58.93 57.77 58.28 58.61 56.25 56.12 56.15 56.61 55.27 54.37 52.45 52.36 51.77 50.70 48.96 47.54 46.54 45.20 45.11
40.86 41.52 44.28 44.70 48.37 49.34 48.81 47.85 50.05 53.47 55.18 54.96 54.90 55.05 54.60 54.52 56.03 58.99 60.02 62.02 63.91 64.54 63.92 63.27 61.72 60.97 60.21 60.10 59.34 58.80 57.70 57.04 56.54 54.94 54.60 55.31 55.72 56.14 54.99 52.90 52.19 51.46 49.73 48.49 47.93 47.09 46.92 46.09 45.32
46.52 44.86 44.07 46.04 48.29 46.86 45.97 46.60 48.22 51.99 53.89 54.54 54.98 55.14 55.21 55.34 57.34 59.48 60.75 61.56 63.38 64.11 62.81 62.36 61.31 60.98 60.04 58.93 57.05 56.42 55.29 54.53 54.81 54.29 55.03 55.84 55.92 54.68 52.49 52.22 50.99 50.04 48.83 48.08 47.99 46.65 45.51 45.00 45.35
46.10 44.69 44.59 45.85 47.04 46.18 45.97 45.10 48.77 50.58 52.30 54.85 55.23 55.19 55.77 56.25 56.91 59.80 61.15 62.07 63.37 63.52 63.57 62.12 61.51 61.13 60.79 60.20 58.93 58.20 56.73 54.86 54.90 55.20 55.89 56.65 55.23 53.42 52.93 50.95 50.19 49.61 48.15 47.84 47.89 46.74 45.02 44.32 44.74
45.68 44.82 45.09 44.51 46.48 46.23 46.01 43.27 46.70 50.23 52.24 53.92 55.80 57.13 57.56 57.38 57.82 59.34 60.71 61.83 63.32 63.38 62.32 62.40 61.61 61.21 61.70 60.00 60.85 59.48 57.24 56.02 55.48 54.86 54.89 54.67 54.37 53.48 52.09 51.01 49.77 48.80 48.37 46.74 46.79 46.10 45.31 42.15 43.07
43.50 48.96 47.21 46.50 44.53 39.45 47.20 38.39 45.27 48.02 49.54 52.14 53.67 55.09 56.62 58.00 59.57 60.01 60.97 61.56 63.13 63.21 62.72 63.19 62.67 62.21 62.60 61.76 58.68 56.81 55.09 53.50 54.46 54.49 55.09 53.48 53.66 53.03 52.13 50.57 49.52 48.90 48.50 47.20 46.81 46.86 45.39 43.98 41.05
45.23 49.55 48.01 46.98 44.50 44.12 42.71 40.09 44.10 48.52 47.14 50.51 54.19 55.79 57.00 58.38 59.28 59.61 61.00 61.86 61.94 62.17 62.78 63.35 62.98 61.55 60.84 59.49 58.55 56.95 56.29 55.18 55.22 55.00 53.99 53.89 53.51 52.90 51.65 50.86 49.73 48.38 47.91 47.03 46.73 45.98 45.01 44.35 42.80
51.01 48.23 48.06 47.21 45.42 37.88 41.14 40.75 42.10 44.75 47.32 49.42 53.33 55.37 56.97 58.42 59.28 60.74 61.49 62.27 61.37 62.82 63.02 62.51 61.34 59.83 59.01 58.78 58.47 57.59 56.44 54.77 53.59 53.36 52.51 52.07 51.29 49.68 50.32 50.32 48.42 47.07 46.22 44.77 43.83 43.78 42.87 42.11 42.64
48.45 45.26 39.45 33.26 34.58 37.23 44.42 42.32 44.42 47.79 51.38 52.74 52.87 54.84 56.92 58.69 59.59 60.27 60.41 60.77 60.77 60.64 61.26 60.90 59.76 57.63 58.32 58.02 57.89 57.36 55.56 53.79 51.29 51.27 50.46 48.67 48.02 47.85 47.40 46.70 45.23 44.66 44.50 44.17 43.49 42.64 42.24 42.17 41.80
46.15 45.35 37.97 31.87 31.59 38.30 45.05 39.88 44.47 51.15 52.74 53.72 55.13 55.56 57.57 58.43 59.40 58.92 59.65 59.12 59.26 59.70 59.31 58.88 58.24 56.91 57.38 57.76 57.06 56.02 53.97 51.79 51.18 51.60 49.47 47.62 46.69 46.13 46.23 45.13 44.47 44.12 43.66 42.99 42.49 41.98 41.76 41.45 41.57
45.95 43.37 47.98 41.92 43.19 39.34 40.28 42.59 49.65 51.03 51.03 52.67 53.68 55.40 56.38 57.30 57.82 57.45 57.94 57.76 57.91 57.76 57.84 57.62 57.02 56.68 56.81 56.20 54.43 52.69 51.87 51.07 49.44 48.54 48.35 46.68 45.89 45.75 44.66 43.98 43.00 42.92 42.83 42.73 42.16 41.06 40.99 40.94 40.54
47.24 48.86 42.40 43.15 33.79 32.01 38.09 40.28 42.02 46.57 48.27 51.09 53.01 54.48 55.86 56.85 57.05 56.84 56.27 56.58 56.92 57.58 57.85 58.39 57.75 55.88 55.71 53.99 52.62 51.65 50.98 49.86 48.85 48.47 47.19 45.41 44.65 44.24 43.49 42.62 42.18 42.33 42.34 42.22 41.31 40.40 40.53 39.54 39.18
46.33 44.61 44.53 43.72 43.45 36.18 34.27 38.55 47.13 47.27 49.35 49.95 52.96 55.07 56.01 56.41 56.50 56.29 55.90 56.84 57.21 57.65 57.82 57.70 56.95 54.81 53.34 52.37 51.49 50.23 48.76 48.28 48.00 47.02 45.54 44.43 43.85 43.46 42.57 42.26 41.87 41.77 41.32 40.46 39.48 38.94 38.71 38.07 37.31
48.43 46.26 46.35 41.63 38.38 41.75 40.42 38.98 48.99 49.58 50.21 51.48 52.26 54.81 56.38 57.04 57.00 56.55 56.46 56.70 56.78 56.92 56.83 56.28 55.73 53.58 52.30 51.03 49.44 48.94 48.52 47.83 47.27 46.09 44.92 43.90 42.91 43.28 42.20 41.99 41.67 41.54 39.99 39.33 38.55 38.45 37.86 36.34 35.70

GFSSGP_sfc_wetblb_045.txt.gz
Wetbulb
58.34 57.67 54.93 50.37 39.69 38.25 36.49 41.11 54.08 54.37 54.33 57.55 62.66 60.08 58.80 59.94 57.39 52.91 66.72 67.35 68.38 69.74 70.72 71.00 70.94 71.43 71.69 71.89 71.75 71.39 71.07 70.21 69.07 69.16 69.25 68.84 68.39 67.86 67.66 67.56 67.41 67.49 66.35 66.19 65.82 65.53 65.04 65.01 64.85
54.73 56.15 51.69 45.49 35.42 31.56 36.22 49.30 51.69 53.53 57.14 58.95 59.09 60.82 59.12 57.97 63.42 64.15 65.47 67.71 68.61 69.64 70.17 70.32 70.56 70.99 71.58 71.19 71.10 70.70 70.28 69.34 69.11 68.99 68.49 68.12 67.56 66.97 66.78 67.39 67.40 67.39 66.01 65.84 65.65 65.37 65.03 64.70 64.39
57.32 55.73 43.10 38.38 34.78 34.40 36.83 50.98 53.46 56.53 58.40 57.37 56.17 58.98 58.86 57.51 64.22 65.73 67.63 68.56 68.04 68.45 69.72 70.34 70.36 70.40 70.96 70.90 70.64 70.01 69.75 68.97 68.50 68.07 67.83 66.85 66.90 66.88 66.74 67.75 67.10 67.08 65.85 65.68 65.36 64.86 64.34 64.10 64.71
51.30 47.09 43.52 36.89 36.20 41.71 44.38 51.06 54.08 54.96 56.34 57.95 57.41 55.12 58.35 59.22 61.88 66.32 68.00 68.34 67.63 68.58 69.43 69.19 69.48 69.54 70.64 70.85 70.26 69.65 69.02 68.09 67.69 67.34 67.47 66.98 67.01 66.86 66.59 67.39 66.95 65.94 65.69 65.19 64.86 64.43 63.87 64.48 63.99
48.93 45.40 37.77 36.82 38.99 44.54 52.75 53.85 54.89 53.50 54.59 54.41 55.06 52.67 53.40 59.22 65.88 66.97 68.01 68.94 67.55 67.86 68.42 68.40 68.00 69.11 70.41 70.21 69.76 69.06 68.29 67.65 67.41 67.33 67.33 67.22 66.36 66.14 66.08 66.79 66.60 65.70 65.28 64.63 64.18 63.94 63.48 63.64 63.14
44.64 42.85 35.45 35.30 40.98 49.72 53.93 53.84 55.10 53.52 54.51 54.60 54.00 53.61 53.90 61.24 64.61 65.80 67.12 66.78 66.96 66.76 66.99 67.39 68.38 69.01 69.14 69.14 68.81 68.18 67.65 67.27 66.96 67.04 67.00 67.05 66.68 66.61 66.36 66.50 66.41 65.84 65.08 64.57 63.53 63.44 63.34 62.72 62.74
41.75 39.05 36.42 38.26 41.09 48.81 51.72 55.65 53.20 53.75 54.00 53.57 56.66 54.69 56.52 60.22 64.08 64.42 64.67 64.62 64.81 65.55 65.72 66.23 67.75 68.14 67.81 67.30 67.25 66.95 67.03 66.75 66.56 66.52 66.36 66.16 66.12 66.43 66.74 66.55 65.97 65.44 64.63 63.72 62.97 62.68 62.15 61.97 61.34
44.58 40.11 37.24 39.98 41.49 46.01 52.67 53.83 54.12 53.22 52.11 58.36 57.93 53.74 53.05 61.00 62.85 61.48 62.49 63.89 64.26 64.86 65.55 66.24 66.43 66.15 65.18 65.55 66.27 66.20 66.09 65.75 65.63 65.64 65.48 65.12 65.20 65.91 65.45 64.93 65.20 64.85 64.01 63.13 61.88 61.92 61.08 61.38 60.78
45.95 37.69 38.11 39.26 46.63 48.97 53.28 51.98 55.09 56.19 53.99 57.88 60.06 59.02 61.38 59.69 62.91 61.67 60.72 62.02 63.23 64.49 65.37 65.54 65.33 64.80 64.43 64.60 65.80 65.64 65.85 65.09 64.80 64.59 64.44 62.89 62.42 63.11 63.70 63.02 63.95 64.15 63.13 62.13 62.23 61.25 60.69 61.33 60.88
42.43 36.84 40.07 45.83 50.55 49.58 50.81 51.81 53.30 53.58 53.42 55.20 59.64 61.68 60.05 58.19 59.90 60.03 57.85 57.18 59.85 62.69 63.77 64.41 65.04 63.44 63.09 64.44 63.42 63.28 63.93 62.07 61.73 61.79 61.95 61.04 61.45 62.26 61.71 62.25 63.17 63.10 62.38 61.70 61.93 60.69 61.15 59.52 55.80
43.05 40.89 45.06 50.26 52.39 51.24 48.88 49.93 54.18 52.16 48.93 49.27 55.96 59.54 59.21 58.61 58.41 59.49 56.84 58.18 60.71 62.58 62.60 63.95 64.49 62.21 60.85 61.90 61.63 61.95 61.63 61.54 61.43 61.59 61.71 62.48 62.93 61.89 60.90 58.92 59.60 58.46 61.31 58.25 58.66 56.80 55.38 54.42 54.11
41.13 45.54 46.76 52.32 52.77 51.02 49.19 51.62 52.31 50.58 52.51 55.63 57.14 60.24 60.93 60.72 60.57 60.20 58.82 58.51 60.73 62.06 61.59 61.87 61.81 60.32 60.48 61.62 61.06 61.32 61.49 62.52 63.18 64.13 64.00 63.29 62.74 61.53 61.36 59.93 60.49 57.28 56.20 54.06 54.01 52.35 52.51 52.47 51.84
43.82 46.18 47.56 54.39 52.58 52.04 53.35 50.43 52.40 51.22 53.27 56.11 57.66 57.31 59.30 61.17 60.50 61.43 60.95 61.49 61.69 60.69 60.96 60.38 60.94 60.48 60.50 60.68 62.45 63.30 63.20 63.56 63.90 63.30 63.14 63.03 61.91 60.62 58.74 55.59 54.70 53.91 53.15 52.70 51.61 49.75 50.55 49.46 49.85
47.47 46.57 46.49 48.48 50.14 52.19 51.54 50.91 53.44 53.09 53.31 55.21 56.28 54.41 56.76 60.07 60.76 61.20 60.73 59.79 60.01 60.01 59.52 59.23 60.48 60.39 63.61 62.66 62.78 63.05 63.27 62.75 62.25 61.53 61.23 61.32 59.69 56.37 55.19 53.84 53.42 53.22 51.91 51.20 49.06 48.03 47.38 46.99 47.23
48.47 43.69 45.99 47.18 48.92 49.00 52.24 47.38 49.24 53.77 53.15 54.56 56.50 59.46 59.96 58.80 60.80 59.45 60.33 58.28 58.96 59.22 59.34 59.05 60.54 62.89 61.17 59.87 59.62 59.91 60.96 60.77 60.42 60.09 59.68 59.43 56.59 55.01 53.98 53.07 51.65 51.50 51.37 48.87 48.32 46.82 46.01 45.22 46.31
45.27 42.93 39.48 45.72 48.94 50.95 50.49 42.27 48.22 53.31 56.29 56.04 58.38 58.23 57.88 56.26 57.03 58.63 58.40 58.36 58.57 58.57 58.88 60.10 63.11 60.52 59.13 58.32 57.62 57.86 57.43 58.34 58.54 57.63 57.19 56.52 55.99 54.56 52.88 51.06 49.73 50.12 48.93 48.03 46.45 45.28 44.70 43.66 43.56
41.55 37.20 41.27 43.72 48.78 49.49 47.97 43.62 48.40 52.34 56.01 54.72 54.30 54.87 54.34 53.32 56.47 58.13 58.90 59.27 59.02 59.83 60.80 60.54 59.66 58.33 58.03 57.70 56.78 56.58 56.28 55.76 56.16 54.79 53.55 54.29 54.13 53.85 52.70 49.30 48.29 49.04 47.76 46.72 46.16 44.79 43.94 42.77 43.02
38.95 39.63 37.44 41.08 45.55 48.12 44.26 43.59 46.45 50.49 54.27 53.78 52.49 52.82 52.85 52.33 54.94 57.98 58.56 59.76 60.06 61.22 60.54 59.54 58.95 57.86 56.84 56.92 56.45 55.63 54.61 53.98 53.97 51.76 51.39 52.33 53.02 53.02 50.37 49.54 48.13 47.83 46.62 45.29 44.50 44.31 44.22 43.36 42.65
43.96 42.40 40.48 43.31 46.24 44.10 44.70 43.58 46.13 48.64 50.92 50.09 50.86 51.12 50.57 50.90 55.13 57.40 57.85 60.12 60.64 60.89 59.66 58.93 57.57 57.71 57.43 55.81 54.16 52.95 51.80 51.70 50.68 50.44 51.95 52.69 52.69 50.93 49.89 48.97 47.78 46.67 45.69 44.35 44.83 43.79 42.63 42.29 42.08
44.59 42.90 42.48 44.87 45.10 42.69 41.44 42.14 45.49 48.21 49.58 51.23 50.35 49.12 48.99 50.13 53.70 54.92 55.08 60.34 60.72 60.10 59.60 58.75 57.90 57.75 57.93 56.41 54.67 53.93 51.11 50.79 50.35 50.79 51.33 52.50 51.98 50.09 49.17 47.47 46.24 45.86 45.04 44.57 44.06 42.99 41.93 41.65 41.69
44.52 42.24 42.07 42.09 44.83 43.48 40.94 38.85 42.03 46.35 48.79 52.09 52.41 52.51 52.60 51.98 53.45 55.41 56.77 59.91 59.84 59.67 59.63 58.76 58.74 58.08 58.60 58.36 55.63 54.49 52.01 50.69 50.19 49.86 50.54 50.96 50.71 50.32 49.29 47.80 46.29 45.75 45.29 43.88 43.15 42.98 42.51 40.14 40.88
41.70 47.78 46.50 44.70 41.66 35.07 42.89 32.58 40.66 43.51 46.75 50.21 51.86 51.70 52.59 52.61 55.40 56.38 56.48 58.48 59.80 59.50 60.17 59.76 59.63 59.04 59.22 58.87 56.25 53.51 50.77 49.69 50.39 50.75 50.73 49.61 50.45 49.85 49.07 47.64 46.37 45.82 45.21 43.92 43.57 44.90 41.99 41.35 39.23
43.31 47.36 46.45 45.51 43.12 41.42 39.84 35.02 39.30 43.96 43.58 46.54 47.69 50.26 52.62 53.83 55.83 56.29 57.03 58.72 60.57 60.11 60.03 60.08 59.85 59.21 59.41 59.27 56.29 53.84 50.71 50.59 51.12 51.42 50.62 49.89 50.87 50.54 48.89 47.25 45.91 44.72 44.08 42.45 41.37 40.35 39.77 39.74 39.09
48.92 46.30 45.78 43.76 41.39 32.75 40.32 38.63 37.31 41.79 44.85 47.99 50.48 51.49 51.81 52.81 55.93 57.11 58.63 59.96 60.29 60.54 60.20 60.12 59.68 59.28 58.12 56.23 54.23 52.61 51.79 51.58 51.68 51.76 51.17 50.89 50.15 47.96 46.03 45.21 42.89 42.30 41.53 40.63 39.95 39.65 39.33 38.89 38.71
46.26 41.71 33.55 30.96 30.58 30.47 42.75 39.03 39.48 46.11 48.16 48.70 49.04 50.89 50.55 53.13 53.60 56.40 58.25 58.20 58.93 59.17 59.39 59.47 59.40 56.45 55.72 53.71 52.97 52.49 50.16 49.30 48.89 49.20 49.00 46.90 44.67 43.36 43.13 42.08 41.24 40.59 40.37 40.29 39.78 38.91 38.35 38.32 37.84
43.53 42.50 32.87 28.17 29.44 31.23 42.63 37.19 40.44 48.13 49.35 50.53 51.48 50.42 51.66 53.34 55.34 57.34 58.26 57.78 58.51 58.89 58.14 58.57 57.11 56.47 55.04 53.37 52.85 50.95 48.59 47.14 46.90 47.62 46.25 45.35 44.84 44.00 42.11 41.54 40.58 40.18 40.40 39.83 39.28 38.88 38.17 38.50 37.60
43.86 39.18 45.33 37.65 35.68 29.38 35.33 39.99 45.03 47.79 47.69 48.87 49.25 50.85 51.77 52.97 53.42 54.74 55.80 56.60 56.72 55.10 54.52 55.06 54.79 53.60 53.12 52.95 50.07 47.72 47.39 47.08 45.71 45.81 46.29 45.23 44.35 44.13 42.31 41.66 39.38 39.53 39.77 39.72 39.42 38.40 37.71 37.22 37.17
45.29 46.49 36.64 36.36 27.72 25.80 33.37 34.88 37.48 43.52 46.76 48.50 48.61 50.19 51.53 52.77 52.74 53.30 53.74 53.84 54.29 54.02 53.75 53.47 52.63 52.46 52.19 49.45 48.65 47.36 47.03 45.66 46.33 44.87 45.40 44.32 43.33 42.81 41.65 39.49 38.98 39.01 39.39 39.04 37.77 36.97 37.24 36.34 35.80
42.45 40.74 41.69 40.23 36.25 28.58 25.75 31.83 41.68 44.09 45.95 46.95 48.53 51.04 51.48 51.90 52.05 51.70 51.61 53.40 53.84 53.28 53.37 53.22 52.04 52.32 50.23 48.78 47.23 46.41 44.91 46.73 47.12 46.03 44.62 43.28 42.21 41.98 40.36 39.57 39.35 39.26 38.71 37.91 36.86 36.11 36.33 35.47 34.86
45.13 42.85 42.50 30.92 32.89 33.78 29.16 31.66 43.51 44.62 46.40 47.17 48.21 52.21 52.43 53.22 52.36 51.81 51.29 52.47 52.64 52.98 53.69 52.56 50.99 51.42 49.98 48.81 47.00 46.66 47.25 47.78 46.02 44.86 42.57 42.90 41.64 40.95 39.40 39.98 39.63 39.72 38.15 36.75 36.41 36.41 36.10 35.42 34.49

GFSSGP_sfc_wetblb_048.txt.gz
Wetbulb
57.91 57.79 53.05 49.12 39.05 36.02 33.86 38.67 51.92 52.46 52.47 58.05 60.99 59.57 58.62 59.39 56.61 51.10 65.57 67.04 69.40 69.94 70.65 71.13 71.02 71.47 71.62 71.65 71.52 70.93 70.31 69.15 68.25 68.49 68.34 68.34 67.96 67.47 68.13 67.96 67.76 67.27 65.82 65.80 65.64 65.29 64.95 65.39 65.63
53.30 54.38 50.01 43.04 33.80 29.77 33.48 42.46 48.98 52.90 55.99 59.76 59.53 60.00 58.02 58.11 63.53 63.62 64.59 68.26 69.51 70.22 70.44 70.40 70.68 70.88 71.31 71.00 70.80 70.14 69.32 68.49 68.56 68.11 67.69 68.06 67.21 67.13 66.96 67.33 67.26 67.05 65.80 65.71 65.22 64.64 64.27 64.31 65.64
55.29 54.14 43.45 38.45 31.67 31.93 33.30 47.99 52.75 55.41 57.08 55.99 55.31 58.31 58.24 58.96 64.37 64.73 66.52 68.78 69.20 69.31 69.72 70.00 69.97 70.37 70.90 70.52 70.10 69.41 69.14 68.71 68.29 67.93 67.50 67.25 66.86 66.89 66.60 67.35 66.92 66.72 65.50 65.00 64.59 63.80 63.44 64.59 64.59
49.31 45.29 41.94 35.94 34.79 38.33 41.00 43.75 53.61 53.30 54.71 56.91 56.72 53.24 56.15 60.16 61.69 66.25 67.20 68.82 68.80 69.12 69.63 69.18 69.42 69.96 70.15 70.27 69.85 69.08 68.60 67.71 67.51 67.93 68.20 67.26 66.94 66.70 66.53 67.21 66.70 65.97 65.03 64.76 64.22 63.42 63.59 63.96 64.03
46.75 42.23 35.84 33.56 37.12 44.56 51.62 53.54 54.43 52.38 52.98 53.57 53.84 51.40 52.34 62.89 66.43 67.38 67.22 67.57 67.66 68.55 68.80 68.52 68.42 69.32 69.71 69.86 69.12 68.54 67.76 67.22 67.34 67.81 67.72 67.52 66.37 66.10 65.89 66.83 66.55 66.05 64.56 64.19 63.62 63.11 63.75 63.58 63.63
43.50 40.54 33.73 34.22 39.07 48.58 52.02 54.26 54.67 53.44 54.11 54.03 52.79 52.54 53.99 64.79 64.87 65.06 65.47 66.38 66.92 66.39 66.94 67.64 68.13 68.11 68.45 68.78 68.12 67.38 67.23 67.07 67.27 67.23 67.26 67.15 66.83 66.56 66.22 66.32 66.21 65.52 64.42 63.95 63.37 63.80 63.31 63.36 62.87
41.34 37.76 34.97 37.67 39.62 41.77 51.20 54.90 53.05 53.44 53.05 53.11 55.36 52.24 56.41 61.01 64.26 64.55 64.27 65.02 65.50 65.16 63.89 64.02 64.94 66.75 67.66 67.06 66.74 66.31 66.29 66.45 66.66 66.63 66.25 66.32 66.24 66.30 66.45 66.50 66.03 65.18 64.46 64.00 63.71 62.90 62.50 62.56 62.27
42.39 39.29 35.29 36.64 37.66 42.20 52.11 52.73 53.93 53.90 52.55 58.03 58.04 51.36 53.26 60.21 62.58 62.95 62.98 62.69 63.13 63.79 63.34 62.92 64.50 65.72 65.43 65.43 65.99 65.74 65.67 65.91 65.64 65.73 65.47 65.24 65.33 65.60 65.77 65.42 65.44 64.98 64.09 63.16 62.52 61.75 61.68 61.85 61.63
44.57 38.04 34.82 37.17 42.80 47.13 51.95 50.57 54.94 56.56 55.04 57.00 59.68 57.97 59.59 59.95 61.50 61.78 61.00 60.98 61.35 61.52 62.04 62.60 63.80 64.12 64.32 64.50 65.22 65.42 65.57 65.11 64.75 64.88 64.66 63.31 62.51 61.89 61.13 62.91 64.13 64.04 62.73 61.98 61.98 62.46 61.57 60.08 59.71
41.34 36.66 38.47 42.69 47.81 49.33 50.55 49.38 51.51 51.54 52.55 54.16 55.66 59.04 60.17 59.32 59.25 58.56 58.99 59.18 60.46 60.86 61.94 63.84 63.58 63.44 63.36 64.05 63.14 62.61 62.90 61.83 61.59 61.59 61.14 60.44 61.07 61.71 60.96 62.19 63.42 63.04 62.05 61.73 61.71 60.59 59.11 56.49 53.42
41.47 39.11 42.83 44.22 51.51 49.85 48.40 47.72 52.61 50.52 48.56 50.95 54.07 55.27 58.48 58.35 57.36 57.75 59.12 59.79 59.53 61.21 63.13 63.43 63.18 62.42 61.44 62.04 61.54 61.10 60.17 59.93 60.18 60.38 59.93 60.20 61.43 60.79 59.49 58.74 58.24 57.84 58.94 54.97 54.45 53.15 52.21 50.77 50.05
39.51 43.98 44.85 47.54 51.95 48.71 47.45 50.32 50.60 49.75 50.07 56.19 58.35 56.96 57.94 58.45 56.53 57.77 58.72 59.46 60.38 61.56 62.47 63.84 62.56 60.70 58.97 60.55 60.33 60.09 59.82 60.63 60.81 61.81 62.01 61.26 61.14 60.29 59.04 57.25 56.03 54.80 53.30 51.80 50.29 49.98 49.77 48.57 48.28
42.30 44.62 46.09 50.77 50.96 50.11 52.25 49.63 50.58 48.67 54.80 58.47 59.47 58.13 57.71 58.79 57.23 58.81 58.92 59.69 61.06 60.94 61.68 63.23 61.67 58.96 59.81 59.52 59.51 60.41 61.55 62.72 62.25 61.74 61.94 62.06 60.30 57.97 55.41 54.48 53.45 52.19 51.46 49.31 47.68 47.27 46.78 46.59 46.21
48.01 47.83 47.53 49.83 50.91 51.21 49.56 49.67 49.02 49.99 54.03 56.38 57.43 58.19 58.26 58.27 58.20 57.92 57.65 58.16 60.71 61.01 60.29 61.95 59.84 58.25 60.83 61.20 61.48 61.82 62.20 61.79 60.81 60.22 59.64 59.80 57.78 54.40 53.25 52.25 51.51 50.17 49.24 47.81 46.56 44.60 44.23 43.98 44.37
48.30 42.59 44.74 48.54 49.32 49.25 50.59 45.62 45.53 51.80 53.87 53.91 53.76 54.51 55.96 59.46 59.44 57.90 58.45 59.45 61.00 59.95 59.55 59.86 60.64 61.55 60.85 60.44 61.66 60.31 60.57 59.83 58.87 58.71 57.85 55.76 55.27 53.61 52.39 51.02 50.05 49.44 47.53 46.44 45.15 44.54 44.06 43.57 44.57
44.27 41.40 37.98 43.96 48.03 49.21 45.65 40.18 47.36 51.31 52.56 51.82 53.92 55.62 57.15 59.28 59.64 59.38 60.23 60.77 60.11 58.88 58.69 61.61 62.34 59.68 58.61 57.89 58.06 58.01 57.90 57.92 57.56 57.08 55.77 55.04 54.36 52.79 50.37 49.17 48.37 48.84 46.83 45.46 44.40 43.43 43.00 42.26 42.01
40.60 35.06 39.53 41.97 47.70 49.02 45.52 40.51 47.77 51.55 53.65 54.11 55.74 56.24 56.59 58.32 58.86 59.99 58.73 59.08 58.87 58.39 59.52 60.12 59.19 58.17 57.70 57.02 56.02 55.48 56.00 55.86 55.34 53.83 52.95 53.48 53.09 51.93 49.61 48.61 47.73 46.96 45.73 44.62 44.65 43.02 42.54 41.50 41.42
36.29 38.13 37.28 39.46 44.29 46.12 45.17 41.92 44.90 52.22 54.42 54.77 53.96 52.65 53.82 56.84 56.53 59.21 57.77 58.64 58.73 58.39 60.57 59.31 58.49 57.92 56.34 55.96 55.09 53.87 53.37 53.46 52.85 51.25 50.98 52.16 52.39 51.27 48.84 47.70 46.35 45.92 44.61 43.75 43.23 42.71 42.47 41.90 41.22
43.89 41.35 39.95 41.87 45.08 44.52 44.74 42.24 44.02 51.67 53.70 52.09 51.58 51.13 50.89 54.33 56.93 57.23 57.31 57.71 57.72 59.45 59.35 58.60 57.17 56.30 56.10 54.78 52.90 52.18 51.59 51.94 50.76 50.53 51.31 51.78 51.62 50.53 48.37 47.24 45.63 45.14 43.80 43.58 43.84 42.50 41.52 40.95 40.69
43.67 41.10 40.48 42.86 45.27 43.83 41.13 41.27 43.15 50.21 52.27 53.19 52.77 51.30 51.14 51.97 54.39 55.88 56.45 56.70 58.64 58.46 58.60 58.01 57.23 56.38 55.96 55.52 53.78 53.36 51.40 50.79 49.69 49.94 50.51 51.43 49.29 48.50 47.91 46.16 44.66 44.63 43.94 43.31 42.64 41.58 40.67 40.73 40.39
42.01 41.02 41.02 41.35 42.97 41.30 39.04 36.86 40.40 45.76 49.45 52.17 53.20 53.41 52.44 51.28 53.25 54.17 56.33 57.77 58.36 57.82 57.81 57.41 57.02 56.80 56.63 55.73 54.12 51.40 50.27 49.29 48.11 48.16 48.73 50.52 49.45 49.06 47.76 46.41 45.02 44.61 44.10 42.76 41.74 41.34 40.65 38.89 39.56
39.66 45.58 44.77 43.30 38.77 33.64 39.40 30.11 38.27 42.48 45.17 49.12 50.57 49.81 50.20 50.74 53.99 54.71 56.89 57.74 58.11 58.04 58.39 57.64 56.95 57.07 57.26 56.39 53.97 51.17 49.27 48.49 48.84 48.62 49.20 49.17 49.00 48.48 47.73 46.62 44.90 44.36 43.70 42.66 42.37 41.71 39.23 38.73 36.11
41.84 44.97 44.85 44.11 39.55 37.43 38.03 33.98 37.08 40.60 41.21 46.46 49.21 49.31 49.65 51.44 53.33 54.65 57.45 58.26 58.87 58.78 58.11 58.06 57.55 57.14 57.58 57.30 55.19 52.43 49.39 49.29 49.23 49.20 49.03 47.89 47.82 47.69 46.69 45.61 44.14 42.76 41.83 40.88 39.77 38.39 37.61 37.46 36.84
47.27 43.57 43.33 41.80 39.32 32.01 38.01 35.66 34.97 39.03 42.52 45.25 49.05 49.73 49.79 50.03 52.82 54.15 58.17 58.93 58.71 59.04 58.46 58.31 58.00 57.97 58.22 57.68 55.48 53.15 50.41 49.45 49.06 48.82 47.49 47.07 46.65 45.35 45.13 43.27 41.87 40.84 40.45 40.02 39.01 37.35 36.87 36.63 36.31
44.29 38.78 30.58 28.31 28.70 29.19 40.30 36.19 37.56 43.62 45.58 46.92 47.41 46.84 49.16 51.36 52.76 53.50 57.13 58.20 58.21 58.22 58.43 58.45 58.21 57.94 58.01 56.88 55.15 52.91 50.92 49.91 49.96 49.71 48.37 44.99 43.75 43.93 43.28 42.50 41.10 41.04 40.49 38.88 38.22 36.94 36.61 36.54 36.06
42.90 39.56 31.04 26.84 27.22 30.44 39.91 34.19 39.56 45.50 46.98 47.83 48.69 46.86 49.58 50.67 53.50 54.84 57.32 58.34 58.36 58.63 58.61 58.80 58.55 57.69 56.10 54.52 52.37 50.53 49.32 48.86 48.22 47.85 47.20 45.57 44.31 43.27 42.81 42.38 42.03 40.55 39.88 38.45 38.41 37.54 37.72 36.14 35.92
42.25 38.38 42.85 35.10 32.86 28.63 35.03 37.45 43.72 45.96 46.21 47.50 45.95 47.95 47.96 50.27 53.26 55.37 56.63 57.48 58.24 58.47 58.52 58.54 58.56 56.73 54.30 53.31 51.47 47.97 46.70 46.70 45.48 45.82 45.90 45.03 43.95 43.16 41.36 39.91 40.44 39.74 38.40 39.15 37.49 36.40 35.70 35.27 35.13
43.26 44.64 36.47 36.13 27.74 26.46 31.30 32.74 36.11 41.76 44.40 46.42 46.00 46.85 49.97 51.33 53.28 54.86 55.62 55.71 57.26 56.71 55.28 53.59 54.93 53.63 53.36 51.29 49.92 48.37 48.48 47.71 46.72 46.11 44.98 43.97 43.42 42.16 41.53 40.67 39.95 38.39 38.32 38.74 37.08 36.16 35.67 34.86 34.12
40.47 38.63 39.29 37.94 33.70 28.30 25.13 30.57 39.28 43.16 45.56 46.10 46.77 48.91 50.46 50.61 51.85 53.55 53.84 54.76 55.06 54.46 52.22 51.31 52.05 52.94 51.02 49.01 48.49 47.36 46.35 47.66 47.79 45.91 44.63 42.78 43.00 42.71 41.09 39.61 38.71 38.31 37.95 37.89 36.78 35.35 35.23 34.60 34.10
43.58 40.15 40.72 30.31 31.24 31.73 27.70 30.68 42.02 44.17 45.46 46.87 47.44 50.09 50.71 52.02 51.48 52.98 53.44 53.63 53.13 53.30 52.57 51.60 50.43 49.66 48.37 47.29 46.49 46.26 47.07 48.00 46.25 44.71 44.05 44.03 42.75 41.69 40.37 39.87 38.84 39.16 37.93 36.79 35.54 35.67 35.31 34.59 33.74

GFSSGP_sfc_wetblb_051.txt.gz
Wetbulb
56.66 55.37 51.15 47.59 38.33 34.70 31.83 37.12 44.45 51.61 52.00 58.22 60.37 59.22 57.80 58.02 54.65 49.50 63.99 65.96 68.93 69.48 70.74 70.98 70.73 71.08 71.29 71.34 70.90 70.03 69.13 67.94 67.04 66.93 67.94 68.11 68.45 68.14 68.26 67.75 67.38 67.42 66.19 65.85 65.75 65.56 66.81 67.70 67.93
52.47 53.02 47.60 40.21 32.88 29.08 32.58 38.21 43.21 48.24 56.24 59.91 58.33 58.87 57.30 57.12 62.76 62.61 63.60 68.30 69.48 70.06 70.42 70.25 70.44 70.55 70.93 70.58 70.06 69.34 68.53 67.97 67.61 67.66 67.17 68.02 67.73 67.17 67.39 67.56 67.17 67.10 66.62 65.48 65.32 65.13 65.12 65.55 66.68
53.40 50.58 42.65 36.79 30.73 29.93 32.45 40.06 50.99 53.47 56.77 55.17 54.52 57.31 57.05 57.11 63.45 63.73 67.01 69.29 69.46 69.69 69.83 69.53 69.79 70.07 70.52 70.18 69.34 68.85 68.56 68.22 68.18 68.13 67.41 67.39 66.85 66.48 66.32 67.29 66.71 66.67 65.99 64.66 65.00 64.71 64.39 65.05 65.20
48.15 43.91 40.78 36.11 33.01 36.41 37.62 48.22 47.46 52.03 54.23 55.33 55.17 51.80 57.29 63.84 63.75 66.08 68.66 69.48 69.10 69.24 69.38 68.49 68.58 69.63 70.13 69.76 69.45 68.87 68.25 67.72 67.75 67.93 68.11 67.09 66.48 66.34 66.54 66.90 66.42 66.51 64.87 64.31 63.94 63.94 65.00 64.10 63.76
44.77 40.36 36.18 32.21 36.60 40.20 50.71 52.20 53.06 50.88 51.99 52.97 53.09 50.33 54.41 64.33 66.10 66.96 67.33 68.27 67.55 67.87 68.73 67.84 68.06 69.13 69.55 69.66 69.10 68.34 67.75 67.75 67.71 67.90 67.79 67.56 66.76 66.16 66.57 66.70 66.29 65.82 65.04 63.93 63.49 64.51 64.07 63.99 63.23
41.38 39.90 32.67 32.88 35.55 44.81 50.86 52.67 54.05 52.39 52.55 52.90 52.88 51.85 56.18 63.94 63.57 65.82 66.71 65.17 64.93 64.22 67.60 67.63 68.42 67.97 67.90 68.33 67.91 67.31 67.26 67.58 67.45 67.36 67.15 67.08 66.78 66.40 66.33 66.26 65.84 65.43 64.87 64.52 64.14 64.29 63.78 63.20 63.36
39.59 37.37 33.75 36.12 37.75 39.31 49.79 53.79 52.43 52.87 51.97 52.44 55.40 51.31 57.52 61.63 63.80 64.62 64.70 64.19 63.43 63.05 63.38 64.25 65.11 66.04 67.12 66.90 66.63 66.38 66.66 66.97 66.93 66.72 66.42 66.34 66.17 66.13 66.20 66.10 65.60 65.07 64.71 64.18 63.79 63.72 63.51 63.13 62.47
41.53 38.35 35.62 36.22 37.88 38.34 50.38 52.09 53.11 52.28 51.07 56.83 57.97 51.42 53.70 60.65 62.95 62.62 63.17 62.42 61.69 61.16 61.49 62.49 64.75 65.19 64.95 64.79 65.61 65.70 65.95 66.25 66.16 66.17 65.86 65.56 65.58 65.91 65.92 65.44 65.14 64.51 63.92 63.72 63.77 62.81 62.36 62.39 61.60
41.49 36.39 34.09 38.04 38.65 43.89 51.17 49.60 53.83 55.37 53.89 56.79 58.73 57.10 59.50 62.03 61.82 60.43 59.50 58.92 58.98 59.03 59.45 59.93 61.66 64.18 64.10 63.95 64.76 65.39 66.05 65.63 65.30 65.11 64.87 63.25 61.81 61.36 60.49 63.50 64.03 63.66 63.07 63.48 62.45 61.29 59.86 58.70 58.96
39.49 34.89 37.62 41.60 41.97 47.96 50.55 49.45 50.99 50.84 53.04 54.19 55.86 58.97 60.19 61.06 60.02 58.47 57.21 56.73 56.63 56.64 57.44 57.91 58.46 61.75 63.48 64.00 63.12 62.30 63.17 62.31 61.80 61.28 61.21 60.60 60.68 59.62 61.31 62.70 63.35 62.83 62.75 61.34 60.22 58.68 56.73 53.17 50.32
39.56 38.43 41.75 42.52 47.26 49.10 48.63 47.18 51.11 49.69 48.12 53.47 55.22 56.20 57.90 59.04 58.82 57.96 57.66 57.32 56.77 58.18 58.54 59.47 58.72 61.61 62.22 61.75 61.42 60.42 60.09 59.71 59.90 60.20 59.87 60.44 60.94 58.68 58.91 57.56 57.18 55.11 55.79 52.04 52.00 50.37 49.06 47.55 47.86
36.91 42.46 42.64 43.07 50.63 48.67 47.09 48.51 48.69 47.34 50.07 56.28 57.37 57.21 56.72 57.18 57.50 58.20 58.35 58.36 58.03 58.58 59.86 62.61 62.54 61.95 60.17 60.39 60.02 59.27 58.99 59.22 59.17 59.54 59.97 60.22 59.96 57.81 56.81 57.01 54.89 52.25 50.51 48.75 48.47 48.06 46.94 45.85 45.97
39.28 44.47 46.43 47.30 49.74 48.81 50.93 48.75 49.16 49.00 56.39 57.69 57.58 57.19 56.48 56.70 57.47 59.17 58.96 58.34 59.01 59.82 61.53 62.36 61.53 60.85 59.31 59.12 58.42 59.34 59.60 60.33 61.19 61.55 62.03 61.15 59.82 58.14 55.20 52.81 51.91 50.46 48.56 47.14 45.80 45.13 45.05 44.08 43.94
45.73 45.55 46.96 49.07 49.05 50.02 48.64 47.57 48.20 50.20 56.98 55.72 56.63 56.49 56.34 56.41 57.30 57.99 57.73 58.19 59.42 60.65 61.39 62.66 60.81 59.26 58.99 58.77 59.01 59.51 61.11 61.37 60.61 59.66 60.25 59.83 56.60 53.76 52.31 50.66 49.55 47.93 46.87 45.54 44.33 43.43 43.01 42.64 42.87
46.92 41.04 45.63 47.41 48.17 48.43 48.78 43.20 44.56 52.49 56.32 55.03 54.77 55.99 57.04 56.77 57.33 57.33 57.32 58.03 60.28 60.83 60.96 62.03 59.69 58.37 59.17 59.63 60.06 60.55 60.59 59.64 58.80 57.81 57.14 55.44 54.16 52.61 51.30 49.71 48.91 46.91 45.71 44.64 44.02 43.28 42.99 42.76 43.26
43.16 39.91 37.55 44.63 47.73 48.30 45.57 38.42 47.57 52.84 54.04 52.57 53.24 56.08 56.39 56.60 57.06 57.50 57.88 57.97 60.47 59.56 60.19 60.66 60.02 59.52 58.93 59.12 58.48 58.33 58.02 57.80 57.18 55.96 54.46 54.28 53.59 52.16 49.75 48.95 48.32 46.59 45.21 44.40 43.36 42.59 42.03 41.66 41.34
39.48 32.92 36.65 39.60 47.09 46.40 44.17 40.08 46.53 51.78 52.96 51.44 51.80 53.60 56.32 56.18 56.91 57.37 58.47 58.19 60.51 58.04 58.48 59.27 59.21 58.17 57.58 56.48 56.02 55.90 56.12 55.88 55.60 54.22 53.11 52.74 52.01 50.62 48.93 47.94 46.99 45.40 44.41 43.71 44.17 42.39 42.07 40.44 40.59
35.24 37.15 35.91 38.07 44.15 46.04 42.88 41.75 46.33 49.28 52.08 51.95 53.34 54.69 56.14 56.58 57.34 58.35 58.66 59.37 59.72 56.76 59.60 59.42 58.24 57.28 56.36 55.41 54.57 54.07 53.97 53.45 52.57 51.74 51.72 51.93 50.87 49.43 47.64 46.67 45.75 44.92 43.57 42.95 42.78 41.98 41.37 40.57 40.37
40.64 39.10 37.72 39.68 43.58 43.65 42.36 42.14 43.37 49.96 52.80 52.67 52.94 53.54 54.83 56.52 58.69 59.07 59.24 59.00 56.76 56.51 58.12 57.89 56.78 55.80 56.28 54.84 53.13 51.52 51.75 51.36 50.24 50.03 50.85 51.30 50.09 49.04 46.78 45.35 44.64 43.63 43.12 42.92 42.42 41.37 40.50 40.02 39.58
41.74 40.34 39.48 42.08 44.58 43.20 40.61 41.72 41.79 48.55 51.84 53.29 53.34 51.90 52.04 56.32 56.80 57.79 56.35 56.54 56.02 57.23 58.12 57.37 57.21 55.92 56.22 55.93 52.67 52.68 51.45 51.25 49.77 49.64 50.35 50.83 49.98 48.37 47.01 45.20 43.95 43.38 43.48 42.48 41.55 40.94 39.88 39.65 39.26
40.33 38.47 39.21 39.90 41.59 39.57 38.09 37.11 39.46 46.73 50.80 53.17 54.07 53.93 52.12 54.01 55.11 56.31 54.73 55.38 55.33 56.97 57.49 57.60 57.26 56.51 55.94 55.17 53.09 50.47 49.52 48.74 48.12 47.73 48.49 49.67 48.26 48.33 47.21 45.36 44.16 43.12 42.99 41.77 41.09 40.62 39.83 37.33 38.42
37.34 43.25 43.05 41.24 37.57 32.58 37.74 30.15 36.55 40.87 47.14 50.46 52.14 51.34 50.92 52.75 54.94 55.02 54.51 54.30 55.88 56.85 58.12 57.89 57.46 56.59 56.16 55.20 52.99 50.57 49.30 47.97 48.06 47.90 48.14 49.24 48.37 47.41 46.45 45.11 43.94 43.37 42.91 41.95 40.64 40.17 38.27 38.70 35.19
40.62 43.91 42.21 41.76 38.29 35.74 36.10 33.21 35.58 39.21 42.12 46.30 50.63 51.09 51.02 51.22 53.47 53.89 54.46 55.00 56.57 57.20 57.11 57.05 57.15 56.59 56.56 55.45 54.06 51.59 49.30 48.70 48.18 48.05 48.11 48.04 46.64 46.12 45.64 44.75 43.77 42.27 41.31 39.10 38.50 38.28 37.24 37.05 35.26
45.70 42.12 41.25 39.90 37.31 30.31 35.51 34.30 33.50 37.39 40.67 44.26 48.72 51.19 50.56 48.84 52.49 53.80 55.37 55.98 56.80 57.11 57.04 56.34 56.50 56.61 57.00 56.01 54.91 52.06 49.85 48.46 47.80 47.25 47.04 45.98 45.00 44.30 43.74 43.05 42.75 42.46 41.32 38.70 37.57 36.81 36.07 35.66 34.97
42.56 37.27 29.42 27.82 27.86 28.59 38.05 34.72 36.34 41.91 43.78 43.82 45.50 49.15 48.37 48.39 50.56 52.01 54.36 56.21 56.98 57.25 57.20 57.57 56.65 56.27 56.69 56.50 55.32 53.31 50.38 49.24 48.34 48.00 47.63 44.28 42.31 41.20 41.70 42.29 42.38 41.77 40.82 39.99 38.41 37.51 36.34 36.31 35.24
39.81 37.68 29.58 26.09 25.70 28.61 37.68 33.15 37.49 43.96 45.53 45.75 45.75 46.66 47.51 48.40 50.74 52.85 55.97 56.77 57.20 57.48 57.92 58.02 57.21 56.92 56.88 56.74 55.60 54.02 51.11 49.89 49.27 48.52 46.77 44.01 42.97 42.70 41.96 42.84 42.22 41.26 40.61 40.42 39.55 37.34 36.06 34.84 35.12
40.75 36.61 40.23 33.22 31.96 28.08 32.33 36.56 41.62 44.49 44.57 45.69 43.55 45.44 47.24 47.33 50.05 53.10 56.15 57.14 57.21 57.43 58.18 58.16 57.59 57.58 57.25 56.81 55.82 51.15 49.67 48.20 46.73 45.86 45.74 44.21 43.42 43.38 42.86 41.80 41.08 40.88 41.17 39.89 36.66 35.32 34.95 34.63 34.62
42.43 43.42 33.89 33.11 27.02 25.71 29.69 30.74 33.78 40.89 42.81 45.09 43.37 43.98 45.49 47.74 50.01 52.20 55.92 57.08 57.67 57.96 58.39 57.85 58.10 57.78 55.95 53.39 50.62 48.42 47.20 47.09 46.62 46.62 44.91 43.42 43.47 41.72 41.97 41.40 41.37 40.09 39.72 38.42 36.17 34.81 34.94 34.63 34.11
38.88 37.14 37.09 36.37 31.49 26.82 24.73 30.52 37.35 41.67 43.42 44.35 45.00 46.00 48.26 49.41 51.77 53.61 54.81 56.53 57.58 57.71 57.53 57.32 57.13 55.13 50.69 49.68 47.55 46.76 46.76 46.58 46.79 44.52 43.72 42.50 42.61 42.83 43.07 41.28 39.79 39.33 37.96 37.01 35.26 34.85 34.98 34.91 34.48
41.06 39.51 38.73 29.76 30.36 29.84 27.44 29.85 40.25 41.34 44.25 44.64 46.21 47.43 49.23 50.43 52.14 53.95 54.69 55.10 55.56 55.82 55.62 55.88 54.81 53.15 50.66 49.68 48.31 46.84 47.07 45.55 44.22 43.41 42.93 43.95 44.56 43.63 41.52 40.83 39.34 39.20 37.53 36.83 36.22 35.73 34.84 33.87 33.39

GFSSGP_sfc_wetblb_054.txt.gz
Wetbulb
55.73 52.54 49.66 45.34 37.71 34.40 30.37 35.13 38.98 45.81 51.71 58.61 59.92 57.87 56.64 58.44 55.02 48.54 64.30 65.85 69.16 69.19 70.28 70.12 70.35 70.97 70.81 70.42 70.02 69.21 68.76 68.20 67.23 67.40 68.22 68.73 68.59 68.08 68.08 67.95 67.70 67.87 67.33 68.04 68.96 68.55 68.25 68.40 68.65
51.65 51.57 46.50 39.02 32.56 29.61 31.72 35.77 40.74 46.43 54.14 57.09 56.88 57.50 57.83 57.77 62.36 62.19 63.24 68.45 69.45 69.85 70.00 69.55 70.27 70.61 70.28 69.71 69.15 68.66 68.33 68.23 68.06 67.94 67.89 68.18 68.08 68.16 68.16 67.69 67.06 67.36 67.20 66.70 67.82 68.64 68.69 67.71 66.83
51.19 47.78 42.13 35.71 29.99 29.51 31.56 36.47 45.04 51.72 54.40 54.38 53.34 55.58 55.93 58.10 62.68 63.82 66.91 69.05 69.81 69.33 69.95 69.44 69.59 69.90 69.87 69.36 68.65 68.41 68.10 68.00 67.88 68.20 67.94 67.17 67.72 67.91 67.62 66.97 66.56 66.93 66.81 65.57 65.74 66.02 65.32 65.41 65.69
46.11 43.18 39.07 33.37 29.25 36.69 36.11 42.83 50.89 50.47 52.84 53.73 53.10 50.78 58.03 63.49 64.10 65.67 68.48 69.05 68.54 69.02 69.32 68.59 68.95 69.34 69.51 69.22 68.92 68.36 68.19 67.88 67.72 68.00 68.25 67.54 67.22 66.86 67.55 66.75 66.24 66.80 66.42 65.16 64.55 64.25 64.47 64.75 64.23
43.02 39.29 32.99 30.51 32.46 37.69 48.55 51.39 51.34 49.50 50.95 51.48 52.90 50.78 55.42 62.95 66.43 66.95 66.23 66.14 65.55 66.60 68.35 68.16 68.12 68.84 69.23 69.35 68.79 68.22 68.14 67.86 67.86 67.90 67.74 67.84 67.57 67.11 67.31 66.57 66.34 65.88 65.95 65.15 64.19 63.92 63.72 63.89 64.09
40.88 37.52 30.69 29.46 33.77 41.30 50.69 52.29 52.96 51.14 51.45 52.54 52.40 52.26 57.43 63.91 64.93 64.33 64.04 63.41 64.37 64.11 64.14 67.77 68.48 67.67 68.17 68.28 67.83 67.62 67.62 67.61 67.63 67.44 67.26 67.46 67.11 66.90 66.61 66.15 65.83 65.48 65.32 65.09 64.75 64.25 63.76 63.30 62.46
39.00 35.38 30.81 31.44 36.59 38.89 46.10 52.92 52.22 52.20 50.85 50.13 55.84 51.10 57.94 61.81 64.06 63.15 62.62 62.55 62.66 62.65 61.76 62.74 64.30 64.04 66.58 66.67 66.53 66.82 67.15 67.18 67.12 66.98 66.70 66.47 66.28 66.06 65.96 65.50 65.32 64.95 64.97 64.98 64.61 63.96 62.97 62.98 61.82
40.05 36.93 32.25 33.42 36.18 36.42 49.52 51.83 52.67 51.59 49.71 55.22 57.66 52.29 54.45 60.31 62.96 62.49 61.96 61.61 61.55 60.86 59.82 60.51 62.09 63.69 64.18 64.61 65.99 66.07 66.41 66.36 66.38 66.46 65.98 65.56 65.73 65.79 65.66 64.82 64.61 64.46 64.46 63.62 62.98 62.76 61.94 61.66 60.52
39.36 34.41 31.77 34.06 38.67 40.17 51.22 49.26 52.73 54.38 53.97 56.58 58.19 56.83 59.72 61.60 61.07 59.74 59.04 58.92 59.48 60.38 60.02 61.93 59.32 59.87 63.18 63.39 64.87 65.76 66.34 65.98 65.63 65.40 64.92 62.62 61.61 61.29 60.61 63.70 63.79 64.32 63.00 61.94 60.94 59.19 58.18 57.74 57.54
38.13 32.93 37.05 40.69 41.83 44.36 50.28 49.51 49.57 49.96 52.94 54.84 55.85 59.96 60.81 60.21 58.92 57.45 57.17 56.17 56.89 57.05 58.33 59.92 61.41 63.06 63.13 63.52 61.93 62.47 63.82 62.56 62.00 61.69 60.62 60.05 59.03 58.65 61.26 62.44 63.17 62.27 61.17 59.95 58.27 56.31 54.91 51.40 47.45
37.03 36.51 39.98 41.33 42.81 48.68 48.80 49.13 50.42 49.52 49.13 53.73 54.39 57.91 58.66 58.82 57.68 57.01 55.96 54.69 55.08 55.44 56.93 57.85 59.19 62.09 62.21 61.71 61.02 60.75 60.46 59.32 59.49 59.69 59.74 60.39 59.48 58.38 58.31 56.42 55.26 53.17 54.17 50.13 49.64 48.25 47.16 46.45 46.26
36.86 40.91 42.09 41.96 45.71 47.88 47.41 48.78 49.27 47.08 49.76 56.31 57.65 58.35 58.67 58.18 57.40 56.93 55.72 55.15 54.62 55.45 55.69 57.78 58.99 60.73 61.29 61.24 59.90 59.38 58.95 58.89 58.35 58.86 60.14 60.10 57.84 57.05 56.46 54.69 52.09 50.25 48.76 47.62 46.87 46.09 45.33 44.64 44.99
37.92 41.88 45.20 46.04 48.62 48.11 49.81 47.67 47.82 51.71 55.40 57.76 57.73 57.62 57.31 58.31 57.27 58.57 57.93 57.21 56.69 56.54 58.08 59.76 60.69 60.65 59.84 59.69 58.99 58.84 58.27 58.61 58.95 59.34 59.91 60.45 58.10 56.07 54.82 51.74 50.14 47.98 47.08 45.82 44.78 44.22 43.88 43.35 43.51
43.51 43.89 45.43 48.13 48.14 48.76 48.27 46.99 48.36 53.61 56.80 55.29 56.27 55.41 56.17 57.20 57.63 58.52 57.95 56.87 57.21 57.87 59.01 61.37 60.75 60.17 59.15 58.40 57.88 58.25 59.33 59.74 60.12 59.92 60.33 59.94 58.43 54.78 52.54 49.90 48.17 46.44 45.24 44.25 43.59 43.04 42.57 41.85 42.48
44.75 40.03 45.16 46.97 47.14 47.12 48.00 42.62 43.10 54.04 55.07 54.77 55.12 55.08 54.98 56.36 57.78 57.37 57.62 57.24 58.19 58.97 60.88 61.52 60.60 58.44 58.10 57.93 58.05 58.41 59.68 59.74 59.06 58.52 58.71 57.25 55.54 52.66 51.28 48.35 46.43 44.93 44.11 43.82 44.31 42.74 42.85 42.47 42.57
40.86 38.15 37.53 43.15 46.75 46.87 43.66 36.61 45.36 54.39 53.76 53.51 54.14 54.45 55.16 55.64 56.56 57.53 57.47 58.01 59.18 58.93 59.19 60.80 60.56 57.57 57.42 57.55 57.55 57.98 58.34 57.86 57.14 56.23 55.08 54.35 54.39 52.70 49.97 48.12 45.90 45.37 44.66 44.53 43.07 42.52 41.92 41.61 41.16
38.38 33.02 35.78 40.34 45.94 44.94 42.62 37.11 46.54 53.90 53.48 52.57 52.79 54.25 54.96 55.57 55.66 56.60 56.80 56.25 58.67 58.51 58.56 58.58 57.55 56.79 56.57 56.19 55.97 56.23 56.55 56.21 55.89 54.46 54.98 52.97 51.74 50.56 49.04 48.78 46.67 45.05 45.65 43.45 43.67 42.20 41.83 40.47 40.65
33.29 35.74 34.90 36.35 42.17 43.96 41.43 41.78 45.26 52.20 52.46 51.88 52.07 53.61 54.36 54.83 55.55 56.75 56.53 56.72 58.96 57.17 57.35 58.00 57.51 56.29 55.13 54.52 54.18 54.22 54.12 53.88 53.87 53.13 52.14 51.39 50.31 48.94 47.88 46.71 45.10 44.81 43.10 42.50 42.35 41.69 41.17 40.72 40.17
39.16 37.74 36.24 39.16 41.89 42.08 41.18 41.16 44.38 48.44 50.44 49.56 50.28 51.57 53.66 55.00 56.59 57.20 56.99 57.15 57.97 55.52 57.82 57.79 56.21 55.29 55.77 55.61 54.06 52.29 52.01 51.78 51.42 52.66 52.55 50.97 48.88 47.86 47.23 45.42 44.37 43.32 42.62 42.35 41.96 40.88 40.15 39.85 39.77
39.94 38.16 37.03 40.48 42.60 40.55 38.18 39.11 41.02 47.18 49.02 50.81 51.11 52.22 53.40 55.42 56.28 57.44 57.16 56.79 55.92 55.68 57.98 57.27 57.01 55.81 56.17 56.37 52.36 52.78 51.55 51.63 51.28 52.18 50.65 50.30 48.72 47.37 46.17 44.80 43.15 42.66 42.70 41.92 41.58 40.94 40.06 39.71 39.23
38.96 37.94 37.59 38.30 40.84 38.78 37.09 36.37 38.73 44.71 50.42 52.44 53.43 54.04 54.38 54.79 55.51 56.89 56.84 56.06 55.97 55.35 57.19 57.40 57.09 55.98 56.45 55.28 52.66 50.26 50.90 50.30 49.85 48.18 48.44 49.29 48.75 47.57 46.22 44.53 43.14 42.79 42.49 41.10 40.83 40.46 39.56 37.05 37.65
35.86 41.74 40.93 39.84 37.47 32.19 36.62 29.38 34.36 39.23 46.62 50.72 52.10 51.92 53.40 52.90 56.32 56.43 56.79 55.37 55.83 55.86 57.19 57.61 57.11 55.98 55.96 54.33 53.02 51.10 50.45 48.85 48.99 47.96 48.19 48.92 48.05 47.44 45.87 43.99 43.19 42.56 42.24 41.31 39.78 39.79 38.61 36.92 34.93
39.77 42.79 41.11 39.55 36.72 34.49 34.02 31.43 34.75 37.38 39.85 45.78 50.38 52.12 52.37 52.20 54.69 55.84 56.64 56.21 56.04 55.70 56.49 57.52 56.91 56.19 56.21 54.73 53.83 52.08 51.05 51.12 50.43 49.37 47.81 48.27 45.97 45.70 45.04 43.86 42.85 42.02 40.46 38.71 38.64 38.24 37.40 36.74 36.06
44.23 41.54 39.78 38.21 35.58 29.55 33.96 32.38 32.68 35.35 39.29 43.49 48.56 51.84 51.94 50.73 52.14 54.77 56.06 54.75 54.59 54.81 55.31 55.79 56.35 55.98 55.98 55.36 53.95 52.23 51.83 51.17 50.15 47.57 47.24 45.95 44.52 43.73 43.34 43.11 41.35 40.87 40.16 39.03 39.58 38.58 38.23 37.13 35.96
40.47 36.01 29.17 28.04 27.58 27.77 36.20 33.42 35.50 39.92 41.92 42.84 44.16 49.30 51.85 51.78 49.93 51.52 51.84 52.72 53.47 54.74 55.39 55.74 55.99 55.82 56.19 56.09 55.06 53.77 52.63 52.62 49.98 47.76 47.59 44.52 42.11 40.88 40.97 41.08 41.36 41.10 41.05 40.90 38.82 39.56 38.99 38.03 37.05
38.12 36.87 29.30 25.58 24.89 28.01 35.47 31.66 37.05 42.11 44.17 44.57 44.70 44.44 49.10 49.37 49.94 50.86 52.29 53.42 54.36 55.44 55.76 56.09 55.84 56.52 56.09 56.79 56.07 54.06 53.80 51.10 49.44 47.99 47.27 45.33 42.96 41.10 41.93 40.70 40.95 41.50 41.36 40.95 40.65 39.55 38.09 37.38 35.76
38.85 35.03 38.70 31.95 30.65 27.06 31.05 35.58 39.46 41.67 42.18 44.54 43.83 43.27 44.29 44.80 47.12 49.57 51.74 53.72 55.18 55.87 55.84 55.99 56.49 56.93 56.88 56.73 56.39 54.33 53.10 49.97 48.59 47.42 45.89 43.51 41.90 42.75 40.77 41.90 41.64 41.95 42.22 41.11 39.80 38.40 37.05 35.97 34.47
40.09 42.07 33.40 31.95 26.68 25.45 28.39 29.79 32.01 38.42 41.13 42.89 42.93 43.42 43.54 45.55 46.40 48.76 51.56 54.19 55.71 56.64 56.59 56.79 57.34 57.33 57.20 56.49 56.17 54.84 52.09 49.96 47.62 45.85 43.72 43.57 42.97 41.70 41.44 41.22 42.54 42.35 41.18 40.03 38.80 37.36 36.53 34.46 34.68
38.05 35.91 35.53 34.95 30.39 26.27 23.88 29.30 36.88 38.66 41.67 42.07 42.43 44.06 44.40 45.49 47.61 49.12 52.56 55.06 55.82 56.09 56.61 56.85 57.55 57.11 56.47 55.57 54.40 51.68 48.50 47.53 46.37 45.65 44.35 43.40 43.06 42.92 42.75 42.92 42.18 40.20 39.84 39.03 37.60 36.50 35.24 34.26 34.13
39.19 38.09 36.71 29.43 29.59 29.12 26.67 28.57 39.37 39.37 40.37 42.26 44.29 45.13 46.14 48.57 48.93 50.62 52.08 53.94 54.81 55.79 56.23 56.89 57.27 57.13 55.11 52.73 49.98 47.71 46.81 47.23 47.05 44.23 44.74 43.85 44.04 44.61 44.66 42.20 40.16 39.81 39.07 38.06 36.94 35.62 35.17 34.40 33.93

GFSSGP_sfc_wetblb_057.txt.gz
Wetbulb
59.86 55.72 54.97 51.55 44.93 43.76 40.16 41.55 44.09 46.23 50.95 59.03 60.78 59.40 58.02 59.13 56.52 53.43 65.63 67.19 70.23 69.73 70.24 70.77 70.55 70.87 70.74 70.68 69.93 69.44 69.18 68.68 68.70 69.13 69.06 68.75 68.58 68.68 68.58 68.65 68.87 70.34 69.89 69.97 69.06 69.75 69.21 66.46 66.35
56.91 54.06 52.37 47.15 41.97 38.44 39.83 42.20 43.96 50.89 54.77 58.53 58.57 58.64 57.37 56.48 62.39 62.22 63.80 68.64 69.78 69.66 70.05 70.42 70.02 70.21 70.30 69.83 69.19 68.88 68.68 68.97 69.08 69.28 68.97 68.68 68.73 68.51 68.45 68.11 68.26 69.95 70.51 69.89 69.43 69.75 67.33 66.02 66.34
54.82 50.60 50.03 45.04 39.52 37.87 39.59 42.05 47.55 53.62 56.36 56.94 55.72 56.98 57.58 57.72 62.70 64.05 67.16 69.28 69.75 69.53 69.74 69.97 69.48 69.27 69.46 69.04 68.62 68.26 68.45 68.69 68.69 68.72 68.90 68.97 68.58 68.33 68.21 67.44 67.29 68.26 69.18 68.98 68.97 67.17 65.66 65.63 65.91
51.28 49.73 45.64 42.13 38.15 41.02 41.20 43.91 53.37 52.64 55.16 55.94 56.29 54.07 60.08 64.22 64.48 66.16 68.58 69.51 69.27 69.28 69.59 68.38 68.57 68.73 68.91 68.81 68.51 68.42 68.26 68.19 68.05 67.90 68.48 68.68 68.31 68.02 67.46 67.08 67.03 67.21 67.59 66.53 65.73 64.75 64.56 64.93 64.66
49.05 46.92 42.23 39.20 39.07 41.60 44.73 53.12 53.87 52.95 53.45 54.76 56.33 54.27 58.01 63.33 64.82 65.62 65.77 67.80 67.61 66.18 68.75 68.49 67.85 68.44 68.89 69.02 68.56 68.18 68.08 67.96 67.85 67.85 67.97 68.07 67.85 67.73 66.98 66.60 66.52 66.14 66.23 66.11 65.32 64.37 64.36 63.96 63.66
48.06 45.36 40.64 38.62 39.62 42.92 50.84 54.68 54.22 52.74 53.74 54.62 55.09 56.05 58.23 64.44 63.79 63.73 64.52 64.73 65.17 64.06 65.85 66.60 68.11 67.68 66.58 67.73 68.16 67.59 67.48 67.69 67.47 67.44 67.49 67.64 67.42 66.99 66.77 66.11 65.98 65.84 65.50 64.95 64.43 64.00 63.94 64.16 63.07
46.29 43.96 40.14 39.02 40.32 41.97 47.54 55.12 53.59 52.99 52.62 52.83 57.13 53.94 58.49 61.57 62.93 63.03 62.69 63.28 63.08 62.67 61.79 60.83 60.67 61.61 62.09 63.99 66.92 66.82 67.14 67.24 67.04 67.23 67.00 66.86 66.50 65.98 65.67 65.44 65.58 65.47 65.10 64.83 64.41 63.88 62.95 62.08 61.26
46.36 45.16 39.86 40.20 40.17 41.59 51.22 53.63 54.31 54.58 52.99 57.65 59.34 53.69 54.47 60.63 62.31 62.14 61.82 61.04 61.56 62.14 61.64 60.55 59.27 58.50 60.06 62.77 65.35 66.30 66.42 66.48 66.38 66.34 65.96 65.61 65.47 65.54 65.39 64.77 65.17 65.14 64.98 64.32 62.88 62.73 61.39 59.30 58.33
45.91 43.46 39.71 40.55 41.15 44.40 53.02 51.81 54.62 56.35 55.34 57.46 58.31 58.05 60.44 61.74 61.41 60.39 59.84 59.21 59.31 59.79 59.81 60.15 58.24 58.65 60.10 63.98 65.54 66.16 66.43 66.01 65.48 65.40 64.88 63.85 63.67 63.34 62.82 63.89 64.05 63.66 62.99 61.88 60.70 59.46 58.48 57.83 56.35
45.87 42.24 41.89 44.71 45.31 45.65 51.77 52.49 52.36 53.14 54.64 54.47 55.54 60.01 60.60 60.18 59.89 58.47 58.27 57.37 58.21 58.93 58.55 58.57 58.70 57.67 57.10 58.09 61.69 64.81 65.09 64.49 64.42 64.13 63.84 63.38 63.46 63.17 62.16 63.06 62.49 61.83 60.91 60.11 58.06 56.06 54.20 54.39 52.54
43.26 42.96 44.36 45.20 46.27 47.73 50.27 51.92 53.22 52.47 52.34 55.30 54.86 56.41 58.77 58.70 58.46 58.22 57.65 57.77 57.85 58.31 57.06 56.97 57.86 59.85 61.76 61.76 62.84 64.10 63.60 63.50 63.59 63.20 63.29 62.76 63.13 62.82 62.23 61.12 59.21 58.14 56.12 54.46 54.28 52.76 52.35 52.76 52.33
42.91 44.90 45.03 46.00 45.46 50.02 49.51 52.83 51.29 52.66 52.99 56.67 58.70 58.64 58.84 58.19 57.23 56.89 56.82 56.92 57.71 57.42 57.11 60.17 61.01 62.30 62.14 62.69 62.89 62.95 62.49 62.56 62.49 62.66 63.55 62.45 61.74 61.55 60.51 58.00 56.55 54.73 53.66 53.19 53.13 52.30 52.76 51.57 51.08
42.79 44.78 47.24 47.67 49.20 50.69 51.83 50.55 50.50 52.87 56.72 58.91 59.57 58.96 58.43 57.44 57.17 56.85 55.96 56.01 56.23 56.29 57.74 59.22 61.55 62.81 62.66 62.09 62.13 62.11 62.27 61.85 62.83 62.96 63.52 62.49 61.01 61.03 58.96 56.23 54.92 53.64 53.55 52.16 51.74 51.57 51.01 51.05 50.98
46.63 46.26 48.53 50.41 49.78 50.92 50.28 50.18 51.35 53.55 57.44 56.74 56.92 57.04 57.90 57.22 57.65 56.18 56.39 55.94 56.74 57.14 57.74 59.74 61.06 62.92 63.27 62.17 62.10 61.72 62.44 62.64 62.46 62.21 63.14 62.83 60.52 59.82 56.79 55.11 54.19 52.71 52.47 52.11 51.87 51.50 50.88 50.27 50.60
47.98 45.25 47.55 50.13 50.32 50.10 51.62 47.93 47.95 55.09 56.61 54.92 55.15 56.00 56.79 57.34 58.24 56.52 57.32 56.93 57.66 57.94 59.07 60.41 61.65 62.87 63.14 62.08 61.72 61.82 61.93 61.86 61.83 62.13 63.39 63.70 61.72 60.07 57.37 54.66 53.07 52.09 51.76 51.57 51.33 51.10 51.32 50.50 50.12
45.18 42.91 42.13 47.26 50.43 49.30 48.95 44.42 49.86 54.77 55.24 54.80 54.80 56.09 56.72 57.79 58.86 59.49 59.42 58.42 58.69 58.72 59.70 61.87 62.55 62.49 62.86 62.06 61.79 61.64 62.10 62.56 63.19 63.28 63.84 62.92 61.34 59.01 56.53 53.97 52.22 51.61 51.68 50.40 50.32 51.26 50.45 50.25 50.22
43.35 39.33 40.24 43.98 49.64 49.15 47.68 44.58 50.50 54.04 54.41 53.77 54.57 55.11 56.18 56.40 58.32 59.45 60.18 59.75 59.95 60.48 61.27 62.46 63.50 62.52 62.34 61.82 61.76 62.23 62.60 62.99 63.31 62.53 61.66 60.70 59.57 57.63 55.74 53.38 51.66 52.20 51.51 51.81 51.35 50.57 50.71 49.78 49.97
39.73 40.01 41.17 41.06 45.80 47.87 46.86 46.90 49.70 53.24 54.09 53.89 53.91 54.31 55.73 56.57 56.96 58.91 59.27 60.58 61.43 61.53 62.18 63.14 62.98 62.55 61.90 61.31 61.18 61.57 62.11 62.51 61.94 60.79 60.28 58.88 58.11 56.15 55.19 53.25 50.55 52.41 50.59 50.93 51.03 50.51 50.14 50.17 50.40
42.91 41.56 40.59 42.53 45.45 46.67 46.17 46.18 47.05 53.09 53.75 53.08 53.55 53.91 54.65 56.39 58.80 59.32 59.68 60.25 60.95 61.90 61.69 62.30 61.88 61.42 60.32 59.10 58.34 58.00 58.57 59.77 60.04 58.91 58.52 57.42 56.61 55.08 54.43 51.44 50.48 51.85 51.44 51.21 51.19 49.87 49.74 48.98 49.81
43.39 41.72 41.72 43.72 45.25 44.65 42.92 43.66 45.35 50.71 52.45 53.02 53.25 53.68 54.24 56.30 57.80 58.41 59.04 59.32 59.70 60.34 61.16 61.11 61.50 60.82 60.69 60.44 59.96 59.87 59.40 59.59 59.70 58.66 57.82 57.21 55.62 54.73 53.80 51.03 51.50 51.45 50.74 50.52 50.38 50.18 48.59 49.06 48.59
43.08 41.86 41.50 41.86 43.82 43.32 42.48 40.71 42.74 47.30 51.38 53.41 54.14 55.22 55.94 56.46 57.41 58.29 58.27 58.74 59.87 59.68 60.47 60.67 61.07 60.82 60.59 60.56 59.16 57.48 57.82 57.01 56.42 56.62 56.85 55.98 54.73 53.54 52.32 51.66 51.42 50.97 51.17 50.01 50.15 49.85 48.82 46.39 46.72
40.08 44.70 43.85 42.81 42.03 38.17 42.66 36.38 40.37 43.20 47.65 50.82 52.77 54.22 54.82 55.98 57.39 59.12 59.18 59.13 59.35 59.67 60.86 61.25 61.32 60.75 60.27 59.57 58.54 57.62 58.05 57.43 57.20 56.61 56.48 55.81 52.69 51.15 51.07 51.50 51.11 51.08 50.67 49.66 49.18 47.87 47.55 45.99 43.28
43.11 45.22 44.44 43.37 41.08 40.41 38.95 38.58 41.76 41.90 42.98 47.82 52.44 54.69 56.13 57.13 57.58 58.57 59.74 60.47 60.52 60.40 59.89 60.84 61.19 60.67 60.47 59.40 59.35 58.52 58.25 59.13 56.02 55.41 54.95 54.47 53.78 52.72 51.38 50.97 50.35 50.18 49.98 49.01 47.75 46.40 45.74 44.97 43.23
46.01 44.17 42.49 41.76 40.01 35.31 38.32 38.50 40.40 42.36 43.75 45.29 49.30 53.92 55.85 57.19 57.20 58.63 60.42 61.08 60.36 60.29 60.02 60.43 60.17 59.87 60.12 59.46 59.00 58.23 58.10 56.29 54.20 54.14 53.21 53.17 52.90 51.70 51.68 50.14 50.25 49.97 48.53 47.17 45.26 43.78 42.70 41.95 44.35
43.97 41.43 35.89 33.93 34.17 33.40 39.25 37.44 41.40 44.57 45.78 47.22 48.12 50.78 55.11 56.69 56.84 57.04 58.60 59.05 59.47 58.29 59.16 59.98 60.31 59.63 59.74 59.10 58.26 57.30 56.60 56.45 55.38 54.64 51.97 53.06 51.53 49.99 50.00 49.75 48.48 47.42 46.43 45.61 43.17 41.84 42.06 41.86 41.98
42.50 41.93 36.64 29.16 30.63 33.79 38.39 36.14 41.94 46.54 47.62 48.27 48.61 48.71 49.59 55.17 56.74 56.59 57.69 58.93 59.03 58.58 59.07 59.56 59.40 59.68 59.50 59.00 58.54 56.60 56.14 56.66 56.26 54.14 51.75 51.99 51.98 51.13 49.61 48.29 46.94 45.64 45.32 43.21 42.25 42.18 41.15 41.42 44.02
42.32 39.75 42.48 35.86 34.20 33.66 36.72 40.30 44.03 45.38 46.67 48.03 49.14 48.99 49.59 50.92 54.85 55.54 56.79 57.89 58.36 58.06 58.86 59.14 59.52 59.54 59.61 59.01 59.24 57.30 56.49 56.65 55.11 52.13 52.46 53.62 52.71 48.41 46.28 45.62 45.77 45.28 44.94 43.51 41.97 41.46 40.20 40.61 42.18
44.49 44.75 38.20 37.56 30.41 28.61 33.67 34.97 38.07 43.04 45.12 46.86 47.78 49.16 49.93 50.25 50.09 52.43 54.56 56.33 57.67 58.30 59.20 59.42 59.74 59.29 59.70 59.37 58.96 58.18 57.27 57.11 55.34 53.42 53.00 50.63 48.74 46.59 44.53 45.35 45.80 45.03 44.33 44.26 43.20 41.01 40.13 39.73 42.03
41.71 40.39 39.02 39.39 36.45 32.02 29.86 35.24 43.09 43.69 45.71 46.88 47.84 49.09 50.46 50.25 51.77 51.94 53.49 55.71 57.45 58.70 59.02 58.99 59.09 59.30 59.35 59.31 58.73 58.43 57.41 57.13 54.51 52.30 49.84 47.86 44.93 44.93 44.35 44.81 44.86 45.27 42.68 41.39 40.53 39.79 39.76 40.92 41.38
43.76 42.56 41.58 37.18 33.89 33.89 33.11 35.22 44.47 44.75 44.28 44.56 47.11 48.62 50.79 52.67 52.64 53.71 54.05 56.11 57.55 58.23 58.87 58.94 59.22 59.26 59.46 59.05 57.74 57.81 56.62 54.08 52.19 49.66 46.92 45.34 43.96 45.17 45.65 45.80 43.59 41.50 40.53 40.33 39.19 39.83 41.12 40.73 40.35

GFSSGP_sfc_wetblb_060.txt.gz
Wetbulb
62.63 59.85 59.39 56.14 47.35 46.67 44.04 45.03 48.42 48.02 52.79 59.70 60.84 57.10 57.28 61.38 58.60 54.57 68.33 70.21 70.18 70.69 70.63 71.56 70.76 71.04 71.23 70.98 70.39 69.81 69.75 69.90 69.85 69.41 69.22 69.15 69.37 69.44 69.62 70.40 70.72 70.77 70.61 70.40 69.17 67.22 66.97 66.93 66.53
59.24 57.64 58.04 54.28 44.72 42.02 43.40 47.04 46.11 51.16 56.49 61.23 61.04 60.45 58.51 57.44 63.50 64.08 66.25 69.73 71.86 71.27 70.26 69.81 70.18 70.38 70.38 69.77 69.35 69.38 69.78 69.85 69.53 69.25 69.27 69.20 69.42 69.44 70.15 70.54 70.18 70.92 70.74 70.45 67.80 66.97 66.78 66.41 66.16
57.59 56.14 52.81 49.25 45.64 42.19 43.59 46.63 48.50 55.71 58.74 59.68 58.73 61.13 58.81 56.98 62.70 65.36 69.58 70.61 71.95 71.51 70.06 70.01 69.57 69.70 69.61 69.36 69.01 68.87 69.08 69.03 68.95 68.98 69.32 69.37 69.18 69.13 69.81 69.92 69.76 70.06 71.04 69.79 67.07 66.61 66.20 65.69 66.05
55.96 53.30 52.06 45.17 43.75 45.55 45.33 47.47 52.61 54.43 58.08 59.96 60.38 57.57 61.63 64.58 64.31 67.56 70.14 70.63 70.69 70.48 70.48 69.05 68.73 69.21 69.35 69.07 68.77 68.88 68.80 68.32 68.40 68.61 68.88 68.93 68.93 68.66 68.54 68.56 69.19 70.10 69.98 67.29 66.01 65.16 64.61 65.16 64.83
55.78 52.02 45.38 44.12 44.04 45.48 47.42 50.73 54.81 54.53 56.78 57.95 59.44 57.51 59.30 64.14 65.40 67.58 69.22 70.03 67.11 65.85 69.63 69.13 67.69 68.40 68.76 69.08 69.03 68.70 68.43 67.83 68.01 68.22 68.08 68.25 68.32 68.10 67.62 67.25 67.62 67.50 67.30 65.97 64.75 64.00 63.70 64.08 63.96
51.13 51.21 43.64 42.52 43.32 45.58 48.26 54.55 55.71 55.74 57.26 57.52 58.26 58.91 59.95 65.63 64.30 65.63 66.05 65.19 63.46 61.59 62.55 66.94 67.88 67.40 66.25 66.13 66.60 67.37 67.61 67.51 67.57 67.56 67.58 67.68 67.66 67.28 67.16 66.76 66.30 66.44 66.39 65.95 64.99 64.50 63.57 62.90 61.94
49.77 48.10 44.33 43.99 43.47 45.22 48.74 57.13 55.53 56.02 55.72 56.71 59.76 55.89 60.53 61.65 63.40 64.47 63.50 64.40 63.01 60.97 60.79 60.13 59.88 61.46 61.84 63.13 63.62 64.65 66.70 67.19 67.28 67.02 67.06 66.94 66.51 66.18 66.38 66.15 65.86 65.42 64.92 64.58 63.88 63.67 63.13 61.86 60.58
51.27 49.00 44.57 44.77 43.57 45.50 51.73 55.56 56.89 56.19 56.35 59.95 61.02 56.53 56.70 60.47 62.51 62.87 63.14 61.39 60.35 60.61 60.45 59.10 57.37 57.78 58.20 58.95 62.48 64.95 66.14 66.53 66.46 66.46 65.90 65.49 65.33 65.64 65.59 65.28 65.37 65.20 64.76 63.82 62.37 61.84 61.00 59.82 58.66
51.88 45.97 43.85 44.08 44.60 48.06 53.71 52.65 56.55 58.79 57.96 58.76 60.46 60.57 63.17 61.82 62.04 61.36 60.35 61.01 60.32 59.18 58.86 59.02 57.88 58.13 58.31 59.50 63.26 65.01 66.05 65.78 65.39 65.27 64.52 63.27 63.00 63.58 63.84 64.18 64.84 64.38 63.45 62.56 60.71 59.24 58.06 57.42 56.26
49.48 46.37 44.88 48.07 48.85 48.25 50.35 53.48 54.04 55.87 56.71 57.21 58.22 60.52 61.22 60.63 60.09 59.49 58.57 58.54 58.16 58.53 58.32 58.76 59.85 58.80 57.87 60.05 62.29 64.41 64.71 64.70 64.08 63.63 63.98 63.16 63.59 63.76 64.11 63.31 62.90 62.48 61.51 59.91 58.05 56.58 57.38 58.75 56.88
49.65 46.31 48.50 49.42 51.13 51.53 50.71 51.71 55.06 54.18 53.35 57.19 57.48 57.55 59.00 59.91 59.74 58.46 58.45 58.48 58.48 58.06 57.42 58.37 58.27 57.81 60.41 61.77 61.13 62.08 64.16 64.02 64.12 64.32 63.65 64.40 64.15 64.02 63.62 61.93 61.03 60.28 59.79 57.52 56.94 57.67 57.76 56.91 55.94
46.99 49.79 50.26 50.48 50.49 50.49 50.41 53.18 53.66 55.54 56.20 59.75 61.15 59.74 59.01 58.65 58.35 58.24 57.38 58.40 56.14 55.90 56.43 56.24 57.13 59.37 59.44 59.62 59.07 60.06 61.50 62.84 62.57 63.36 64.65 64.38 63.59 63.87 63.44 62.09 61.47 60.11 59.95 58.92 58.34 57.41 56.31 55.06 54.66
48.45 49.51 50.73 52.50 53.78 51.93 53.48 53.15 54.42 55.32 59.31 61.50 60.76 59.01 58.44 58.33 59.48 60.57 59.55 58.88 58.46 55.10 56.62 57.89 61.60 61.63 60.91 61.46 62.39 62.94 62.81 62.75 63.12 63.95 64.07 64.11 63.41 63.06 62.85 62.11 60.91 60.05 59.37 58.41 57.28 56.07 55.29 54.71 54.30
50.67 50.66 51.29 53.39 52.57 53.14 53.29 54.04 55.00 57.00 60.39 59.72 58.46 57.91 58.74 58.14 59.47 59.67 57.47 56.22 56.71 56.72 58.08 59.34 60.18 61.93 62.62 62.58 63.92 63.23 62.79 63.19 63.73 63.72 64.11 64.52 63.66 63.53 62.52 61.05 59.80 58.97 59.10 58.24 56.92 55.82 54.70 54.24 53.84
51.72 48.71 50.40 53.15 53.54 53.27 55.24 52.17 52.49 57.70 59.35 56.92 56.98 57.69 58.88 58.60 60.21 60.44 59.02 59.27 59.90 58.61 60.08 61.04 61.87 63.52 63.38 62.77 63.75 63.38 62.65 62.93 62.81 63.98 65.63 64.18 63.91 63.47 62.70 60.95 59.49 58.59 58.02 57.34 56.29 55.39 54.85 54.08 53.22
48.52 48.43 45.26 52.02 53.68 53.68 53.60 46.58 53.44 58.23 58.61 56.97 56.86 58.32 57.73 58.60 60.00 61.05 61.79 61.17 60.91 60.71 60.88 61.85 61.82 63.28 64.04 63.08 63.02 62.98 63.01 62.94 63.19 64.22 66.03 66.51 64.57 64.18 61.89 59.48 58.38 58.10 56.86 56.52 55.49 55.49 54.67 54.21 53.76
47.17 43.51 44.02 47.82 53.87 52.72 52.78 48.20 54.30 57.89 57.95 56.94 57.44 58.25 58.69 59.54 60.93 61.12 61.60 61.51 61.23 60.73 60.67 61.30 61.98 62.30 64.85 64.64 63.40 63.59 63.87 63.31 63.88 65.27 65.86 66.62 66.14 63.76 61.63 60.39 59.10 57.48 56.67 54.92 55.31 55.09 54.86 53.64 54.09
42.13 43.33 44.97 44.27 50.42 51.87 50.39 49.44 53.09 56.93 57.25 57.08 56.98 58.00 57.65 58.90 60.08 61.60 62.41 62.60 61.69 61.71 62.13 62.98 62.89 63.70 65.61 65.42 64.35 63.40 63.52 63.52 64.72 65.41 65.95 66.09 64.57 63.33 62.54 60.61 58.27 57.25 56.31 56.06 55.51 54.84 54.58 54.93 55.37
46.73 45.11 43.81 46.59 49.11 49.60 48.67 49.13 50.03 55.57 56.47 57.05 56.77 56.89 58.05 58.83 60.96 62.42 62.30 63.45 62.98 62.39 62.83 63.58 63.79 64.59 65.37 64.28 62.18 61.16 61.11 62.53 63.58 64.94 65.44 64.40 63.66 62.73 61.72 59.97 57.29 56.73 56.32 55.60 55.86 54.90 53.70 53.17 54.87
47.21 45.02 44.32 46.88 48.62 47.86 47.87 47.50 49.67 52.51 55.60 56.97 57.12 55.84 57.03 58.77 60.38 61.23 61.99 62.34 63.02 62.41 62.78 63.37 64.26 65.47 65.21 64.52 62.97 61.82 61.74 62.89 63.47 64.54 64.49 64.17 62.88 62.10 61.01 59.65 56.83 55.11 56.39 55.68 55.38 54.44 53.24 54.05 53.88
46.73 45.26 44.66 44.33 47.48 48.92 47.67 45.51 47.00 50.47 54.23 55.99 56.98 58.39 58.10 58.34 59.16 60.67 61.18 62.10 62.81 62.94 63.25 63.42 64.27 65.13 65.07 65.25 63.64 62.44 62.45 62.75 62.39 62.71 62.30 62.51 61.87 61.04 59.99 57.50 55.83 55.34 56.53 55.17 55.09 54.83 53.57 51.98 51.72
44.07 48.20 46.89 45.70 44.85 41.05 47.50 39.09 45.06 48.31 50.91 53.43 56.05 57.96 58.91 58.93 60.00 61.37 61.91 62.13 62.82 63.10 63.96 64.12 64.42 64.87 65.00 65.44 63.55 61.61 60.20 59.26 61.44 62.76 62.56 62.68 61.21 60.08 59.04 55.57 54.96 55.69 55.60 55.54 55.03 54.58 54.03 52.28 49.12
45.36 48.58 47.34 47.15 45.42 44.36 43.97 41.63 45.09 47.13 46.64 50.54 54.58 56.65 58.60 59.99 60.17 60.44 62.04 62.77 63.61 64.15 64.23 64.40 64.08 64.39 64.96 64.88 64.39 62.68 61.11 60.76 62.49 62.88 61.81 60.80 59.22 57.49 55.50 55.59 53.89 54.32 55.42 55.64 54.72 53.32 52.06 47.89 44.33
49.69 47.83 47.13 47.44 45.62 38.93 42.98 42.36 43.45 45.66 47.22 49.41 52.12 56.00 57.97 59.62 60.54 61.03 61.91 63.94 64.14 64.84 64.95 64.65 64.17 64.08 64.90 64.83 64.33 63.81 62.84 62.04 61.30 60.54 60.27 59.79 59.35 57.74 56.38 53.46 53.62 54.60 55.30 54.80 53.61 52.22 48.18 46.15 43.60
48.54 45.99 39.23 37.39 37.80 37.14 43.64 41.90 44.35 48.22 50.16 50.85 51.77 53.61 56.04 59.29 60.93 61.42 61.17 62.14 63.65 64.24 64.62 64.46 64.46 63.74 64.43 64.90 64.36 64.13 63.85 62.78 60.25 59.54 60.33 58.98 57.21 55.29 53.16 52.99 52.87 54.74 54.92 53.84 51.25 47.07 46.23 44.10 43.47
46.81 46.09 40.31 31.88 34.36 37.65 42.68 38.91 44.36 50.06 51.44 52.90 53.93 54.33 54.32 55.62 59.96 61.52 61.82 62.48 63.18 64.06 64.53 64.44 63.39 64.01 64.18 64.24 63.79 63.80 63.26 62.22 59.94 59.02 59.93 59.73 55.35 52.25 53.13 52.52 54.44 54.81 52.95 47.83 47.59 43.92 47.64 46.82 43.35
46.17 43.32 47.19 40.94 40.32 39.42 41.47 43.94 48.25 49.53 49.84 51.89 52.09 53.29 54.56 54.63 58.12 60.21 61.98 62.85 63.76 64.08 64.33 64.17 63.24 63.33 64.00 63.85 63.92 62.81 61.84 60.56 58.55 59.32 59.19 58.04 54.46 53.24 53.29 54.83 53.87 48.07 46.69 49.16 45.08 45.37 44.80 43.19 43.54
48.14 49.34 41.77 43.56 33.56 32.09 38.71 39.76 42.01 45.29 48.17 49.19 50.27 51.87 53.91 55.77 55.76 57.92 60.01 62.07 63.16 64.22 64.75 65.03 64.86 64.31 64.74 64.68 63.24 60.94 60.39 60.42 60.01 58.61 58.80 56.14 53.96 55.46 53.86 51.61 45.88 47.68 47.01 46.79 44.80 43.23 42.30 41.73 41.78
45.64 44.66 44.84 44.86 42.46 36.11 34.67 39.67 47.83 47.24 48.88 50.46 51.98 52.57 53.98 55.49 56.51 56.78 58.14 59.72 61.55 63.19 63.31 63.47 63.48 63.56 63.83 64.00 63.22 60.37 59.88 60.07 59.96 58.79 56.63 54.53 53.83 52.57 51.13 46.43 46.50 45.70 46.35 43.93 42.56 42.33 40.90 40.33 42.31
48.42 46.59 46.32 40.44 38.01 40.91 40.04 39.65 49.69 50.52 50.73 50.17 50.88 52.02 54.46 56.17 57.41 58.23 58.10 59.00 59.84 61.06 61.94 62.37 62.71 62.64 63.02 63.36 62.30 59.98 59.76 58.95 58.69 57.17 54.28 52.91 49.87 47.19 46.40 45.37 46.18 45.51 43.27 41.89 41.17 40.74 41.46 43.45 43.90

GFSSGP_sfc_wetblb_063.txt.gz
Wetbulb
63.60 63.26 59.71 56.47 47.91 47.61 44.12 45.96 50.12 48.58 49.89 57.15 60.06 58.08 55.43 54.71 55.76 51.09 65.11 71.37 72.17 71.74 70.74 72.26 71.16 71.77 71.80 71.68 71.03 70.44 70.24 70.37 70.13 69.81 69.62 69.84 70.04 70.08 70.36 70.60 70.87 71.12 70.42 68.00 67.64 67.27 67.21 67.02 66.52
62.23 58.07 57.69 53.48 46.05 42.65 44.07 48.36 47.10 49.46 56.02 59.21 59.47 59.56 58.02 55.86 63.81 63.71 65.42 71.11 72.01 71.00 69.94 72.16 70.49 70.97 71.43 70.81 70.19 70.09 70.25 70.17 69.88 69.50 69.67 69.89 70.23 70.74 70.94 70.60 70.50 70.75 69.87 67.59 67.54 67.25 66.77 66.35 66.10
59.85 57.04 52.78 50.22 46.71 43.30 43.57 47.55 49.50 52.11 56.94 58.36 58.34 62.06 60.16 57.96 62.81 65.99 69.85 71.40 72.22 70.12 69.02 71.72 70.08 70.20 70.59 70.05 69.71 69.59 69.77 69.26 69.27 69.27 69.79 70.06 70.96 71.18 71.18 70.66 70.22 70.26 68.86 67.43 67.27 66.77 66.06 65.52 65.60
57.25 54.81 52.70 45.64 43.96 46.83 47.02 48.95 50.14 52.26 55.84 60.04 60.06 57.52 62.63 66.38 65.84 68.30 70.81 71.09 72.18 71.09 68.84 69.21 68.85 69.46 69.60 69.60 69.39 69.29 68.95 68.43 68.58 68.91 69.57 70.01 70.81 70.81 70.39 69.90 69.71 69.65 68.27 66.92 66.12 65.43 64.65 64.72 64.49
56.35 53.10 46.78 45.30 45.72 47.79 48.89 50.08 54.73 54.83 55.61 58.21 59.65 56.68 59.94 65.87 67.11 67.43 68.51 69.72 67.24 65.64 64.16 68.82 67.69 68.41 68.88 69.37 69.37 68.82 68.41 68.47 68.63 68.73 68.64 69.17 69.39 69.55 69.73 69.56 68.91 67.84 67.39 65.69 64.55 64.02 63.60 63.47 63.08
51.68 52.48 45.09 43.29 44.62 47.48 48.96 54.17 53.65 56.25 57.56 58.89 58.57 58.07 61.54 65.91 65.34 64.99 65.53 63.98 65.62 64.24 64.31 66.48 66.40 65.46 66.35 67.41 67.72 67.59 67.80 68.13 67.98 68.06 67.99 68.21 67.88 67.85 68.10 67.58 66.93 66.60 66.16 65.36 64.39 63.85 62.72 61.99 61.62
50.44 49.06 45.84 45.90 45.61 46.28 50.06 56.32 55.42 55.31 56.48 57.06 60.32 56.48 62.11 62.73 63.20 62.92 62.13 63.10 63.47 63.00 64.10 62.43 62.26 61.89 62.16 62.97 63.56 65.11 65.98 66.91 67.40 67.23 67.09 66.93 66.67 66.43 66.55 66.64 66.64 66.13 65.68 65.02 63.61 62.92 62.59 60.82 60.44
52.09 49.87 45.83 46.33 44.66 45.80 52.24 54.49 56.41 53.87 54.24 61.14 61.26 56.13 57.76 60.89 62.87 61.05 60.45 60.17 59.94 60.11 60.17 60.11 60.44 59.44 58.19 58.80 61.33 62.81 64.85 66.44 66.53 66.23 65.63 65.36 65.68 65.55 65.58 65.07 65.20 64.87 64.27 63.41 62.35 61.75 60.73 59.41 58.06
53.60 46.67 44.29 45.26 45.68 48.20 53.64 51.73 58.07 58.77 57.18 59.96 61.48 62.02 62.02 61.73 61.78 60.09 58.83 58.64 58.52 58.83 58.66 58.77 58.03 58.74 59.04 59.60 60.87 63.67 65.48 65.68 65.37 65.35 64.39 63.29 63.74 63.01 63.26 64.16 64.57 64.59 63.57 62.01 60.76 59.73 58.53 58.33 57.39
50.27 47.48 46.67 49.48 49.88 49.16 51.23 52.10 54.10 53.79 52.64 58.08 59.85 62.25 61.73 60.84 60.67 59.17 57.75 57.32 57.89 56.95 57.73 58.41 58.53 58.80 58.48 59.06 60.13 62.86 63.55 64.21 64.44 63.82 63.58 63.38 63.58 63.85 63.58 63.37 63.52 62.83 61.77 60.55 59.57 58.69 58.98 58.84 56.80
50.76 47.10 49.83 49.75 51.47 52.43 51.80 51.81 53.90 53.39 50.13 57.29 57.45 59.59 59.81 60.07 60.06 59.53 58.26 57.74 57.38 57.84 58.14 58.43 59.02 59.11 59.32 59.49 59.72 62.16 62.70 62.98 63.30 64.47 64.39 63.72 63.91 63.69 63.59 62.04 60.72 60.45 59.97 57.29 56.96 56.54 58.27 58.24 56.83
47.86 50.08 50.54 51.33 52.05 51.77 51.07 53.80 53.05 55.74 57.90 60.37 62.57 61.48 59.73 59.45 58.68 58.39 58.14 57.63 56.41 56.53 56.66 57.64 58.22 58.44 58.53 59.87 61.46 62.03 62.69 63.20 63.23 63.43 65.70 65.10 63.57 64.31 63.32 61.76 61.59 60.67 60.29 59.16 60.11 59.13 58.02 56.79 56.08
49.20 49.88 51.13 51.96 52.75 54.06 54.10 52.68 53.81 56.00 60.82 63.04 60.97 59.81 58.46 58.46 58.78 59.16 58.34 57.68 57.31 56.13 56.37 56.91 57.77 58.83 59.93 59.54 58.92 59.35 60.89 62.38 63.89 63.31 64.93 65.14 64.41 64.74 63.29 63.29 62.00 61.67 61.26 60.59 59.80 57.91 56.89 55.89 55.31
51.66 51.29 51.03 52.33 52.97 53.62 52.15 53.54 56.24 58.36 62.10 60.36 58.71 58.01 58.23 58.43 58.99 60.05 58.05 55.84 55.30 55.36 55.19 57.36 58.67 59.26 58.72 58.70 61.11 61.72 62.36 62.43 63.30 63.29 64.35 66.03 65.24 64.97 62.87 62.93 61.74 61.27 61.15 60.51 59.68 58.36 57.06 55.81 55.40
52.04 48.65 50.54 51.45 53.19 52.08 54.36 50.66 47.00 59.47 60.73 59.40 59.37 59.42 59.21 59.14 59.85 59.21 58.09 56.54 56.29 56.33 57.94 58.21 58.76 61.04 61.29 61.79 63.08 62.90 62.55 62.30 62.35 63.08 64.98 64.90 65.01 65.01 64.43 62.41 61.59 61.09 61.48 60.71 59.32 57.82 57.18 55.71 54.71
49.02 49.20 45.56 49.94 52.30 53.33 53.21 43.02 49.84 59.33 58.83 57.74 58.82 59.35 59.99 60.11 60.56 60.48 59.93 60.39 59.04 59.36 58.33 58.92 59.60 61.45 62.88 63.37 63.53 62.52 62.15 62.69 63.29 63.71 64.29 64.96 64.23 64.32 63.91 62.58 61.82 62.06 60.39 59.48 58.49 57.62 56.71 55.66 54.67
48.03 43.35 44.52 47.88 52.68 51.79 51.72 47.64 52.46 57.56 57.96 57.70 58.01 58.63 59.37 59.66 60.46 62.22 61.40 61.69 60.24 59.74 60.68 60.54 61.86 62.47 62.51 62.80 62.90 63.36 65.00 63.01 62.36 63.59 64.55 65.55 64.35 64.67 63.75 62.28 61.63 60.90 59.48 58.94 58.09 57.94 57.48 54.92 54.44
43.76 43.59 46.35 45.01 49.85 50.59 49.12 49.76 52.91 56.32 56.79 57.36 57.77 58.29 59.15 59.22 59.65 61.16 61.24 61.58 61.37 61.82 61.98 61.57 61.65 62.52 63.13 64.05 63.49 62.47 62.70 62.32 63.02 63.24 64.17 65.67 65.71 64.90 63.88 62.78 61.90 60.10 59.18 57.75 57.85 58.03 57.16 55.88 55.39
48.12 46.42 44.92 47.98 50.31 48.89 48.92 50.08 51.28 56.09 56.19 56.81 57.01 57.76 58.27 59.35 60.99 61.99 62.06 61.69 61.62 62.12 61.69 61.66 61.38 62.07 63.34 62.83 61.49 60.70 60.44 61.50 62.11 63.70 64.94 65.82 65.36 64.91 64.03 63.37 61.88 59.86 58.88 58.56 58.63 57.64 55.92 54.70 55.57
47.53 46.13 44.81 47.78 49.25 48.90 48.04 48.97 50.00 52.81 55.63 56.77 57.28 57.00 58.11 59.57 60.30 60.58 61.67 61.21 61.51 61.26 61.72 62.13 61.72 62.18 63.68 63.93 63.27 61.78 61.02 61.43 62.09 63.13 64.91 65.46 64.93 64.45 63.43 63.34 61.55 59.60 58.78 59.00 58.11 57.46 55.11 55.31 55.42
47.38 45.97 45.40 45.42 49.25 49.65 48.11 46.69 48.26 51.23 55.12 57.10 58.23 58.20 57.37 58.94 59.71 60.45 60.70 61.72 61.75 61.56 62.07 62.95 63.36 63.52 64.05 64.22 63.76 62.00 61.69 61.77 61.57 62.12 63.32 64.68 64.69 63.58 63.03 63.16 61.04 59.93 58.90 57.68 57.82 56.92 55.79 53.53 54.24
44.80 49.08 47.58 46.79 45.41 41.06 48.73 39.46 46.70 49.13 51.11 54.39 56.29 58.21 58.03 58.42 59.88 61.44 61.91 62.22 62.75 62.75 63.29 63.55 63.87 64.27 64.70 64.96 63.78 61.92 59.74 58.46 60.54 61.78 63.10 62.97 63.52 62.65 62.74 61.93 60.63 58.97 58.28 57.29 56.42 57.06 56.79 55.53 52.85
46.75 49.93 48.00 47.53 46.42 45.85 46.11 42.03 44.68 48.96 47.08 50.58 55.11 57.66 58.89 59.18 59.40 60.19 61.96 63.10 63.73 64.15 63.98 64.57 64.02 63.89 64.71 64.89 64.67 63.23 61.52 61.02 61.87 62.21 62.87 62.56 62.99 62.92 61.52 60.37 58.07 57.52 57.71 56.97 55.68 56.52 55.84 55.11 53.14
50.51 48.32 48.03 47.88 46.51 39.66 43.60 43.62 42.72 45.98 47.48 49.27 51.98 55.65 58.46 59.31 59.44 59.96 61.97 63.23 63.46 64.56 65.29 64.85 64.34 64.02 64.95 65.19 65.01 64.67 63.41 62.84 60.84 61.62 62.27 62.32 61.93 61.43 60.61 58.80 57.79 57.47 55.95 55.40 54.43 56.96 55.60 51.24 48.10
49.03 46.11 39.54 38.21 37.75 37.75 45.74 42.98 44.60 49.39 50.37 51.01 51.48 53.29 56.94 59.30 60.20 60.33 60.22 61.78 63.04 63.40 64.34 64.85 64.73 63.73 64.59 65.00 65.06 64.79 64.56 64.30 63.25 62.47 61.75 60.98 60.94 59.44 59.35 58.14 56.81 55.38 54.14 53.43 53.71 55.10 52.49 46.43 45.85
47.43 46.56 40.85 33.17 35.31 36.21 44.94 39.91 44.06 50.75 51.56 52.64 53.89 54.96 56.14 57.34 59.57 60.72 61.45 61.15 62.65 63.79 64.47 64.81 64.37 63.88 64.46 65.20 65.22 65.64 65.62 64.99 64.80 61.16 59.68 60.52 60.34 60.41 60.61 59.14 55.17 52.95 53.10 52.83 52.78 49.67 45.79 46.85 45.59
47.61 44.23 48.89 42.97 43.29 39.73 42.43 45.13 48.34 50.01 49.64 51.47 52.27 53.67 55.57 56.57 57.51 59.97 61.67 62.56 62.26 63.60 64.94 66.00 64.96 64.83 65.12 66.00 66.21 66.18 66.13 65.32 64.94 63.76 62.62 59.77 61.12 58.35 56.01 54.00 52.74 51.89 52.46 48.58 47.93 45.15 46.08 45.20 43.64
49.22 50.74 42.85 43.88 34.44 33.82 39.67 41.76 42.07 46.66 48.66 49.64 50.78 52.02 53.51 56.15 57.40 59.38 61.30 62.70 63.73 64.45 65.92 66.83 66.33 65.38 65.18 65.51 65.41 64.83 64.62 63.62 63.47 62.79 61.10 60.37 59.97 57.33 54.03 52.53 52.26 48.41 47.31 45.91 46.62 45.57 43.35 42.24 43.02
46.73 46.19 46.65 45.74 42.83 37.27 35.92 40.89 48.87 47.68 49.32 49.92 51.58 52.24 53.63 54.95 57.37 58.67 59.90 61.75 63.47 64.60 65.45 65.66 65.82 65.61 65.64 66.00 65.31 64.38 62.62 61.47 60.85 60.60 59.55 59.59 59.25 57.56 54.40 53.05 47.17 46.17 45.44 46.70 46.22 43.59 41.83 41.18 41.16
49.27 47.06 47.14 41.24 40.07 42.61 41.70 41.86 50.92 50.69 51.38 51.76 51.92 52.69 54.26 56.08 56.73 58.90 59.76 60.55 61.20 63.09 64.30 64.96 65.34 65.48 65.73 65.98 65.77 62.53 61.51 60.64 59.33 58.95 58.67 58.11 54.73 51.27 49.12 47.22 46.43 46.60 46.15 44.65 42.75 41.26 41.57 40.62 40.93

GFSSGP_sfc_wetblb_066.txt.gz
Wetbulb
62.44 61.09 60.59 56.75 46.26 46.02 42.49 44.29 48.08 47.69 49.40 56.46 55.33 54.34 52.54 55.13 54.90 51.46 62.75 63.59 64.88 62.43 70.16 71.94 71.44 71.92 72.18 71.93 71.45 70.89 70.81 70.75 70.67 70.45 70.34 70.57 70.87 71.28 71.58 71.32 70.24 69.87 69.20 67.92 67.80 67.35 66.96 66.24 65.55
61.89 61.93 58.44 51.88 44.11 40.88 42.41 47.51 47.09 49.37 53.45 57.46 56.60 54.90 54.19 53.54 64.25 62.50 64.97 62.18 62.02 62.77 69.62 71.43 70.50 71.45 71.80 71.24 70.75 70.48 70.70 70.57 70.30 70.25 70.23 70.31 70.80 70.99 71.36 70.65 69.36 68.99 68.97 67.94 67.39 67.00 66.35 65.46 65.06
59.96 59.09 50.96 47.98 45.36 41.53 42.77 47.50 48.64 50.51 52.86 54.90 54.07 59.02 56.86 59.58 65.27 65.52 69.42 68.43 67.84 69.33 70.11 71.52 70.41 70.42 71.13 70.46 70.09 70.14 70.02 69.56 69.44 69.79 70.31 70.53 70.82 71.12 71.06 70.16 68.53 68.78 68.81 67.35 66.96 66.28 65.44 64.55 65.00
56.79 54.66 51.43 44.59 42.52 45.37 46.37 49.09 49.48 49.72 54.85 54.56 53.77 53.28 62.88 65.26 65.03 67.38 68.77 70.60 69.27 69.31 70.12 68.86 69.67 70.07 70.38 70.08 70.05 69.66 69.20 68.76 69.06 69.58 70.42 71.16 71.28 71.09 70.55 69.09 68.29 68.75 68.02 66.56 65.85 64.80 64.10 64.02 64.00
56.98 52.03 45.54 44.00 44.01 46.84 49.16 49.72 52.00 50.88 52.42 52.00 53.06 51.62 53.57 58.92 65.93 66.95 66.74 65.47 64.90 66.08 67.63 65.86 64.73 68.88 69.69 70.09 69.80 69.09 68.79 68.70 68.95 69.56 70.29 70.62 70.87 70.22 69.81 68.37 67.94 67.56 66.86 65.20 64.49 63.84 63.30 62.97 63.08
50.52 51.03 43.82 42.19 44.51 48.28 49.74 51.62 53.60 50.81 52.14 53.49 52.31 52.76 54.18 63.35 62.66 63.17 65.19 65.28 64.37 63.67 62.98 62.64 64.30 63.89 68.01 68.94 68.34 67.90 68.06 68.27 68.36 68.80 69.21 69.75 69.75 69.39 68.65 67.68 67.10 66.54 65.91 65.15 63.83 63.12 62.14 61.82 61.70
49.19 47.24 43.97 44.28 44.71 46.28 51.03 54.86 53.71 54.34 53.92 54.32 54.19 51.47 57.34 59.20 61.15 61.46 62.48 63.41 64.63 64.25 62.43 60.71 60.20 61.33 62.94 63.91 65.04 65.60 66.97 67.37 67.45 67.56 67.23 67.34 67.17 66.91 66.98 66.84 66.38 65.94 65.32 64.36 62.96 61.99 61.90 60.61 60.31
50.87 48.23 44.09 45.03 44.20 45.84 51.84 52.73 55.52 53.34 51.83 57.12 57.06 55.28 53.32 59.14 60.31 60.18 60.11 60.54 61.04 63.51 63.06 60.41 59.29 59.13 58.98 60.33 62.97 63.85 66.19 66.26 66.32 66.34 65.96 65.38 65.64 66.01 65.92 65.67 65.72 65.34 64.53 63.36 62.16 61.37 60.67 59.23 58.67
52.94 45.20 42.81 45.13 45.92 48.73 52.93 51.37 55.52 57.11 53.81 54.42 56.28 60.25 60.32 59.78 60.76 58.77 57.86 57.88 58.10 58.60 60.05 60.44 58.65 57.88 57.73 58.23 60.02 62.01 66.12 65.66 65.34 65.24 64.53 62.94 62.71 62.40 62.71 64.15 64.35 64.30 63.54 62.56 61.24 60.05 59.41 58.17 57.24
48.57 44.90 45.43 49.63 49.17 48.38 50.78 51.23 52.04 54.07 50.46 50.54 51.45 57.96 60.06 59.71 59.25 58.34 57.14 56.02 56.22 56.78 57.98 58.49 58.18 58.38 58.72 59.73 57.61 59.23 63.03 63.73 63.34 62.96 62.19 61.67 60.62 61.93 62.72 63.56 63.45 63.09 62.37 61.62 60.92 60.11 59.01 57.77 51.48
49.51 45.45 48.77 49.37 50.70 51.42 50.30 50.62 53.45 51.52 48.37 51.02 49.79 55.96 59.44 60.10 58.29 57.73 57.22 56.63 55.60 56.60 57.41 57.84 58.02 58.63 58.78 58.70 57.94 61.09 61.68 62.49 62.78 62.58 62.42 61.95 62.14 61.52 60.99 60.21 59.28 58.71 58.90 54.86 56.21 55.87 54.59 55.16 53.39
47.40 49.73 49.16 49.73 51.13 50.71 49.96 51.95 50.96 54.10 53.10 55.34 54.93 60.01 59.15 58.80 57.87 57.04 56.45 56.55 56.07 56.33 57.09 57.72 58.16 58.65 58.47 59.10 60.21 60.84 61.19 61.12 60.83 63.12 62.72 62.31 61.49 61.21 59.75 58.60 58.68 57.54 56.86 54.06 55.55 56.15 55.04 53.39 53.16
48.75 49.25 49.88 50.97 50.77 50.81 52.59 51.60 51.48 53.42 58.24 60.51 60.85 59.06 58.41 58.45 58.18 58.26 57.43 56.78 56.60 55.72 56.63 56.93 58.22 58.37 58.67 58.81 60.04 60.69 60.66 60.44 61.59 62.85 63.38 62.45 61.55 61.07 60.25 59.96 58.65 57.89 58.81 57.55 57.39 54.93 53.85 52.96 52.19
50.74 50.64 50.21 50.83 50.49 51.26 50.67 51.01 53.73 52.47 51.09 59.29 59.17 58.52 58.97 59.01 58.50 57.24 56.69 55.86 56.01 56.08 56.12 57.11 57.73 59.42 58.35 58.94 59.45 59.71 60.59 61.95 61.96 62.86 63.73 64.32 62.33 62.26 60.59 60.96 59.31 59.17 59.00 58.40 57.09 55.08 53.44 52.38 51.71
51.45 47.83 49.15 49.59 50.58 50.27 51.82 48.52 48.76 52.74 54.67 57.61 57.63 57.89 58.34 58.82 59.91 56.49 56.92 55.98 55.54 55.44 56.41 56.61 57.97 58.68 58.58 57.54 57.69 58.36 58.50 61.23 61.67 62.20 63.90 64.04 63.87 62.93 61.89 60.49 60.01 59.18 58.98 58.37 57.26 55.29 54.32 52.12 52.83
48.40 48.50 43.60 48.89 50.59 51.78 50.88 44.92 50.02 52.83 53.23 55.98 57.83 58.16 58.10 59.05 59.27 58.04 56.52 55.85 55.71 56.00 56.99 57.44 58.48 57.84 58.20 58.98 57.73 60.12 60.22 60.54 61.31 62.14 62.53 63.27 63.14 62.92 61.88 60.79 59.88 59.30 58.84 57.28 55.12 54.08 52.85 52.31 50.90
46.56 41.56 43.63 46.11 51.57 50.86 50.86 46.25 50.08 51.81 53.28 53.42 56.87 57.60 57.35 58.35 58.02 58.41 58.28 57.47 56.79 57.30 56.99 56.01 57.47 58.25 59.68 60.76 60.78 61.37 61.15 61.18 61.14 61.86 62.45 62.67 62.59 62.80 61.66 61.00 59.78 59.25 58.07 56.72 56.22 54.90 54.28 51.50 50.11
43.13 43.42 45.05 44.27 49.07 50.46 48.01 46.90 48.49 51.14 54.16 53.73 56.05 57.10 56.92 57.60 57.90 58.92 59.44 59.00 59.01 58.21 56.24 56.62 57.61 58.96 60.51 61.53 61.88 61.27 60.99 60.75 60.76 60.62 61.97 62.45 61.63 62.81 62.18 60.58 59.83 58.03 57.29 56.30 54.88 54.86 54.07 52.58 50.94
47.60 45.32 44.66 47.29 50.13 48.99 47.34 48.29 50.39 52.02 54.22 55.37 55.71 56.42 56.87 56.97 59.26 60.20 60.02 58.66 57.75 58.73 58.53 58.82 58.56 60.92 61.06 59.73 59.38 59.10 59.23 59.45 59.75 60.48 61.50 63.56 63.63 63.60 62.33 60.38 60.32 58.09 56.74 55.54 55.04 55.07 53.53 51.28 51.33
47.01 45.04 44.48 47.51 49.79 48.08 46.89 46.85 50.37 52.89 53.28 54.48 55.32 55.91 56.90 57.35 58.33 58.82 59.29 58.53 58.09 58.86 59.81 60.09 60.50 61.17 61.28 60.81 60.40 59.58 59.79 60.09 59.88 60.70 61.63 63.49 63.43 63.56 63.23 62.01 60.51 58.05 56.87 56.37 55.91 54.33 52.36 52.47 52.01
46.14 44.36 44.81 45.38 47.97 48.64 47.18 44.80 47.60 50.65 53.61 54.47 56.34 56.95 57.87 57.99 57.78 58.61 58.71 58.96 59.35 59.00 59.61 59.92 60.28 60.41 61.26 61.51 61.21 60.55 60.04 59.50 59.26 59.71 60.48 62.95 63.71 63.19 62.71 61.86 60.94 58.32 57.50 56.32 56.21 55.05 53.98 51.19 52.22
43.65 48.09 47.79 46.34 44.77 40.29 47.57 37.34 46.04 48.63 49.69 52.73 54.32 56.13 56.15 57.97 58.72 58.79 59.42 58.58 59.12 59.27 60.38 60.81 60.66 60.37 61.19 62.41 61.35 59.81 57.53 56.22 58.28 58.76 60.50 62.75 63.49 62.64 62.80 61.57 60.81 58.57 57.07 55.51 55.27 55.42 53.62 52.68 50.12
46.39 49.97 48.47 46.96 44.53 44.32 44.51 41.37 45.20 48.39 47.14 49.30 53.37 55.85 56.44 57.28 58.46 58.48 58.67 59.94 60.11 60.81 60.38 61.24 61.90 61.45 61.79 62.12 62.03 60.95 58.87 58.55 58.65 59.78 59.62 61.77 61.77 61.42 61.49 60.90 59.87 56.45 55.88 55.07 55.78 53.73 53.23 52.51 51.11
50.29 47.98 47.53 47.19 44.65 38.27 43.23 42.52 42.23 45.44 47.81 49.67 53.30 55.88 57.49 57.42 58.26 59.85 60.88 61.21 61.34 61.97 62.03 61.37 61.75 61.95 62.58 62.83 62.28 62.00 59.99 59.31 58.11 58.70 58.98 60.84 60.88 60.92 60.88 59.87 57.17 56.82 55.07 54.55 55.01 54.24 52.79 51.17 46.52
48.19 44.91 38.08 36.63 36.94 36.84 45.42 42.79 44.89 48.18 50.35 51.30 51.29 55.19 57.21 58.11 57.87 58.37 60.06 60.89 61.40 61.54 62.02 62.38 62.00 61.50 62.28 63.11 62.88 62.04 62.85 60.60 60.21 59.27 59.86 60.24 60.00 58.87 58.39 57.94 56.05 55.32 55.00 54.28 53.75 52.81 50.50 46.70 44.15
45.98 44.76 39.28 31.98 31.68 36.92 43.58 39.61 43.74 50.25 51.96 51.99 52.64 54.94 56.33 57.62 58.85 58.41 58.59 60.96 61.41 61.91 62.50 62.80 62.52 61.92 62.61 62.75 63.26 63.40 62.95 63.04 61.91 61.64 61.01 59.84 59.59 59.23 58.82 57.57 56.32 55.43 53.86 53.35 52.06 49.20 46.12 45.87 46.50
46.44 43.49 47.88 40.96 41.51 37.83 38.99 45.26 48.36 50.28 49.47 50.54 51.74 53.61 54.63 55.74 57.26 59.02 60.02 60.07 61.54 61.90 62.55 63.03 63.02 62.94 62.96 62.69 62.92 62.67 63.65 62.87 62.78 62.86 61.49 59.89 59.75 59.66 58.99 57.56 54.67 52.41 52.38 51.74 48.10 45.87 44.96 45.22 43.85
47.17 49.89 42.14 43.40 32.79 32.77 38.71 40.79 41.85 46.38 47.89 49.95 49.96 52.08 54.05 56.76 57.93 58.02 59.95 60.85 61.21 62.74 63.06 63.58 63.68 63.51 63.66 63.74 63.58 63.55 63.65 63.95 63.67 62.77 61.25 60.47 59.68 56.69 55.09 53.00 52.37 51.52 48.65 46.29 45.79 45.96 44.05 43.19 42.66
45.06 44.71 46.53 45.70 43.01 36.94 35.31 39.10 47.94 47.72 49.60 49.33 51.47 52.39 54.07 55.59 56.89 58.11 59.32 61.42 61.95 62.42 63.04 63.74 64.06 63.74 63.70 63.85 63.81 63.38 64.08 62.66 61.49 60.07 59.45 59.26 58.20 57.13 55.09 53.15 50.15 47.50 45.27 46.04 44.72 43.79 41.85 40.99 41.38
47.90 45.87 47.03 41.09 39.54 42.11 40.26 40.02 50.01 50.21 51.06 51.74 51.55 52.88 54.70 55.60 56.55 58.19 59.48 60.14 60.92 62.42 62.86 63.90 64.43 64.28 64.51 64.54 63.37 63.19 62.44 60.74 59.77 57.94 57.44 57.00 54.83 54.14 51.89 49.10 46.61 46.02 45.79 45.62 42.89 41.76 41.70 40.77 40.53

GFSSGP_sfc_wetblb_069.txt.gz
Wetbulb
57.72 57.52 54.93 51.72 40.37 36.36 34.15 39.11 44.47 43.09 46.67 54.21 54.50 53.43 52.02 52.54 53.69 49.58 63.57 62.04 63.81 63.55 64.52 66.90 68.95 72.06 72.13 71.74 71.35 71.09 71.21 71.21 71.06 70.77 70.94 71.69 71.87 71.53 70.83 70.22 69.56 69.41 68.72 67.74 67.14 66.05 65.84 66.29 66.23
56.83 58.28 53.99 47.19 35.94 31.01 35.70 42.36 41.65 44.68 52.43 55.38 54.06 54.05 52.10 56.35 62.79 60.90 61.72 63.67 64.75 64.43 64.03 64.19 65.33 69.12 71.88 71.35 70.86 70.78 71.14 71.06 70.79 70.77 71.47 71.67 71.60 70.85 70.03 69.39 68.86 68.95 68.46 67.10 66.33 65.60 65.52 65.69 65.18
57.76 57.48 45.72 39.55 35.76 34.41 37.03 43.69 45.52 50.29 54.10 53.28 51.15 54.78 57.36 53.28 62.73 64.71 66.07 64.37 63.39 63.14 63.64 63.95 66.81 69.83 71.35 70.94 70.52 70.51 70.31 70.07 70.22 70.30 71.19 71.65 71.43 70.32 69.51 68.85 68.51 68.54 67.74 66.64 65.75 65.07 64.49 63.99 64.52
52.04 48.54 45.29 36.89 35.76 40.10 41.98 43.65 49.93 51.43 53.05 53.51 52.37 51.19 57.83 57.53 61.93 64.51 65.27 66.52 67.69 68.10 67.47 67.88 68.89 69.94 70.72 70.82 70.57 70.03 69.57 69.42 69.45 69.84 70.74 71.50 71.19 69.80 69.21 68.45 68.29 68.15 66.98 65.77 64.88 63.85 62.90 63.46 63.60
51.40 45.28 37.01 35.27 38.39 42.68 45.39 46.60 49.94 48.74 50.80 52.69 53.15 50.56 52.84 60.20 63.39 63.39 64.63 65.45 64.75 65.09 64.79 65.23 65.22 67.21 65.34 70.59 70.27 69.51 69.08 69.06 69.19 69.76 70.14 70.47 70.30 69.16 68.54 68.07 67.45 66.98 66.10 64.79 63.89 62.73 62.10 62.61 62.70
44.69 43.35 36.59 36.15 39.32 44.47 47.00 50.71 52.43 51.91 52.64 53.62 52.61 52.87 54.19 60.76 60.57 61.61 64.15 63.66 63.56 63.03 63.27 64.24 65.56 64.63 63.78 62.88 69.00 68.70 68.64 68.77 69.47 69.76 70.02 69.96 69.18 68.44 68.07 67.25 66.70 66.27 65.80 64.50 63.20 62.46 61.76 61.87 61.50
42.56 38.97 35.57 37.63 40.22 42.39 47.96 50.86 52.15 52.76 52.23 53.11 55.15 50.77 56.89 57.96 59.96 61.30 62.21 63.37 63.19 61.74 61.05 61.91 62.50 62.46 63.26 62.38 65.41 66.03 66.77 68.24 68.99 69.13 68.85 68.69 67.46 67.23 67.02 66.51 66.40 65.87 65.28 63.58 62.43 61.76 61.76 61.05 60.44
45.71 40.55 37.15 39.62 39.60 40.63 48.81 49.81 52.33 50.20 49.33 56.94 57.59 53.32 53.75 57.41 59.77 60.13 60.13 60.34 61.10 61.78 59.89 59.76 60.28 60.58 60.63 61.02 62.61 62.76 63.42 65.43 66.87 67.17 66.99 66.19 66.25 66.15 66.12 65.72 65.64 65.21 64.37 62.78 61.52 61.48 60.39 59.13 58.37
46.88 37.38 36.21 39.35 41.66 43.68 49.51 48.28 52.53 53.61 51.35 52.39 58.08 57.93 58.38 59.53 59.11 58.27 58.12 58.24 58.66 59.86 59.51 58.21 58.58 59.39 59.61 59.73 60.82 62.24 63.81 65.56 64.45 65.16 64.94 63.96 63.47 62.91 63.17 64.37 64.56 64.38 63.72 62.85 61.23 60.56 58.99 57.68 56.79
42.09 35.89 39.38 44.99 45.52 45.61 48.08 48.95 48.20 49.62 49.14 49.98 55.43 58.68 59.13 59.56 58.41 56.71 56.39 55.95 56.81 57.17 57.62 57.69 57.22 57.52 58.51 59.56 59.60 60.44 63.23 63.17 62.23 61.43 60.15 60.91 61.11 61.65 62.50 63.28 63.76 63.63 62.99 62.30 61.07 59.69 58.53 54.96 49.32
44.41 40.39 44.77 45.67 46.41 46.28 44.33 46.24 50.94 48.74 47.25 49.11 51.49 56.39 57.77 58.31 58.44 57.04 56.45 55.95 55.93 57.13 57.61 58.14 58.05 58.76 57.52 56.74 58.25 60.09 61.67 62.04 61.47 60.53 59.43 60.91 61.04 60.35 59.79 59.53 59.03 57.96 59.23 56.21 56.05 54.43 52.33 52.53 49.95
41.42 46.56 46.27 45.52 47.10 45.50 44.64 46.63 49.13 48.21 48.45 54.83 54.29 58.33 59.59 57.46 57.13 56.49 55.74 55.28 55.42 55.99 56.69 57.61 58.32 58.63 57.08 57.01 58.15 60.46 61.30 61.30 60.74 60.05 61.04 59.69 58.73 57.66 57.68 57.08 56.55 54.44 53.76 51.29 52.06 52.61 51.34 49.97 50.63
44.98 46.29 47.33 47.67 46.87 46.42 47.79 49.37 50.64 49.72 52.22 55.23 58.15 58.87 58.43 57.84 57.40 57.34 56.90 56.64 56.33 55.84 56.81 57.93 58.33 57.96 58.77 59.53 60.42 60.62 60.83 59.86 60.50 60.63 61.09 59.46 58.57 56.79 57.13 56.87 55.88 55.29 54.47 52.71 53.86 51.59 51.54 49.95 49.58
48.25 47.78 46.70 47.38 47.09 47.56 46.99 48.88 51.38 50.08 53.61 54.37 57.61 57.33 57.31 57.78 57.76 57.02 55.64 55.24 55.70 55.97 56.37 57.95 58.24 58.24 59.18 58.51 58.98 59.89 60.49 59.64 60.85 60.65 60.80 60.50 59.11 57.89 57.24 56.62 56.00 55.43 56.04 55.72 53.24 51.93 50.86 49.71 49.25
49.26 45.25 46.10 46.56 46.90 45.91 48.44 43.76 46.48 51.80 53.23 53.82 57.05 57.23 57.36 58.28 57.41 56.31 56.26 55.69 55.87 56.09 56.76 57.41 58.10 57.94 57.58 57.16 58.49 59.06 59.61 60.64 60.05 60.70 61.47 60.22 60.19 57.84 58.35 57.30 56.44 56.73 56.35 55.82 53.61 52.63 51.01 49.93 49.62
45.19 44.01 38.69 45.34 46.82 47.60 47.40 39.01 47.67 52.57 53.96 54.62 55.26 55.82 56.25 56.91 56.67 56.66 56.40 55.89 55.85 55.95 56.00 57.58 58.79 57.24 57.85 57.83 58.32 58.54 58.53 59.37 59.55 59.96 60.35 60.74 61.22 60.24 58.97 57.89 57.75 57.19 56.91 55.21 53.17 52.05 50.74 49.65 48.54
41.43 37.18 39.25 42.22 47.44 47.12 45.27 40.94 48.59 51.75 52.91 52.12 55.06 55.58 55.60 55.65 55.71 55.63 55.31 55.06 55.69 55.70 56.78 57.08 58.01 57.22 57.87 57.62 57.58 57.75 57.73 57.85 58.49 58.92 59.31 60.27 60.89 60.57 59.50 58.39 57.99 57.08 55.74 54.15 53.34 52.00 50.98 49.63 48.10
37.49 40.80 40.77 39.47 44.52 47.03 44.45 43.72 47.16 49.71 51.53 51.85 52.33 53.06 54.71 54.57 55.10 55.23 54.75 54.57 55.44 56.01 56.39 56.56 57.30 56.85 57.06 57.51 55.53 57.25 56.03 57.13 57.45 58.49 59.71 59.94 59.91 60.59 59.66 59.03 57.09 55.90 55.02 54.34 53.53 52.07 52.59 50.39 48.31
43.79 42.89 40.54 43.05 47.68 46.07 44.62 43.41 46.26 49.54 51.38 50.42 51.15 52.88 53.73 54.33 56.44 56.39 55.39 55.11 55.19 55.26 54.54 54.79 55.61 55.72 56.54 55.46 54.72 56.78 55.33 55.44 55.88 56.76 59.89 59.73 59.50 60.31 59.05 58.09 57.21 55.39 54.74 54.08 52.89 51.85 51.60 49.86 49.52
45.31 42.26 40.59 45.46 47.97 44.83 41.41 40.52 47.46 48.80 48.84 50.44 51.44 52.37 53.65 54.93 55.16 56.23 55.62 55.32 54.40 52.69 53.22 54.10 54.75 55.20 57.28 57.92 57.62 56.01 56.74 55.66 55.80 56.44 57.64 60.67 60.03 60.32 59.77 58.39 57.82 55.48 54.47 54.11 52.29 52.17 50.88 50.99 49.67
43.86 41.49 40.83 42.27 45.43 45.06 41.60 39.99 44.84 49.30 50.48 51.55 53.14 54.87 54.55 55.05 54.62 55.27 54.34 54.02 53.98 52.21 52.92 53.87 55.01 56.46 58.41 58.09 57.13 55.68 56.11 55.91 55.58 55.27 57.07 60.33 61.52 61.76 61.20 59.86 58.84 56.32 55.63 54.63 52.87 52.04 51.43 50.65 51.35
40.19 45.77 45.43 44.97 41.39 35.07 41.72 32.67 41.82 45.69 48.24 50.20 52.56 53.61 53.77 54.91 56.00 55.87 54.29 53.14 54.31 54.88 55.68 56.27 56.74 58.12 58.57 58.18 57.34 56.28 55.97 55.24 56.34 55.70 56.27 60.60 61.48 61.69 61.48 60.91 60.11 57.40 56.58 55.04 53.94 55.22 54.53 51.85 50.00
43.45 49.16 46.51 45.40 40.35 37.84 38.71 35.37 41.00 45.35 44.52 47.03 48.73 53.04 53.67 54.73 55.07 54.90 54.71 54.79 55.22 56.33 57.26 57.43 57.81 57.90 58.52 58.55 58.27 56.94 55.56 55.61 55.25 55.54 56.56 59.86 60.96 61.27 61.42 60.26 58.96 56.91 56.65 55.51 55.14 54.79 53.55 52.93 51.50
48.41 46.49 45.11 43.24 39.66 31.70 38.54 39.11 38.07 40.71 44.51 47.53 49.40 52.58 53.10 54.64 55.57 56.10 56.57 57.07 56.73 57.55 57.46 57.80 57.42 57.40 58.13 58.49 58.78 59.08 57.67 54.70 54.08 55.29 55.87 58.68 60.27 60.45 60.16 60.51 59.49 57.30 55.48 54.63 53.53 53.65 53.40 51.23 48.57
45.14 39.99 32.19 29.67 29.17 28.99 43.08 39.73 40.06 46.72 48.11 48.67 49.12 51.94 52.49 54.05 55.43 55.92 55.80 55.70 56.50 56.58 57.05 57.55 57.86 57.38 57.89 57.97 58.62 58.68 58.69 56.23 54.99 54.70 56.20 58.08 58.79 59.66 59.51 58.55 55.89 55.58 53.89 53.17 53.26 53.10 50.88 47.89 46.48
42.26 40.70 32.96 27.96 27.39 32.57 41.93 36.28 39.96 47.74 49.31 49.72 50.48 53.47 54.05 53.49 55.07 55.78 56.24 56.99 56.68 57.17 57.40 57.85 57.81 58.44 58.92 58.65 59.19 59.44 59.05 58.18 57.44 56.62 57.19 59.06 59.12 59.01 57.20 55.46 54.20 53.47 53.01 52.37 52.08 50.09 46.88 46.30 45.49
43.28 38.54 43.90 38.28 37.94 34.28 38.30 41.33 45.63 46.84 46.35 47.46 47.73 49.84 52.37 53.40 54.41 55.53 57.14 57.53 58.02 57.89 58.21 58.33 58.28 58.67 59.57 59.52 59.93 59.83 59.62 59.53 58.24 58.59 58.18 59.24 58.78 57.37 56.57 55.93 53.60 52.24 51.46 51.14 49.59 47.29 46.30 45.92 45.07
44.54 46.97 38.44 40.46 30.56 29.91 36.46 38.02 37.60 43.36 45.79 46.18 45.38 45.79 48.86 51.13 52.18 54.76 55.93 58.47 59.20 59.62 60.06 60.01 60.04 59.57 59.73 59.84 59.94 60.47 60.30 59.70 59.96 59.64 57.65 57.99 58.11 56.85 55.39 54.91 53.52 52.44 50.49 47.83 47.11 45.47 45.33 44.20 43.46
42.11 40.77 43.23 43.36 38.61 30.20 28.64 34.03 43.60 44.45 48.01 45.44 46.11 47.58 49.19 49.98 50.96 52.43 53.67 56.95 59.76 60.31 60.24 60.32 60.40 60.55 60.44 60.63 59.97 60.06 59.26 59.81 59.64 59.13 58.94 59.14 57.66 55.85 54.24 53.24 52.42 49.45 47.60 46.68 45.96 44.45 43.68 42.52 42.02
45.22 42.40 43.40 35.18 35.68 37.67 32.44 34.20 47.11 45.95 46.57 47.26 47.42 48.71 48.76 51.21 52.01 53.18 53.82 54.89 56.40 59.30 60.00 60.25 60.80 61.04 61.28 61.42 60.80 60.14 59.11 59.55 58.90 59.16 59.37 57.51 56.09 54.96 53.82 51.06 48.87 47.11 46.11 45.71 44.53 42.73 42.34 41.90 41.49

GFSSGP_sfc_wetblb_072.txt.gz
Wetbulb
57.13 56.41 53.26 50.24 38.80 34.47 31.56 37.14 40.28 42.02 43.56 51.81 53.16 52.53 56.75 57.77 54.62 48.55 62.90 62.83 64.23 65.96 69.72 71.32 71.12 71.41 71.45 70.67 71.18 71.07 71.14 71.13 71.03 71.41 71.58 71.47 70.92 70.59 69.95 69.37 69.08 68.80 68.21 66.96 67.93 67.67 67.41 67.06 65.90
55.38 56.66 52.12 44.56 34.69 29.17 32.45 38.92 39.43 45.08 50.84 53.87 53.09 56.17 55.84 55.41 61.09 59.35 62.61 65.81 64.35 65.36 64.70 68.05 66.86 68.37 68.26 70.54 70.68 70.98 71.32 70.86 71.12 71.54 71.64 71.10 70.73 70.07 69.51 69.17 68.52 68.32 67.94 66.67 67.18 67.18 66.52 65.05 64.64
55.20 55.72 45.63 39.26 32.09 29.84 32.58 39.25 42.02 50.62 53.33 51.96 50.13 57.79 55.04 53.62 61.13 63.56 65.62 64.58 64.71 64.28 64.28 64.83 66.88 66.05 69.20 69.96 70.09 70.78 70.62 70.26 70.95 71.42 71.30 70.82 70.27 69.78 69.36 68.68 67.96 67.71 67.33 65.82 66.67 66.13 64.65 63.57 64.74
50.20 46.74 43.39 35.65 33.23 37.92 39.75 44.40 46.04 49.93 51.46 51.90 51.22 50.81 55.98 57.94 58.88 63.20 65.21 66.05 65.56 66.54 64.68 64.30 65.97 66.43 67.34 69.33 69.73 70.45 69.97 69.86 70.36 70.86 70.64 70.29 69.90 69.75 69.11 68.14 67.59 67.35 66.67 65.26 65.13 64.24 63.28 63.50 64.78
49.23 42.64 35.61 32.51 35.47 38.74 43.60 45.52 46.31 48.36 50.03 52.10 51.00 49.63 52.65 58.14 62.41 62.11 64.03 64.88 65.29 64.89 64.62 66.99 65.01 65.34 64.63 65.28 65.33 69.86 69.63 69.64 70.16 70.54 69.68 69.45 69.47 69.15 68.24 67.45 66.98 66.56 65.73 63.83 63.02 62.75 63.37 63.02 64.12
44.56 41.18 33.20 31.30 36.82 41.54 43.81 48.66 51.11 50.62 52.39 52.85 52.17 51.64 53.65 59.04 58.07 60.84 63.47 62.76 62.49 62.09 63.67 64.99 64.96 65.37 64.05 63.06 64.39 68.60 68.76 69.16 69.67 69.78 68.91 68.90 68.76 68.20 67.61 66.92 66.33 65.83 65.10 63.80 62.43 62.82 62.91 62.48 63.11
41.79 37.42 33.29 34.18 38.57 40.10 46.00 50.14 51.77 50.89 51.47 51.86 55.22 49.25 55.61 56.89 59.48 60.61 61.30 62.40 60.87 61.13 62.21 62.69 63.19 63.34 63.22 62.53 64.27 66.57 66.31 68.23 69.16 68.70 68.01 67.85 67.53 66.84 66.76 66.27 66.02 64.89 63.94 63.01 62.38 61.89 61.79 61.59 61.05
43.48 40.01 34.18 36.93 38.23 37.81 45.24 49.20 50.70 50.24 49.66 56.41 57.69 52.36 50.92 56.34 58.77 60.03 59.85 60.55 59.54 59.38 60.10 60.35 60.72 60.65 60.46 60.56 62.03 62.42 63.18 65.11 67.42 67.35 66.99 66.40 66.03 65.96 65.63 65.33 65.12 64.50 63.45 62.43 61.78 61.01 60.87 60.55 60.26
44.15 36.35 34.32 36.98 37.48 40.41 46.93 47.29 51.57 52.57 50.35 54.39 57.36 57.10 57.47 58.19 58.60 58.45 58.42 58.72 58.87 58.34 58.45 60.23 60.12 59.98 59.76 59.99 61.09 61.08 62.19 63.97 65.86 65.90 65.72 64.39 63.77 63.30 62.36 64.00 64.19 63.93 63.13 61.99 61.07 60.61 58.83 57.49 58.97
40.84 34.67 37.84 42.58 42.76 43.56 45.58 46.12 46.10 48.60 48.84 50.15 54.76 57.93 58.16 57.70 57.70 56.94 56.20 56.36 56.70 56.36 57.10 58.64 58.97 58.77 59.12 59.43 58.78 58.99 60.75 62.40 62.73 62.27 61.41 62.15 61.59 61.74 62.43 63.33 63.48 63.29 62.47 61.15 60.32 59.91 58.22 54.01 49.11
41.25 39.52 44.70 45.62 45.55 43.20 43.49 48.02 49.43 47.98 46.62 51.06 50.95 55.19 57.85 57.92 57.31 56.53 56.14 56.34 56.40 56.72 56.96 57.24 58.03 58.76 57.63 57.76 57.62 59.48 61.05 61.62 60.66 60.45 60.83 61.26 61.57 61.07 60.08 60.07 59.22 58.53 58.77 55.18 53.95 51.29 50.97 48.89 47.84
39.90 44.45 45.30 46.31 47.08 43.88 42.09 49.06 49.08 46.18 50.70 54.58 55.29 56.65 57.03 57.22 56.89 56.66 55.46 55.46 56.02 56.76 56.86 57.67 58.29 57.50 57.56 56.94 57.36 59.51 60.52 61.10 60.22 60.27 60.63 59.71 58.25 56.90 56.18 56.08 54.78 53.65 52.88 51.17 50.61 51.27 49.14 48.51 48.43
41.91 44.18 46.11 46.54 46.07 44.50 47.47 48.71 49.85 48.05 53.28 56.59 57.97 57.81 57.12 56.24 56.90 56.99 55.86 56.18 56.04 55.86 56.98 57.74 57.81 56.27 57.21 57.56 57.77 58.80 60.60 59.88 59.69 60.51 59.61 58.59 56.71 55.70 54.99 54.06 52.87 52.59 51.03 52.30 52.14 49.93 49.04 47.91 48.00
45.01 45.63 45.90 46.54 45.74 45.59 45.94 48.31 48.61 49.61 52.84 55.58 57.21 56.30 56.30 56.50 56.86 56.28 55.59 55.41 55.61 56.36 57.10 57.76 57.54 57.54 57.77 58.43 59.85 60.40 60.11 59.99 60.12 60.60 59.73 58.37 56.50 55.72 54.76 53.70 53.54 53.27 51.39 53.57 51.68 50.73 49.52 48.56 48.23
47.17 43.75 44.88 45.44 45.15 45.10 47.48 42.37 45.45 50.02 52.48 54.96 54.74 55.66 55.88 56.95 56.97 55.65 55.62 55.39 55.96 56.60 57.69 57.26 58.05 58.70 58.72 59.01 59.94 59.97 59.53 60.44 60.03 60.53 59.84 58.88 56.93 55.56 55.66 53.85 53.82 53.92 53.55 53.90 51.42 50.52 49.39 48.19 48.32
43.15 41.81 36.88 42.78 44.43 46.77 44.28 38.87 46.17 50.69 50.91 53.52 54.28 54.82 55.60 56.86 56.06 55.86 56.37 56.00 56.17 56.53 56.86 57.84 58.67 58.00 57.91 58.01 59.43 59.41 59.15 59.91 60.31 60.38 59.76 59.24 57.73 56.88 56.75 55.28 54.85 55.56 54.88 53.96 52.09 50.79 49.08 47.81 47.28
38.47 33.90 37.28 40.96 47.39 44.84 43.85 39.69 46.60 51.45 53.90 53.40 53.81 54.69 54.87 55.74 56.05 56.62 56.71 56.20 56.08 56.50 56.89 57.83 57.37 56.56 56.46 56.76 56.73 57.67 57.77 58.68 59.50 59.79 59.46 58.72 58.50 58.66 57.45 56.34 56.00 55.63 54.93 53.21 52.41 50.58 49.63 47.72 46.84
34.30 36.36 35.89 38.11 43.37 41.62 41.12 41.79 45.72 48.87 50.42 52.55 53.00 54.02 54.00 54.97 55.37 56.53 55.98 56.10 56.06 56.08 56.86 57.55 56.40 56.66 56.88 57.18 56.54 56.99 56.49 57.63 58.20 58.38 58.57 59.35 59.54 59.02 57.43 56.42 56.41 55.23 54.04 52.28 51.47 50.58 50.57 49.14 47.73
40.83 39.33 37.94 41.65 46.04 45.02 43.40 41.69 45.20 46.19 49.35 49.37 51.31 51.63 52.61 54.16 55.41 54.75 54.17 53.99 54.89 55.64 56.36 56.79 56.19 56.54 57.18 55.54 54.74 55.11 54.88 54.40 55.20 56.80 58.30 58.57 58.68 58.80 57.41 57.35 55.77 54.48 53.50 52.86 51.95 50.70 49.91 50.04 47.48
41.27 39.30 38.98 43.14 46.25 43.86 40.73 39.39 44.35 47.38 48.53 50.38 52.01 51.82 52.00 53.46 53.96 53.93 53.42 52.77 53.78 54.24 54.64 54.26 55.57 55.43 55.62 55.52 54.15 55.94 54.47 54.20 56.50 56.09 58.01 58.82 58.20 58.63 57.72 57.29 56.04 54.13 53.05 52.50 51.86 50.81 49.72 49.75 48.33
41.08 39.44 39.91 40.25 43.09 42.68 39.75 37.58 42.63 47.59 48.63 49.91 51.76 52.56 52.87 53.29 53.20 53.72 53.33 52.38 53.28 53.44 53.36 53.31 54.90 54.87 55.46 55.92 54.37 54.37 54.78 54.11 54.15 53.97 55.58 58.36 58.58 58.55 58.68 57.54 56.66 55.20 53.78 52.77 51.55 50.47 50.12 48.51 49.41
38.16 44.18 43.61 41.99 39.69 34.36 39.16 30.96 39.81 43.84 46.25 48.57 49.97 50.66 51.83 53.87 54.37 54.50 53.70 52.92 52.62 52.40 53.05 53.16 53.96 53.59 55.21 56.61 54.98 54.45 54.54 53.84 54.99 54.45 54.84 56.72 59.07 58.93 59.58 58.84 57.33 55.69 54.62 53.18 52.93 52.55 51.29 51.59 50.82
41.71 45.85 44.80 43.74 39.42 35.86 36.63 33.31 37.53 42.72 42.48 45.24 48.69 50.68 52.59 54.42 54.05 54.03 53.60 53.82 53.32 52.22 52.00 52.63 53.46 54.23 55.68 57.09 56.09 55.92 54.64 55.85 54.81 53.80 54.15 55.73 58.77 59.64 59.79 59.59 58.21 56.62 55.96 55.03 54.77 53.35 52.14 52.50 51.04
47.40 44.45 43.34 40.69 37.65 30.81 36.31 35.65 34.92 38.63 42.89 44.98 50.08 51.71 53.06 54.30 54.49 54.73 54.34 53.96 51.92 51.84 51.97 52.62 52.97 54.04 55.86 57.40 56.75 56.00 55.47 53.34 53.21 54.62 54.12 54.99 58.32 59.45 59.99 60.08 59.83 58.84 56.18 54.75 54.76 53.63 53.36 52.47 50.96
44.72 38.53 31.20 29.50 28.67 28.20 40.70 37.06 38.28 43.73 45.95 46.82 49.70 51.56 53.26 54.77 54.50 54.31 53.04 52.43 52.32 51.89 52.22 53.50 54.25 54.39 56.36 57.44 56.99 56.20 55.46 54.02 54.26 54.12 54.98 54.58 57.19 58.48 59.10 59.38 58.20 56.36 56.48 54.32 53.83 53.39 52.86 51.23 50.29
41.29 39.59 32.21 27.23 26.35 30.24 39.72 34.42 39.28 45.87 48.68 48.59 49.95 52.92 53.89 53.74 54.53 54.46 54.34 53.61 53.27 53.79 54.49 55.03 55.04 55.42 56.73 57.05 57.22 57.62 57.15 56.95 56.00 55.10 55.75 55.72 56.49 58.44 60.07 59.48 57.60 55.52 55.34 53.03 52.14 52.05 49.25 48.55 48.10
41.20 36.84 42.78 36.34 36.52 30.84 35.13 40.71 43.70 44.79 44.60 45.76 46.82 50.79 51.98 53.04 53.99 54.17 54.85 54.80 54.77 54.92 55.28 56.20 56.31 56.40 56.93 56.81 56.78 56.67 57.37 57.70 57.27 56.40 54.82 56.31 57.35 58.27 56.76 57.16 56.06 55.40 53.75 52.63 51.40 49.27 47.70 47.86 46.40
43.47 45.49 37.12 38.46 29.46 27.42 33.99 35.61 36.17 41.50 43.67 43.93 45.05 47.75 50.41 52.66 54.17 54.94 55.42 55.54 56.09 56.51 56.59 56.88 57.09 56.75 57.15 57.29 57.13 56.70 57.02 57.72 58.35 56.22 55.37 56.28 56.24 55.86 56.40 54.82 53.32 53.02 52.76 51.08 49.98 47.90 46.56 46.27 45.33
40.53 39.81 40.92 41.94 37.69 30.07 27.45 32.17 41.55 43.27 44.60 44.20 44.23 46.62 48.03 50.94 51.20 53.46 55.49 56.66 56.97 57.07 56.90 56.81 56.81 56.96 57.13 57.98 58.10 57.43 57.75 58.16 58.16 57.10 57.00 57.63 57.34 57.32 57.77 55.98 53.80 53.10 52.21 50.19 48.06 46.51 45.48 44.98 43.88
42.99 41.84 40.86 34.29 34.94 36.87 31.35 33.17 43.82 44.62 45.83 45.37 45.12 47.32 47.84 49.40 50.01 52.13 54.59 55.73 56.53 57.03 57.27 56.89 57.35 57.37 57.87 58.93 59.63 58.92 58.16 58.49 58.12 58.20 58.37 58.77 57.58 56.78 55.20 54.46 53.11 51.27 49.77 48.44 46.42 44.83 44.54 43.31 42.62

GFSSGP_sfc_wetblb_075.txt.gz
Wetbulb
56.87 56.00 51.85 48.05 37.63 34.34 30.64 34.39 38.67 40.52 42.38 49.81 52.10 54.98 54.79 56.09 52.81 46.15 61.63 63.17 64.70 68.04 69.84 70.92 70.88 71.38 71.29 71.09 71.39 71.26 71.83 72.00 71.85 71.43 71.13 70.99 70.77 70.48 69.87 69.56 69.27 69.34 69.64 68.55 68.36 68.20 68.10 67.11 66.45
54.07 54.69 49.88 41.52 33.53 28.41 31.27 36.72 38.19 41.92 49.30 52.59 53.94 56.73 54.95 54.63 59.34 59.29 60.87 63.71 65.48 66.00 65.58 68.05 67.32 68.67 70.82 70.89 70.87 70.87 71.26 71.87 71.59 71.43 70.94 70.72 70.28 70.02 69.59 68.93 68.17 69.12 69.24 68.30 67.96 67.19 66.74 66.33 66.36
53.23 53.23 43.84 37.25 30.20 29.56 31.68 38.31 41.03 47.93 52.02 50.44 49.26 56.75 54.81 54.47 60.82 62.77 64.31 65.60 64.63 64.23 64.61 66.43 65.98 65.69 67.17 68.34 67.97 68.83 69.93 70.08 71.22 70.95 70.91 70.55 70.14 69.75 69.12 67.88 67.42 68.46 68.85 67.64 66.59 65.39 65.81 66.12 65.24
49.03 45.97 41.45 35.06 31.36 35.90 37.90 41.39 43.63 46.20 50.40 51.09 50.15 49.87 55.36 57.59 59.34 62.43 63.98 65.31 62.74 63.80 64.10 65.87 66.29 65.92 66.95 68.13 68.89 67.70 68.61 69.02 70.09 70.62 70.52 70.11 70.02 69.41 68.51 67.47 67.15 68.25 68.37 66.16 64.46 64.27 65.09 64.87 64.31
47.12 41.42 34.64 31.21 33.03 37.53 40.65 43.04 44.35 43.51 48.39 50.32 49.51 47.34 51.09 57.33 61.55 61.26 63.63 64.36 65.39 64.03 65.02 63.72 65.63 65.73 65.67 65.95 66.30 68.12 68.36 68.85 69.35 69.98 69.58 69.47 69.37 68.69 67.72 66.82 66.63 67.03 66.75 64.52 63.66 65.16 65.82 64.38 63.24
42.60 39.40 32.46 30.16 34.29 39.92 42.18 44.09 49.83 47.11 50.05 51.33 51.51 50.50 51.74 58.57 57.12 61.22 62.79 61.46 62.49 63.14 64.70 63.86 65.61 64.93 64.58 63.62 64.07 65.70 66.99 67.45 68.78 69.14 69.01 69.01 68.59 67.75 67.27 66.37 65.84 65.36 65.03 64.24 63.90 64.99 64.44 63.56 62.33
39.93 36.35 31.69 31.79 35.85 38.97 41.27 45.25 49.15 50.29 50.92 50.13 53.87 47.74 53.18 56.33 58.12 61.07 61.43 60.95 60.72 62.25 63.13 63.58 63.96 63.89 64.25 64.92 64.70 65.23 65.76 67.09 67.85 68.22 67.95 67.69 67.04 66.63 66.38 65.91 65.13 64.57 63.62 63.31 62.80 63.16 64.07 62.97 61.97
42.05 39.43 33.34 34.00 36.02 36.89 42.35 46.29 49.64 49.81 48.71 54.71 56.62 51.39 49.47 55.30 58.83 60.25 60.49 59.48 59.28 60.12 60.73 60.81 61.85 61.75 61.23 61.33 65.30 65.92 65.76 65.56 66.11 66.17 67.03 66.37 66.03 65.84 65.58 64.82 64.24 63.44 62.68 62.45 61.92 61.76 62.55 62.98 61.58
41.61 35.54 31.41 35.18 35.45 39.37 42.34 44.81 49.50 51.59 49.94 54.20 56.49 55.77 56.19 57.52 59.18 58.87 58.28 58.00 58.00 58.70 59.68 60.34 60.26 60.28 59.93 61.13 63.29 63.73 65.02 65.29 65.35 65.77 65.80 64.28 63.79 63.22 61.82 63.33 63.39 62.77 61.85 61.69 60.58 60.19 62.30 62.13 61.17
39.99 34.18 36.58 41.08 41.04 43.11 44.20 44.80 46.40 47.19 47.02 49.19 53.92 57.30 57.02 57.55 56.75 56.79 56.35 55.85 56.31 57.16 58.24 59.14 59.31 59.29 59.86 60.25 59.26 60.46 62.61 62.96 63.37 63.43 63.08 62.43 61.00 60.91 61.76 62.41 62.57 61.85 61.12 60.94 60.65 58.84 58.37 58.01 57.07
39.58 37.85 41.12 44.43 44.43 42.87 40.80 44.13 49.02 47.27 45.23 49.00 50.29 53.40 55.83 56.77 56.35 56.01 56.37 55.89 55.83 56.59 57.44 58.41 58.72 59.07 58.67 58.11 58.72 59.49 60.93 61.42 60.96 61.53 61.43 61.02 61.29 61.23 60.31 59.26 58.19 55.62 56.33 51.72 52.50 51.02 49.32 48.25 50.36
37.97 42.49 42.78 43.93 44.73 41.59 39.99 46.10 47.38 46.50 47.43 53.41 52.50 55.79 56.59 55.84 56.13 55.78 55.23 55.53 55.85 56.23 56.59 57.75 58.29 57.61 56.88 57.69 58.04 59.64 60.71 60.69 60.33 60.74 60.74 59.94 58.90 57.75 56.76 55.93 54.28 51.19 50.01 49.90 50.37 49.16 47.48 47.12 48.22
40.04 42.61 43.87 44.82 44.90 44.21 48.36 47.30 48.48 47.78 52.65 56.05 55.98 55.83 55.98 56.30 56.64 56.54 55.97 56.21 56.51 55.97 56.53 57.53 57.16 56.29 55.97 57.05 58.32 58.93 60.09 60.68 60.47 60.59 59.81 59.02 57.60 56.19 54.88 53.04 51.26 49.65 50.03 50.72 49.08 47.99 47.68 46.65 46.73
43.50 43.35 44.06 44.93 45.50 44.37 46.47 46.92 47.03 48.48 53.00 52.02 55.87 55.49 56.00 55.84 56.44 55.72 55.32 55.29 55.85 56.47 56.81 57.83 56.15 56.43 56.86 56.77 58.14 58.37 60.11 59.60 60.49 60.00 58.85 57.80 56.64 55.35 53.47 51.73 50.58 49.57 50.86 51.14 48.89 48.06 47.28 46.76 46.67
44.43 41.87 42.47 43.24 43.72 43.30 46.87 41.25 44.76 48.05 50.67 50.86 54.95 55.15 56.11 54.95 56.21 54.88 55.52 55.36 56.05 56.73 57.48 57.29 56.29 56.90 57.03 57.05 57.73 59.54 59.64 59.58 59.45 59.20 58.35 56.76 55.70 53.99 52.59 51.53 51.01 50.85 51.61 50.79 49.40 48.54 47.51 46.64 47.07
40.34 39.51 35.21 40.61 42.97 44.62 43.32 36.89 42.68 49.04 49.48 50.10 53.28 54.13 55.17 55.75 55.30 55.43 55.26 56.00 56.40 56.98 56.97 57.76 58.25 57.38 58.26 58.29 58.95 59.96 59.75 59.42 59.70 59.10 58.09 56.45 55.94 55.19 53.30 52.56 52.33 53.06 52.62 51.18 49.77 48.50 47.30 46.53 45.88
36.29 31.45 35.20 38.92 43.60 43.16 40.56 38.62 43.12 48.76 48.57 50.16 53.14 52.99 53.81 54.61 54.52 54.75 55.24 55.98 56.25 56.85 57.50 57.40 58.03 57.38 58.23 58.74 58.52 58.58 58.69 59.09 59.77 59.05 58.39 56.68 56.05 56.47 54.69 53.58 53.47 54.04 53.55 52.23 51.13 49.80 48.74 46.49 45.67
31.89 34.21 33.60 35.95 41.23 42.09 39.12 39.55 43.28 47.45 49.67 50.62 51.95 52.65 53.01 54.11 53.73 55.77 55.63 56.12 56.27 56.61 57.45 57.79 57.69 57.59 57.46 56.93 57.03 57.05 57.07 57.95 59.24 59.10 58.64 57.65 56.11 56.69 55.77 54.55 54.24 54.66 53.47 52.60 51.36 50.06 48.83 47.67 46.66
38.64 36.90 35.46 38.71 43.20 41.25 40.70 39.30 43.48 44.60 48.16 47.76 50.69 51.87 52.08 53.66 54.48 55.40 55.87 55.79 55.97 56.18 56.60 57.28 56.35 56.37 56.56 55.98 55.23 54.93 54.82 56.20 57.01 58.56 58.33 58.21 57.48 57.00 56.29 55.16 54.41 54.18 53.54 53.07 51.73 49.73 49.24 48.23 46.41
38.99 36.53 36.35 40.19 43.70 41.25 39.99 39.95 42.34 44.55 46.20 48.28 49.21 50.27 51.56 53.64 53.94 53.05 52.58 54.45 54.92 54.73 55.91 56.59 55.54 56.09 56.39 56.29 56.22 56.37 55.38 55.39 56.12 56.82 57.09 58.24 57.91 57.49 56.83 56.09 55.04 54.53 53.24 51.69 50.07 49.77 49.21 48.57 46.94
38.48 36.60 36.95 37.89 40.85 40.87 39.24 37.26 40.89 44.98 47.08 48.32 49.33 51.35 51.75 52.86 52.46 52.73 52.49 52.17 54.21 53.77 55.02 55.37 55.04 55.15 56.32 56.04 54.27 55.00 54.94 54.59 53.88 53.46 55.10 56.62 57.60 57.81 57.11 56.51 55.50 53.46 52.68 51.61 50.55 50.20 49.97 48.18 48.45
35.07 41.54 41.35 39.79 36.72 32.44 37.60 29.99 36.29 41.94 44.64 46.86 48.67 48.81 50.01 52.50 53.67 52.99 52.37 50.67 51.83 53.53 53.95 53.88 54.80 54.73 55.36 55.18 52.98 53.48 52.66 51.93 53.31 53.63 53.86 55.62 57.20 56.92 57.60 56.89 55.68 54.49 53.24 51.72 51.76 51.35 50.36 50.18 48.59
39.03 43.62 41.61 40.53 36.80 34.43 34.73 31.55 35.72 40.15 41.42 43.98 47.88 48.72 49.26 52.33 53.32 52.62 52.50 52.36 52.15 53.26 53.16 52.91 53.30 54.69 55.47 54.98 53.43 52.92 51.26 52.04 52.56 53.16 53.57 53.34 56.15 57.30 57.54 57.52 55.74 55.40 54.39 54.43 53.63 52.60 50.68 51.56 51.80
45.63 42.15 41.00 38.87 36.25 29.42 34.90 33.94 32.99 37.20 41.65 44.41 46.21 48.93 50.07 51.64 53.10 53.45 53.54 53.53 52.59 51.72 51.78 52.28 51.85 52.34 53.85 54.43 54.66 52.70 52.68 52.75 52.62 52.32 52.64 52.75 54.33 56.61 57.52 57.71 57.31 56.94 55.97 54.16 53.81 53.55 51.95 51.20 51.04
41.79 36.70 29.40 27.56 27.86 27.65 37.83 34.91 36.39 41.53 43.36 45.72 46.29 48.18 49.96 51.80 52.95 53.07 52.51 52.28 52.51 50.60 50.68 51.29 51.35 51.74 52.85 53.77 55.03 54.49 54.08 53.32 53.57 53.96 54.10 53.28 53.38 55.34 56.95 57.57 57.51 57.92 57.87 55.81 54.56 54.65 53.42 50.89 50.15
38.65 37.75 29.97 26.78 25.63 28.56 37.48 33.25 37.88 44.78 46.13 46.86 47.80 49.92 51.05 51.46 53.41 53.21 53.19 52.31 52.15 50.76 50.28 51.21 51.19 51.42 52.46 53.63 54.99 55.84 55.10 55.02 54.91 54.86 55.32 54.58 54.49 55.28 57.31 58.07 58.50 58.61 56.85 55.85 54.93 54.13 53.49 51.73 51.15
38.43 34.88 41.35 34.15 33.92 30.09 33.23 38.14 42.98 44.74 43.81 44.69 45.74 48.64 49.59 51.30 53.08 53.55 53.91 52.82 52.19 50.61 50.52 50.86 51.49 51.91 52.65 53.73 54.96 55.79 56.13 55.41 55.45 54.87 53.64 54.53 53.96 55.32 56.35 58.40 58.42 56.71 54.21 55.01 54.35 52.84 51.30 50.18 49.29
41.62 44.02 36.03 34.83 28.20 26.65 31.15 33.65 35.23 40.95 42.34 42.90 43.30 46.34 49.81 51.94 53.06 54.04 54.48 53.77 53.12 52.61 51.95 51.83 52.42 52.79 53.64 54.49 55.51 56.20 56.46 56.31 56.33 55.13 54.10 53.59 54.47 55.74 55.93 55.31 54.53 53.96 53.80 52.46 52.20 50.87 49.75 49.51 48.19
38.59 38.21 39.62 38.91 34.36 27.87 26.77 30.74 40.47 42.43 43.64 43.10 43.54 46.40 49.63 51.28 51.94 53.45 54.37 55.27 54.69 54.29 53.73 53.48 53.38 54.04 54.69 55.29 55.74 55.16 54.78 54.73 56.20 56.06 54.88 55.14 56.01 56.35 56.13 56.17 55.51 53.82 52.53 51.35 51.32 49.89 48.12 47.27 46.22
41.75 39.13 40.98 32.37 33.05 33.63 30.16 32.59 43.32 43.61 43.93 42.54 43.31 45.60 48.82 51.40 52.54 53.70 54.14 54.63 54.63 54.72 54.97 54.52 54.86 55.47 56.56 57.37 57.54 56.56 56.83 56.46 56.39 56.64 56.45 56.93 57.01 57.47 57.31 57.55 57.81 53.97 52.29 51.55 50.43 47.71 47.51 46.57 45.65

GFSSGP_sfc_wetblb_081.txt.gz
Wetbulb
60.25 55.73 56.19 52.33 45.02 43.88 40.47 41.60 43.15 43.49 45.35 50.38 56.38 53.76 54.14 56.66 53.25 49.29 64.59 65.99 66.52 69.84 72.03 71.86 71.04 71.82 71.85 71.80 72.38 72.34 72.53 72.58 72.29 71.84 71.89 71.89 71.91 71.62 71.14 70.80 70.31 70.26 69.99 68.52 68.36 68.04 68.09 67.36 66.88
57.13 56.18 53.41 47.74 42.44 39.54 41.17 42.18 42.60 45.88 49.39 53.41 58.56 57.59 56.05 54.93 60.72 60.96 62.93 65.54 66.51 66.34 70.32 71.57 70.50 70.90 71.17 71.29 71.40 72.18 72.52 72.38 71.99 71.96 71.86 71.64 71.28 71.02 70.75 70.31 69.72 69.70 69.71 68.32 67.91 67.66 67.46 66.64 66.16
56.04 53.31 51.05 44.70 40.35 39.82 40.98 42.95 45.75 46.38 48.62 50.27 51.88 57.51 56.87 56.57 61.74 63.15 65.28 65.33 66.24 66.33 67.57 69.81 69.26 69.56 69.85 69.81 69.15 70.33 71.09 70.04 71.01 71.46 71.69 71.18 70.89 70.85 70.48 69.67 69.14 69.21 69.12 67.81 67.36 66.94 66.23 65.55 65.73
52.71 51.87 46.96 43.46 39.54 42.04 43.02 45.83 45.78 45.66 49.71 53.12 52.79 51.22 57.06 59.51 62.15 63.53 63.96 64.86 65.50 66.77 66.75 67.17 67.53 68.55 69.39 69.02 68.92 68.34 68.31 69.09 69.52 70.68 70.97 70.79 70.70 70.58 69.84 69.11 68.67 69.11 69.10 69.03 66.98 66.28 65.32 65.07 64.47
50.98 48.46 43.70 40.61 40.26 42.36 43.81 45.36 45.68 45.70 47.58 52.22 53.05 50.55 53.11 57.93 61.57 61.97 63.28 63.36 64.73 66.04 65.67 66.30 66.57 67.49 67.40 67.59 68.18 67.89 67.25 68.12 68.78 70.06 70.15 70.10 70.13 70.00 69.32 68.83 68.66 68.64 68.70 68.34 66.95 65.11 64.00 64.19 63.77
49.28 46.71 41.76 39.03 39.53 42.88 45.35 47.31 46.34 48.07 49.74 52.43 51.87 51.63 54.24 60.12 59.09 61.18 62.42 61.51 63.59 64.81 65.37 65.73 65.52 65.73 66.16 67.90 67.07 66.24 67.38 67.28 68.25 68.73 69.29 69.31 69.26 68.85 68.58 68.25 67.56 67.13 67.67 67.32 66.10 64.28 63.19 63.11 62.70
47.52 44.93 40.70 39.42 39.98 42.19 45.03 47.80 48.02 49.44 51.21 52.28 54.93 51.47 55.32 57.24 59.61 61.79 61.15 62.06 62.18 63.78 64.84 66.10 66.24 66.45 66.94 66.21 66.49 65.65 66.36 66.91 67.02 67.86 68.00 67.95 67.61 67.57 67.81 66.91 66.36 66.48 67.03 66.35 65.19 64.10 63.47 62.96 62.10
47.41 46.10 39.77 40.44 40.73 41.84 45.80 47.22 51.82 51.60 49.79 56.53 56.79 52.88 53.32 56.38 59.74 61.43 61.05 60.73 61.08 61.82 64.32 63.98 63.99 63.41 63.52 65.74 64.62 66.22 66.23 65.72 66.44 67.05 66.80 66.16 66.44 66.94 66.18 65.20 66.00 66.52 66.58 65.52 64.55 63.57 63.13 62.59 61.98
47.02 43.96 40.51 41.01 40.86 43.61 45.91 45.95 49.76 53.46 52.76 54.15 57.28 57.10 57.50 58.87 59.47 59.58 58.98 59.48 59.94 60.68 60.93 63.34 62.11 61.62 62.32 63.92 64.92 65.50 66.48 66.05 66.07 66.66 65.90 64.61 65.80 65.47 64.12 63.94 65.60 66.41 65.44 64.40 63.85 63.16 62.42 61.83 61.31
46.21 42.48 42.20 44.59 44.81 44.81 45.84 45.49 46.95 49.74 50.71 51.81 54.65 57.41 58.09 58.73 58.50 57.93 58.06 58.49 58.77 58.80 59.48 60.23 61.54 60.98 61.45 62.55 65.01 66.44 64.88 65.31 65.03 65.92 64.13 63.69 63.78 63.35 62.09 63.07 64.67 65.38 64.38 63.79 63.29 62.55 61.72 60.66 60.10
44.13 42.91 44.54 45.36 46.22 46.58 45.95 44.98 48.02 49.05 47.88 51.34 51.89 55.34 56.67 57.27 57.94 58.14 58.03 58.55 58.63 58.66 58.93 59.38 59.91 60.93 61.00 62.55 63.91 64.75 64.98 64.47 63.96 63.22 62.83 61.92 61.66 62.17 61.85 60.77 61.61 63.76 64.28 63.13 62.30 61.40 60.10 59.78 59.17
42.62 44.89 45.54 46.80 46.75 46.12 44.75 47.50 47.98 49.37 50.19 54.38 54.21 57.08 57.05 56.49 57.23 57.85 57.62 58.34 58.60 58.02 58.21 59.11 59.18 58.56 59.36 61.23 61.96 62.30 64.23 62.80 62.35 62.23 61.61 61.32 61.17 60.17 60.39 57.27 57.69 59.16 61.85 63.01 61.67 59.99 59.82 59.08 58.25
43.20 44.89 46.13 46.49 45.64 45.54 46.19 46.46 47.25 48.84 52.71 55.44 56.11 56.31 56.47 56.85 57.88 58.63 57.93 58.34 58.37 57.60 57.87 58.15 58.51 58.25 59.40 59.40 60.83 61.61 61.44 61.66 61.19 61.13 62.35 60.93 58.58 57.12 56.51 55.12 54.83 54.99 56.71 59.02 58.34 57.97 57.85 57.81 57.62
46.35 45.00 45.72 46.49 46.89 46.89 45.63 46.76 49.19 50.70 53.57 54.46 55.10 54.76 56.64 56.93 57.83 58.26 56.83 56.43 57.03 57.38 57.58 57.77 57.46 57.96 58.85 59.10 60.34 60.43 60.25 60.35 60.58 60.69 61.26 60.16 57.51 55.59 54.30 53.53 53.86 53.95 55.56 55.60 55.61 57.10 57.71 57.42 57.45
46.46 43.80 45.45 45.89 47.12 46.06 46.73 44.58 46.49 51.67 53.98 53.73 54.61 55.65 56.22 56.96 58.15 57.38 57.69 56.37 57.15 57.41 57.92 56.88 56.90 57.92 58.76 58.77 60.00 60.39 60.23 60.36 59.71 59.46 59.59 59.85 57.47 55.63 54.37 53.97 53.37 53.86 54.27 53.38 54.43 55.24 56.61 56.30 56.58
43.58 42.72 39.70 43.76 44.43 45.82 46.58 41.52 47.95 49.06 52.11 52.71 54.10 55.41 55.17 56.50 57.34 57.49 57.26 56.80 57.13 57.79 57.37 57.10 57.22 57.21 58.55 58.14 59.67 60.04 60.46 60.60 59.86 59.44 59.20 58.92 57.96 55.63 55.40 54.63 55.44 55.45 54.11 53.69 52.86 53.27 54.48 54.28 54.43
40.45 37.37 37.91 40.70 44.75 45.04 44.96 43.27 47.07 49.76 50.64 50.72 52.40 53.78 54.54 55.20 56.49 56.88 56.55 56.56 56.92 57.92 57.64 56.73 57.02 57.26 58.18 58.18 59.87 59.96 59.46 59.80 59.24 59.20 58.30 58.20 57.39 57.03 55.40 55.70 55.95 56.33 53.97 54.10 53.15 52.68 52.74 51.86 52.00
37.09 37.31 38.23 38.86 42.74 43.82 42.54 42.82 46.16 47.68 49.87 50.24 52.11 53.45 53.78 54.08 55.83 56.89 56.45 56.37 57.20 57.83 58.27 57.39 56.75 57.57 58.31 59.13 59.38 59.35 59.30 59.12 59.54 59.23 58.59 58.03 57.54 56.96 56.37 55.94 54.85 54.88 53.94 54.90 54.23 53.60 53.49 52.82 51.97
41.35 39.14 38.50 41.14 43.58 42.54 42.23 42.22 44.96 47.71 48.79 49.18 51.30 53.34 54.43 55.25 57.45 57.58 56.37 56.42 56.35 57.47 57.98 57.33 56.44 57.01 58.03 57.48 57.78 57.78 57.40 58.50 58.57 58.88 58.26 58.60 58.15 57.30 56.89 57.08 56.23 55.82 56.19 56.07 55.94 54.69 53.64 51.94 52.27
41.09 38.89 38.90 41.52 43.60 42.54 42.57 42.37 46.05 46.95 48.52 50.41 51.00 52.76 54.56 56.00 55.52 55.84 56.08 56.23 55.72 56.55 57.60 57.64 57.02 57.17 57.56 57.70 58.06 58.13 57.80 58.62 58.51 58.70 58.03 58.41 58.94 57.88 57.43 57.55 56.56 56.87 56.84 56.92 55.79 55.18 53.82 54.65 53.44
40.61 39.37 39.66 39.06 41.23 43.50 41.60 40.62 43.80 46.65 48.05 49.28 51.53 53.51 55.21 55.86 55.38 55.49 55.25 55.48 55.33 56.01 57.07 57.36 57.18 57.37 57.43 58.23 57.58 57.24 57.32 57.38 57.12 57.28 57.01 58.89 58.69 58.55 58.38 58.23 57.88 57.74 57.89 57.09 56.71 56.16 55.86 54.53 53.74
36.94 42.51 41.50 40.18 38.51 34.83 41.88 34.06 41.22 45.43 45.92 47.63 49.74 51.70 53.77 55.67 56.84 56.44 54.91 55.10 55.18 55.82 57.50 57.64 57.52 57.23 57.47 57.70 57.22 56.37 55.84 55.26 56.69 56.52 57.11 58.25 59.64 58.67 58.61 58.66 58.51 58.48 58.36 57.95 57.62 56.99 56.81 56.34 54.34
39.43 43.43 41.55 41.26 38.75 37.45 37.97 35.71 39.64 42.64 43.99 47.18 49.73 50.61 52.84 55.13 56.92 56.57 55.63 55.76 55.12 55.73 56.41 57.07 57.48 57.47 57.47 57.42 57.32 56.60 56.32 57.06 57.69 57.43 58.34 59.33 59.90 59.45 58.69 59.19 59.38 59.26 58.85 58.79 58.58 57.60 56.35 57.01 56.76
44.47 41.79 40.77 40.06 38.27 31.63 36.66 37.20 38.56 42.48 45.04 47.29 49.01 50.50 51.77 53.90 56.20 57.41 57.45 56.80 54.37 55.35 55.36 56.36 56.41 57.59 58.12 57.67 58.05 56.72 57.44 57.67 56.71 56.65 58.14 58.83 59.63 59.92 60.63 60.08 59.72 60.03 59.78 59.13 58.83 58.83 57.96 57.30 56.86
42.19 39.11 32.21 31.00 31.08 29.92 39.43 36.64 40.38 44.83 46.03 47.94 49.16 50.76 51.34 53.62 55.35 56.11 55.71 53.93 53.69 53.92 53.88 54.84 55.35 56.15 57.68 57.05 56.79 57.65 57.54 58.05 57.85 58.29 58.69 58.69 58.56 58.69 59.80 60.28 60.51 60.23 60.40 60.15 60.17 59.33 58.28 58.03 57.45
39.96 39.29 32.57 26.52 29.00 32.81 37.75 34.73 40.49 47.61 48.96 49.38 49.65 50.67 50.42 52.28 54.91 55.77 56.20 55.78 54.74 53.29 53.17 53.90 55.39 56.20 56.97 57.18 56.33 56.36 57.64 57.19 57.26 57.48 58.11 57.91 58.86 58.82 59.56 59.78 60.40 60.21 60.49 60.36 60.30 60.49 59.81 59.36 58.57
38.92 35.55 41.46 34.96 35.79 33.72 36.80 40.24 44.90 47.69 46.73 47.94 48.52 48.61 49.62 51.54 53.89 55.19 56.08 56.40 56.07 54.89 53.89 54.24 55.93 56.63 56.88 57.04 57.75 56.97 56.78 57.43 56.98 57.20 57.97 58.41 58.38 57.83 58.48 59.37 59.46 60.08 60.32 60.19 60.45 60.21 59.47 59.02 59.05
42.33 43.65 34.78 36.45 28.24 27.71 34.02 35.90 38.73 43.16 45.45 46.99 47.90 48.98 49.65 51.13 53.49 54.82 55.65 56.01 56.42 56.11 55.62 55.71 56.20 56.13 56.47 57.08 57.42 57.20 57.01 57.60 57.63 58.05 57.52 57.63 58.50 58.33 58.20 58.32 58.94 59.41 59.93 60.13 59.77 58.95 59.36 58.01 57.11
38.23 38.11 39.67 39.37 36.72 31.32 30.02 35.30 44.70 46.00 47.21 47.12 48.29 48.85 48.91 51.66 53.12 54.68 55.86 56.65 56.53 56.58 55.62 55.12 55.67 55.59 55.82 56.02 56.68 57.20 57.27 57.64 58.11 57.65 57.78 57.95 59.17 58.69 58.28 58.34 58.75 59.16 59.20 59.17 58.40 57.65 56.26 55.72 55.52
41.87 39.27 39.92 35.57 33.70 36.01 35.64 36.63 45.84 47.34 48.18 47.04 48.43 48.30 48.58 50.95 53.71 55.23 55.85 56.22 56.00 55.90 55.36 54.93 55.55 55.34 56.38 55.98 55.86 56.08 56.86 57.44 57.33 56.21 57.50 59.05 58.60 58.77 57.94 58.21 58.09 58.57 58.01 57.35 55.62 55.86 54.75 53.11 52.22

GFSSGP_sfc_wetblb_084.txt.gz
Wetbulb
61.90 59.65 61.06 57.68 48.81 47.79 45.38 45.54 49.09 47.69 48.60 52.24 54.70 54.97 55.63 58.06 53.22 50.55 68.20 69.46 69.92 70.14 72.40 72.57 71.39 72.04 72.32 72.94 72.75 72.38 72.64 72.80 72.73 72.09 71.60 71.97 71.97 72.02 71.83 71.46 71.14 71.17 70.89 69.53 69.51 68.78 67.76 67.40 67.15
60.24 59.81 59.56 55.45 46.00 43.24 45.24 47.84 46.90 49.41 51.04 53.59 55.24 58.68 58.08 55.02 62.61 63.97 66.52 68.68 69.61 69.11 71.65 72.40 71.13 71.54 72.01 71.94 71.94 72.24 72.75 72.68 72.28 71.84 71.99 72.09 72.07 71.87 71.51 70.85 70.07 70.00 70.28 68.92 69.17 68.57 67.74 66.96 66.64
60.18 60.18 54.59 50.20 46.97 43.59 45.80 47.63 49.03 50.52 51.69 51.80 53.33 59.14 58.34 57.08 63.80 65.69 68.18 68.15 68.98 68.65 69.40 72.37 70.62 70.78 71.54 71.86 71.85 70.84 70.70 71.65 71.46 71.44 72.12 72.07 71.95 71.56 70.92 69.92 69.29 69.46 69.46 68.82 68.66 68.26 66.98 66.14 66.12
58.12 56.31 53.59 46.15 44.27 46.81 47.17 49.36 50.09 50.40 52.34 52.82 53.97 53.83 59.72 63.10 64.84 67.34 67.27 67.68 67.45 69.05 68.71 70.03 69.28 69.99 70.99 70.87 70.46 69.38 69.26 69.70 69.51 69.87 70.32 71.70 71.38 71.14 70.18 69.33 69.26 69.16 69.26 68.58 67.37 66.86 66.17 65.56 65.35
57.38 54.60 47.22 45.28 44.98 46.67 49.36 49.72 50.36 49.88 51.10 54.41 55.33 52.98 55.94 61.68 65.39 65.96 65.91 66.00 66.52 67.40 68.04 69.93 67.81 68.89 70.01 69.30 68.49 68.83 69.48 68.84 68.52 68.74 69.10 70.28 70.74 70.35 69.40 68.78 68.43 68.53 68.22 67.83 66.20 65.42 64.83 64.66 64.54
51.96 52.95 45.09 43.70 44.80 46.41 49.52 50.57 50.22 50.69 52.12 55.00 54.71 55.00 57.01 63.61 63.08 64.56 64.66 64.33 66.57 67.38 67.54 67.32 67.58 67.38 68.02 68.47 68.01 67.47 67.91 68.57 68.45 67.66 68.75 69.64 69.90 69.30 68.95 68.57 68.40 68.24 67.76 66.87 65.68 64.98 63.95 63.78 63.43
50.70 48.89 45.31 45.11 44.44 45.10 48.57 51.63 50.02 50.70 51.73 52.70 57.36 53.11 58.81 61.61 63.76 64.58 63.63 64.63 65.06 66.57 67.38 66.70 67.88 67.76 65.58 67.00 66.27 66.72 67.48 67.84 67.73 67.64 67.81 68.35 68.48 68.11 68.38 68.40 68.17 67.99 66.77 65.83 64.90 64.32 63.82 63.09 62.51
52.62 50.02 45.39 45.77 44.05 44.83 49.83 50.15 51.38 51.84 51.73 58.71 58.83 51.66 54.09 61.75 63.71 64.56 64.50 64.01 63.20 64.24 65.30 66.05 66.55 67.72 67.16 67.31 66.27 65.52 66.56 66.40 67.01 67.24 67.03 67.02 66.95 67.25 67.14 66.96 67.50 67.15 66.42 65.24 64.41 63.68 63.24 62.52 62.11
53.86 46.78 44.56 45.60 45.17 46.26 50.30 48.76 52.02 55.26 53.97 55.99 58.66 58.73 61.65 62.43 63.19 62.55 61.55 61.56 62.28 62.39 63.77 65.30 65.16 66.02 65.27 66.43 66.16 65.85 66.01 66.30 65.92 65.91 66.38 65.34 65.78 67.25 66.06 66.02 66.39 66.23 65.41 64.49 64.05 63.42 62.57 61.96 61.59
49.87 46.59 46.55 48.60 48.85 47.71 49.45 49.74 50.78 50.56 51.86 53.15 56.27 60.96 61.96 62.22 61.85 61.27 61.38 62.18 62.30 62.82 61.37 62.84 62.90 63.12 64.90 65.84 65.44 65.32 66.88 65.70 65.50 64.99 66.02 64.72 64.83 65.09 65.85 65.62 65.54 65.42 64.34 63.73 63.44 62.88 61.94 61.20 61.16
49.21 46.08 49.46 49.07 50.05 50.83 49.88 49.99 51.80 50.80 49.93 52.67 53.23 55.85 61.35 61.40 61.62 60.75 61.39 61.78 62.39 61.36 60.58 60.95 61.14 62.03 61.94 62.74 65.17 66.00 68.95 67.01 65.83 64.31 64.43 65.12 64.03 64.02 65.68 66.23 65.99 64.66 63.03 62.56 62.44 61.57 61.41 61.25 60.67
46.24 48.91 49.15 49.54 49.96 49.89 48.92 51.44 49.98 51.70 52.46 54.96 57.07 57.96 60.54 60.47 60.87 60.90 61.42 61.63 62.01 60.78 60.41 60.74 60.49 60.70 60.86 63.38 64.10 65.51 66.64 66.43 66.28 62.67 63.37 62.49 61.43 61.22 63.53 65.03 64.49 63.85 63.29 62.33 62.01 61.53 62.36 61.58 60.95
47.43 48.03 49.78 50.42 50.52 50.43 50.89 49.23 49.66 50.63 53.58 55.52 57.82 58.65 59.61 60.48 60.87 61.95 61.89 61.56 61.91 60.23 60.21 60.65 60.47 59.45 59.84 60.99 64.65 64.34 65.57 64.24 63.14 61.74 62.07 61.15 60.15 58.98 60.72 63.56 64.22 63.57 63.50 62.80 62.36 62.59 61.66 60.69 59.91
49.61 49.59 49.71 50.61 50.28 50.17 48.60 49.13 50.28 51.68 54.42 54.89 56.79 58.08 59.42 60.14 61.03 61.88 61.26 60.58 61.07 61.24 59.73 60.07 59.76 59.59 61.79 61.54 61.59 61.41 62.68 61.92 60.83 60.76 60.36 60.29 59.97 58.57 58.52 60.34 60.19 62.87 63.73 63.23 62.32 61.75 60.42 59.41 59.40
50.02 46.82 48.87 49.55 50.04 49.35 50.45 46.81 47.57 52.46 54.95 54.97 56.61 58.01 59.06 60.32 61.29 61.34 61.36 60.40 60.50 61.03 60.01 59.56 59.21 59.47 60.40 61.85 60.92 60.58 60.88 60.64 59.77 59.38 58.68 58.83 59.27 59.49 59.18 57.36 57.84 58.70 60.42 61.28 61.21 61.27 59.67 59.53 58.97
46.57 47.57 44.09 48.73 48.39 48.71 48.43 43.36 48.81 52.40 54.05 54.17 56.34 57.96 58.65 60.11 60.79 62.00 61.37 61.03 61.29 60.21 58.85 59.52 58.90 58.83 60.38 59.95 60.55 60.28 60.15 59.51 59.13 58.68 58.35 59.20 59.36 58.70 58.08 57.12 56.44 57.80 58.41 58.17 58.72 58.63 58.91 58.66 58.14
45.37 41.56 44.59 46.08 49.45 48.25 47.88 44.96 49.62 53.33 52.79 53.12 55.37 57.61 58.56 59.29 60.40 61.61 60.40 60.97 60.94 59.62 59.10 58.72 58.68 58.54 59.73 60.03 60.05 59.83 60.20 59.59 59.44 58.99 58.89 58.93 58.03 57.69 56.75 57.21 56.93 57.17 55.93 56.78 57.35 57.96 58.28 56.59 56.99
40.67 42.75 44.68 44.33 47.44 47.07 46.01 46.02 48.89 52.07 52.12 53.36 55.14 57.18 58.02 58.30 59.21 61.07 59.39 60.62 60.86 59.97 59.29 58.79 57.95 57.87 59.53 60.13 59.69 59.77 59.29 59.18 59.34 59.16 58.12 57.53 57.19 57.12 58.61 58.56 58.05 57.97 56.42 56.80 56.54 56.92 56.83 56.42 55.96
45.53 44.08 43.89 46.84 47.12 45.59 45.66 46.01 47.88 50.14 52.07 53.07 55.07 56.21 57.47 58.10 60.49 61.83 59.15 58.78 59.20 59.67 58.32 57.45 56.60 58.45 59.95 58.63 57.87 57.99 56.92 58.01 58.58 58.22 58.41 58.34 57.85 57.73 58.69 58.83 58.96 58.53 57.38 58.56 59.04 58.06 56.83 55.51 56.31
44.85 42.93 43.22 46.19 46.62 45.84 45.88 45.78 47.82 49.19 51.83 53.20 54.27 56.00 57.29 58.54 59.82 60.45 58.98 59.32 59.03 59.25 58.49 57.29 56.71 57.23 58.07 59.37 59.17 58.63 58.25 58.51 58.29 58.52 58.53 58.39 58.05 56.73 58.54 59.30 58.99 58.57 58.09 58.80 58.75 58.96 57.31 57.44 56.49
43.37 42.57 42.96 43.01 45.94 47.26 45.60 44.20 46.43 48.18 51.67 53.20 54.87 56.28 57.57 58.65 59.54 59.83 59.06 59.16 60.25 59.34 58.24 57.40 57.34 56.90 58.13 58.98 58.72 58.41 58.08 58.68 57.78 58.49 57.47 58.34 59.59 58.65 58.71 59.28 59.73 59.40 60.95 59.74 59.98 59.27 59.00 56.85 57.64
39.70 45.26 44.37 43.31 42.28 39.18 44.96 38.06 44.76 47.84 49.51 51.31 53.54 55.88 57.04 58.35 60.00 60.59 59.79 58.87 59.60 59.56 59.05 58.63 58.11 57.80 58.11 59.01 57.86 56.98 55.32 54.89 57.43 58.22 58.17 58.42 60.33 60.02 59.42 60.31 60.69 61.08 60.84 60.56 60.67 60.25 60.21 59.45 57.51
41.72 45.81 43.93 43.94 42.76 42.68 42.70 39.78 43.63 46.31 46.23 49.01 51.77 54.59 57.17 58.66 60.08 60.60 60.43 60.07 60.59 59.19 58.47 58.94 58.64 58.14 58.01 58.44 57.90 57.41 56.14 56.87 58.90 57.31 56.52 56.65 60.15 60.97 60.30 61.03 61.09 61.03 60.95 61.15 61.29 60.86 60.28 60.05 59.32
46.33 44.40 44.30 44.00 42.55 36.24 40.86 40.61 41.66 45.29 47.75 49.76 51.58 53.26 55.88 57.86 59.66 61.29 61.69 60.84 60.70 59.26 57.68 58.79 57.97 57.96 57.82 58.03 58.41 58.01 57.31 56.72 56.47 55.76 55.03 55.74 59.53 60.69 61.81 61.09 61.33 61.39 61.09 61.23 61.68 61.99 61.41 60.73 60.68
44.52 41.75 36.58 34.90 35.13 34.60 42.13 39.88 42.40 47.88 49.94 50.69 51.36 53.02 55.41 57.58 59.00 60.44 60.65 60.31 59.80 58.23 57.50 57.60 57.75 57.49 57.88 57.86 58.13 58.86 58.21 57.28 56.67 57.57 56.17 55.66 58.90 59.10 60.95 61.74 60.85 61.24 61.69 61.88 62.52 62.42 62.47 62.00 61.01
41.66 42.23 37.83 30.99 33.62 37.28 41.90 37.35 42.69 49.77 51.69 52.64 53.25 54.09 55.20 56.81 58.80 60.21 61.11 61.19 59.58 59.03 58.68 57.03 56.97 56.80 58.26 58.27 58.92 59.88 60.40 59.35 58.41 57.46 56.63 59.49 60.07 60.79 61.50 62.25 62.61 63.02 63.03 62.98 63.27 63.10 62.84 62.73 62.19
41.89 39.48 45.23 39.44 39.81 36.01 40.38 43.97 48.04 49.95 50.46 51.59 52.26 53.19 54.13 55.48 58.08 59.57 60.97 61.18 60.30 59.78 59.19 57.37 57.05 58.15 58.80 58.63 59.33 59.92 60.47 60.66 60.94 60.49 60.10 60.75 61.93 60.97 62.08 62.70 62.68 62.88 63.17 63.44 63.36 62.37 62.20 62.87 62.82
42.98 45.25 37.81 39.55 30.59 30.42 37.78 40.12 41.89 45.55 48.26 50.10 51.46 53.12 54.66 55.19 57.08 59.45 60.52 61.20 61.00 60.59 59.81 58.58 59.55 59.77 60.81 60.68 60.32 60.12 60.29 60.66 60.93 61.32 61.00 61.53 62.13 62.03 61.83 62.10 62.32 62.36 62.56 62.47 62.40 62.13 62.54 62.13 62.60
40.22 39.61 41.23 41.98 39.57 33.94 33.40 39.37 47.78 47.59 49.63 50.02 51.90 53.32 53.48 55.21 57.00 58.79 60.11 61.41 61.75 61.52 60.18 59.01 59.69 60.19 60.50 60.87 61.17 60.80 60.50 60.33 60.95 61.40 61.52 61.51 62.50 61.81 61.39 61.34 61.28 60.91 60.75 61.34 61.62 62.04 62.00 61.41 61.25
43.77 41.89 42.05 36.77 35.98 39.49 38.38 39.29 49.66 50.30 51.53 51.74 52.30 53.30 53.19 55.52 57.33 59.07 59.72 60.52 60.90 61.14 60.79 59.75 59.82 60.02 60.73 60.88 60.95 60.94 61.06 60.84 60.68 61.24 61.88 62.54 61.83 61.92 61.08 60.92 60.75 60.34 60.32 60.73 60.69 60.70 61.16 59.75 58.73

GFSSGP_sfc_wetblb_087.txt.gz
Wetbulb
62.91 61.07 60.37 58.01 49.93 49.70 46.75 47.47 50.52 49.02 49.90 53.16 54.88 54.74 54.99 57.11 53.29 52.17 69.26 71.11 71.66 72.18 73.08 72.94 71.49 72.02 72.92 73.40 73.00 72.61 72.67 72.95 73.03 72.46 72.07 72.22 72.31 72.02 71.71 71.75 71.41 71.24 71.17 70.07 69.66 69.50 68.95 68.74 68.54
62.46 58.96 59.44 55.73 47.09 45.41 47.26 50.86 48.45 50.71 52.39 53.73 54.67 56.75 55.71 54.11 60.44 63.72 67.00 70.36 71.16 71.87 73.11 73.00 71.12 71.79 72.40 72.75 71.86 72.07 72.71 72.99 72.55 72.12 72.15 72.34 72.37 71.98 71.74 71.18 70.55 70.79 70.89 69.61 68.97 68.43 68.13 67.64 67.40
62.56 59.88 55.86 52.03 48.68 45.81 46.93 50.18 50.31 51.83 53.19 52.92 52.83 57.05 57.69 55.87 62.66 65.37 70.09 69.97 70.61 71.21 72.44 72.75 70.74 71.18 72.04 71.97 71.46 71.26 71.70 71.22 71.69 71.60 72.15 72.27 72.33 72.01 71.56 70.63 69.95 70.23 70.45 69.52 68.71 68.05 67.44 66.58 66.68
58.45 57.12 54.55 46.82 46.11 49.57 48.96 50.84 51.17 51.46 53.25 54.04 54.07 53.14 59.14 64.91 64.12 68.48 69.40 69.60 69.37 70.36 72.03 70.74 69.76 70.92 71.65 70.95 70.74 70.46 69.75 69.59 69.77 70.80 71.41 71.59 71.23 71.44 70.33 69.65 69.39 69.69 70.28 69.42 68.25 67.51 66.45 66.04 65.91
58.25 55.08 49.11 47.78 48.05 49.90 50.36 51.44 51.63 51.07 52.09 54.05 54.70 52.62 55.79 63.81 67.52 68.22 68.36 68.20 68.22 69.48 70.97 71.91 68.99 69.83 71.12 71.60 69.88 68.39 67.75 68.07 66.03 65.16 68.65 70.01 70.10 70.40 69.71 69.13 69.05 69.07 69.25 68.86 67.51 66.41 65.55 65.51 65.07
52.30 52.96 47.30 46.09 48.21 49.57 50.04 52.06 51.37 51.66 53.08 54.15 55.20 54.15 56.20 65.68 65.35 66.75 67.07 66.61 67.94 68.69 69.87 70.42 68.70 67.89 68.51 69.68 68.50 67.52 67.78 66.06 65.80 66.14 68.25 68.74 68.90 68.67 68.92 68.69 68.45 68.21 67.68 67.13 66.46 66.06 65.04 64.61 64.23
51.33 50.74 47.81 48.15 48.07 48.47 49.16 52.95 51.33 51.57 52.07 52.91 56.88 53.11 58.40 63.92 65.56 67.13 66.59 66.79 67.20 68.15 68.86 70.19 70.62 68.52 65.65 67.56 67.19 67.07 66.69 66.87 67.36 66.54 66.87 66.87 67.72 67.54 67.80 68.18 67.95 67.63 66.90 66.27 65.44 65.17 64.58 64.20 63.43
53.04 51.08 47.87 48.88 47.54 47.60 50.86 51.41 53.02 51.82 52.07 58.00 57.38 52.80 53.83 64.04 66.52 66.85 66.61 66.39 66.23 66.66 67.94 68.48 69.79 69.44 68.41 69.06 65.77 65.65 65.98 65.69 65.79 66.58 65.99 65.63 66.55 67.06 67.30 67.48 67.37 67.03 66.26 65.56 64.55 64.27 63.86 63.38 62.70
55.21 48.07 46.49 47.99 48.49 48.84 51.28 50.23 53.29 54.68 53.26 54.65 56.85 57.14 62.30 64.94 65.47 65.32 64.97 64.30 64.98 65.56 66.60 67.45 68.19 68.15 67.86 68.25 67.91 65.87 65.78 65.83 65.75 65.79 64.76 61.61 66.05 66.81 67.58 66.79 66.15 65.85 65.15 64.51 64.07 63.40 62.75 62.24 61.83
51.45 48.22 48.11 51.79 51.56 49.56 50.42 50.86 51.79 51.89 51.98 52.98 54.82 58.14 61.88 63.94 63.67 63.38 63.57 63.84 64.34 64.14 65.23 66.03 66.27 67.04 67.64 66.83 67.50 67.32 67.28 66.76 67.08 65.67 65.50 65.05 65.19 66.25 67.07 66.55 65.19 64.87 64.26 63.95 63.38 62.59 61.91 61.00 60.64
51.54 47.80 51.20 51.76 51.73 51.56 50.51 50.74 52.81 51.17 49.97 52.88 52.90 55.18 58.03 62.86 62.91 62.88 63.38 63.87 64.87 64.46 64.30 64.52 63.80 63.51 66.49 66.69 66.30 66.19 67.07 66.70 65.94 65.50 64.94 64.47 64.70 64.81 66.86 66.05 65.28 64.38 63.05 62.10 61.59 60.58 59.72 60.19 60.04
48.62 50.95 51.26 51.57 52.06 50.91 49.65 51.63 50.38 51.60 52.23 55.07 55.52 56.56 58.31 59.01 61.83 62.34 62.71 63.69 63.94 63.00 62.43 63.33 62.56 61.48 62.21 62.76 64.28 66.68 67.19 67.10 65.24 64.28 64.01 63.92 63.59 63.32 65.54 65.25 64.04 62.73 61.91 61.42 59.98 60.48 62.48 61.36 60.20
49.73 50.36 51.13 51.39 51.65 51.16 51.59 50.20 50.44 51.17 53.56 55.03 55.26 55.57 57.38 59.23 61.21 62.95 63.75 64.53 64.09 63.30 61.04 61.95 62.69 61.29 61.49 62.07 63.80 64.21 66.02 66.98 65.00 64.39 63.85 63.79 62.93 62.68 63.05 63.89 63.96 62.10 62.76 62.07 60.88 62.20 61.15 60.92 60.65
51.43 50.43 50.61 51.71 51.54 52.05 50.42 50.63 51.20 51.66 54.16 53.60 54.44 55.11 57.20 59.54 61.61 62.50 63.46 63.33 62.81 63.40 61.67 61.48 61.98 61.87 61.74 60.80 61.43 64.23 64.97 65.74 64.67 63.73 63.00 62.34 61.08 61.86 62.42 62.94 62.63 63.58 63.13 62.86 62.40 61.94 60.80 59.97 60.15
51.01 48.21 50.03 50.60 51.49 50.90 52.16 48.63 49.51 53.15 53.65 52.19 54.21 56.16 58.86 59.69 61.98 62.17 63.80 63.07 63.03 63.17 62.99 61.40 61.71 61.26 61.32 62.35 61.81 62.37 63.76 62.74 62.06 60.33 60.15 60.05 59.90 60.03 60.55 61.98 62.64 63.63 63.90 63.95 62.87 61.34 60.68 59.12 59.22
47.77 48.66 44.44 50.04 51.86 52.09 51.54 45.73 51.59 53.39 52.30 51.56 54.81 56.54 58.53 60.14 61.77 63.04 63.95 63.40 63.17 63.37 62.06 60.78 60.41 60.10 60.94 61.15 60.98 60.86 60.62 60.25 59.69 59.60 59.19 59.09 58.27 58.15 58.35 60.10 61.92 63.61 63.52 62.51 61.02 59.82 58.51 59.10 58.48
46.74 41.95 44.50 47.10 52.43 50.41 49.06 46.88 52.00 53.08 52.85 52.68 54.43 55.99 58.68 60.12 61.64 62.93 63.82 63.33 63.25 63.17 62.04 60.17 59.37 59.06 60.08 60.66 60.36 59.27 58.99 58.54 58.21 57.93 57.80 57.46 57.89 57.62 57.56 59.09 59.34 60.68 60.59 60.36 60.38 59.88 59.22 58.17 58.08
41.08 42.44 44.40 45.16 50.31 50.95 48.38 48.29 50.99 52.32 52.85 53.28 54.43 55.88 58.03 59.75 60.72 62.47 63.38 62.95 63.46 63.03 61.16 60.27 59.13 58.79 60.17 59.95 59.55 58.50 57.83 57.97 57.58 57.23 57.11 57.21 57.31 57.91 58.07 57.82 57.29 57.26 56.84 58.37 58.52 58.80 59.91 59.19 58.09
45.22 44.57 44.85 48.08 51.11 48.26 47.90 48.34 50.03 51.89 51.69 51.86 53.77 55.10 56.95 59.11 61.41 62.69 63.28 62.85 62.96 62.41 59.80 59.32 58.24 58.39 59.66 58.46 57.40 56.86 56.38 57.06 56.82 56.57 57.42 57.47 58.55 58.07 57.78 56.79 57.39 56.64 56.60 57.30 59.11 59.37 58.57 57.08 58.38
44.18 43.50 43.87 46.94 49.65 48.73 47.33 47.40 50.04 51.69 51.85 51.72 52.61 54.58 56.35 58.85 60.35 61.69 62.38 61.74 61.94 61.29 60.46 58.59 58.47 58.54 58.93 58.94 57.95 57.21 56.55 56.71 56.80 56.97 57.71 58.39 57.68 57.55 59.22 59.51 58.29 58.66 57.97 58.02 58.76 59.38 57.50 56.73 58.24
42.95 43.25 43.99 43.96 48.09 49.22 46.96 45.70 47.98 51.21 52.61 52.85 52.49 54.86 55.71 57.86 59.68 61.04 61.57 61.02 60.37 60.31 59.69 58.55 58.57 59.15 59.88 59.57 58.84 57.59 57.41 57.46 56.92 56.39 55.77 57.36 57.48 57.34 58.73 61.28 59.51 59.82 59.21 58.87 60.34 60.78 59.12 57.11 57.84
40.11 46.55 45.11 44.23 44.19 40.47 47.85 39.81 46.58 49.74 49.97 50.83 51.82 54.38 55.38 57.06 60.21 61.64 61.80 61.15 60.97 61.44 60.31 60.69 59.41 58.62 59.54 59.87 58.11 56.36 54.63 53.99 55.66 55.37 55.93 57.53 58.99 57.82 56.82 58.48 59.99 59.14 59.83 60.29 60.51 61.42 61.58 60.94 57.67
42.75 46.63 44.82 45.11 43.90 43.09 43.38 41.41 45.05 49.47 48.20 49.46 52.67 54.38 55.99 57.40 59.54 61.33 62.09 62.07 62.59 62.80 59.88 60.29 59.51 58.45 58.75 59.58 58.42 57.23 55.01 54.97 55.58 55.73 56.25 58.25 59.39 59.74 58.86 58.35 60.32 61.98 61.81 62.02 62.56 62.35 60.99 60.87 59.92
46.83 44.49 44.66 44.82 43.22 37.09 42.55 42.85 43.94 46.83 48.53 50.52 52.84 53.62 54.81 56.78 59.14 61.30 63.17 63.11 62.82 62.78 61.12 59.86 58.94 58.18 58.60 58.50 58.29 57.36 56.25 55.44 55.69 55.33 55.64 57.14 57.62 58.13 58.65 59.78 61.85 61.96 62.32 62.37 62.93 62.97 61.91 61.84 61.76
43.64 41.40 36.03 35.40 35.96 35.69 44.60 42.72 45.02 49.38 50.67 51.38 51.92 53.03 54.87 56.55 58.48 60.52 62.22 62.06 62.46 61.70 60.64 58.98 58.43 57.57 58.05 58.26 58.65 58.05 57.19 56.38 57.18 55.78 55.82 54.70 55.49 56.44 58.16 60.25 62.31 61.90 62.66 62.51 62.60 62.65 62.38 62.60 61.59
42.09 41.14 35.66 30.81 34.76 38.80 45.67 40.12 44.30 50.35 52.01 52.87 53.65 54.32 55.20 56.53 58.41 60.18 62.12 62.51 62.17 61.85 60.29 58.15 57.97 57.96 58.41 58.08 58.66 59.20 58.58 56.80 57.51 57.96 56.46 54.98 55.35 56.71 59.30 62.06 62.14 62.28 62.59 62.47 63.18 62.93 63.21 63.56 63.23
41.97 39.11 43.76 39.45 41.67 37.66 41.84 45.29 49.13 50.79 51.05 52.33 52.62 53.55 54.38 55.65 57.72 59.43 61.62 62.73 62.55 62.05 60.87 59.79 57.80 58.33 58.62 58.73 58.85 58.68 59.11 59.71 59.02 58.07 57.64 56.23 56.38 56.49 57.85 62.46 61.33 62.55 62.86 63.27 63.31 63.11 63.36 63.64 63.83
40.25 43.25 37.00 39.51 31.75 31.31 38.35 40.75 42.36 46.89 49.15 51.28 51.95 53.08 54.59 55.33 56.72 59.27 60.78 62.70 63.16 62.42 62.04 61.19 60.34 59.53 59.31 59.48 59.60 59.79 60.86 60.79 60.98 60.54 58.72 59.46 57.92 59.50 60.38 61.57 62.58 62.45 63.18 63.80 63.16 62.95 63.53 62.88 63.32
39.47 38.92 40.93 41.02 39.43 33.71 33.74 39.73 49.09 48.79 50.48 50.78 52.36 53.71 54.88 56.25 56.72 58.73 60.70 62.58 63.31 62.76 62.46 61.13 60.42 60.18 60.76 59.62 59.73 59.86 60.04 61.62 62.24 61.70 61.06 61.40 60.37 61.19 61.27 61.81 62.16 62.36 62.89 63.34 62.48 62.62 62.64 61.82 62.22
44.40 42.14 41.62 36.26 36.21 40.03 39.04 39.46 50.23 50.74 51.44 52.70 52.64 54.27 55.17 56.55 57.93 58.84 60.91 61.96 62.40 62.22 62.37 61.27 60.54 60.17 62.20 62.22 61.12 60.65 60.03 60.36 60.61 62.46 62.92 62.90 61.97 62.29 62.04 61.94 62.18 62.11 62.15 62.30 62.04 61.62 61.53 61.39 61.07

GFSSGP_sfc_wetblb_090.txt.gz
Wetbulb
62.96 61.23 58.74 56.74 48.26 48.21 45.43 47.25 50.88 49.17 49.49 53.23 53.88 53.14 52.33 54.92 52.28 52.45 68.56 70.56 71.75 72.58 71.26 71.22 71.62 72.65 73.40 73.36 72.67 72.37 72.62 72.99 72.96 72.35 72.22 72.44 72.20 71.97 71.94 71.68 71.35 71.28 71.67 70.94 70.46 69.99 69.82 69.00 69.36
60.31 59.14 57.12 53.53 46.58 43.13 45.19 50.39 48.80 50.43 52.64 53.81 53.60 53.74 53.28 52.69 60.17 64.40 67.44 69.99 71.55 72.10 73.60 72.30 70.83 71.72 72.93 72.99 72.54 72.44 72.58 73.00 72.81 72.30 72.37 72.51 72.18 71.99 71.82 71.48 70.90 70.86 70.98 70.30 70.06 69.77 69.07 68.55 68.94
60.45 60.57 52.91 50.78 47.30 43.46 45.59 49.94 50.42 51.92 53.40 52.53 51.72 55.00 55.19 55.96 62.19 66.08 69.94 70.14 70.52 71.20 72.43 71.52 70.65 71.05 71.91 72.57 72.24 72.17 72.07 71.68 71.65 71.97 72.35 72.55 72.21 72.00 71.87 70.96 70.28 70.61 70.86 69.70 69.42 69.14 68.01 67.94 68.01
58.31 55.78 53.69 46.63 44.58 48.24 48.57 50.71 51.61 51.15 52.86 53.85 53.07 50.71 57.09 63.92 61.48 68.51 69.54 69.48 69.50 70.77 71.89 70.18 70.34 70.89 71.85 71.79 72.10 71.80 71.42 70.32 69.65 65.83 63.18 71.61 72.04 71.68 71.25 70.19 69.76 70.00 70.07 69.40 68.66 67.86 66.83 66.63 66.85
57.03 54.02 47.57 46.12 46.73 49.41 51.82 51.31 51.65 50.06 51.44 52.98 53.78 50.98 54.96 63.00 67.75 68.16 68.56 68.67 69.13 70.73 71.77 71.51 69.53 70.46 71.51 71.79 71.49 71.01 69.88 68.77 67.14 65.02 63.85 65.17 70.36 70.21 69.78 69.57 69.51 69.40 69.48 68.70 67.17 66.75 66.30 66.13 65.93
51.49 51.74 44.73 43.60 46.89 50.33 51.03 51.66 51.53 50.91 52.05 52.88 53.51 53.82 55.46 64.44 65.30 67.21 68.07 67.67 69.92 70.44 71.21 70.54 69.34 69.17 70.23 71.07 69.79 68.72 67.37 66.96 64.77 64.81 64.04 64.20 67.35 68.15 68.31 68.57 68.69 68.94 68.61 67.86 66.81 66.27 65.89 65.46 65.14
49.85 48.55 45.37 46.31 47.30 49.12 50.92 52.43 50.72 51.14 51.53 51.63 55.41 52.04 58.65 62.50 65.78 67.28 67.02 67.59 68.41 69.78 69.71 70.11 69.49 68.13 67.74 68.35 67.85 66.64 67.17 65.33 65.73 65.20 63.54 64.01 66.51 67.04 67.69 67.47 68.47 68.29 67.63 67.01 65.84 65.36 64.89 64.84 64.06
51.89 49.55 45.86 46.65 46.19 47.42 52.04 51.15 52.47 51.49 50.67 56.44 57.12 52.31 54.88 62.79 66.18 66.30 66.06 66.22 67.11 67.69 68.50 68.90 69.19 68.08 67.79 67.33 67.17 66.75 66.47 66.04 65.30 65.34 64.75 64.34 66.02 66.20 66.96 66.95 67.21 67.08 66.73 66.11 65.18 64.84 64.44 63.84 63.02
54.49 46.65 44.02 45.80 47.41 49.23 52.26 49.62 52.89 54.15 52.05 53.17 54.46 55.62 61.03 65.69 65.68 64.75 64.94 65.38 65.50 66.00 66.85 67.17 66.28 68.17 67.72 67.76 66.07 66.24 66.93 66.29 66.00 66.04 65.29 64.39 64.44 64.82 65.88 65.73 65.71 66.05 65.39 64.99 64.29 64.01 63.21 62.36 61.72
50.25 46.40 46.35 50.29 50.90 50.57 51.31 50.56 50.89 51.00 51.09 51.80 53.51 56.91 61.06 63.84 62.99 62.22 62.28 62.61 63.77 64.19 65.26 65.85 65.79 66.54 67.23 67.24 65.93 65.78 66.16 66.00 65.26 64.86 63.80 63.96 63.96 64.85 65.40 65.05 65.15 65.17 64.47 64.07 63.74 62.75 61.99 60.95 58.14
50.18 46.84 49.90 50.87 52.34 52.43 50.86 50.16 51.88 49.96 48.76 52.10 51.99 54.15 57.54 61.88 61.99 61.73 62.09 62.86 64.63 65.47 64.63 64.69 64.00 64.60 66.05 66.15 66.02 66.00 66.02 64.94 64.91 64.35 64.02 63.27 64.24 64.17 63.95 64.16 63.45 62.73 63.17 61.38 61.18 59.96 58.23 57.06 57.15
47.82 50.34 50.82 51.39 52.20 51.29 49.98 51.38 49.88 50.33 51.13 53.92 54.44 56.51 57.01 56.59 59.56 61.17 61.43 62.51 63.03 63.94 63.76 63.84 62.80 62.69 63.78 64.68 64.84 65.28 64.87 64.97 64.17 64.09 64.17 62.94 63.97 63.82 63.88 62.87 61.95 60.52 60.02 58.93 57.91 57.10 57.38 56.88 57.88
49.39 50.16 51.34 51.94 51.72 51.13 51.17 49.74 49.62 50.14 53.27 55.11 54.42 54.53 54.94 56.29 57.38 59.50 62.52 63.27 64.16 62.90 62.07 62.21 62.17 61.59 62.14 62.87 64.10 63.50 64.31 65.09 64.23 64.15 63.96 63.43 63.39 62.87 63.31 62.49 59.99 59.24 58.70 57.20 56.42 57.91 57.59 57.17 56.78
51.52 50.93 50.77 51.54 50.95 51.09 49.50 49.91 51.03 51.50 54.59 53.50 53.17 52.80 53.48 54.50 57.15 59.61 61.90 62.55 63.78 63.06 61.77 61.93 61.82 61.89 61.50 61.62 62.20 63.53 63.76 64.39 64.66 63.75 63.44 63.24 62.94 62.84 62.42 61.75 59.16 59.36 59.34 57.38 57.99 58.10 57.81 57.24 57.10
51.54 48.27 49.60 50.09 50.29 49.82 51.68 48.15 48.56 52.55 53.88 52.97 52.90 52.97 54.23 55.54 58.63 60.62 62.27 63.24 63.39 63.38 62.23 61.43 60.79 61.12 62.08 61.47 61.99 62.49 63.85 63.88 63.50 63.78 63.36 63.20 63.10 62.95 62.16 60.92 59.21 59.42 60.31 58.47 59.83 58.68 58.07 57.24 57.62
47.99 47.97 43.40 48.56 49.83 50.98 50.63 44.88 50.66 53.62 53.36 52.48 52.84 52.44 54.47 56.51 59.33 61.57 62.71 63.74 63.29 62.94 61.33 61.14 60.80 60.13 61.75 61.35 62.04 62.51 62.49 62.92 61.07 60.79 62.92 62.37 62.12 61.72 61.47 60.66 60.86 60.26 60.53 60.23 58.72 57.16 56.13 55.80 56.03
45.71 41.28 43.60 46.00 50.51 50.29 49.92 46.72 50.77 53.25 52.81 50.82 51.93 52.59 54.91 57.45 59.75 61.72 63.08 63.48 62.84 62.79 61.01 59.84 59.89 59.49 60.49 60.80 60.29 59.71 59.25 59.48 59.94 59.50 59.42 60.10 60.14 59.92 60.53 60.18 60.58 60.99 60.34 59.23 58.29 57.03 56.56 54.74 54.97
40.39 41.84 43.98 43.73 47.91 49.18 48.19 47.72 49.93 52.14 52.13 52.28 52.87 53.53 54.63 57.16 59.09 61.77 62.88 63.19 62.76 62.87 60.72 59.23 58.86 60.02 60.37 59.10 58.11 57.95 57.63 57.57 57.79 57.88 57.71 57.85 57.36 57.54 57.78 57.85 58.05 58.25 58.33 58.10 57.12 56.18 57.11 55.46 54.46
43.99 42.78 42.60 45.52 49.19 47.97 48.03 48.30 49.38 51.52 52.44 51.95 52.87 53.40 54.11 56.12 59.89 62.05 62.79 62.57 62.52 61.43 59.89 58.13 58.02 59.38 59.12 57.46 56.18 55.57 54.92 55.51 55.98 56.30 56.53 56.44 56.42 56.56 56.39 56.48 56.06 55.87 55.46 55.95 56.18 56.37 55.78 54.26 56.02
43.05 41.32 41.14 44.74 47.92 46.88 47.03 46.59 49.25 50.67 51.39 52.38 52.21 52.08 54.05 55.39 58.27 60.88 61.96 61.52 61.80 60.45 59.18 58.21 58.40 59.09 58.80 57.99 56.97 56.13 55.30 54.93 55.13 55.71 55.82 55.73 56.12 56.30 56.16 55.60 54.82 54.38 54.22 54.76 55.76 55.53 54.05 54.08 54.41
42.90 41.43 41.48 41.25 45.85 47.65 46.45 44.70 46.93 49.77 51.55 52.60 53.42 53.78 53.26 55.45 57.52 59.87 61.04 60.54 61.54 59.81 58.27 58.10 57.75 58.88 58.72 58.11 56.97 56.49 55.42 54.68 53.72 53.99 54.70 55.48 56.05 56.37 56.19 55.25 54.88 54.80 54.62 54.78 55.47 56.24 53.75 52.03 53.85
39.33 44.91 43.74 42.30 40.60 37.07 46.10 37.63 45.42 48.30 49.59 51.70 52.70 53.39 53.20 54.51 58.22 60.13 61.01 60.34 60.38 60.50 59.06 58.30 58.67 58.73 58.87 57.95 56.11 54.81 53.12 51.71 53.18 53.35 54.22 55.57 56.34 55.83 56.03 55.59 56.43 55.54 56.11 56.43 56.73 58.29 56.05 55.74 52.93
41.52 45.64 43.48 42.68 40.30 40.68 41.28 39.55 42.73 47.53 46.61 49.52 52.05 52.87 53.69 55.99 56.61 59.63 60.91 61.02 60.83 60.89 58.88 58.14 58.56 58.67 58.82 57.77 56.71 54.59 53.34 54.11 54.80 54.54 54.07 54.05 54.91 55.66 56.21 58.29 57.91 57.52 57.41 57.61 57.41 57.98 58.74 57.74 56.90
46.69 43.78 43.33 42.93 40.32 32.96 39.73 40.23 40.60 44.02 47.71 50.38 51.66 52.86 54.51 55.38 56.88 60.23 61.97 61.99 61.15 61.49 59.31 58.14 57.60 57.91 58.83 58.38 56.92 55.31 53.98 54.07 54.05 53.11 53.20 54.43 54.96 56.28 56.16 57.27 57.38 57.88 57.77 58.27 58.91 58.77 58.51 58.03 57.47
43.98 40.72 33.26 30.47 30.90 31.36 41.73 40.09 42.85 47.68 50.12 51.48 51.94 53.09 55.74 55.84 56.86 58.47 61.07 60.74 60.79 60.45 58.92 58.23 57.79 56.63 57.99 58.26 57.73 55.74 54.70 54.35 54.24 53.28 53.20 53.73 54.62 56.16 57.18 57.36 56.62 57.65 58.80 59.27 59.94 58.80 58.74 58.25 57.44
41.08 40.31 34.09 26.21 29.79 33.46 42.16 37.98 42.66 50.17 51.47 52.60 52.95 54.38 55.70 55.57 57.53 58.42 61.16 61.15 61.16 60.89 59.31 57.77 57.85 57.09 57.79 58.12 57.92 57.42 56.00 55.18 55.16 54.43 54.55 54.78 54.97 55.66 57.06 57.63 58.04 58.16 59.08 59.46 59.14 58.89 58.93 58.90 58.49
41.01 37.20 42.72 36.72 37.65 33.66 37.63 42.65 48.06 50.51 50.01 51.62 52.09 52.92 53.84 55.66 56.95 57.65 60.98 61.63 61.06 60.96 59.71 58.14 57.52 57.73 57.55 57.49 58.13 57.99 57.36 56.08 55.65 55.45 55.79 55.51 55.64 56.19 56.62 57.57 57.87 58.65 58.99 59.25 59.03 58.55 58.85 58.92 59.33
41.62 44.65 35.87 37.45 28.09 27.16 34.39 38.16 40.36 46.68 48.65 50.44 51.37 52.63 54.00 55.21 55.57 57.49 59.77 61.65 61.66 61.56 60.29 58.90 57.93 57.63 57.75 57.92 58.00 58.24 58.08 57.29 57.08 57.36 55.59 55.59 55.53 55.61 56.04 56.87 57.70 57.88 58.58 59.40 59.21 58.66 58.94 59.07 59.50
37.50 36.16 37.56 37.71 36.90 31.01 30.29 36.19 47.18 47.01 49.08 50.66 52.39 53.76 54.73 55.69 56.17 57.49 59.25 62.11 61.71 62.19 60.39 59.05 58.27 57.86 57.70 57.95 58.11 58.32 58.45 58.00 57.02 57.34 57.67 56.60 56.07 55.70 55.62 56.27 56.72 57.96 58.27 58.63 59.10 59.31 58.97 59.15 58.84
42.60 38.24 37.86 32.44 33.44 38.07 36.13 35.35 47.93 49.35 50.75 52.69 52.39 54.09 55.60 56.53 57.03 57.71 59.14 61.80 61.63 61.13 60.62 59.59 58.73 58.37 58.45 58.61 58.39 58.04 58.67 58.87 58.43 57.63 57.67 58.12 56.83 56.38 55.94 56.14 56.06 57.04 58.60 58.77 58.46 58.59 58.89 58.35 57.91

GFSSGP_sfc_wetblb_093.txt.gz
Wetbulb
60.00 58.96 54.63 50.19 41.28 38.36 35.37 40.79 44.22 44.42 46.46 48.89 51.78 50.68 49.74 49.53 52.65 49.12 65.69 69.26 70.47 68.99 70.63 71.31 71.57 72.94 72.81 72.53 72.42 72.22 71.58 72.50 72.36 72.78 72.57 72.19 71.96 71.92 71.85 71.49 71.26 71.19 71.60 71.04 70.81 70.44 70.50 70.30 70.29
56.59 57.61 51.26 45.84 37.92 33.02 37.25 43.97 44.20 46.64 49.45 50.94 52.44 52.13 51.52 50.38 61.85 64.02 65.17 69.95 70.40 69.81 69.79 70.04 71.16 72.33 73.12 72.52 72.22 72.18 72.57 72.97 72.44 72.51 72.53 72.35 72.03 72.01 71.85 71.22 70.83 71.53 71.70 70.73 70.12 69.66 69.81 69.82 69.83
58.11 57.89 44.98 41.88 37.39 35.37 37.01 43.41 45.38 48.54 50.67 49.98 47.93 51.67 52.77 56.51 63.62 65.50 67.13 69.27 70.04 69.59 70.54 69.85 70.32 71.37 72.57 72.40 72.15 71.94 72.19 72.26 71.93 71.14 66.37 66.61 70.26 72.19 71.75 71.16 70.72 71.10 71.36 70.41 69.80 69.07 69.08 68.99 68.66
53.92 50.35 46.31 38.77 37.32 42.57 44.16 45.74 47.37 47.98 49.55 50.41 49.38 47.65 55.15 61.99 62.91 66.44 67.90 68.13 68.09 69.33 70.10 69.15 69.56 70.47 71.87 72.48 72.34 72.11 71.77 71.40 67.84 66.41 65.85 65.29 64.93 70.06 71.47 70.62 70.55 70.86 70.67 69.64 69.18 68.58 68.48 67.95 67.53
50.31 46.09 38.68 36.71 39.29 44.01 46.98 47.30 47.71 46.73 47.89 51.45 50.17 47.92 55.05 64.02 66.47 66.30 66.30 67.21 65.94 68.38 68.86 69.30 69.23 70.30 71.22 71.93 72.41 71.95 71.24 70.72 66.79 66.46 65.89 66.06 63.61 63.94 70.13 69.49 70.00 69.83 69.73 69.24 68.36 67.71 67.60 67.31 67.25
44.30 44.34 35.06 33.79 40.09 46.15 48.14 49.29 49.51 49.68 50.26 51.58 51.90 51.19 53.58 63.49 63.60 64.73 64.94 64.32 65.52 66.39 67.80 68.41 69.65 69.97 70.53 70.79 70.50 70.50 69.99 68.72 66.86 66.39 65.70 64.86 63.45 62.84 67.75 68.58 69.11 69.15 68.85 68.11 67.64 67.21 67.17 66.83 66.10
42.77 39.31 35.94 38.24 41.32 44.34 47.46 48.55 48.79 49.46 49.21 48.33 53.68 49.59 54.74 60.10 63.63 64.00 63.56 63.87 64.12 64.77 66.44 66.46 67.49 68.56 68.81 68.98 68.34 67.56 67.67 67.04 66.57 66.28 65.10 63.81 64.51 66.40 67.69 68.20 68.40 68.60 67.96 67.44 66.97 66.35 66.22 65.63 64.91
45.66 41.56 37.76 41.29 40.73 41.40 48.42 48.46 49.33 48.70 46.31 51.14 53.76 49.17 52.57 60.83 63.71 63.16 62.74 62.88 62.83 63.73 64.28 65.35 65.79 66.64 65.48 66.08 66.87 66.44 66.20 65.86 65.57 65.57 64.66 63.61 64.07 65.79 66.84 66.73 67.63 67.82 67.35 66.85 66.20 65.41 65.12 64.62 63.32
47.05 38.79 37.62 40.02 41.42 44.49 49.19 47.08 50.55 51.05 48.68 49.32 51.94 50.57 58.97 63.28 62.72 60.79 59.95 60.43 60.95 62.12 62.97 63.95 66.42 66.89 66.35 65.16 66.62 66.53 66.58 65.57 65.62 65.15 64.73 63.61 63.66 65.57 65.60 66.13 66.72 66.79 66.39 65.75 65.39 64.66 63.65 62.86 61.98
45.08 37.87 41.05 45.49 46.53 47.26 48.60 46.29 45.76 45.70 46.41 48.04 50.49 53.47 62.24 62.42 60.82 59.47 59.08 59.06 59.67 60.57 61.28 62.19 64.65 66.35 66.42 66.32 63.36 63.75 65.29 64.84 63.93 64.27 63.67 63.42 63.50 63.73 65.41 65.77 65.51 65.51 65.44 64.84 64.36 63.54 62.58 60.19 56.24
44.11 41.88 45.93 47.17 48.67 49.08 46.06 46.19 47.64 43.14 42.52 48.21 49.15 50.69 60.34 60.10 59.13 58.57 59.69 59.79 60.13 60.82 61.21 61.80 61.82 62.73 65.22 65.04 64.61 63.15 63.73 63.81 63.72 63.93 63.62 62.75 63.32 64.07 64.09 64.51 63.89 63.15 63.43 61.72 60.95 60.41 57.88 56.61 55.82
43.48 46.80 47.52 47.83 49.34 48.80 46.34 46.23 46.13 44.17 46.47 50.03 49.73 52.27 58.62 58.49 57.81 58.14 57.89 57.68 60.03 60.49 60.44 60.67 60.62 61.93 62.85 64.86 64.59 64.36 63.53 63.22 63.65 63.55 62.56 61.76 63.15 62.40 63.38 62.62 61.77 60.96 60.22 58.34 58.16 55.97 54.88 54.57 56.20
46.18 47.47 49.00 49.52 48.80 47.74 48.58 46.84 46.24 45.99 49.75 52.11 52.09 51.68 50.31 53.97 57.13 57.65 58.44 57.86 60.93 59.63 59.66 59.38 60.31 60.82 61.50 62.27 63.32 63.59 62.91 63.37 63.37 63.53 62.33 63.45 62.94 62.36 62.54 61.46 60.52 59.10 58.80 57.16 55.59 54.37 54.73 54.30 56.18
48.82 48.72 48.90 48.57 47.68 48.43 47.45 46.15 45.50 48.18 51.35 51.06 51.19 49.40 49.08 49.51 50.77 52.46 56.25 57.35 60.21 59.18 58.64 59.33 59.54 60.03 60.47 58.82 59.82 60.47 62.31 63.58 63.62 63.46 62.52 62.80 63.35 63.02 61.86 59.60 58.39 57.62 56.66 55.60 55.78 55.10 54.28 54.66 55.08
48.81 44.85 46.94 47.38 47.13 45.71 47.91 43.40 44.38 49.52 50.80 50.16 50.42 50.38 48.87 49.37 50.88 53.25 56.82 57.83 60.03 59.48 59.63 59.09 59.33 61.12 60.37 58.70 58.98 59.64 61.03 62.94 63.60 63.20 63.29 62.72 63.37 63.01 60.70 58.51 57.82 56.90 55.13 55.28 55.91 55.62 54.78 53.87 56.16
44.32 43.68 39.36 44.34 46.76 47.44 46.33 41.06 47.22 50.38 50.13 49.41 49.94 50.24 49.42 49.52 51.10 54.88 58.23 58.85 59.93 59.06 58.43 58.90 59.76 59.92 60.89 59.59 59.64 59.45 61.34 62.74 63.81 63.17 63.23 62.72 62.88 62.88 60.05 58.05 57.52 58.14 54.82 56.86 57.19 56.43 54.94 54.23 54.62
39.94 35.91 38.67 41.51 46.98 46.70 46.07 42.85 47.83 50.44 50.62 49.77 48.98 48.95 47.72 48.76 52.94 56.66 59.00 58.77 59.04 59.04 58.66 57.46 57.79 58.99 59.89 60.34 59.43 58.99 60.57 61.36 61.02 62.50 62.91 62.60 62.85 62.75 60.53 58.77 58.14 59.23 55.91 58.12 57.19 54.59 55.39 54.49 54.51
34.66 36.49 37.34 38.43 43.59 46.17 44.39 44.38 47.43 49.26 48.17 47.49 47.74 48.03 47.56 49.59 54.00 57.56 58.80 58.95 59.27 58.37 58.02 57.48 57.65 59.57 59.42 58.88 58.40 58.22 57.88 58.28 59.31 60.35 61.37 62.47 62.49 62.17 60.70 60.20 58.64 58.67 58.12 56.62 56.12 55.19 54.67 54.91 54.68
39.83 38.96 38.32 40.81 44.14 43.70 42.89 43.10 45.35 48.63 47.38 46.52 46.91 47.53 47.68 48.92 55.01 58.24 58.98 58.19 57.93 57.48 56.77 56.63 56.85 58.86 58.10 57.04 56.13 55.77 55.09 55.59 56.17 58.10 58.94 60.20 61.28 60.66 59.88 59.00 58.23 58.77 57.37 55.79 55.33 54.98 54.05 53.15 53.34
38.10 37.04 36.75 40.39 43.66 43.73 41.85 41.95 45.06 47.83 47.26 48.03 47.20 46.98 47.79 48.76 54.30 57.53 57.78 57.76 57.50 56.27 56.39 56.39 57.22 58.69 57.73 57.11 56.71 55.90 55.12 55.32 55.38 56.08 56.26 57.07 58.28 58.89 58.06 57.13 56.14 56.72 56.07 54.46 54.16 54.82 52.73 52.51 53.39
36.14 35.84 37.47 38.28 41.11 41.78 41.09 39.85 42.47 47.10 48.25 49.26 49.08 49.32 48.31 50.13 54.05 56.76 56.98 56.86 56.71 55.78 55.66 56.35 57.56 58.59 57.87 57.48 56.15 55.20 54.73 54.42 53.60 53.38 53.92 55.60 56.83 57.68 57.01 55.67 54.46 54.29 54.24 53.65 53.50 53.74 52.59 51.32 51.27
33.52 38.76 39.16 40.00 37.54 32.08 42.36 30.97 39.94 43.99 45.67 48.84 49.23 49.39 49.50 47.91 56.48 57.17 56.70 56.53 55.84 55.92 56.33 56.80 57.73 58.39 57.69 56.87 55.26 53.43 52.57 51.77 53.18 53.14 53.66 54.66 56.02 55.86 55.58 55.03 54.49 54.17 53.59 52.79 53.82 55.21 53.07 51.39 49.98
37.93 40.76 39.79 40.58 36.54 35.44 37.46 34.23 36.86 43.28 43.50 46.69 47.79 49.12 50.29 48.40 56.50 56.77 56.67 57.24 56.33 56.29 56.04 56.25 57.72 58.05 57.21 56.32 55.29 53.53 52.21 52.41 53.42 53.50 52.98 53.86 54.91 55.65 55.15 54.97 54.69 54.51 54.28 54.02 54.38 55.01 54.19 53.84 52.37
43.95 41.68 41.45 39.75 38.15 30.22 35.77 35.46 33.79 39.46 43.76 47.00 49.03 49.95 49.16 48.70 56.42 57.56 57.89 58.02 56.39 56.20 55.83 56.46 57.32 57.58 56.94 56.04 55.05 52.58 51.63 52.20 51.87 52.22 52.66 52.93 54.09 54.30 54.53 54.68 54.51 54.31 54.82 55.99 55.92 56.28 56.00 55.87 55.33
40.40 37.21 28.51 27.28 28.50 26.90 38.48 36.06 36.76 43.62 47.23 48.15 48.46 50.11 49.46 50.97 55.66 57.09 56.56 56.64 56.49 55.65 55.36 56.12 56.89 57.30 57.12 55.92 54.67 53.84 53.82 53.43 52.62 52.29 53.08 52.30 52.52 53.45 54.32 54.59 55.23 55.83 56.21 57.35 56.58 56.72 57.26 56.95 56.31
38.80 37.95 29.76 24.40 26.31 31.23 38.48 33.84 38.77 47.50 48.86 50.42 50.32 49.31 49.74 49.56 56.07 57.33 57.24 57.07 56.96 55.90 55.59 55.76 56.35 57.11 57.18 56.23 55.16 54.32 54.77 54.51 53.63 52.95 53.47 53.24 52.76 52.94 54.42 55.29 56.52 56.63 56.54 57.13 57.34 57.47 57.45 57.16 56.77
37.92 34.69 40.56 34.37 35.47 31.59 34.38 38.31 43.62 47.76 48.82 49.66 48.80 48.61 48.84 50.26 55.30 57.56 57.68 57.89 57.39 56.22 55.74 55.52 55.65 56.71 57.45 57.32 56.03 54.89 54.75 54.69 54.07 53.23 52.74 53.87 54.20 54.41 55.10 55.13 55.33 55.75 57.40 57.80 57.73 57.41 57.11 57.10 56.93
39.65 42.43 33.90 34.71 25.21 23.62 31.20 34.24 35.65 42.12 46.28 48.33 48.31 47.40 48.33 50.99 54.17 57.80 57.94 58.03 58.18 57.08 56.40 56.10 56.15 56.21 57.05 57.66 57.29 56.03 55.25 55.08 54.94 54.46 52.87 53.97 54.12 54.97 54.74 55.73 55.75 55.80 56.30 57.41 57.55 57.26 57.32 56.92 56.55
36.22 36.03 37.83 36.66 33.81 26.03 26.23 32.35 44.23 44.81 46.37 47.07 48.55 48.82 49.62 49.79 50.39 54.10 58.36 58.62 58.99 57.94 56.31 56.00 56.04 56.59 56.50 57.29 57.67 57.34 56.18 55.57 55.32 55.06 54.14 54.98 54.60 55.43 55.18 55.34 55.23 55.47 56.66 57.50 57.08 56.18 56.68 56.93 57.07
39.08 36.61 36.23 29.69 29.28 32.62 32.19 32.47 47.17 45.71 48.05 48.70 48.67 49.98 51.15 50.54 51.33 52.49 58.70 58.60 58.37 57.54 56.29 56.00 55.93 56.27 57.05 57.43 57.34 57.44 57.52 56.88 55.30 55.19 55.29 54.96 54.60 54.34 55.22 55.47 55.61 55.87 56.26 56.83 57.34 56.73 57.15 56.60 56.50

GFSSGP_sfc_wetblb_096.txt.gz
Wetbulb
58.63 56.54 52.35 48.79 40.34 36.28 33.35 38.07 42.96 43.98 44.55 47.68 50.25 49.54 48.59 48.94 49.99 44.74 63.77 68.20 68.53 68.63 70.14 71.73 71.82 72.16 72.30 72.21 71.87 71.75 72.75 72.71 72.70 72.46 72.20 72.06 72.04 72.11 71.82 71.75 71.63 72.01 72.16 71.18 71.05 71.67 71.15 70.49 70.64
55.31 56.46 49.16 43.15 35.87 30.87 34.38 40.93 41.94 43.83 48.24 50.08 50.92 50.88 49.82 55.13 61.18 63.08 64.99 69.11 68.82 68.93 69.73 70.19 71.66 71.95 72.15 72.06 71.99 71.61 72.63 72.36 72.66 72.49 72.15 72.09 71.92 71.90 71.86 71.28 70.77 71.44 72.09 71.16 71.26 71.10 70.39 70.23 69.73
55.09 56.03 44.87 39.57 33.92 32.43 35.14 41.63 43.99 47.05 49.12 48.49 47.09 50.12 52.43 57.30 63.35 64.36 66.27 69.78 69.47 68.31 69.12 69.75 70.50 71.57 72.10 71.94 71.79 71.86 72.25 72.10 72.11 70.88 70.37 68.84 70.32 71.76 71.64 70.92 70.95 71.19 71.54 70.64 70.59 70.59 70.05 69.54 68.55
52.32 48.57 44.39 37.07 35.78 39.95 40.84 44.55 46.86 46.14 47.93 47.76 47.69 46.43 56.59 62.24 64.47 66.15 68.70 69.27 69.06 69.36 68.29 68.79 69.50 70.96 72.24 72.22 71.92 71.91 72.11 71.28 68.18 68.41 67.71 67.45 68.27 67.99 69.35 69.87 70.49 71.01 71.30 70.73 69.92 70.18 69.54 68.52 67.73
48.19 42.98 36.42 33.57 36.85 40.58 44.36 45.06 46.34 45.85 46.55 49.61 48.10 46.57 55.45 63.55 65.67 66.02 66.65 68.29 67.57 68.05 67.87 68.09 68.33 69.87 71.86 72.64 72.35 71.64 71.54 69.12 68.01 66.92 66.74 66.18 66.42 66.21 65.90 67.15 68.71 69.90 70.60 70.17 69.59 69.31 68.54 67.78 67.35
43.01 41.43 33.36 32.25 37.76 43.53 44.88 46.90 48.10 47.57 48.52 50.50 49.58 52.22 54.92 63.60 64.23 64.02 64.44 64.98 67.91 67.35 67.56 68.07 69.54 69.80 70.09 71.62 71.62 70.83 70.58 68.10 67.09 66.48 66.38 66.11 65.43 65.66 65.23 64.22 67.87 68.65 68.62 68.89 68.51 67.95 67.61 67.40 66.47
40.87 37.56 33.36 34.37 37.29 41.31 45.09 47.55 46.70 48.04 47.52 47.20 52.46 47.78 56.13 60.28 63.21 63.35 63.02 63.32 64.79 66.34 66.40 66.45 67.47 69.56 69.48 69.03 68.92 69.36 68.86 67.21 67.01 66.59 66.12 66.36 65.35 64.81 64.52 65.98 67.24 68.14 68.07 67.99 67.77 67.31 66.84 66.06 65.00
43.96 40.08 35.16 35.95 37.98 39.17 45.43 47.80 47.88 47.94 46.33 49.87 52.45 49.55 53.25 58.92 63.08 62.24 62.29 62.05 62.52 63.64 64.55 64.65 64.62 65.35 65.92 67.35 67.42 67.71 67.65 66.80 66.77 66.62 66.04 65.19 65.02 65.57 65.12 66.72 66.13 67.48 67.84 67.48 67.00 66.32 65.77 64.43 63.49
45.81 36.55 33.92 36.29 39.08 42.15 46.53 45.92 48.56 49.66 47.23 47.70 50.61 51.41 56.78 62.42 61.85 60.14 59.76 59.69 60.03 61.89 62.87 63.68 64.18 64.60 64.34 64.92 66.84 66.84 66.62 65.97 65.72 65.70 64.51 63.50 61.90 64.21 64.81 65.57 66.57 66.61 66.61 66.57 66.07 65.52 64.57 63.15 62.68
42.54 35.78 39.56 43.16 43.88 44.78 46.08 44.50 45.43 44.48 45.34 46.52 48.76 57.26 61.13 61.52 60.31 58.88 58.47 58.80 59.09 59.90 61.31 61.72 63.77 64.44 64.04 65.83 65.73 65.42 65.34 64.23 63.01 62.86 62.66 61.07 62.93 63.32 65.18 65.50 65.99 66.01 65.67 65.57 65.28 64.61 63.47 60.52 58.26
41.66 41.56 45.35 45.80 45.76 45.71 44.79 44.76 45.21 42.21 41.62 46.66 47.74 51.41 59.63 59.77 58.92 58.77 58.98 59.82 59.99 60.42 60.91 61.15 62.25 63.64 63.72 62.94 62.74 63.50 65.00 62.65 62.24 62.26 61.94 61.29 62.54 64.21 64.58 64.69 64.75 64.14 64.46 62.72 62.31 61.70 58.03 55.50 55.96
41.58 45.12 45.25 46.57 47.70 45.98 45.52 45.43 45.26 43.52 46.77 49.02 48.63 50.95 59.23 58.82 58.54 58.71 58.62 59.02 58.07 59.64 60.21 60.49 60.33 60.84 62.17 63.08 63.40 63.94 63.96 63.70 63.15 63.07 62.78 61.93 62.56 62.35 63.19 63.91 63.62 63.07 61.80 59.64 58.17 56.18 55.14 54.68 56.24
43.23 45.81 47.76 48.41 47.80 46.96 47.43 45.77 45.87 45.43 48.30 49.22 49.54 53.50 58.41 58.78 59.03 59.35 59.96 59.20 59.03 59.31 59.53 58.99 59.27 59.72 60.61 62.18 62.10 63.06 62.62 63.46 63.26 63.31 62.58 62.55 62.20 62.10 63.34 62.68 61.94 60.71 59.79 58.07 54.79 53.57 54.01 53.64 55.02
47.09 46.80 46.59 47.40 47.55 47.16 45.56 45.22 43.40 46.09 48.87 49.04 49.56 48.38 53.45 58.00 57.96 57.91 55.23 56.55 59.37 59.93 59.05 58.54 58.45 59.17 60.34 59.63 60.63 62.02 62.50 62.20 63.40 63.12 62.14 63.19 62.62 61.93 61.49 61.29 59.91 59.21 58.36 57.01 55.34 53.25 52.81 53.48 54.41
46.68 42.72 44.99 45.30 45.54 45.05 47.10 43.14 42.82 47.10 48.07 47.83 48.44 49.04 48.89 49.26 55.93 57.10 55.44 58.75 59.27 59.51 59.01 58.31 58.08 58.65 59.35 57.94 59.77 61.56 62.16 63.18 63.13 62.76 61.62 63.19 62.71 61.84 60.48 59.26 58.41 57.48 56.33 54.54 53.60 52.68 53.17 52.66 55.13
42.88 41.67 37.13 43.62 45.12 46.14 43.97 40.20 45.48 48.02 47.00 46.56 47.42 48.79 49.09 49.26 48.92 49.94 56.10 59.51 59.13 58.65 58.47 58.91 60.03 58.64 58.06 57.24 57.66 58.81 60.15 63.17 63.14 63.01 62.01 63.08 62.94 62.13 59.50 58.50 57.28 56.20 54.69 54.56 53.76 53.95 52.80 52.17 54.63
38.71 35.97 37.16 39.58 45.17 43.96 42.74 40.51 45.53 47.49 47.29 46.79 47.83 49.22 49.44 49.35 47.98 52.24 57.92 59.05 58.59 58.66 58.37 58.02 58.01 57.87 58.76 59.02 59.90 58.00 60.68 62.36 62.90 63.10 62.46 62.60 63.12 61.56 59.42 57.87 56.13 54.26 54.07 55.07 54.51 53.99 54.16 52.25 53.22
34.03 34.53 33.59 35.66 39.80 43.43 41.80 41.63 44.27 45.46 45.80 46.43 47.48 48.78 46.68 46.49 48.18 55.63 57.97 58.86 58.47 58.14 58.07 57.62 57.31 58.30 58.96 59.81 59.05 58.89 59.09 59.83 61.36 62.59 62.61 62.18 62.99 61.09 59.44 57.66 56.08 53.72 55.11 56.07 55.13 54.09 54.34 53.91 53.86
37.95 36.32 34.82 35.82 41.87 40.33 39.32 40.07 41.67 43.82 46.12 46.19 47.37 46.98 46.03 45.37 50.32 57.37 57.81 57.77 57.52 57.35 56.79 56.55 56.90 58.14 58.38 57.64 56.62 56.47 56.25 56.64 57.96 59.99 62.07 62.35 62.67 61.25 59.21 58.20 56.90 53.78 56.16 56.25 55.44 54.42 54.01 53.13 53.34
35.73 34.03 34.47 38.28 40.75 39.90 38.50 39.13 42.20 43.80 45.20 46.22 46.30 47.82 46.50 44.99 52.85 56.22 56.43 56.77 56.57 56.14 56.31 56.26 57.04 57.27 57.59 57.49 56.88 56.24 55.84 55.61 56.60 57.10 58.58 61.88 62.38 61.35 59.39 57.94 57.36 55.13 56.93 55.52 54.85 54.27 51.87 52.37 53.47
34.10 32.69 33.38 34.08 38.17 39.78 38.57 38.15 40.33 44.27 46.19 47.90 49.07 49.49 48.49 47.00 52.84 54.96 55.66 55.58 55.66 55.36 55.34 55.84 56.52 56.89 57.35 57.03 55.92 55.14 54.72 54.39 53.85 54.61 55.67 57.46 61.17 60.63 60.05 57.86 57.80 56.99 56.32 55.10 54.88 54.39 53.51 52.27 51.54
31.28 37.53 36.30 34.97 32.65 29.40 38.06 30.07 38.08 41.73 43.43 45.74 47.70 48.78 48.75 46.40 54.22 55.63 55.61 54.98 54.94 55.08 55.64 56.18 56.83 57.06 57.08 56.06 55.20 53.94 53.13 52.07 53.24 53.59 54.36 55.91 58.43 59.87 59.14 58.06 57.62 56.78 56.29 54.51 54.59 54.04 53.04 53.27 51.37
34.89 39.05 36.89 35.47 33.87 33.69 34.79 30.90 34.63 40.44 40.70 43.68 46.43 48.60 50.01 47.46 53.32 55.09 55.45 55.30 55.28 55.08 55.32 55.94 56.85 56.82 56.64 55.30 54.89 54.12 53.15 53.48 53.35 53.09 53.64 54.53 55.69 57.17 57.58 57.25 56.49 54.90 54.87 53.81 54.55 53.32 52.90 52.36 51.60
41.97 38.65 39.10 37.16 34.73 27.24 34.01 32.78 33.91 35.69 40.55 43.77 47.34 49.33 50.27 46.62 53.38 55.85 56.48 55.93 55.24 55.14 55.24 55.44 56.33 55.77 56.25 55.57 54.77 54.10 53.18 52.78 52.38 52.30 52.70 53.85 54.98 55.18 55.52 55.45 55.33 54.92 54.21 54.12 53.80 54.86 53.67 53.61 52.64
38.16 33.63 26.79 24.77 25.95 25.83 36.39 33.42 35.33 41.23 44.20 45.43 46.30 48.89 50.42 50.51 52.06 55.07 54.91 54.30 54.74 54.34 54.42 55.12 55.74 54.63 55.76 55.16 54.37 52.17 52.24 52.15 52.46 52.46 52.55 52.80 53.29 54.00 54.17 54.74 54.38 54.31 54.47 55.20 55.34 55.05 55.53 54.47 53.67
34.94 34.40 27.22 22.90 24.15 27.29 37.30 31.14 36.53 45.50 47.22 48.50 49.92 51.04 51.28 51.41 54.44 55.16 55.24 54.69 54.66 54.47 54.52 55.24 55.46 54.74 55.47 54.65 53.92 52.55 52.11 52.74 53.11 53.37 53.26 53.01 53.30 54.04 54.16 54.28 54.57 54.33 54.78 54.92 55.93 55.56 55.30 56.23 55.31
34.81 32.62 37.63 31.48 32.04 27.54 31.46 35.73 40.84 45.02 45.70 48.03 49.57 49.47 48.92 49.10 54.64 55.32 55.82 55.40 54.91 54.53 54.69 54.97 55.50 55.51 55.48 54.85 54.67 53.25 53.22 53.12 53.42 53.19 53.49 53.15 52.80 53.87 53.38 54.07 54.37 55.30 54.75 55.14 55.85 55.36 55.33 56.17 56.09
38.14 40.05 31.03 31.54 24.43 23.19 28.68 30.35 33.02 40.18 42.94 47.18 47.57 48.65 49.40 51.40 55.18 55.83 56.09 55.91 55.68 55.35 55.51 55.20 55.91 55.77 55.76 55.46 55.12 53.91 53.72 53.54 53.97 53.56 51.97 52.66 52.42 53.77 53.87 54.10 54.81 55.66 55.12 55.56 55.94 55.61 55.87 56.01 55.98
33.87 32.40 36.31 35.36 31.58 25.26 23.06 29.14 42.90 42.52 44.64 44.50 46.83 48.88 49.34 49.83 53.64 56.10 56.57 56.78 56.58 55.92 55.45 54.85 55.06 55.89 55.74 56.13 55.60 54.37 54.03 54.52 54.12 53.51 53.26 53.17 53.59 53.21 54.59 53.99 54.38 54.61 55.23 56.01 55.70 55.39 56.28 55.96 55.44
37.97 35.08 35.53 28.94 28.70 30.72 28.85 31.25 45.27 45.07 46.79 46.35 46.14 49.00 51.07 51.37 51.35 56.35 56.74 56.92 55.86 55.03 55.19 54.82 54.85 55.19 56.18 56.61 56.94 55.30 54.79 54.78 54.43 53.99 53.40 54.26 53.68 54.12 54.60 54.58 53.97 54.05 54.30 54.46 55.47 55.92 56.26 56.04 55.16

GFSSGP_sfc_wetblb_102.txt.gz
Wetbulb
59.77 54.54 48.63 46.26 38.68 34.56 30.61 35.16 37.55 40.16 42.15 44.66 47.46 46.89 46.98 46.84 47.09 41.23 60.84 66.80 67.65 68.35 70.40 70.78 71.47 72.06 72.25 72.32 72.32 72.40 73.15 73.63 73.63 73.38 73.13 73.06 73.16 72.97 72.73 72.59 72.45 72.81 73.19 72.71 72.39 72.64 72.15 71.50 71.28
55.18 52.43 45.96 40.38 33.83 28.51 31.47 37.02 38.94 41.66 45.16 47.12 48.26 49.04 49.55 47.72 58.14 60.44 64.09 66.97 68.16 69.03 69.94 70.04 71.05 71.52 72.02 72.02 72.08 72.45 73.01 73.22 73.08 73.04 73.01 72.98 72.91 72.74 72.70 72.45 71.36 71.84 72.66 72.61 71.95 72.04 71.62 71.08 70.04
53.69 50.92 42.58 37.17 30.63 29.59 32.02 38.97 41.52 44.37 46.08 45.83 43.94 47.40 51.66 52.65 60.59 61.55 65.38 67.47 68.11 68.56 69.79 69.83 70.69 70.88 71.67 71.76 72.17 72.29 72.23 72.20 72.51 72.49 73.03 73.11 73.04 72.65 72.47 71.83 71.11 71.26 71.76 72.19 71.56 71.28 70.88 70.19 69.44
50.12 47.37 41.91 35.23 31.71 35.46 36.79 40.67 42.82 44.57 46.06 45.03 45.07 44.78 53.43 60.23 61.63 63.52 66.78 67.48 67.20 67.64 68.83 69.39 69.64 70.39 71.36 71.73 72.06 72.23 72.07 71.47 71.48 71.73 72.43 72.68 72.77 72.54 71.99 71.04 70.53 70.47 70.89 71.43 70.79 70.68 69.86 68.87 68.20
44.65 41.38 34.57 30.68 32.39 36.26 40.57 42.56 43.03 43.76 43.71 45.67 45.42 43.63 51.08 60.94 63.66 65.81 66.74 66.95 66.00 66.26 66.74 68.36 68.90 70.24 71.26 71.86 71.79 71.71 71.51 71.03 71.02 71.27 71.61 71.81 71.92 71.44 70.69 69.94 69.87 70.12 70.15 70.83 70.43 69.70 69.03 68.20 67.44
41.19 39.31 31.76 30.30 33.63 38.32 41.26 44.35 44.89 44.66 45.76 46.53 45.89 48.72 52.19 60.78 63.39 65.42 66.90 65.92 66.34 65.68 65.61 67.01 69.73 70.15 70.58 71.25 70.91 70.60 70.06 70.26 69.93 70.19 70.89 71.22 71.13 70.55 70.08 70.11 69.98 69.89 69.81 69.60 69.33 68.37 68.18 67.50 66.82
39.66 35.53 32.23 31.12 34.06 36.63 40.35 43.90 43.94 44.63 44.51 43.74 50.04 48.64 52.30 59.29 62.22 64.36 64.81 65.45 65.68 65.32 64.85 65.18 67.03 69.55 69.78 69.55 69.39 69.12 68.98 68.70 68.36 68.67 69.16 68.84 68.65 69.14 69.79 69.67 69.28 68.66 68.46 68.99 68.76 67.92 67.24 66.73 65.70
40.88 38.42 32.16 34.25 35.22 36.68 42.67 43.59 45.17 43.60 42.94 47.51 51.04 47.63 47.84 57.79 61.99 62.66 63.74 63.90 64.55 64.40 64.24 64.32 65.04 66.35 67.79 68.88 68.49 68.22 68.11 67.52 67.23 66.70 66.90 66.18 66.20 66.47 66.72 67.42 67.91 68.59 68.60 68.30 67.58 67.11 66.31 65.60 64.45
40.95 34.63 31.70 35.32 35.87 38.42 42.58 42.00 45.25 46.18 43.83 44.92 47.96 50.88 54.52 60.79 61.36 60.85 60.32 62.95 64.40 65.01 64.53 63.70 64.40 64.50 65.15 66.57 68.74 68.33 68.11 67.05 66.81 66.94 66.47 65.07 64.71 64.84 65.16 65.47 66.27 66.95 66.57 66.75 66.30 66.02 64.85 64.14 63.66
40.36 34.28 34.97 40.50 40.79 41.61 42.66 41.02 41.20 42.39 42.11 43.85 45.40 53.48 59.40 60.59 60.17 60.31 59.50 61.86 63.13 64.37 64.55 63.45 62.70 62.45 62.66 65.26 67.34 67.27 67.79 66.81 66.25 65.85 65.53 64.68 63.55 63.69 64.50 64.69 65.40 66.46 65.76 65.76 65.82 64.63 64.01 62.78 61.15
41.20 37.44 39.81 42.19 42.52 41.71 39.22 41.00 43.39 40.80 40.88 44.79 45.00 46.39 57.85 58.57 58.41 58.88 59.14 60.21 61.69 62.90 63.24 62.46 61.22 61.11 61.35 65.11 65.90 66.14 66.33 66.71 65.74 65.42 64.47 62.67 62.47 63.37 63.91 62.59 63.65 64.07 64.93 64.08 64.43 62.67 61.04 60.24 59.68
38.48 41.53 43.79 43.20 44.60 42.69 42.54 41.14 41.87 41.29 44.66 48.29 46.88 47.42 57.23 57.95 58.36 58.89 58.53 58.61 57.76 58.50 61.24 61.46 60.84 60.44 60.64 63.96 64.01 64.61 63.52 64.38 64.06 63.77 62.66 62.04 61.65 61.39 63.02 62.93 63.62 63.36 63.05 63.28 62.46 59.67 59.30 59.08 58.49
39.40 41.61 43.56 44.74 44.56 43.50 44.72 43.66 42.96 41.85 46.16 48.27 47.56 46.93 52.79 57.28 58.81 59.66 59.96 59.00 57.81 57.61 58.95 60.09 60.72 61.08 60.91 61.64 62.19 62.95 62.88 62.80 62.08 62.38 61.71 61.49 61.76 61.30 62.21 62.70 62.29 62.87 62.93 62.11 58.46 57.28 58.33 56.99 56.46
40.75 41.37 43.09 43.90 44.86 44.02 43.93 44.93 42.16 43.50 46.85 46.43 46.51 45.57 45.98 55.59 57.38 58.20 57.05 57.32 57.05 58.90 57.99 59.48 60.20 61.37 61.88 61.95 62.16 62.68 63.59 62.74 62.33 61.88 61.51 60.88 60.78 62.27 62.29 62.52 62.21 62.20 61.65 60.93 57.26 56.64 56.68 56.46 56.35
42.46 38.86 40.87 41.01 42.14 42.21 43.41 40.18 40.81 45.59 46.37 45.44 45.54 45.42 45.03 51.50 55.41 56.66 58.01 58.06 58.25 58.76 59.27 59.42 59.64 60.08 62.05 62.73 61.11 61.84 62.20 62.82 62.58 62.03 61.52 60.96 60.51 61.10 62.78 61.83 61.59 61.45 60.95 59.40 56.43 56.03 56.41 55.90 56.01
39.00 38.24 33.75 40.27 42.26 43.93 44.74 38.11 43.01 46.25 44.43 43.78 44.35 44.79 45.33 45.56 51.50 55.50 57.66 58.34 58.85 58.32 58.58 59.70 60.60 59.54 60.61 62.05 60.59 60.71 61.25 61.89 62.10 62.07 61.84 61.38 61.95 61.89 61.90 61.17 61.17 61.70 60.02 58.66 55.88 55.22 55.24 54.86 54.34
34.03 29.65 33.16 36.55 42.76 42.61 41.41 38.45 41.71 44.00 44.06 43.53 43.98 44.40 45.02 45.25 45.78 48.76 54.39 57.15 58.49 58.42 58.79 58.52 59.40 58.83 58.80 57.86 60.20 60.83 61.08 60.90 61.68 61.95 61.61 61.86 62.33 61.34 60.81 61.59 60.18 60.66 58.51 57.35 55.93 54.89 55.10 53.97 53.72
30.48 31.69 31.72 32.42 36.73 39.37 38.47 38.61 40.62 42.47 41.15 41.62 42.26 43.68 44.10 44.49 46.19 47.32 46.79 49.30 57.55 57.91 58.64 58.56 58.68 58.37 57.21 57.47 58.38 59.08 60.19 61.16 61.61 61.41 61.19 62.38 62.26 60.65 59.79 58.76 58.06 58.35 57.53 56.09 55.75 54.35 55.31 54.84 53.97
34.46 33.17 32.46 32.62 38.65 37.26 36.64 37.02 37.01 40.03 40.26 39.18 40.55 42.32 43.11 44.28 46.87 48.41 50.44 47.51 55.16 56.51 57.31 58.01 58.30 56.95 57.69 58.36 58.24 58.14 58.76 58.88 60.36 61.31 61.90 61.84 62.21 60.36 59.25 57.61 56.33 56.63 55.87 54.98 54.64 54.21 54.31 53.98 54.85
34.66 32.60 31.32 34.46 38.08 37.17 35.97 36.87 37.82 38.01 38.57 40.30 41.74 41.53 43.30 44.51 46.30 47.79 53.51 53.55 55.35 56.63 57.05 58.25 58.08 57.65 58.10 58.50 58.92 57.84 58.03 57.55 58.88 60.57 61.78 61.88 62.20 60.38 59.12 57.50 56.25 55.83 55.25 54.00 53.82 54.02 53.63 53.80 54.70
31.83 31.60 29.99 32.25 32.85 31.43 31.09 31.84 33.57 37.24 39.36 42.49 43.38 44.19 44.25 44.51 44.84 46.21 52.75 53.69 53.96 55.77 57.08 57.60 57.21 57.85 58.14 58.21 57.01 55.53 55.31 55.26 55.83 56.97 58.78 60.83 61.87 60.52 59.42 58.04 56.19 55.20 55.51 53.98 53.68 53.87 53.91 52.64 54.07
29.14 33.86 34.01 31.74 28.38 23.50 31.12 23.07 30.13 35.65 37.94 40.09 42.38 43.02 42.70 44.17 48.84 45.76 49.76 53.27 54.65 55.69 57.57 57.17 56.99 57.56 57.66 56.88 55.67 54.28 53.17 52.71 54.27 55.77 56.77 57.96 60.43 60.62 59.72 57.76 55.67 54.36 54.38 53.94 53.73 54.46 54.81 54.29 52.00
30.95 35.21 32.80 31.71 27.63 25.35 28.52 24.54 28.79 35.89 36.43 39.25 41.38 42.50 44.31 47.83 48.59 47.18 47.77 54.07 55.00 55.97 56.27 56.89 57.17 57.02 56.76 56.19 55.65 54.43 54.33 54.31 53.91 54.45 55.49 56.31 57.17 59.88 59.67 58.00 56.29 53.46 54.35 54.84 53.55 53.80 53.35 54.82 53.68
37.39 33.97 32.94 30.92 27.93 21.36 27.36 26.77 27.00 31.78 35.73 40.43 42.31 45.52 47.47 47.46 48.76 49.84 49.97 53.69 54.68 56.09 56.03 56.63 56.28 55.71 55.86 55.20 54.61 53.39 52.52 53.21 53.05 53.56 53.92 55.27 56.21 58.29 59.78 58.80 56.64 54.37 55.04 54.84 53.61 54.34 54.10 53.92 54.28
33.26 29.76 24.47 23.22 23.33 23.02 30.89 27.90 32.08 37.01 40.33 42.96 44.07 45.04 46.07 47.49 48.07 49.01 50.02 52.73 54.27 54.94 55.18 55.83 55.35 54.35 54.90 54.45 54.08 51.68 51.76 52.86 52.88 53.02 53.64 54.27 54.69 55.73 58.42 58.03 56.43 54.55 56.28 55.28 54.30 53.68 53.61 53.41 53.27
31.17 30.50 24.81 21.01 21.93 23.66 32.21 26.74 31.83 40.52 44.19 45.24 45.31 45.06 45.85 46.48 48.21 49.49 50.55 52.23 54.20 54.96 55.16 55.61 55.21 54.51 54.90 54.34 53.79 52.13 52.08 53.01 52.89 53.27 53.93 54.50 54.72 55.23 56.79 57.39 55.20 55.06 55.85 55.05 54.70 54.39 53.62 53.27 52.85
31.07 27.31 33.70 27.45 27.56 25.27 27.23 32.03 36.59 41.40 42.66 43.80 44.14 45.04 44.75 46.18 47.74 49.03 50.94 52.76 54.64 54.76 54.90 55.17 54.92 55.35 54.66 54.21 53.29 52.37 52.25 52.65 52.74 52.73 53.63 54.30 55.12 55.23 55.73 56.55 55.45 55.79 55.67 55.18 54.63 53.63 53.88 53.68 53.21
33.89 35.81 27.62 27.62 22.37 21.20 24.76 26.43 28.84 35.90 39.35 43.09 43.03 43.52 45.38 46.86 47.50 49.12 50.96 53.45 55.07 55.19 55.25 55.71 55.40 54.89 54.56 53.90 53.10 51.90 51.83 51.72 51.92 52.00 52.18 53.88 54.82 55.24 55.21 55.17 55.11 55.20 55.42 54.98 54.90 54.56 54.66 53.53 53.55
30.41 29.58 31.62 30.91 27.76 23.35 22.11 25.04 35.39 37.99 40.40 42.34 43.28 44.90 45.80 46.70 46.92 48.37 51.54 54.77 54.98 55.26 54.64 54.74 54.72 54.95 54.35 53.96 52.95 51.39 51.15 51.50 51.77 51.96 52.36 52.50 54.37 54.48 54.68 55.28 55.08 54.78 54.78 55.16 54.78 54.35 54.07 53.77 53.54
33.60 31.59 31.49 25.72 25.28 27.59 26.20 27.77 42.30 40.16 42.66 44.07 45.03 45.94 46.89 47.83 48.18 49.56 51.85 53.84 54.39 54.47 54.27 54.33 54.70 54.62 55.11 54.41 52.96 51.11 51.41 51.52 51.24 51.70 52.02 52.66 52.02 54.35 54.51 54.47 55.00 55.35 54.96 54.90 54.27 53.84 53.94 53.41 53.43

GFSSGP_sfc_wetblb_105.txt.gz
Wetbulb
62.32 56.55 54.41 53.14 46.50 45.21 41.09 42.40 44.18 44.71 46.22 49.47 50.91 51.27 53.15 54.78 54.75 49.99 65.40 70.22 70.65 71.11 71.71 71.91 71.06 71.75 72.21 72.36 72.67 73.16 73.86 73.90 73.75 73.67 73.33 73.28 73.16 73.10 73.08 73.06 73.00 73.07 73.42 72.81 72.89 73.29 72.82 72.20 71.57
58.13 53.07 52.34 48.54 43.14 38.97 40.71 43.84 44.20 47.36 49.44 50.07 51.71 53.59 53.53 52.35 60.29 62.44 65.94 69.75 70.83 71.13 71.57 72.24 70.87 71.51 72.11 72.09 72.55 73.01 73.93 73.94 73.64 73.48 73.44 73.36 73.20 73.00 73.07 72.89 72.54 72.77 73.09 73.22 72.46 72.47 72.05 71.76 71.14
56.49 53.41 50.39 47.20 41.87 39.11 40.58 43.73 47.74 48.68 50.03 49.75 49.86 52.18 53.99 55.67 62.88 64.03 68.87 70.37 70.61 70.50 71.15 71.80 70.87 71.08 71.92 72.01 72.02 72.56 73.01 73.13 73.17 73.02 73.41 73.34 73.12 73.06 72.69 72.00 71.20 72.24 72.43 72.99 72.46 71.91 71.60 70.47 69.89
55.07 53.96 48.15 43.47 40.72 42.37 42.73 46.14 47.18 48.15 49.82 49.95 49.96 49.70 56.66 62.74 63.93 66.04 69.54 70.43 70.32 70.23 70.88 70.11 69.84 70.73 71.61 71.87 72.19 72.13 72.38 72.03 72.25 72.41 72.99 73.15 73.18 72.91 71.62 71.35 71.36 71.55 71.36 72.03 72.35 71.46 70.54 69.41 68.78
51.34 49.79 43.54 41.48 41.06 42.93 45.77 46.80 48.04 47.86 48.29 49.10 49.71 49.17 55.16 64.12 66.41 67.67 69.26 69.96 69.76 70.28 70.14 70.24 69.14 70.28 71.31 72.06 72.23 72.12 71.58 71.44 71.65 72.00 72.32 72.46 72.65 72.47 71.14 70.25 69.87 70.42 70.55 71.06 71.36 70.69 69.43 68.81 68.16
48.64 47.55 40.98 38.40 40.72 42.70 46.19 48.12 47.93 47.83 49.08 48.99 48.70 49.96 55.42 64.30 66.36 68.03 69.30 69.65 70.52 69.95 70.80 71.52 70.19 70.15 70.52 70.97 71.22 70.95 70.61 70.52 70.90 71.43 71.53 72.02 71.92 71.25 70.40 69.85 69.70 69.20 69.90 70.15 70.06 69.43 68.69 67.89 67.51
47.34 44.79 40.65 39.76 40.60 41.40 44.48 48.52 46.93 48.25 47.97 48.10 51.68 49.58 56.86 61.68 66.43 68.65 68.91 69.42 69.37 69.70 69.94 71.47 71.44 71.14 69.64 69.25 69.38 69.25 69.42 69.83 69.89 70.32 69.62 70.19 69.96 68.98 69.72 69.27 69.21 69.75 69.46 69.08 69.29 68.56 67.71 67.44 66.66
47.86 46.60 40.09 41.39 40.71 41.46 46.72 47.59 48.95 49.07 48.50 50.59 56.03 51.14 52.74 60.41 65.87 68.18 68.77 68.91 69.08 68.80 69.23 69.68 71.47 71.40 71.74 72.16 68.42 68.22 68.39 68.28 68.53 68.93 68.82 67.50 67.81 68.22 68.43 68.38 68.53 69.09 68.67 68.30 68.38 67.96 67.00 66.44 65.33
47.12 42.53 39.64 41.46 41.14 43.22 47.01 46.62 48.99 49.67 48.74 49.66 51.12 53.74 58.66 62.72 65.25 66.64 66.73 66.07 66.33 66.75 68.69 69.25 69.84 71.05 71.08 71.82 71.40 68.76 68.53 67.79 67.32 68.18 67.18 66.60 69.96 69.50 69.13 68.21 66.38 67.61 67.78 68.50 67.91 66.87 65.55 64.71 64.33
46.33 41.29 40.92 44.61 45.36 44.85 46.29 46.46 47.24 48.01 47.88 48.72 49.61 54.94 61.60 62.96 64.79 64.95 64.86 64.61 65.07 66.09 66.62 68.35 69.15 69.53 70.71 70.40 71.54 69.95 70.31 69.68 68.33 68.86 69.45 69.56 68.84 68.84 68.50 67.47 66.32 67.16 66.52 66.27 66.44 65.51 64.43 64.11 63.88
46.00 41.84 43.87 44.99 46.47 46.68 46.35 46.43 48.31 47.64 46.91 49.38 49.38 50.92 59.14 61.64 63.22 64.55 64.73 65.42 65.31 66.63 66.71 65.97 67.15 68.91 68.99 69.33 69.98 69.74 69.19 68.49 68.01 69.08 67.54 67.13 65.84 66.27 66.92 66.94 67.07 67.29 66.33 67.83 65.09 65.07 64.58 63.33 63.33
42.62 44.95 45.97 46.49 47.39 47.54 46.32 48.37 47.30 48.39 49.35 52.08 51.77 52.16 56.14 59.85 61.69 63.33 64.11 64.21 64.61 65.54 66.13 65.51 66.55 67.92 68.24 68.32 68.52 68.55 67.95 67.04 67.23 66.73 67.95 67.23 65.44 64.78 64.99 64.83 65.27 65.67 67.19 66.78 64.20 64.89 63.10 61.93 62.82
43.43 45.09 46.05 47.50 47.67 47.28 47.82 46.91 47.23 47.23 50.07 52.33 51.38 51.18 51.41 55.92 59.46 62.66 64.43 64.72 64.65 64.27 65.89 65.78 66.59 67.21 66.87 65.69 66.54 67.35 66.62 65.54 65.79 66.73 65.80 67.39 66.10 63.86 66.04 64.63 64.50 65.78 66.39 66.22 62.91 61.90 61.33 60.61 61.92
43.10 43.80 45.04 46.65 47.18 47.12 46.18 46.94 47.10 47.97 51.14 50.47 50.59 51.64 52.01 51.62 56.41 60.53 62.54 62.91 63.02 63.55 64.44 65.52 66.14 66.68 66.14 64.76 64.02 65.31 64.83 64.45 64.54 65.24 65.64 66.20 67.02 65.84 63.64 63.91 64.44 64.69 64.40 64.82 60.78 59.53 59.31 59.13 61.49
44.10 41.03 43.06 43.54 44.86 45.03 46.78 43.73 44.22 49.74 50.69 49.77 50.98 51.19 51.20 51.16 53.44 58.34 61.08 62.34 63.36 63.69 64.24 63.24 65.26 66.29 65.71 65.16 63.49 64.03 65.02 65.27 63.94 63.55 63.80 65.24 65.55 64.16 63.06 63.90 64.17 63.85 61.44 61.49 59.55 58.90 58.58 58.04 60.18
42.77 42.65 38.34 43.83 44.93 46.02 46.48 40.97 46.76 49.50 48.72 48.18 49.08 49.83 49.97 51.10 51.96 55.97 59.35 61.21 62.83 63.39 62.98 63.31 63.42 65.01 65.04 64.29 63.40 63.59 64.35 64.91 64.58 64.27 64.05 64.14 64.14 63.76 64.27 63.72 62.25 62.31 59.72 58.00 58.43 57.39 56.77 57.42 59.02
39.14 36.42 37.00 40.26 44.92 45.78 44.85 42.30 46.45 48.28 47.50 47.35 47.90 48.86 49.55 50.24 51.82 53.35 54.88 58.02 60.45 62.18 62.64 62.63 63.32 63.67 63.83 63.81 63.07 62.81 63.27 63.34 64.00 64.42 63.33 63.88 63.02 63.54 64.13 63.57 62.34 61.36 59.72 56.76 57.10 56.82 56.87 56.98 57.39
33.46 34.55 37.25 38.68 43.30 43.71 43.27 42.71 45.68 47.95 46.08 46.41 47.55 48.40 48.50 49.51 51.12 53.58 54.01 54.61 55.36 57.32 61.83 62.58 63.11 63.64 63.39 62.58 61.79 62.52 61.99 62.24 63.27 63.20 63.10 63.39 62.57 62.42 63.27 62.53 60.95 60.82 58.74 56.92 56.81 56.30 56.55 56.74 56.52
38.11 36.82 36.91 39.43 42.62 41.89 42.33 43.05 43.70 45.72 46.45 46.44 46.96 46.93 47.48 48.79 52.08 52.90 53.89 55.88 56.58 57.23 60.32 61.53 62.09 62.73 62.04 60.07 59.63 60.24 60.54 61.33 61.61 62.56 62.53 62.21 62.59 62.60 62.08 61.33 59.80 60.86 58.43 56.28 56.15 56.27 55.30 56.43 58.63
37.38 35.89 36.15 38.87 41.38 41.03 40.98 40.04 42.65 43.06 43.85 44.94 45.13 45.52 46.81 49.13 50.86 53.03 53.91 56.31 58.15 58.43 60.19 60.93 61.35 61.19 62.63 61.49 61.64 61.83 61.42 61.03 61.09 62.21 62.04 62.01 62.42 62.26 60.67 59.17 57.64 58.21 58.04 56.44 55.68 56.07 55.22 55.48 56.35
35.87 35.00 35.60 35.59 38.26 38.48 36.89 35.89 38.20 40.92 41.90 43.36 44.93 46.99 48.43 48.98 50.55 53.60 53.53 53.86 57.27 58.56 59.37 59.95 60.82 59.85 62.51 62.57 61.60 60.93 59.43 59.18 59.00 59.27 61.00 61.56 62.67 61.02 60.35 58.27 57.49 56.24 55.94 55.32 55.88 56.20 55.85 54.15 55.43
31.13 37.15 36.94 36.13 34.49 30.56 36.51 29.90 36.46 40.70 41.12 43.46 45.76 47.06 47.76 51.41 52.74 53.25 53.40 54.06 54.99 57.55 59.96 59.78 59.98 59.45 61.12 61.30 59.35 59.12 58.50 57.15 57.59 58.27 59.78 61.73 62.51 60.85 60.16 58.42 57.57 57.03 56.27 55.36 55.72 56.53 56.21 55.42 54.14
33.26 37.21 36.60 36.25 33.59 32.19 32.96 31.48 35.63 38.84 39.76 42.28 45.12 48.06 50.62 51.63 51.88 52.07 53.05 54.44 55.97 57.55 59.20 59.35 58.76 58.81 59.74 60.17 60.07 58.59 57.28 57.80 57.88 58.32 57.98 59.95 61.24 61.18 59.58 58.10 56.85 56.65 56.69 55.94 56.27 55.94 55.92 56.36 56.50
38.56 35.89 35.37 34.15 32.92 27.28 31.96 32.94 33.52 37.65 40.18 43.52 46.84 48.96 49.58 50.44 51.06 52.32 53.87 54.92 55.61 58.25 59.16 58.95 57.45 57.65 58.49 59.22 58.31 56.77 56.66 57.56 56.82 56.00 55.89 58.01 57.79 59.05 60.16 58.05 57.30 56.10 55.92 55.50 55.83 56.56 56.44 56.61 57.22
37.93 35.04 27.97 26.45 25.95 26.71 33.47 30.87 36.00 40.82 43.56 46.22 46.98 48.19 49.14 50.04 50.79 51.81 52.53 53.10 54.34 56.36 58.38 58.10 56.81 56.64 57.57 57.75 56.65 56.22 56.92 57.30 56.56 55.77 55.47 56.46 56.58 57.53 59.14 57.77 56.46 55.94 55.46 55.28 54.65 54.96 57.00 58.03 56.97
34.48 35.31 29.84 22.45 24.71 28.35 33.55 29.64 36.60 43.10 47.01 47.23 47.46 48.08 49.22 49.66 50.69 51.54 52.21 52.79 53.83 56.68 57.98 56.98 56.24 55.94 56.85 56.57 55.53 55.45 57.74 57.55 57.72 57.01 56.31 56.43 57.88 57.69 60.10 58.83 56.91 56.09 55.18 55.26 54.48 54.80 55.11 55.49 56.55
33.58 30.73 36.93 31.17 31.56 28.28 32.02 35.84 40.31 44.82 44.71 45.71 46.04 46.99 47.95 49.33 50.20 51.10 52.59 53.25 53.96 55.82 57.40 56.86 55.85 55.89 55.90 55.65 55.63 55.71 57.22 57.61 57.38 56.83 55.54 55.74 57.39 57.63 59.27 58.78 57.07 55.54 55.58 55.54 54.26 54.26 54.38 54.55 55.50
36.64 38.67 30.83 31.51 23.64 22.43 29.16 31.17 33.54 38.95 41.51 44.82 45.24 46.69 47.75 49.27 50.01 51.09 52.42 53.33 54.65 55.71 57.82 57.02 56.70 55.86 55.93 55.51 57.25 56.11 56.51 57.45 57.44 57.12 54.74 55.91 57.77 57.56 57.99 57.39 56.02 55.20 56.08 54.93 54.51 54.10 54.55 54.55 54.28
33.23 32.18 34.25 34.36 32.08 26.13 24.73 30.28 39.13 41.38 43.39 44.14 45.95 47.18 47.55 48.65 49.51 50.80 52.51 53.09 53.34 54.74 57.70 56.61 56.54 56.05 55.44 55.86 56.61 54.59 55.30 56.72 56.88 56.51 56.39 56.54 57.56 57.02 56.64 56.32 55.50 55.40 55.24 54.51 53.47 52.89 53.38 53.65 53.49
37.34 34.78 34.52 29.23 27.81 31.47 30.59 30.76 44.12 43.65 45.00 46.21 46.69 47.78 48.40 49.50 49.88 50.10 49.96 50.14 53.16 54.35 56.13 56.15 55.96 55.62 55.25 55.82 55.11 53.53 54.67 55.97 56.00 55.83 56.45 57.44 56.13 56.60 56.51 56.13 55.38 55.30 55.34 54.71 53.51 52.01 52.53 53.36 52.86

GFSSGP_sfc_wetblb_108.txt.gz
Wetbulb
62.18 63.38 60.08 56.68 48.88 47.96 45.71 46.01 49.45 49.48 50.01 53.16 54.19 55.79 55.40 56.36 54.52 52.23 67.97 71.66 72.05 72.30 73.62 72.36 70.34 71.87 72.56 72.96 73.32 73.88 73.76 73.92 73.96 73.84 73.58 73.62 73.62 73.68 73.51 73.29 73.17 73.26 73.68 73.33 72.93 73.26 73.33 72.69 72.25
63.14 58.97 56.99 54.54 45.62 43.75 45.54 48.72 48.22 50.64 52.37 53.42 54.15 54.28 54.39 53.96 59.94 63.77 67.52 71.73 72.38 72.80 73.92 73.55 70.55 71.44 72.45 72.58 73.30 73.67 74.07 73.89 73.73 73.80 73.72 73.67 73.71 73.49 73.40 73.08 72.67 72.98 73.56 73.51 73.05 73.11 72.79 72.03 71.36
60.62 57.68 52.53 49.27 46.48 44.00 45.34 48.12 50.19 51.92 53.26 52.87 53.56 56.38 55.52 55.40 62.32 64.82 68.79 72.11 72.41 72.33 73.73 73.78 70.45 71.13 72.08 72.27 72.87 73.43 73.53 73.37 73.37 73.41 73.80 73.66 73.51 73.57 73.28 72.69 72.38 72.93 73.28 72.86 72.80 72.37 72.05 71.28 70.24
56.79 55.02 53.00 46.16 44.93 47.90 47.61 49.42 52.51 51.12 52.85 53.92 53.60 52.52 57.68 63.94 63.92 66.65 70.94 71.75 71.73 72.03 73.13 70.94 69.78 70.92 71.96 72.15 72.76 73.07 73.12 72.74 72.75 72.95 73.42 73.54 73.50 73.35 72.76 71.86 72.04 71.97 72.17 72.84 72.91 71.97 70.94 69.91 69.14
57.48 54.26 46.67 45.08 45.82 48.44 50.20 51.01 52.77 51.03 50.82 52.37 52.97 52.33 54.73 64.34 67.69 68.41 70.80 71.48 70.83 71.96 72.97 73.60 69.48 70.55 71.70 72.32 72.31 72.64 72.38 72.25 72.29 72.61 72.86 73.05 73.12 72.47 71.74 71.31 71.42 71.29 71.87 72.00 71.57 71.21 70.03 69.08 68.76
51.10 52.21 44.75 43.52 45.96 47.95 49.89 51.69 51.52 51.31 51.14 51.78 51.94 52.94 54.81 66.44 67.92 68.85 71.37 72.13 72.46 72.20 72.93 73.49 70.73 70.41 70.76 71.53 71.63 71.26 71.22 71.31 71.60 71.93 72.27 72.56 72.02 71.14 71.04 70.53 70.67 70.44 70.82 70.79 70.76 70.08 68.72 68.70 68.34
50.08 48.40 45.04 45.88 46.01 47.10 48.04 51.53 50.48 50.63 50.63 51.41 53.79 51.66 56.82 62.84 68.70 70.50 71.42 72.88 73.40 73.12 72.95 73.79 73.59 72.24 69.72 69.58 69.99 69.86 69.83 70.48 70.59 70.80 70.96 71.15 70.61 69.91 69.97 70.17 69.91 68.96 69.77 69.20 69.74 69.10 68.03 68.16 67.49
51.71 50.16 46.43 46.73 45.47 46.13 49.89 50.27 51.40 50.71 50.84 54.89 56.32 52.66 54.77 61.82 69.11 70.36 71.05 71.91 72.63 72.18 72.53 73.06 73.42 73.01 72.28 72.88 68.75 68.78 68.89 69.05 69.59 70.21 70.07 68.57 68.62 69.12 68.98 69.13 68.74 68.69 69.58 69.01 69.36 67.63 67.34 66.87 66.14
53.18 46.50 44.81 46.50 46.25 47.87 49.84 48.69 51.88 53.40 52.41 52.97 54.35 54.84 58.74 64.35 68.29 69.56 69.24 69.96 70.96 70.83 71.38 72.36 72.50 72.38 71.92 72.13 71.51 69.02 68.62 68.53 68.37 69.54 68.51 67.03 72.37 71.64 71.01 68.76 68.05 68.47 68.22 68.39 67.88 66.94 66.54 65.21 64.77
49.00 46.09 46.91 50.49 50.33 48.55 48.96 49.64 50.83 50.70 51.05 51.91 52.64 55.90 60.54 63.68 65.57 66.99 67.40 67.35 68.70 69.31 70.24 71.28 72.11 72.24 72.10 71.79 73.05 72.59 72.12 71.51 72.34 71.64 71.59 71.87 71.56 71.43 69.93 68.60 67.07 67.24 66.52 67.26 67.17 66.47 65.16 64.91 65.06
49.15 45.73 50.27 50.38 50.65 51.00 50.00 49.84 51.69 50.12 48.68 51.69 52.21 53.56 55.67 59.69 61.95 64.41 66.05 67.51 67.57 68.86 69.78 70.54 71.74 72.33 71.91 71.70 71.67 71.45 71.26 72.29 72.08 72.44 72.17 71.86 70.84 70.91 70.47 70.49 68.96 69.08 67.16 67.65 68.01 66.16 65.94 65.13 64.00
46.19 49.45 49.99 50.95 50.63 49.54 48.79 50.99 49.64 50.65 51.18 53.77 54.49 55.49 55.95 56.35 59.66 61.44 63.27 65.93 67.39 68.15 69.30 70.55 70.82 71.59 71.80 71.39 71.17 71.61 69.48 70.87 70.41 71.45 70.82 70.57 69.41 69.32 69.42 69.42 68.83 68.50 68.33 68.13 67.93 65.17 66.09 65.04 63.50
47.39 48.67 50.15 50.63 50.29 50.18 50.43 49.19 49.52 50.60 53.30 54.62 54.78 54.96 55.26 56.45 57.88 60.51 62.56 63.98 66.48 68.09 69.37 70.33 69.30 71.15 71.26 70.85 70.63 70.42 70.84 70.00 69.55 69.79 70.33 70.13 68.38 68.28 68.81 67.26 67.18 67.78 67.44 68.33 65.18 66.60 63.87 63.28 63.39
48.63 48.61 49.03 49.82 49.86 50.13 48.41 49.00 50.17 51.52 53.81 53.66 54.22 54.66 55.48 56.15 57.18 58.72 61.31 62.90 65.05 67.23 68.76 70.30 69.68 70.56 71.23 70.71 68.52 69.40 70.20 70.00 69.71 69.45 68.66 69.27 69.66 67.43 68.51 68.06 66.19 67.28 67.63 67.91 65.73 65.83 64.75 62.78 62.80
47.18 44.31 46.37 47.02 47.68 47.29 49.11 46.23 46.94 50.85 52.21 51.80 52.64 53.62 54.96 56.42 57.28 57.25 59.94 62.73 64.69 66.06 67.54 68.95 70.18 70.73 70.82 70.28 68.87 69.18 68.69 68.39 68.87 67.75 67.25 68.19 68.07 68.15 68.26 67.81 66.32 67.23 66.22 65.89 65.51 63.59 64.05 62.57 61.56
43.95 44.74 40.87 46.86 48.22 48.04 47.71 43.93 50.24 52.86 52.60 52.40 53.26 54.66 55.15 55.85 56.49 57.67 59.65 61.08 62.77 64.32 65.40 67.60 68.06 69.43 70.27 69.79 68.65 67.20 66.87 67.25 66.14 66.08 66.19 66.94 66.96 67.67 67.10 66.74 66.48 65.40 65.86 63.98 61.81 60.41 59.60 59.44 60.15
43.66 39.86 42.13 44.31 48.80 48.05 46.91 45.20 50.44 52.54 51.77 51.78 52.56 53.54 54.20 54.84 55.78 57.20 58.36 58.83 60.44 62.09 63.76 65.54 67.92 67.77 69.22 69.60 68.38 66.66 66.45 65.96 67.52 66.77 65.72 65.08 66.27 67.05 66.17 66.39 64.51 64.39 62.59 61.21 60.38 59.36 58.95 58.36 58.72
38.61 39.86 41.69 41.79 46.48 47.04 46.30 46.24 49.83 51.16 51.49 51.29 52.34 53.49 54.14 54.52 55.29 57.24 57.81 58.66 59.06 59.91 61.30 63.25 65.56 67.16 67.81 68.97 67.47 65.34 65.52 65.44 66.49 67.11 66.52 66.94 66.46 65.61 66.16 65.42 64.24 61.94 58.90 57.91 58.11 58.03 58.30 58.01 57.70
41.73 40.02 38.63 41.89 45.48 45.15 45.09 45.92 48.45 51.11 51.16 51.01 51.83 52.70 53.37 54.23 55.68 55.67 57.05 59.88 60.65 61.60 61.68 61.29 63.65 66.01 66.24 65.35 63.63 62.62 62.05 63.39 63.94 65.78 65.95 66.73 65.91 66.46 64.80 64.16 63.13 60.89 57.90 57.74 58.40 57.84 56.62 56.87 58.27
37.63 35.65 38.04 40.27 44.04 43.94 44.07 44.08 47.40 48.87 49.21 49.98 50.00 50.22 51.11 51.80 51.75 54.77 57.86 59.84 60.79 61.87 62.53 62.86 63.85 65.48 65.99 64.23 63.40 64.30 63.31 63.24 64.12 64.60 66.01 65.11 65.58 64.88 63.30 62.45 61.94 60.01 58.52 58.57 58.81 57.62 56.31 56.44 58.16
37.96 35.90 34.93 35.95 40.79 42.56 42.29 40.55 42.79 45.95 46.94 47.54 48.44 49.26 49.87 50.75 52.65 55.46 57.26 58.92 60.72 61.16 62.13 62.52 63.69 64.84 65.91 65.72 63.18 63.86 63.69 63.34 62.51 62.81 63.66 64.25 64.67 63.91 62.83 62.35 61.73 60.62 59.23 56.88 56.94 57.00 56.18 54.34 57.03
34.92 40.72 39.04 37.33 36.05 33.89 41.02 33.84 40.55 42.76 44.59 46.66 48.39 50.09 51.18 53.69 55.41 56.53 57.32 58.45 59.96 61.10 62.47 62.90 63.49 64.36 65.08 65.57 62.37 62.72 62.09 60.71 62.61 62.03 62.76 63.00 63.47 63.00 62.93 63.06 62.07 59.87 59.00 56.92 56.88 57.35 56.56 56.41 55.09
36.59 40.25 37.93 37.96 37.03 35.72 36.94 34.29 38.39 43.01 42.17 45.19 48.25 50.57 53.71 55.01 56.15 56.07 56.93 58.45 59.70 60.93 62.55 62.96 63.21 63.72 63.77 63.82 62.76 63.29 63.76 64.14 64.32 63.88 62.94 61.48 62.54 63.06 62.93 60.61 58.82 57.44 58.07 57.30 57.22 57.10 56.62 56.12 55.92
40.74 37.84 37.86 37.79 36.30 30.00 35.59 35.30 37.32 41.05 43.55 46.03 49.69 52.28 53.54 54.73 55.26 56.11 57.49 58.44 59.08 60.54 61.85 63.04 62.51 62.41 62.24 61.70 62.70 63.49 64.31 64.01 62.36 60.80 59.62 59.29 60.64 62.22 61.36 59.91 58.83 58.27 57.92 56.85 57.11 57.34 56.50 56.30 56.46
38.48 36.26 31.08 28.89 29.04 29.79 38.48 35.82 38.72 43.24 46.04 47.97 49.51 51.32 52.76 53.79 53.84 55.06 55.98 57.06 58.07 58.69 60.23 62.00 61.91 60.75 60.57 60.28 61.13 63.04 64.58 63.54 62.69 62.21 60.93 58.36 59.29 60.30 61.11 58.57 58.47 57.44 56.97 58.56 57.74 57.71 56.97 57.15 56.48
36.14 36.52 31.59 23.80 28.23 31.26 37.16 31.63 37.93 44.90 49.14 50.68 50.70 51.39 52.28 53.17 54.06 54.45 55.43 56.61 57.69 58.24 59.50 60.61 61.21 59.39 58.99 58.99 59.54 61.55 62.71 63.60 62.75 62.00 60.44 59.59 59.54 61.33 60.16 58.91 59.56 57.72 57.55 57.68 57.47 56.98 57.02 57.66 57.13
37.23 34.27 40.40 34.33 35.02 32.34 35.85 38.80 43.43 47.25 47.73 48.97 49.51 50.02 50.96 52.49 53.86 54.51 55.73 56.86 57.46 57.50 58.69 60.23 59.99 58.81 58.61 58.18 58.26 59.01 61.25 62.91 62.20 61.97 61.24 60.11 60.49 60.43 60.99 58.59 57.65 57.31 56.81 56.36 55.55 55.89 56.22 56.90 56.96
39.19 40.99 32.66 35.39 26.20 25.39 32.36 34.65 37.17 42.34 44.81 47.40 48.03 49.15 50.64 52.50 53.95 54.56 54.90 55.38 55.75 56.28 57.43 59.61 60.52 57.91 58.68 57.85 57.32 57.04 61.01 62.30 62.24 61.51 58.46 59.38 59.27 60.38 59.95 60.00 58.05 56.83 55.87 55.74 55.23 54.72 55.31 55.63 56.54
34.92 35.23 36.59 36.93 35.28 29.41 29.26 34.13 43.26 43.43 45.64 46.19 47.78 49.68 51.02 52.62 53.44 53.68 53.75 53.90 53.31 55.23 53.60 59.48 58.61 57.33 57.53 57.24 56.65 58.41 60.52 61.37 61.04 60.12 58.46 58.44 59.94 59.90 59.75 60.45 58.26 56.54 55.67 55.53 54.62 54.11 54.48 54.58 55.23
38.68 35.96 37.24 31.52 30.67 34.05 33.34 33.93 45.93 46.20 47.12 47.87 48.90 50.61 52.43 53.08 53.27 52.80 52.48 51.32 50.63 48.43 46.32 56.51 57.10 57.02 57.80 57.20 57.27 57.99 59.05 60.50 58.77 58.58 57.80 58.57 58.76 59.49 59.63 58.13 56.91 55.53 55.51 55.13 53.81 53.56 53.82 53.84 53.99

GFSSGP_sfc_wetblb_111.txt.gz
Wetbulb
62.52 62.82 62.83 57.92 49.11 48.80 46.61 48.95 51.53 50.31 51.46 54.75 55.72 56.29 55.84 56.84 55.30 54.19 68.28 71.19 70.27 72.20 73.19 72.39 71.32 72.51 72.79 72.92 73.41 73.81 74.15 74.13 74.13 73.88 73.87 73.85 73.95 73.96 74.00 73.69 73.53 73.81 74.11 73.48 73.04 73.04 72.94 72.60 72.15
61.55 60.83 59.84 54.23 46.86 44.92 47.35 51.43 49.07 51.35 54.29 55.36 55.36 55.72 55.08 55.29 60.01 64.71 67.55 70.28 70.31 72.33 73.37 73.25 70.86 72.07 72.71 73.24 73.61 73.66 74.14 74.05 73.92 73.83 73.80 73.95 73.76 74.01 73.80 73.43 72.71 73.36 73.94 73.59 72.96 73.06 72.70 72.46 71.42
64.20 60.91 53.50 49.60 47.54 44.86 47.16 50.68 50.88 53.17 54.70 54.56 54.43 56.70 56.54 56.37 60.87 63.48 69.32 69.82 70.61 71.79 73.32 73.65 70.52 71.33 72.40 73.00 73.35 73.65 73.60 73.72 73.54 73.44 73.92 73.99 73.90 73.75 73.49 72.65 72.38 73.11 73.74 73.84 73.16 72.97 72.54 71.63 70.48
60.04 56.52 53.85 47.87 46.63 49.98 50.41 51.67 51.89 52.93 54.11 55.62 55.93 53.99 57.96 63.87 62.98 65.54 69.78 70.08 70.07 71.28 72.56 70.02 70.15 71.07 72.04 72.81 73.23 73.66 73.49 72.90 73.00 73.08 73.50 73.77 73.83 73.68 73.05 72.25 72.31 73.00 73.61 73.72 73.34 72.46 71.17 70.04 69.54
58.66 54.16 47.75 46.32 46.84 49.78 52.34 52.22 53.23 52.59 52.89 54.19 54.99 53.65 55.93 62.62 65.58 68.00 69.48 70.25 69.86 71.33 73.56 73.18 69.67 70.81 71.98 72.35 72.90 73.19 73.11 72.75 72.68 72.84 73.09 73.18 73.32 73.22 72.28 72.05 72.06 72.15 72.22 72.32 71.70 71.11 70.07 69.50 69.15
52.73 53.02 46.91 45.40 47.58 50.82 52.52 53.14 52.54 52.94 53.74 53.71 53.87 54.16 55.87 64.62 65.28 68.39 70.59 70.56 71.46 71.95 73.75 74.37 70.85 70.77 71.32 71.69 71.96 71.89 71.88 71.97 72.06 72.24 72.53 72.86 72.65 72.14 71.76 71.43 71.39 71.15 71.33 71.35 71.00 70.28 69.51 69.08 68.79
51.67 50.31 46.93 47.70 48.16 49.70 51.67 53.98 51.69 52.58 52.84 52.94 55.71 53.07 57.02 62.26 65.95 69.17 70.67 71.38 72.34 72.93 73.56 74.51 73.40 71.93 70.09 70.32 70.41 70.41 70.51 71.07 71.39 71.54 71.00 70.79 70.83 70.08 70.72 70.77 70.00 70.40 70.64 70.38 70.41 69.55 68.24 68.26 68.26
53.12 51.56 48.11 49.31 47.85 48.58 52.85 52.03 52.99 51.85 52.07 56.34 56.21 52.34 54.67 63.14 68.97 70.38 70.35 71.24 71.91 72.48 72.90 73.79 73.85 73.29 72.86 72.42 69.26 69.39 69.28 69.89 70.26 70.62 70.15 69.32 68.80 69.63 69.39 69.10 69.53 69.88 69.36 69.88 69.72 68.11 67.77 67.70 66.94
55.36 48.08 46.32 48.40 49.12 50.59 53.60 50.38 53.49 54.62 52.38 54.02 55.82 56.58 60.12 63.60 67.65 68.81 68.63 69.61 71.18 71.06 71.71 72.87 73.03 73.32 73.53 73.15 71.46 69.22 69.28 69.03 69.19 70.15 69.70 68.89 72.11 71.51 71.02 69.40 68.30 68.14 68.15 68.92 68.78 67.84 66.99 66.16 65.16
51.26 48.10 48.14 52.36 53.19 52.07 52.78 51.69 52.41 51.79 51.67 52.71 54.23 57.33 59.76 62.23 64.73 66.58 66.67 67.17 69.00 69.55 70.12 71.37 72.30 72.31 72.75 71.83 72.83 72.00 72.17 72.10 71.58 71.91 72.49 72.72 71.81 71.70 70.56 69.19 67.71 67.96 67.77 67.20 67.15 66.52 65.44 65.61 67.29
51.47 47.72 51.81 52.47 53.65 54.03 52.95 52.65 53.27 51.95 50.85 52.47 53.23 55.42 57.66 59.57 61.96 64.06 65.46 66.01 67.86 69.36 69.44 69.93 71.87 72.71 72.31 71.51 71.96 72.03 71.47 71.81 71.73 72.09 71.97 72.28 71.73 72.30 71.38 71.30 70.79 70.21 67.27 68.16 67.45 66.72 67.50 67.31 66.55
49.12 51.48 52.13 52.43 53.44 53.08 51.50 53.04 52.27 52.52 52.79 54.90 54.94 56.34 56.67 56.89 58.61 60.73 63.17 64.91 65.69 68.01 69.30 69.89 71.05 72.00 72.61 71.42 70.96 71.51 71.70 71.89 71.31 71.89 73.43 72.13 71.76 71.21 70.62 69.42 69.92 69.66 68.61 67.99 68.28 68.16 67.76 66.82 66.30
49.45 50.70 52.19 52.87 52.63 52.74 52.91 51.36 51.28 52.19 54.37 55.55 55.56 55.66 55.87 56.69 57.30 59.75 61.61 62.88 64.11 65.39 68.34 70.02 71.18 71.86 72.24 72.11 71.26 71.46 72.22 70.74 72.10 71.32 72.09 72.06 70.72 70.30 69.89 69.94 69.44 68.66 67.58 68.02 67.89 67.53 66.99 66.02 65.25
51.18 51.35 51.30 52.14 52.08 52.10 50.67 50.78 51.48 52.53 54.79 54.32 54.65 55.18 55.67 56.32 56.78 57.99 59.86 61.16 62.61 64.13 66.51 70.34 71.03 71.86 72.09 71.62 71.90 71.87 72.24 71.80 70.80 70.23 71.05 72.06 71.51 70.56 70.63 69.96 69.17 69.32 69.22 68.81 68.49 67.53 66.42 65.03 64.85
49.53 46.74 48.71 49.79 50.69 50.63 51.93 48.65 49.30 53.29 54.37 53.49 53.71 55.32 56.12 56.60 57.17 57.51 59.20 60.57 62.36 63.58 65.30 69.67 71.03 72.33 71.42 71.37 71.26 71.06 71.02 70.82 71.06 70.01 70.72 71.03 70.87 70.41 69.70 69.11 68.64 69.10 68.74 68.44 67.88 67.07 66.91 65.60 63.99
46.07 46.57 42.46 48.02 49.26 49.72 48.51 44.39 50.93 54.63 53.87 52.85 53.28 54.42 55.44 56.09 56.81 58.16 59.28 59.71 61.31 63.72 64.61 66.65 69.40 71.20 70.97 71.95 71.44 70.51 70.04 70.16 70.04 70.10 69.91 69.84 70.14 70.11 69.09 68.32 68.08 68.90 68.78 67.88 66.74 65.47 64.03 62.94 61.96
45.14 40.55 42.69 45.07 49.99 49.03 48.09 45.05 49.80 53.23 53.56 52.93 54.39 55.15 55.84 56.54 57.74 58.95 59.69 60.10 60.81 62.10 63.64 65.05 68.89 69.65 70.92 71.79 71.41 71.35 70.56 69.50 69.31 69.30 67.81 69.08 67.80 68.16 67.89 68.15 68.30 68.57 66.97 66.08 65.24 62.51 62.38 60.81 60.57
40.45 41.56 43.36 44.25 48.68 49.06 47.58 46.55 49.74 51.98 52.91 52.95 53.89 54.89 55.49 55.88 56.88 58.53 59.44 60.34 60.43 61.09 62.43 63.75 65.62 68.68 69.77 70.59 71.32 70.29 68.86 68.56 68.73 68.25 68.07 68.48 68.25 67.65 67.60 67.38 67.77 67.24 64.67 62.90 62.11 60.37 59.81 59.73 59.78
44.03 42.22 42.04 45.35 48.31 47.57 46.97 47.15 48.85 50.91 52.46 52.59 53.46 54.20 54.92 55.78 57.69 58.73 59.67 59.61 60.04 61.55 61.59 61.87 62.45 65.90 68.52 67.62 67.98 68.73 65.21 65.35 66.01 68.44 68.56 68.07 67.36 66.68 65.84 65.65 65.69 64.92 62.73 61.13 60.71 59.33 58.99 58.35 59.50
43.26 41.12 41.16 45.00 46.46 45.13 45.21 45.36 48.42 49.87 51.30 52.85 53.14 53.59 54.36 55.22 56.32 57.58 57.30 58.49 60.83 61.72 62.53 63.27 63.44 63.75 65.35 67.05 67.68 67.88 64.51 64.68 65.44 66.84 68.23 67.91 67.04 66.13 65.69 65.85 63.72 61.42 60.68 59.90 59.18 57.96 56.97 57.41 58.79
41.59 40.64 40.40 40.04 42.55 42.97 43.35 42.18 44.69 47.68 49.26 50.80 52.42 53.02 53.08 53.21 53.55 54.77 55.77 59.15 60.90 61.57 62.43 62.93 63.63 64.19 65.43 66.82 67.61 65.52 65.11 64.21 63.72 64.16 65.87 66.68 66.70 66.00 66.12 65.78 63.81 60.96 60.04 58.45 58.28 57.80 57.11 55.53 57.63
37.85 43.07 41.00 39.13 37.32 32.62 41.79 34.42 42.31 45.61 45.42 48.22 49.52 50.13 50.80 51.57 52.79 54.63 57.26 58.79 60.22 61.44 62.54 64.05 64.08 64.25 65.12 66.96 66.40 63.81 62.50 61.40 62.81 64.00 65.04 65.51 66.48 65.67 64.96 64.59 62.98 60.96 59.59 58.50 58.51 59.49 57.64 56.70 55.27
39.26 42.87 40.55 39.70 37.67 37.45 38.49 36.21 41.14 45.32 43.35 45.62 48.11 49.84 51.82 53.90 55.92 56.31 57.45 58.33 59.05 60.33 62.01 63.65 64.44 64.42 65.08 65.77 66.43 64.36 62.37 64.33 65.43 65.19 64.83 63.88 65.28 64.29 65.05 64.15 62.04 61.10 59.62 58.97 58.03 57.69 56.96 56.41 55.33
42.87 39.62 39.09 39.09 37.78 31.52 37.61 37.12 37.87 39.92 43.57 45.75 47.96 50.61 53.70 55.05 55.67 56.20 57.33 58.03 58.52 60.22 61.49 62.67 63.41 64.00 64.65 65.46 65.49 64.36 62.88 65.06 64.82 65.11 64.35 62.64 63.83 64.46 63.77 63.27 62.37 62.16 60.79 58.90 57.87 58.03 57.20 56.65 56.10
41.04 37.47 27.86 26.02 27.91 29.17 39.02 35.70 38.82 43.65 45.48 47.58 49.22 51.77 53.27 54.70 54.55 55.09 55.30 56.29 57.51 58.68 60.14 60.97 61.50 62.87 64.16 64.27 63.89 63.63 63.32 64.91 65.64 65.38 64.29 62.86 62.27 62.65 62.58 61.28 61.50 60.79 60.49 59.67 58.31 57.52 57.06 56.72 56.43
38.88 37.81 31.22 23.94 26.11 29.49 38.38 33.82 39.37 44.89 47.94 50.40 51.16 52.31 52.71 53.54 54.71 54.78 55.65 56.98 57.63 58.50 59.29 59.81 60.37 61.30 63.26 63.23 61.20 63.04 63.15 63.56 64.65 64.68 63.84 62.75 62.17 62.57 61.45 60.67 60.14 59.50 59.44 59.64 58.32 57.46 57.18 56.92 56.55
38.60 35.53 40.98 34.45 36.73 33.32 36.76 39.83 44.91 46.14 47.55 49.76 49.69 50.35 51.14 52.36 53.38 55.13 56.30 56.78 57.19 57.16 57.35 58.64 58.68 60.03 62.17 62.75 61.12 61.89 62.52 62.70 63.33 65.29 65.10 63.31 62.50 62.21 62.14 61.38 60.72 60.13 58.95 59.28 58.12 57.20 56.60 56.78 56.71
41.13 42.47 34.66 35.92 26.70 26.56 33.86 35.97 38.01 42.53 45.12 47.84 47.87 48.72 50.27 52.18 53.77 54.76 55.46 55.59 55.56 55.71 55.88 57.50 57.96 59.77 61.48 61.67 60.51 60.82 60.53 63.26 63.66 64.85 63.13 62.66 61.55 61.92 61.01 59.77 59.13 58.23 57.46 57.39 57.21 57.04 57.27 56.44 56.82
38.07 37.55 38.42 37.95 35.66 29.44 28.52 33.53 44.21 43.89 45.79 46.53 48.43 49.67 50.51 51.80 53.41 54.29 54.09 54.41 54.38 54.34 53.86 54.22 54.74 59.51 61.35 60.25 59.78 59.81 59.33 61.70 62.93 63.35 62.62 61.94 61.50 61.30 60.94 61.22 59.53 57.93 56.96 56.37 55.67 55.81 56.07 55.99 56.05
40.19 38.39 39.11 33.40 31.91 35.17 33.59 32.53 46.72 47.47 47.90 47.88 48.43 50.03 52.15 53.75 52.11 52.95 53.76 53.89 53.37 52.27 51.17 50.35 49.20 56.06 60.03 59.11 58.59 58.05 58.61 60.51 61.87 61.92 60.75 61.19 60.90 61.32 60.92 60.79 59.05 57.70 56.42 55.95 54.84 54.12 54.58 54.68 54.88

GFSSGP_sfc_wetblb_114.txt.gz
Wetbulb
62.42 61.02 60.90 58.44 47.85 47.35 44.07 46.61 51.29 50.14 50.70 54.63 55.55 54.54 54.74 56.46 56.26 54.15 67.85 70.30 71.98 70.91 71.16 71.47 71.79 72.67 73.19 73.18 73.69 74.03 74.25 74.10 74.10 73.98 73.77 73.73 73.81 73.93 73.86 73.70 73.73 73.85 74.56 73.86 73.51 73.14 72.84 72.74 72.22
59.02 58.40 57.92 54.42 45.02 42.10 44.38 49.97 48.97 51.12 53.81 55.35 55.11 55.01 55.23 54.85 61.86 64.46 66.56 69.49 71.82 71.55 71.51 71.36 71.47 72.36 72.98 73.15 73.71 74.06 74.31 74.13 73.97 73.96 73.85 73.68 73.80 73.78 73.73 73.33 73.01 73.64 74.15 73.66 73.21 73.16 72.94 72.50 71.66
59.11 60.62 53.77 49.03 45.27 43.04 44.72 49.74 51.28 53.01 54.86 54.38 53.61 55.53 55.76 55.19 61.51 64.45 68.34 69.62 71.49 71.13 72.07 71.48 70.92 71.77 72.76 73.10 73.49 73.63 73.76 73.42 73.70 73.54 73.84 73.86 73.95 73.77 73.53 72.88 72.36 73.26 73.97 73.91 73.38 73.06 72.14 71.46 70.69
60.30 59.30 53.83 45.32 44.15 47.24 47.92 50.86 51.95 52.38 53.87 54.87 54.43 53.08 57.02 63.77 61.90 67.20 68.40 68.99 70.22 70.80 72.76 69.27 70.23 71.33 72.42 72.99 73.54 73.58 73.35 72.89 72.93 73.08 73.48 73.87 73.95 73.69 73.19 72.20 72.21 73.25 73.84 73.43 73.76 72.22 71.13 70.46 69.77
59.96 54.10 46.14 44.37 44.91 48.31 51.44 52.57 52.56 51.27 52.76 53.30 54.06 52.55 55.80 62.60 64.65 67.59 67.99 68.96 70.01 71.95 71.85 70.54 69.81 70.99 72.10 73.09 73.54 73.43 73.10 72.63 72.74 73.06 73.16 73.12 73.44 73.15 72.47 71.89 72.06 72.18 72.17 72.63 71.97 71.32 70.34 69.55 69.20
53.15 52.95 44.57 43.07 45.68 49.09 51.38 53.05 52.61 52.35 53.48 53.39 53.46 53.49 56.64 62.82 64.06 67.24 69.21 70.33 71.82 73.40 73.05 71.03 70.60 70.86 71.36 72.21 72.54 72.39 72.21 72.16 72.22 72.37 72.54 72.93 72.82 71.72 71.96 71.57 71.75 71.42 71.38 71.51 70.78 70.10 69.61 69.11 68.89
51.83 49.08 45.35 45.49 46.22 48.29 50.82 54.58 51.85 51.68 52.31 52.52 55.06 51.75 57.25 62.10 65.56 68.30 69.46 71.36 72.43 73.60 73.54 71.56 71.30 70.95 70.44 70.26 70.69 70.84 71.11 71.38 71.48 71.55 71.47 71.61 70.40 70.36 70.57 71.17 70.62 70.28 70.52 69.54 69.67 69.02 68.71 68.60 68.48
53.57 50.84 46.01 46.99 46.18 46.88 52.13 53.35 53.37 52.04 51.19 55.91 55.83 51.22 54.17 61.57 66.80 67.95 69.02 69.68 71.35 72.33 73.48 72.25 71.77 71.39 71.03 70.69 69.53 69.69 69.83 70.12 70.57 70.94 70.51 70.41 69.58 69.90 69.72 69.74 69.86 69.68 69.94 69.34 69.58 68.31 67.80 67.64 67.04
55.53 47.44 44.98 46.28 47.09 49.10 53.49 52.25 53.34 54.55 52.17 52.96 55.05 55.13 61.37 64.62 68.14 67.24 67.82 68.30 69.81 70.69 71.52 72.64 72.09 71.52 71.36 71.06 70.54 69.29 69.58 69.65 69.69 70.43 69.83 68.48 71.30 70.60 70.22 69.17 68.75 69.26 68.92 68.25 68.94 67.62 67.09 66.35 66.28
50.94 47.54 46.46 50.75 51.67 51.10 52.76 53.08 53.32 51.62 51.00 51.52 53.25 57.41 60.40 62.40 64.98 65.36 64.98 66.25 68.31 68.92 69.61 71.44 71.61 71.47 71.79 71.36 70.88 70.41 70.54 70.32 70.64 71.20 70.83 70.34 71.18 70.49 69.81 68.81 68.11 68.04 67.26 67.82 67.44 67.24 66.30 65.59 65.40
49.52 46.27 50.16 51.32 52.92 53.17 52.57 52.61 54.32 51.21 49.74 52.40 52.65 54.62 57.48 59.25 61.19 64.52 64.77 65.62 67.89 69.10 68.93 69.55 71.31 71.96 71.38 70.07 71.11 70.69 70.63 70.37 69.99 70.33 70.62 70.88 70.64 69.94 69.07 68.75 67.92 67.75 66.95 66.61 66.37 65.69 65.64 65.99 65.52
46.44 50.75 51.16 51.57 53.14 52.87 51.73 53.53 52.21 52.53 52.14 55.16 55.10 56.46 56.79 57.14 59.38 61.26 63.19 64.34 65.86 67.94 68.47 68.70 70.72 71.49 71.28 70.72 70.67 70.66 69.81 70.25 69.83 69.96 70.25 70.30 70.06 69.56 68.92 68.13 67.98 67.59 66.89 65.67 65.52 65.50 64.68 65.53 65.37
47.43 49.05 51.45 52.93 52.61 52.73 53.13 51.72 51.72 51.79 54.56 56.22 55.58 55.69 56.50 56.75 57.13 59.36 61.33 63.24 64.42 65.89 67.90 68.01 69.51 70.55 71.39 71.23 69.81 70.20 70.38 70.19 70.07 70.15 70.44 70.34 69.75 68.86 68.78 68.07 67.79 67.12 66.91 65.94 65.32 65.14 65.24 65.18 64.60
48.72 49.23 50.45 51.78 52.01 52.58 50.68 51.07 51.94 52.48 54.84 54.10 54.53 54.18 54.63 55.71 56.30 57.13 58.23 59.76 62.12 63.44 66.71 68.49 68.72 70.42 71.24 70.85 70.78 69.53 71.23 70.15 70.30 70.13 70.20 71.10 70.26 69.11 68.31 67.76 67.14 67.02 67.16 66.45 65.68 65.28 64.84 64.90 64.21
49.06 46.14 49.10 50.02 51.22 50.69 52.14 48.21 48.66 53.05 54.19 52.85 53.42 54.24 54.92 55.59 56.15 56.28 57.48 59.68 61.74 62.28 63.97 68.33 68.95 70.67 70.84 70.86 70.44 70.70 69.95 70.71 69.35 69.84 69.94 70.17 70.18 69.47 68.27 67.77 67.19 66.87 66.37 65.66 65.32 64.92 64.36 64.05 64.01
44.74 45.29 41.56 47.85 49.32 50.25 50.03 44.43 50.68 53.17 52.91 52.25 53.09 53.84 54.55 55.52 56.21 57.05 58.07 58.50 60.29 61.31 62.25 68.37 69.44 70.61 70.35 70.57 70.38 69.74 69.74 69.94 70.14 69.27 68.94 69.26 69.73 69.46 68.01 67.34 66.89 66.99 65.75 65.28 64.46 63.92 62.92 62.99 62.32
42.90 39.00 41.27 43.50 48.80 48.23 47.74 44.35 49.79 52.83 52.51 52.15 52.86 53.38 54.17 54.77 56.13 57.41 58.32 58.45 58.32 59.63 62.85 63.85 68.92 70.50 70.17 70.14 70.77 70.01 69.46 69.17 68.63 69.14 69.05 68.79 68.99 68.93 67.77 67.17 66.75 66.90 65.32 64.33 63.92 63.72 62.73 62.13 61.91
37.10 38.89 41.21 41.98 46.45 47.74 45.96 45.73 48.66 50.56 50.96 50.75 52.75 53.92 54.22 54.46 55.07 57.15 57.85 58.61 59.02 59.49 62.45 64.29 67.86 69.34 70.36 69.92 69.61 70.22 69.21 68.49 68.44 67.98 68.06 67.90 67.06 68.21 66.88 66.03 66.29 66.23 65.35 63.99 63.67 62.79 63.20 61.92 60.91
41.55 41.01 41.23 44.41 47.47 46.52 45.81 46.23 47.85 50.30 50.56 51.02 52.72 53.37 54.34 55.52 57.15 58.57 59.59 60.12 61.89 61.14 60.71 61.98 63.72 67.73 68.71 68.35 68.35 68.17 67.50 66.82 66.89 67.11 67.33 66.56 66.41 67.00 66.14 65.55 64.86 65.13 63.82 62.47 62.49 61.08 59.96 59.36 60.48
40.55 39.55 40.79 45.17 47.50 45.52 44.97 44.83 48.42 49.74 50.62 50.88 52.14 52.86 53.76 55.05 56.06 57.52 58.77 59.87 59.69 60.09 62.26 63.02 63.03 62.99 65.34 67.56 67.28 68.17 68.02 67.21 66.46 66.16 66.84 67.21 66.86 66.50 65.24 64.97 63.63 63.94 62.36 61.33 60.79 59.44 57.93 58.37 60.05
38.87 38.60 40.68 41.33 42.86 42.74 43.65 41.29 42.85 48.52 50.45 51.67 52.96 53.93 54.50 54.21 54.89 56.16 57.50 58.87 60.71 61.15 62.24 61.97 62.25 62.82 63.40 62.95 66.15 66.58 66.01 64.81 63.63 63.86 64.40 66.58 66.29 65.80 65.26 64.22 63.63 62.76 61.72 60.25 59.91 59.29 57.64 56.29 57.93
36.47 41.90 41.99 41.98 39.51 32.53 42.18 31.64 40.55 44.36 46.06 48.10 49.10 50.52 52.92 53.88 53.97 54.24 56.04 57.98 59.50 60.93 62.64 62.49 63.36 63.11 63.44 64.69 63.83 64.96 63.01 61.89 62.98 63.29 63.69 65.35 65.48 65.02 64.92 64.53 62.87 61.61 60.97 59.62 59.31 59.20 58.45 57.59 56.05
38.38 42.97 41.94 41.45 38.14 36.00 36.74 33.32 38.16 43.26 42.84 45.73 48.55 50.01 51.13 52.49 52.14 53.90 56.69 58.15 59.36 60.63 61.73 62.23 63.05 63.16 63.36 64.01 64.17 64.73 63.45 63.48 63.15 62.69 62.51 63.29 64.15 64.44 64.08 64.25 62.78 60.97 60.08 59.51 58.76 58.25 57.78 57.70 57.05
42.80 40.89 40.80 39.98 37.22 28.94 34.64 34.45 35.85 40.58 43.53 45.70 47.68 49.01 51.36 53.55 55.23 55.42 57.45 58.28 58.95 60.25 60.64 61.29 61.26 60.90 63.30 63.58 64.01 64.68 63.07 62.63 61.98 62.42 61.83 62.33 63.36 63.67 64.10 63.45 62.43 61.12 59.78 58.82 58.69 58.59 58.03 57.14 57.47
40.94 37.37 28.72 26.36 27.05 26.74 37.38 34.17 37.30 43.84 46.40 47.32 47.61 48.57 53.45 54.55 54.75 53.85 54.91 55.73 57.16 58.06 59.14 59.33 59.35 58.81 60.53 63.27 62.77 64.09 64.04 63.06 62.36 62.98 62.77 62.15 61.87 62.22 62.72 62.91 61.64 60.84 59.76 58.87 58.94 58.12 57.76 57.00 56.13
38.09 37.02 29.47 22.39 23.87 28.17 36.57 32.11 37.56 45.13 47.04 48.56 50.36 52.50 53.36 53.26 54.71 54.94 55.64 56.26 56.09 56.53 56.29 56.46 56.00 56.67 58.75 59.00 62.12 62.76 64.28 62.86 62.97 63.83 63.92 62.01 61.53 61.75 62.75 62.52 61.84 60.63 60.22 59.23 58.71 58.06 57.40 56.92 56.21
37.80 34.27 40.26 33.80 35.43 31.96 34.67 38.02 44.11 45.56 46.56 48.72 49.92 51.06 50.79 52.21 53.61 54.17 55.36 55.49 54.91 54.51 54.83 54.49 54.49 55.30 57.14 57.64 58.97 61.96 62.05 62.60 62.20 63.84 63.38 62.61 62.23 61.91 62.27 62.00 60.36 60.14 59.72 59.07 58.24 57.31 56.91 56.71 56.41
40.47 42.14 32.96 34.54 26.14 25.25 32.04 34.30 35.72 41.53 44.78 47.62 48.09 49.15 50.43 52.05 53.44 53.93 53.56 53.58 54.11 54.38 53.95 53.41 52.88 53.08 54.63 55.41 57.75 61.10 60.61 61.77 62.51 63.27 62.06 62.34 61.82 61.19 61.20 60.36 59.44 58.74 58.65 58.71 57.76 57.01 56.93 56.25 56.45
38.02 36.45 37.49 37.24 35.17 28.07 26.90 30.81 43.16 43.42 45.88 44.64 47.79 49.57 50.70 51.92 52.40 52.88 53.32 53.54 53.54 53.69 52.46 51.43 50.10 49.54 49.92 51.75 55.99 60.32 60.01 61.02 61.89 62.22 61.79 61.46 61.36 60.96 60.76 60.04 59.36 58.81 57.80 57.99 57.15 56.71 56.37 55.79 55.87
41.01 38.23 38.46 32.45 30.74 34.08 33.00 32.60 45.76 46.04 47.78 48.39 49.16 50.94 51.01 51.06 50.79 51.16 50.97 50.74 50.69 50.85 50.66 48.46 47.62 47.15 47.00 48.53 57.49 59.39 59.86 60.10 60.83 60.98 61.05 60.73 60.11 60.66 60.61 59.47 58.46 57.52 56.77 56.73 56.29 55.83 56.05 55.59 55.21

GFSSGP_sfc_wetblb_117.txt.gz
Wetbulb
58.25 57.29 54.65 52.32 42.06 37.17 33.53 39.71 45.88 45.84 46.06 49.72 52.34 51.48 51.50 53.27 55.82 51.22 67.24 69.07 69.40 69.76 71.17 71.71 71.76 72.75 72.91 73.23 73.40 73.72 73.96 74.15 74.02 73.90 73.74 73.84 73.81 73.74 73.61 73.69 73.82 74.45 74.97 74.28 73.63 73.21 72.98 72.50 72.11
55.94 56.64 51.71 47.23 37.06 30.86 34.84 44.41 43.82 46.36 50.36 52.13 52.96 52.45 53.39 54.72 61.24 63.92 65.24 68.86 69.43 69.43 70.40 70.85 71.33 72.00 72.64 72.88 73.20 73.69 74.12 74.13 73.91 73.86 73.84 73.75 73.86 73.78 73.71 73.29 72.83 73.62 74.15 74.25 73.50 73.11 72.72 72.00 71.38
55.21 55.81 46.81 41.95 36.38 34.00 35.79 42.82 44.85 49.82 51.96 51.37 49.49 52.13 53.72 56.58 63.34 63.38 67.89 69.45 68.95 69.21 70.02 70.78 70.71 71.54 72.44 72.95 73.29 73.52 73.66 73.26 73.46 73.55 73.93 73.94 73.92 73.83 73.51 72.67 72.41 73.54 74.00 73.90 73.55 73.16 72.49 71.27 70.38
51.85 52.54 50.19 38.13 35.90 40.38 42.60 46.23 47.84 49.40 50.48 51.25 50.08 49.99 55.66 61.47 63.16 65.21 69.35 69.19 68.51 69.32 69.94 69.54 69.89 70.92 72.27 73.04 73.27 73.38 73.04 72.26 72.85 72.97 73.71 73.94 74.02 73.80 73.18 71.94 72.35 73.48 73.88 74.07 73.70 72.92 71.47 70.11 69.60
51.07 49.14 38.55 34.58 37.41 42.71 45.94 47.94 48.50 47.65 49.25 51.43 50.30 48.08 54.41 62.04 65.49 66.77 67.78 68.80 67.53 68.80 68.63 69.34 69.43 70.86 72.23 73.07 73.24 72.92 71.96 71.78 72.29 72.64 73.02 73.40 73.58 73.20 72.34 71.55 71.87 71.95 72.10 73.09 72.40 71.55 70.33 69.60 69.14
46.63 45.96 35.09 35.77 39.58 44.30 47.08 49.03 49.31 48.98 51.01 51.91 50.89 50.54 54.30 63.35 63.92 65.00 66.62 68.41 69.79 68.15 68.51 69.23 70.20 70.68 71.40 72.40 72.45 71.91 71.82 71.82 71.79 72.01 72.21 72.85 72.47 71.92 71.80 71.34 71.36 71.50 71.40 70.87 70.74 70.20 69.81 69.23 68.94
45.84 41.68 37.26 38.50 40.71 43.56 46.89 49.83 49.09 49.83 49.93 49.05 53.13 48.19 54.99 59.75 63.81 65.65 67.28 70.51 70.14 69.53 68.28 68.60 69.16 70.04 70.26 70.38 70.68 70.57 70.83 70.92 71.14 71.46 71.32 71.27 70.90 70.56 71.01 70.91 71.05 70.18 69.66 69.84 69.62 69.12 68.81 68.65 68.36
47.73 44.20 41.22 42.29 41.30 42.11 48.07 49.88 50.64 47.84 46.21 51.67 52.38 47.76 47.98 58.11 64.16 66.33 67.42 69.95 70.57 69.70 68.56 68.08 68.17 68.33 67.84 68.69 69.60 69.75 69.91 70.14 69.84 70.55 70.59 70.33 69.79 69.55 69.80 70.03 70.15 70.12 68.90 69.38 69.26 68.64 68.17 68.17 67.45
49.13 43.08 40.21 41.56 42.65 45.01 49.83 49.18 51.32 51.08 48.57 48.88 52.02 51.33 60.37 63.94 64.40 64.67 65.23 65.76 67.89 70.06 68.93 68.58 68.40 68.20 67.57 67.66 69.20 69.41 69.82 69.78 69.36 69.93 69.56 68.94 69.19 68.94 69.31 68.79 68.73 69.46 68.57 68.73 68.33 67.86 67.21 66.63 66.27
44.55 41.29 42.79 46.07 47.64 47.79 50.39 50.01 50.07 46.42 46.39 48.19 51.16 58.56 59.95 63.08 63.13 62.32 63.45 64.01 65.26 66.64 68.58 69.10 68.24 68.26 68.26 69.69 67.84 67.45 68.92 69.08 69.35 69.12 68.45 68.92 68.78 68.38 69.32 68.42 67.94 68.50 67.94 68.07 67.70 67.16 66.34 65.59 63.89
44.90 41.74 46.50 48.10 49.62 49.98 48.68 49.22 51.24 45.95 44.26 48.41 49.44 54.81 57.50 57.72 61.03 61.18 62.48 64.94 65.50 66.62 68.44 68.97 68.73 68.67 68.54 68.63 67.81 68.11 67.79 67.97 68.31 68.22 68.33 67.50 69.03 68.04 67.92 66.89 66.69 66.13 66.76 66.14 66.35 65.33 64.71 63.93 62.97
41.06 45.67 46.88 47.66 49.54 49.10 48.20 49.37 48.82 45.90 48.33 51.21 51.03 54.33 56.47 56.58 56.68 60.80 60.38 63.74 65.36 66.21 66.65 68.49 68.66 68.76 68.65 67.55 67.95 67.95 68.11 67.64 67.48 67.59 67.79 68.04 67.00 66.49 65.97 66.09 65.88 65.42 64.30 64.42 64.20 63.49 63.69 63.85 63.72
41.00 43.99 46.42 48.23 49.10 49.15 50.44 48.63 48.72 49.13 51.22 53.14 53.04 52.85 51.84 54.11 55.32 56.89 60.24 60.80 66.43 65.77 66.22 67.46 68.53 68.80 68.66 66.97 68.69 67.98 68.00 68.13 67.83 67.56 67.87 67.97 67.21 66.31 65.97 65.61 65.84 65.85 64.96 64.07 63.93 63.56 63.01 63.29 63.20
44.95 44.74 45.23 47.00 47.69 48.91 48.58 48.70 47.19 50.16 51.68 51.78 51.85 49.49 49.30 52.54 53.45 53.24 53.17 53.90 57.62 66.41 65.89 66.46 67.95 68.89 68.75 68.09 66.80 67.16 67.70 68.04 67.69 67.50 68.12 67.27 67.41 66.55 66.17 65.32 65.41 65.08 65.24 64.00 64.16 63.62 62.98 62.94 62.46
45.32 41.66 44.47 45.84 46.21 46.47 48.74 45.28 46.61 49.59 50.92 49.79 49.85 50.32 50.17 50.82 52.10 52.07 53.01 53.44 54.43 58.67 66.20 65.06 67.18 68.56 68.42 67.70 67.48 66.68 68.08 68.18 67.41 67.67 67.83 68.41 67.77 66.83 66.20 65.57 64.78 65.17 64.89 63.62 63.63 62.79 62.58 62.13 63.57
36.69 38.67 35.99 43.09 45.87 46.93 46.58 41.10 48.15 49.86 49.19 48.69 48.91 48.87 50.20 50.68 51.61 51.65 52.64 53.06 54.25 55.17 61.84 65.27 67.91 68.25 68.75 67.99 67.37 67.24 68.02 68.09 67.33 67.39 67.16 68.17 68.12 67.39 66.02 65.71 64.42 64.47 63.67 63.29 63.45 62.91 61.61 61.72 61.83
34.49 30.50 34.08 38.94 44.95 45.35 44.62 42.39 47.73 49.00 50.01 49.19 49.68 50.13 50.25 50.91 51.31 52.04 53.06 53.03 54.03 55.74 56.90 65.19 66.83 67.63 67.85 67.46 67.97 66.54 66.03 67.48 67.69 66.85 66.99 66.05 67.12 66.96 66.05 65.64 64.73 64.18 63.00 62.12 62.57 60.83 61.43 61.54 61.39
29.56 30.96 32.96 35.44 41.11 43.92 42.74 42.69 44.29 46.98 47.61 48.71 49.06 50.21 50.44 51.40 52.10 53.58 53.05 53.52 55.37 54.15 56.15 63.82 66.76 67.87 67.95 68.11 66.99 66.63 65.73 65.62 65.87 67.33 67.17 66.36 66.50 66.81 65.55 65.28 64.80 64.62 62.70 61.18 61.77 61.58 59.56 61.41 61.32
34.20 33.80 33.60 38.03 42.89 42.15 41.64 42.61 44.32 45.67 47.35 46.38 46.92 47.89 48.22 50.98 53.02 54.14 53.66 53.28 52.22 53.68 55.98 61.05 66.43 67.34 67.25 66.22 65.15 64.22 65.39 64.98 63.78 64.87 66.16 66.62 66.44 67.01 66.27 65.29 64.44 64.78 63.09 62.40 62.03 62.13 61.26 59.73 60.34
33.24 31.30 33.44 39.16 43.09 42.77 42.40 41.96 44.58 45.35 45.21 47.67 47.11 46.01 47.92 49.59 51.44 53.81 53.69 52.87 53.50 54.77 56.26 56.56 62.35 66.94 67.37 67.11 66.46 65.44 64.66 64.65 65.42 63.83 64.45 65.46 64.74 65.65 66.35 65.47 63.79 63.09 62.31 62.43 61.74 60.53 58.92 59.06 60.66
32.23 31.30 32.48 34.47 38.82 42.09 39.61 38.10 40.62 45.06 45.24 47.28 48.81 48.78 49.20 49.85 50.29 52.19 54.00 52.56 53.18 54.56 55.47 56.54 57.29 58.69 62.98 65.90 64.51 63.11 62.79 61.93 61.38 61.77 62.61 63.85 64.43 64.78 65.23 64.52 63.50 62.88 61.29 60.72 60.86 60.13 59.33 57.53 59.22
28.55 35.07 35.31 35.61 34.87 32.63 40.17 27.61 37.51 43.14 42.80 44.08 45.60 45.10 47.29 49.65 51.49 51.91 54.36 52.84 53.06 54.14 56.17 57.00 58.53 58.54 59.26 58.74 61.64 62.21 61.64 59.53 60.35 60.94 61.72 63.55 65.00 65.24 65.31 64.38 63.09 61.23 60.63 60.38 60.41 60.11 59.18 57.92 56.11
32.12 36.22 34.80 36.26 34.99 34.26 35.31 31.22 32.48 39.14 38.69 41.75 43.65 46.31 46.72 49.24 49.93 51.42 53.90 54.04 53.77 54.36 54.99 56.62 57.96 58.31 58.89 58.54 59.15 62.20 60.84 62.02 60.37 60.57 60.83 61.25 63.87 64.89 64.63 63.97 62.60 61.15 60.34 58.71 59.73 59.62 58.77 58.28 57.03
38.16 34.91 35.69 37.94 35.11 27.39 31.81 30.34 29.57 34.23 38.77 41.86 44.89 47.52 48.93 48.82 51.39 53.71 54.08 53.38 53.58 53.74 53.58 53.73 53.86 54.64 56.01 57.78 58.02 61.60 60.86 60.39 59.63 59.97 60.55 61.43 62.41 63.71 63.17 63.72 62.32 61.64 60.97 59.73 59.31 59.33 58.61 58.18 57.82
36.05 31.76 26.71 25.36 26.00 22.96 34.56 30.67 33.26 39.33 42.53 43.96 44.79 46.76 49.71 50.56 50.96 51.46 52.33 51.74 51.79 51.44 51.43 52.72 52.79 52.77 53.26 54.23 55.28 56.53 61.23 60.44 60.00 60.22 60.44 60.41 60.89 62.27 63.00 62.98 61.78 60.54 59.98 59.67 59.31 58.65 58.13 57.75 57.45
34.20 34.15 25.29 20.58 20.79 23.87 34.21 27.90 32.49 41.29 44.03 45.24 46.99 49.76 49.42 49.32 51.27 51.73 51.04 50.52 50.34 50.88 50.79 50.24 50.70 50.74 51.65 52.95 53.85 54.68 56.16 61.81 61.20 61.45 62.00 61.01 61.43 62.52 63.24 62.71 61.92 60.91 59.92 59.39 59.16 58.69 58.21 57.62 57.03
34.60 31.36 36.03 31.03 32.39 27.07 29.76 33.36 39.44 42.76 44.32 47.03 48.15 47.86 47.20 49.73 50.13 50.10 50.81 50.41 49.81 49.76 50.26 49.19 48.76 49.20 49.63 49.58 50.74 51.29 54.51 59.32 61.70 61.62 62.11 61.99 62.97 62.79 62.53 62.30 61.34 60.52 59.73 59.13 58.77 58.15 57.65 57.21 56.77
37.08 38.67 29.20 32.70 24.90 24.24 30.74 30.71 33.12 40.11 43.27 45.67 45.89 46.88 48.89 49.41 49.44 49.37 49.07 49.55 50.24 50.00 48.93 48.22 47.37 47.14 47.39 47.39 47.34 49.07 51.41 54.28 61.52 60.65 59.98 61.33 62.19 62.15 61.95 61.65 60.87 60.23 59.71 59.07 58.35 57.65 57.43 56.77 56.57
35.13 33.63 35.85 34.18 32.60 25.41 25.72 29.37 41.78 41.83 44.05 44.82 46.64 47.19 46.95 46.29 46.68 46.64 46.94 47.45 47.26 47.38 47.30 46.48 45.80 45.24 45.26 45.38 45.20 46.22 47.47 52.58 60.04 59.54 59.55 60.71 61.56 61.30 61.25 60.53 59.51 59.01 58.77 58.33 57.63 57.11 56.89 56.27 56.07
39.58 35.82 35.79 28.29 28.58 30.92 29.76 30.33 44.16 45.19 46.20 47.05 46.71 46.44 45.69 45.06 44.58 44.78 44.92 44.31 43.96 44.18 44.57 43.40 42.98 42.91 43.18 43.65 43.54 45.29 47.25 57.69 58.92 59.13 59.47 61.29 60.76 60.67 60.20 59.00 58.80 58.35 57.95 57.89 57.15 56.15 56.21 55.55 55.39

GFSSGP_sfc_wetblb_120.txt.gz
Wetbulb
56.45 54.80 52.85 50.82 40.10 35.44 31.73 36.54 40.94 43.92 44.00 47.80 50.97 51.26 52.59 52.50 53.98 49.80 66.51 68.63 69.34 69.89 70.82 71.52 71.76 72.73 73.27 73.64 73.29 73.35 73.76 73.91 73.79 73.62 73.45 73.46 73.60 73.67 73.94 74.17 74.22 74.38 74.20 73.61 73.28 73.11 72.59 72.53 72.21
53.61 54.81 49.78 44.48 35.98 29.70 33.07 38.94 42.34 44.99 47.21 49.81 51.45 52.01 54.00 55.37 60.73 64.23 64.83 68.51 69.36 70.03 70.59 70.90 71.38 72.11 72.57 72.98 73.17 73.39 73.98 73.86 73.76 73.67 73.65 73.67 73.60 73.36 73.59 73.65 73.58 74.06 74.34 73.68 73.36 73.01 72.39 72.01 71.62
52.80 54.28 44.08 40.12 33.59 31.65 33.57 40.55 43.51 46.15 48.92 49.78 48.00 50.41 54.19 57.09 64.43 64.81 66.89 68.56 69.25 69.63 70.42 70.62 70.81 71.27 72.16 72.45 72.93 73.20 73.42 73.08 73.21 73.30 73.65 73.82 73.67 73.54 73.12 72.61 72.68 73.12 73.78 73.98 73.29 72.78 71.84 71.00 70.22
48.95 50.81 47.46 37.64 34.44 37.25 39.52 41.79 45.20 46.25 47.75 49.48 48.45 48.23 56.44 63.17 64.64 66.24 67.93 68.13 68.11 68.84 69.77 69.52 69.88 70.88 72.08 72.68 73.02 73.28 72.90 72.49 72.55 72.70 73.39 73.67 73.85 73.46 72.71 72.03 72.54 73.25 73.55 73.88 73.43 72.34 71.29 69.80 69.49
48.70 46.44 39.35 33.67 35.77 39.65 42.99 44.86 45.77 45.82 46.28 48.87 49.36 47.04 54.08 62.11 66.31 67.19 66.37 67.88 67.28 67.78 68.78 69.38 69.16 70.80 71.98 73.07 73.16 72.72 72.17 72.07 72.09 72.64 72.81 73.21 73.42 73.12 72.12 71.58 72.31 72.62 72.92 72.87 72.36 71.49 70.20 69.36 69.07
45.70 43.96 33.46 33.62 39.39 41.93 43.47 46.70 46.81 47.10 48.68 49.50 49.19 51.16 54.14 63.33 65.89 65.68 66.43 67.13 67.83 66.94 68.24 68.89 70.08 70.83 71.41 72.11 72.11 71.26 70.48 71.21 71.48 71.95 72.33 72.71 72.41 71.91 71.60 71.20 71.61 71.46 71.90 71.62 71.18 70.13 69.69 69.11 68.94
43.48 38.93 35.58 35.79 36.98 40.40 44.69 47.26 46.56 47.83 48.72 48.41 51.40 47.73 55.32 62.31 65.19 66.21 66.41 67.71 66.77 67.11 67.68 68.00 69.01 70.47 70.43 70.10 70.14 69.70 69.97 70.47 70.72 70.86 71.12 71.25 70.72 70.61 70.77 70.91 71.14 70.96 70.75 70.45 70.21 69.34 68.81 68.76 68.49
46.21 42.13 36.94 38.25 40.35 39.72 46.97 48.05 48.07 47.62 46.34 50.61 50.82 48.78 53.75 60.05 63.43 67.18 67.97 67.21 66.41 66.58 66.96 67.21 67.18 68.47 69.53 70.21 69.24 69.19 69.53 69.49 69.94 70.20 70.32 69.71 69.41 69.61 70.05 69.84 70.21 70.19 69.99 69.82 69.43 68.64 68.24 68.15 67.46
44.45 36.97 39.08 40.46 40.89 44.24 48.37 46.97 50.11 51.56 47.74 48.43 50.48 48.96 58.20 62.05 65.75 67.30 67.30 67.18 66.35 66.29 66.22 66.80 67.09 66.44 66.28 68.15 69.94 69.37 69.62 69.40 69.17 69.78 69.78 68.85 68.94 68.94 69.41 69.09 68.93 69.40 68.74 68.83 68.63 67.97 67.37 66.76 66.49
40.76 37.57 40.02 44.62 46.58 46.66 48.82 48.12 48.03 46.71 47.15 46.96 54.45 58.55 60.56 63.49 64.99 64.92 65.23 65.77 66.15 65.56 65.72 66.53 66.71 66.44 66.17 68.94 69.15 69.24 69.93 69.95 69.03 68.97 68.98 68.92 67.68 67.28 68.69 68.40 67.86 68.62 68.09 67.78 67.38 67.12 66.58 66.04 64.18
38.60 39.25 44.49 46.62 47.00 48.15 47.56 47.92 49.63 45.47 46.23 47.80 50.82 56.62 60.72 62.41 63.09 63.90 64.73 66.18 66.50 67.23 66.81 66.87 66.76 66.60 66.76 67.23 67.09 67.81 68.36 67.97 68.14 68.40 67.07 67.34 68.15 67.36 67.07 66.21 66.81 66.56 67.28 66.40 65.98 65.33 64.45 63.96 62.87
36.04 40.92 42.66 44.79 47.27 47.28 45.99 46.41 46.97 45.00 47.73 50.93 49.17 57.77 60.49 60.92 61.36 62.69 63.34 64.47 65.41 67.17 67.57 67.41 67.17 66.92 66.89 66.91 66.51 66.77 66.87 67.18 67.41 68.63 67.45 67.23 67.34 66.41 65.76 65.24 65.00 64.75 64.09 64.43 63.93 63.20 62.95 62.75 62.42
39.88 41.04 42.17 43.51 45.38 46.32 47.94 46.56 46.95 47.65 49.92 52.24 51.47 53.82 53.09 59.66 61.18 62.69 64.03 64.74 65.30 66.05 67.61 67.61 67.61 67.37 67.37 67.12 66.52 66.74 66.46 66.53 66.66 66.98 67.41 67.57 66.93 66.75 65.58 65.04 64.86 64.09 63.13 63.69 62.80 62.31 62.13 62.11 61.98
39.93 40.16 42.02 43.90 43.29 44.47 44.57 45.34 46.57 48.44 50.56 50.72 50.54 49.12 50.10 51.57 53.89 57.56 61.23 63.26 64.44 65.85 66.15 68.02 67.85 67.79 67.80 67.42 67.19 66.76 66.81 66.65 66.65 66.60 67.39 67.46 67.21 66.78 65.31 64.91 64.97 64.45 63.48 63.17 63.26 62.54 61.75 61.85 62.01
39.25 34.83 37.35 40.28 43.56 43.53 44.85 41.86 43.31 48.46 49.86 48.91 49.40 48.72 48.84 50.07 51.54 52.47 56.32 60.40 64.78 65.48 66.30 66.94 67.64 68.09 67.88 67.05 67.60 67.05 67.20 67.50 66.88 66.88 66.83 67.12 66.94 66.47 65.82 64.84 64.57 64.44 64.66 62.91 62.51 61.36 61.04 61.55 61.51
34.67 34.73 29.74 37.29 40.78 43.64 42.89 37.09 44.73 48.55 48.28 48.69 47.59 48.02 48.33 49.34 50.51 50.66 50.75 51.39 58.57 65.50 65.09 65.60 68.15 67.77 67.78 67.22 66.75 66.63 67.14 67.29 67.34 66.90 67.30 67.01 66.74 66.54 65.48 64.96 64.46 64.28 64.03 63.06 62.61 61.91 61.23 61.36 61.31
31.66 25.82 29.16 32.54 39.10 40.46 41.32 38.82 44.92 46.85 48.19 48.46 48.44 47.28 48.09 47.49 49.21 50.21 50.94 50.64 51.33 56.39 64.59 64.58 66.17 66.92 67.31 67.18 66.80 66.38 66.98 66.97 67.17 67.29 67.21 67.30 67.08 66.63 66.00 65.37 63.98 63.77 63.10 62.72 62.54 61.77 61.77 61.09 60.85
25.94 26.67 29.12 29.31 33.80 38.12 38.30 39.69 44.30 45.89 46.81 48.08 48.42 46.83 46.89 48.19 48.96 50.76 51.01 51.31 51.55 51.11 57.80 64.09 65.31 66.56 67.40 67.30 66.75 65.47 66.56 66.72 66.72 66.96 67.11 66.38 67.34 66.56 65.98 65.04 64.13 63.91 62.34 60.77 61.43 61.08 58.50 61.61 61.93
31.87 29.44 27.72 31.65 36.16 35.00 35.92 38.67 42.02 44.41 44.61 46.36 46.92 46.08 46.83 48.28 51.15 50.76 51.65 52.22 50.75 49.93 51.83 62.77 64.00 65.66 66.89 66.45 65.48 64.34 64.27 64.81 65.36 66.25 66.81 66.34 66.38 66.61 65.46 64.91 64.98 64.95 63.02 61.41 61.09 61.20 60.98 60.57 61.79
30.58 28.72 28.79 32.63 35.66 35.16 35.46 36.75 41.34 43.79 44.70 46.41 45.92 44.53 46.73 46.32 49.14 50.98 51.34 49.29 50.48 52.32 53.46 61.93 64.32 65.30 66.41 66.71 66.68 64.98 64.06 63.90 65.07 65.39 65.78 66.49 65.74 66.03 66.27 65.19 64.38 64.92 63.38 60.94 61.10 61.68 59.87 59.49 61.23
29.46 27.41 27.98 29.12 33.16 34.74 37.03 35.64 38.86 43.22 44.62 44.93 45.03 45.12 45.97 46.50 48.03 50.41 51.27 50.05 52.48 53.28 56.51 63.11 65.54 65.89 66.31 66.22 64.38 62.85 62.62 61.60 61.37 61.27 63.57 65.12 65.45 65.45 65.76 65.20 64.39 64.16 63.80 62.55 62.40 61.70 60.46 58.34 59.99
25.58 32.51 31.71 30.81 29.07 23.61 36.48 26.93 34.23 39.83 42.21 43.04 43.61 42.85 43.70 46.31 48.71 50.00 50.05 50.59 52.42 52.47 55.76 57.54 59.06 59.52 60.47 62.42 62.64 60.78 62.19 62.15 61.55 62.59 63.01 63.48 64.66 64.55 64.87 64.02 63.42 63.58 63.29 62.64 61.83 61.38 60.64 59.16 57.65
29.83 33.73 31.30 31.85 29.85 27.87 31.33 31.27 33.13 37.41 38.28 42.20 42.42 43.27 43.70 45.12 48.20 51.94 51.65 51.89 51.69 51.67 51.67 52.64 53.83 54.12 56.42 57.22 58.28 61.53 60.94 61.69 60.07 59.89 61.76 62.89 63.61 64.70 65.12 64.27 63.98 63.00 62.37 61.40 60.74 60.25 59.46 59.26 57.92
37.83 32.59 32.92 32.39 29.82 21.57 29.12 30.97 29.15 33.25 39.43 40.93 42.37 43.68 44.82 49.99 51.56 51.84 51.77 51.24 49.72 49.81 50.46 50.63 51.05 51.23 52.71 53.83 54.61 56.72 58.62 59.78 59.50 59.26 59.98 60.13 61.67 64.10 64.29 64.18 63.25 62.91 61.88 60.17 60.30 60.09 59.41 58.76 58.06
35.22 29.97 21.33 19.46 20.49 23.17 33.09 31.46 33.48 37.44 39.36 41.44 43.12 44.62 48.07 50.64 50.32 49.21 48.92 48.81 48.93 48.27 48.97 49.91 49.58 49.23 50.25 49.85 49.72 51.25 52.20 54.35 58.89 59.97 60.92 60.98 60.49 59.50 61.86 63.01 62.53 62.20 61.83 60.72 60.24 59.29 59.15 58.73 58.01
33.72 30.42 21.61 17.00 21.59 23.42 33.14 26.97 30.71 39.51 42.86 42.97 44.07 47.72 49.63 49.01 49.24 47.91 47.95 47.98 47.71 47.54 47.04 47.15 47.23 47.25 47.74 47.74 46.97 47.79 49.52 50.54 54.02 59.92 60.82 61.04 61.28 61.64 62.53 62.18 62.40 61.99 61.24 60.30 59.86 59.26 58.81 58.73 58.15
32.29 26.41 33.21 30.08 31.28 25.12 27.13 30.58 36.85 42.07 42.38 42.44 45.86 46.39 46.17 46.48 46.32 46.61 47.08 47.11 46.20 45.86 45.51 45.29 45.29 45.46 45.73 45.89 45.66 45.54 46.12 47.61 50.82 53.41 60.86 61.49 61.42 61.22 61.87 62.84 62.30 61.26 60.30 59.88 59.31 58.83 58.18 57.91 57.65
35.84 36.67 28.76 30.94 22.84 20.82 27.30 27.74 31.88 39.61 41.35 43.24 42.27 42.28 42.74 43.58 43.55 43.71 43.40 43.95 44.48 44.50 44.31 44.10 43.80 43.06 43.13 43.15 43.58 44.19 44.31 45.89 48.08 50.46 53.92 61.03 61.43 61.17 61.44 62.17 61.90 60.89 60.00 59.40 58.83 58.37 58.21 57.39 57.29
34.08 31.22 32.87 33.54 30.24 24.89 24.65 30.92 41.33 42.27 43.03 41.56 41.49 41.68 41.43 41.42 41.38 41.15 41.39 42.50 42.73 42.60 41.87 41.40 41.01 40.57 40.83 40.93 41.79 41.89 42.50 43.83 47.22 48.36 52.42 60.00 61.13 61.64 61.31 62.02 61.40 60.41 59.59 59.11 58.39 57.81 57.45 56.99 56.65
38.42 35.09 34.44 27.08 28.13 30.35 29.08 29.59 42.73 42.61 42.96 42.45 41.54 41.30 41.52 40.89 40.14 40.10 39.41 39.53 39.45 39.03 38.82 38.54 39.19 39.05 39.92 40.31 40.47 40.56 41.57 43.08 45.60 48.77 55.57 60.02 60.18 60.84 61.29 61.99 60.96 60.03 59.35 58.69 57.83 57.01 56.97 56.47 55.67

GFSSGP_sfc_wetblb_123.txt.gz
Wetbulb
54.43 52.63 51.46 49.43 38.87 34.84 30.64 34.64 37.83 40.52 42.63 45.09 47.59 48.52 49.64 51.78 53.46 48.42 64.84 67.59 68.95 68.86 70.66 71.93 72.08 72.72 72.83 73.08 73.01 73.06 73.38 73.65 73.49 73.46 73.47 73.65 73.82 74.07 74.05 74.02 73.91 73.98 73.80 73.28 73.16 73.03 72.83 72.43 72.31
51.83 52.71 48.17 42.89 33.00 28.46 31.11 36.55 39.44 42.08 45.17 47.53 48.69 51.51 52.95 54.06 60.02 63.60 64.45 68.36 69.16 69.42 70.31 70.93 71.69 72.42 72.77 72.76 72.71 73.11 73.39 73.41 73.31 73.23 73.44 73.51 73.83 73.97 74.08 73.89 73.62 73.66 73.99 73.48 73.08 72.54 72.21 71.93 71.48
51.95 52.25 43.78 39.00 31.27 29.74 31.23 37.02 41.49 44.46 46.63 46.28 46.22 49.24 54.62 56.58 63.64 64.54 66.62 68.63 69.24 69.24 70.14 70.31 70.85 71.60 72.52 72.65 72.70 72.83 73.07 72.87 72.80 72.87 73.32 73.55 73.60 73.79 73.71 73.31 72.99 73.57 73.88 73.28 72.71 72.01 71.63 70.91 70.27
47.15 48.42 44.45 36.91 33.32 35.79 36.98 38.92 42.49 44.24 46.75 46.73 46.72 46.53 56.16 62.55 64.30 65.41 67.87 69.00 68.55 68.91 69.47 69.59 69.79 70.77 72.02 72.67 72.77 72.91 72.68 72.12 72.28 72.46 73.00 73.53 73.49 73.31 72.82 72.39 72.40 73.48 73.90 73.62 72.40 71.63 70.82 69.62 69.40
48.74 45.12 35.95 32.94 35.50 38.73 41.03 42.75 43.05 43.71 44.17 46.47 46.78 45.29 53.03 61.97 65.69 66.68 67.10 68.03 67.49 68.00 68.63 69.41 69.21 70.35 71.65 72.58 72.84 72.58 72.00 71.52 71.97 72.32 72.59 72.84 72.95 72.58 71.75 71.66 71.94 72.23 73.25 73.12 72.55 71.16 70.00 69.13 68.87
44.49 42.86 34.13 32.51 36.10 40.30 42.85 44.68 45.18 45.17 46.65 48.09 47.05 46.74 54.22 62.97 64.63 65.19 66.09 66.20 67.27 67.30 68.09 68.85 69.99 70.44 71.07 71.83 72.07 71.33 71.08 71.14 71.28 71.70 72.03 72.41 72.27 71.76 71.37 71.39 71.67 71.60 71.81 71.50 70.87 70.02 69.44 68.91 68.83
42.53 37.95 34.63 34.47 35.42 39.07 43.26 45.67 44.64 46.04 46.43 46.60 49.61 46.44 54.50 62.11 63.41 64.03 64.84 65.60 65.96 67.03 67.57 68.13 69.21 70.31 70.23 70.01 70.07 69.73 70.09 70.38 70.52 70.81 70.85 71.02 70.62 70.27 70.52 70.86 71.31 71.05 71.01 70.79 70.12 69.34 68.63 68.63 68.25
45.44 41.05 35.03 37.06 38.79 39.27 46.36 46.22 46.32 45.43 45.83 48.30 48.96 50.96 53.00 59.47 63.70 65.51 65.44 63.94 64.51 65.97 66.67 67.97 69.14 69.84 70.28 69.89 68.74 68.42 68.96 69.28 69.60 70.09 69.77 69.12 69.27 69.63 69.69 69.67 70.29 70.29 70.23 70.06 69.61 68.53 68.06 68.01 67.28
43.86 36.28 36.56 37.50 39.22 42.37 47.28 45.92 48.89 49.75 48.06 48.65 48.59 50.21 56.83 62.69 65.96 64.83 63.91 62.65 63.25 64.64 65.94 67.28 67.88 68.63 69.20 69.67 69.73 69.01 69.37 69.17 69.01 69.62 69.28 68.00 68.70 68.87 69.23 68.60 69.05 69.57 69.17 69.03 68.87 67.91 67.23 66.63 66.11
38.16 32.89 37.00 43.07 45.07 45.64 48.24 47.49 46.82 45.90 46.99 47.47 49.28 54.38 59.42 64.57 64.16 62.70 62.34 61.52 62.02 63.12 64.59 66.22 67.05 66.92 67.32 68.66 69.79 69.94 69.96 69.99 70.10 69.89 69.24 68.63 67.16 67.27 68.67 68.22 68.06 68.68 68.08 67.99 67.70 67.28 66.42 65.93 63.70
35.62 35.79 40.26 43.50 45.88 46.41 44.67 45.69 48.00 45.28 45.30 48.31 47.46 49.05 58.40 62.91 63.21 62.32 62.75 62.37 61.67 63.22 64.40 65.36 66.01 66.26 67.16 68.06 68.26 68.25 68.60 68.60 69.26 68.02 67.27 68.04 67.59 66.71 66.68 66.39 66.96 66.53 67.12 66.15 65.84 65.01 64.43 63.65 62.73
33.32 37.77 38.93 39.43 44.52 43.98 43.21 44.61 46.09 43.94 46.78 49.13 49.10 50.71 57.88 60.68 62.78 62.80 63.06 63.77 63.39 62.98 63.72 65.03 65.55 65.67 65.74 67.03 66.84 67.08 67.25 67.44 67.56 68.45 65.77 66.84 68.36 66.73 65.35 65.64 65.19 64.93 64.97 64.19 63.65 62.74 62.82 62.49 61.91
34.15 37.43 40.95 41.70 41.85 41.34 42.76 42.32 44.36 45.52 49.27 50.28 50.63 50.35 53.81 59.85 62.20 63.54 64.40 64.76 65.16 64.39 64.21 64.90 65.46 65.28 65.79 65.58 66.27 66.43 66.11 66.65 66.89 67.48 67.19 67.09 67.46 67.05 65.76 64.56 64.33 64.25 63.54 63.60 62.44 61.95 61.75 61.41 61.19
36.52 36.84 36.81 38.44 38.37 39.52 40.33 41.06 42.41 44.94 48.27 48.87 49.79 49.23 49.65 54.89 60.80 62.36 61.86 62.87 64.89 65.85 65.46 65.12 65.18 65.43 65.76 65.53 65.12 65.63 66.03 66.33 66.36 66.79 67.70 67.23 67.37 67.03 65.30 64.38 63.93 63.54 63.57 62.96 62.99 61.89 61.03 60.75 60.91
37.28 33.55 35.79 36.82 37.26 36.63 40.10 38.10 39.21 44.40 46.76 46.67 47.83 48.96 49.23 50.56 54.46 57.45 60.54 61.86 63.75 65.57 66.53 66.16 65.36 65.40 65.43 65.54 65.06 64.76 65.42 65.61 65.52 65.94 66.80 67.46 66.58 65.81 65.04 64.43 63.77 63.84 62.90 62.11 61.35 60.59 60.17 59.91 60.58
32.91 32.17 27.43 34.32 36.11 37.08 37.53 32.39 40.62 44.76 44.76 45.03 46.37 48.44 47.84 49.22 49.42 54.30 57.41 61.61 63.39 64.57 64.77 66.87 67.52 66.07 65.74 65.60 66.00 65.56 65.53 65.55 65.29 65.41 65.81 66.42 66.58 65.95 64.88 64.18 63.84 63.52 63.14 62.29 61.77 60.61 59.13 59.45 59.71
29.06 23.25 26.13 29.84 35.48 35.18 34.94 32.77 38.21 42.54 44.76 44.81 46.38 47.37 48.15 48.84 48.73 48.31 52.64 57.90 61.02 64.20 64.57 64.48 66.89 66.58 66.36 66.11 66.63 66.07 65.73 65.97 66.04 65.79 65.59 65.80 66.24 66.13 65.27 64.75 63.60 63.21 62.82 62.15 61.91 59.87 60.20 60.21 60.48
23.68 23.47 25.58 26.18 31.87 33.63 31.78 31.76 36.66 39.63 42.28 44.32 45.70 46.99 47.80 47.68 49.68 50.08 49.01 50.38 54.15 61.20 64.34 64.30 66.15 66.65 66.87 66.84 65.38 64.07 64.65 65.04 65.65 66.04 66.24 65.80 66.09 66.16 65.63 64.68 63.55 63.63 62.26 61.76 61.60 61.51 60.35 60.80 61.51
29.98 27.70 26.09 29.82 34.26 32.42 31.34 31.63 34.36 38.01 39.45 41.13 45.20 46.18 46.58 48.40 49.58 50.52 50.35 49.94 49.58 51.32 57.74 62.55 63.40 65.33 66.30 65.84 64.29 63.71 64.73 65.11 65.00 66.04 66.29 65.93 66.29 65.95 65.61 64.93 63.65 63.91 62.91 61.39 61.27 60.49 60.75 60.60 62.11
30.05 27.01 26.26 30.51 33.40 32.57 31.13 30.59 34.47 37.18 37.84 40.87 43.52 45.89 45.68 47.08 47.25 49.56 50.34 49.42 49.01 48.71 50.77 59.70 62.48 64.23 65.67 66.25 65.88 65.58 65.54 64.64 65.38 65.66 66.09 66.20 66.22 65.80 65.64 64.85 64.10 64.68 63.81 61.98 61.51 62.00 60.26 60.51 61.43
30.11 28.10 27.92 28.17 32.20 32.20 29.75 27.56 30.95 36.50 39.65 42.65 44.24 46.26 47.78 45.94 47.35 49.33 50.19 50.06 47.80 48.09 48.98 57.03 61.38 63.01 64.96 65.70 64.02 62.28 62.21 61.45 61.40 62.47 64.56 65.79 65.28 65.80 66.05 65.06 64.49 63.74 63.45 61.98 61.88 62.15 61.13 58.85 60.37
25.56 33.04 33.13 31.95 27.70 20.74 29.12 17.99 29.00 34.07 38.98 41.78 42.90 43.81 43.78 43.94 45.55 47.91 50.83 51.37 50.88 50.89 56.24 57.11 58.55 59.31 61.99 63.05 62.13 61.76 61.83 60.48 62.47 63.33 64.63 64.28 65.06 65.06 65.80 64.83 64.22 64.45 64.06 63.09 62.51 62.81 62.01 60.67 58.62
30.52 35.62 33.77 30.23 26.09 24.48 25.08 23.14 27.11 34.82 35.86 39.37 40.97 42.90 42.70 42.90 45.74 48.67 49.43 49.68 49.40 50.30 50.58 51.63 52.73 53.50 54.97 57.33 59.58 60.30 60.06 60.97 60.59 60.66 61.44 61.65 63.85 64.41 64.89 65.20 64.50 64.08 63.85 63.53 62.81 62.04 61.26 60.59 59.26
38.33 34.65 31.72 30.12 26.65 19.04 23.86 24.87 23.43 31.47 36.36 39.00 41.35 41.88 47.29 47.38 47.77 48.25 49.10 49.12 47.96 48.34 48.57 49.20 49.16 49.09 50.22 52.03 52.18 52.39 52.49 54.69 57.88 59.10 59.89 60.27 61.49 63.13 63.80 64.30 64.16 64.40 63.12 62.57 62.14 61.61 61.01 60.25 59.47
34.40 27.75 19.24 17.07 17.72 17.65 28.38 25.07 26.34 34.85 39.15 40.54 41.25 46.45 47.59 48.05 47.09 46.76 45.51 45.24 45.48 45.49 46.34 47.38 47.39 46.47 47.54 47.53 48.23 49.47 50.21 50.98 51.89 56.31 59.33 60.09 59.27 60.35 62.70 62.68 62.84 62.91 62.44 61.99 61.98 61.01 60.35 59.71 58.83
33.16 27.93 21.56 12.34 18.73 22.06 31.81 23.26 31.14 40.09 42.63 46.17 46.66 46.52 45.65 44.47 44.80 44.30 44.22 44.54 44.30 43.85 43.61 44.26 44.44 44.17 44.83 45.12 45.07 45.73 46.70 47.99 50.01 53.48 57.32 59.99 61.14 61.50 62.58 62.28 62.65 62.72 62.09 60.69 60.75 60.43 60.17 59.43 58.85
31.84 29.16 33.88 26.54 28.27 24.57 27.69 31.98 38.30 41.85 42.29 42.67 43.49 42.96 41.29 41.62 42.15 41.87 43.13 42.98 42.25 42.13 42.17 42.02 42.04 42.18 42.55 42.93 43.48 43.49 43.95 44.17 45.19 47.64 50.43 52.65 60.47 61.53 61.31 61.49 62.38 62.49 61.85 61.24 60.43 60.04 59.30 59.04 58.67
35.49 36.22 27.68 29.08 21.70 21.11 24.13 27.35 32.71 37.65 36.94 39.26 38.59 38.61 39.23 39.53 39.17 40.17 40.39 40.09 40.15 40.46 41.06 40.94 40.94 40.28 40.98 41.33 41.66 42.26 41.76 42.61 43.53 45.39 47.65 50.17 53.10 60.29 60.41 60.76 61.39 61.77 61.55 61.07 60.31 59.79 59.19 58.40 58.18
33.23 32.92 33.73 33.36 30.88 24.96 22.79 28.45 40.77 38.77 39.07 37.72 37.67 37.69 37.10 36.80 36.97 37.62 38.28 38.85 38.46 38.63 38.35 38.41 38.36 38.56 38.86 39.26 39.78 39.95 40.43 41.32 42.27 43.56 45.95 48.20 51.33 54.42 60.77 60.51 60.65 61.06 60.67 60.30 59.50 59.43 58.32 57.90 57.42
37.13 33.84 34.13 27.87 27.03 30.57 29.32 29.58 41.07 40.38 39.32 39.29 38.44 37.85 37.66 37.15 36.51 36.09 36.77 36.94 36.58 36.06 36.17 36.04 36.81 36.68 37.45 38.00 38.33 38.86 39.91 40.93 41.28 42.69 44.66 47.95 50.86 55.01 59.22 60.79 60.51 61.20 60.20 59.72 58.98 58.42 57.70 57.36 56.56